<?xml version="1.0" encoding="UTF-8" standalone="no" ?>
<gpx xmlns="http://www.topografix.com/GPX/1/1" xmlns:xsi="http://www.w3.org/2001/XMLSchema-instance" xsi:schemaLocation="http://www.topografix.com/GPX/1/1 http://www.topografix.com/GPX/1/1/gpx.xsd" version="1.1" creator="VisuGPX - https://www.visugpx.com">
  <metadata>
    <name>Coteaux de Crolles</name>
    <desc><![CDATA[Les coteaux de Crolles depuis Montbonnot en passant par la Pierre Champ-Bertin]]></desc>
  </metadata>
  <trk>
    <name><![CDATA[20171021 (norm)]]></name>
    <trkseg>
      <trkpt lat="45.22711" lon="5.80157">
        <ele>311</ele>
        <time>2017-10-21T12:18:58Z</time>
      </trkpt>
      <trkpt lat="45.22697" lon="5.80163">
        <ele>310</ele>
        <time>2017-10-21T12:19:45Z</time>
      </trkpt>
      <trkpt lat="45.22702" lon="5.80167">
        <ele>310</ele>
        <time>2017-10-21T12:19:57Z</time>
      </trkpt>
      <trkpt lat="45.22707" lon="5.80162">
        <ele>311</ele>
        <time>2017-10-21T12:20:08Z</time>
      </trkpt>
      <trkpt lat="45.22708" lon="5.80154">
        <ele>311</ele>
        <time>2017-10-21T12:20:12Z</time>
      </trkpt>
      <trkpt lat="45.22706" lon="5.80148">
        <ele>311</ele>
        <time>2017-10-21T12:20:14Z</time>
      </trkpt>
      <trkpt lat="45.22702" lon="5.80142">
        <ele>311</ele>
        <time>2017-10-21T12:20:16Z</time>
      </trkpt>
      <trkpt lat="45.22699" lon="5.80136">
        <ele>311</ele>
        <time>2017-10-21T12:20:18Z</time>
      </trkpt>
      <trkpt lat="45.22628" lon="5.79969">
        <ele>310</ele>
        <time>2017-10-21T12:20:53Z</time>
      </trkpt>
      <trkpt lat="45.22622" lon="5.79959">
        <ele>310</ele>
        <time>2017-10-21T12:20:56Z</time>
      </trkpt>
      <trkpt lat="45.22623" lon="5.79947">
        <ele>310</ele>
        <time>2017-10-21T12:20:58Z</time>
      </trkpt>
      <trkpt lat="45.22628" lon="5.79939">
        <ele>311</ele>
        <time>2017-10-21T12:21:00Z</time>
      </trkpt>
      <trkpt lat="45.22635" lon="5.7994">
        <ele>311</ele>
        <time>2017-10-21T12:21:02Z</time>
      </trkpt>
      <trkpt lat="45.2264" lon="5.79943">
        <ele>311</ele>
        <time>2017-10-21T12:21:03Z</time>
      </trkpt>
      <trkpt lat="45.22644" lon="5.7994">
        <ele>312</ele>
        <time>2017-10-21T12:21:05Z</time>
      </trkpt>
      <trkpt lat="45.22651" lon="5.79936">
        <ele>312</ele>
        <time>2017-10-21T12:21:08Z</time>
      </trkpt>
      <trkpt lat="45.22657" lon="5.79933">
        <ele>312</ele>
        <time>2017-10-21T12:21:11Z</time>
      </trkpt>
      <trkpt lat="45.22661" lon="5.79929">
        <ele>313</ele>
        <time>2017-10-21T12:21:13Z</time>
      </trkpt>
      <trkpt lat="45.22665" lon="5.79925">
        <ele>313</ele>
        <time>2017-10-21T12:21:15Z</time>
      </trkpt>
      <trkpt lat="45.2267" lon="5.7992">
        <ele>313</ele>
        <time>2017-10-21T12:21:18Z</time>
      </trkpt>
      <trkpt lat="45.22675" lon="5.79915">
        <ele>314</ele>
        <time>2017-10-21T12:21:21Z</time>
      </trkpt>
      <trkpt lat="45.22678" lon="5.79909">
        <ele>314</ele>
        <time>2017-10-21T12:21:24Z</time>
      </trkpt>
      <trkpt lat="45.22682" lon="5.79904">
        <ele>315</ele>
        <time>2017-10-21T12:21:27Z</time>
      </trkpt>
      <trkpt lat="45.22687" lon="5.799">
        <ele>315</ele>
        <time>2017-10-21T12:21:30Z</time>
      </trkpt>
      <trkpt lat="45.22693" lon="5.79897">
        <ele>315</ele>
        <time>2017-10-21T12:21:33Z</time>
      </trkpt>
      <trkpt lat="45.22697" lon="5.79893">
        <ele>316</ele>
        <time>2017-10-21T12:21:36Z</time>
      </trkpt>
      <trkpt lat="45.22702" lon="5.79888">
        <ele>316</ele>
        <time>2017-10-21T12:21:39Z</time>
      </trkpt>
      <trkpt lat="45.22707" lon="5.79885">
        <ele>317</ele>
        <time>2017-10-21T12:21:42Z</time>
      </trkpt>
      <trkpt lat="45.22712" lon="5.79881">
        <ele>317</ele>
        <time>2017-10-21T12:21:45Z</time>
      </trkpt>
      <trkpt lat="45.22717" lon="5.79877">
        <ele>318</ele>
        <time>2017-10-21T12:21:48Z</time>
      </trkpt>
      <trkpt lat="45.22722" lon="5.79873">
        <ele>318</ele>
        <time>2017-10-21T12:21:51Z</time>
      </trkpt>
      <trkpt lat="45.22727" lon="5.79868">
        <ele>318</ele>
        <time>2017-10-21T12:21:54Z</time>
      </trkpt>
      <trkpt lat="45.22733" lon="5.79864">
        <ele>319</ele>
        <time>2017-10-21T12:21:57Z</time>
      </trkpt>
      <trkpt lat="45.22739" lon="5.7986">
        <ele>320</ele>
        <time>2017-10-21T12:22:00Z</time>
      </trkpt>
      <trkpt lat="45.22744" lon="5.79856">
        <ele>320</ele>
        <time>2017-10-21T12:22:03Z</time>
      </trkpt>
      <trkpt lat="45.22749" lon="5.79854">
        <ele>320</ele>
        <time>2017-10-21T12:22:05Z</time>
      </trkpt>
      <trkpt lat="45.22755" lon="5.79851">
        <ele>321</ele>
        <time>2017-10-21T12:22:08Z</time>
      </trkpt>
      <trkpt lat="45.2276" lon="5.79849">
        <ele>321</ele>
        <time>2017-10-21T12:22:11Z</time>
      </trkpt>
      <trkpt lat="45.22765" lon="5.7985">
        <ele>322</ele>
        <time>2017-10-21T12:22:14Z</time>
      </trkpt>
      <trkpt lat="45.22769" lon="5.79858">
        <ele>322</ele>
        <time>2017-10-21T12:22:17Z</time>
      </trkpt>
      <trkpt lat="45.22772" lon="5.79866">
        <ele>322</ele>
        <time>2017-10-21T12:22:20Z</time>
      </trkpt>
      <trkpt lat="45.22775" lon="5.79871">
        <ele>322</ele>
        <time>2017-10-21T12:22:22Z</time>
      </trkpt>
      <trkpt lat="45.22778" lon="5.79876">
        <ele>322</ele>
        <time>2017-10-21T12:22:24Z</time>
      </trkpt>
      <trkpt lat="45.22781" lon="5.79882">
        <ele>322</ele>
        <time>2017-10-21T12:22:26Z</time>
      </trkpt>
      <trkpt lat="45.22784" lon="5.79888">
        <ele>322</ele>
        <time>2017-10-21T12:22:28Z</time>
      </trkpt>
      <trkpt lat="45.22786" lon="5.79893">
        <ele>322</ele>
        <time>2017-10-21T12:22:30Z</time>
      </trkpt>
      <trkpt lat="45.22789" lon="5.79898">
        <ele>322</ele>
        <time>2017-10-21T12:22:32Z</time>
      </trkpt>
      <trkpt lat="45.22792" lon="5.79905">
        <ele>322</ele>
        <time>2017-10-21T12:22:34Z</time>
      </trkpt>
      <trkpt lat="45.22796" lon="5.79911">
        <ele>322</ele>
        <time>2017-10-21T12:22:36Z</time>
      </trkpt>
      <trkpt lat="45.22799" lon="5.79917">
        <ele>322</ele>
        <time>2017-10-21T12:22:38Z</time>
      </trkpt>
      <trkpt lat="45.22804" lon="5.79925">
        <ele>323</ele>
        <time>2017-10-21T12:22:40Z</time>
      </trkpt>
      <trkpt lat="45.22807" lon="5.79932">
        <ele>323</ele>
        <time>2017-10-21T12:22:42Z</time>
      </trkpt>
      <trkpt lat="45.2281" lon="5.79939">
        <ele>323</ele>
        <time>2017-10-21T12:22:44Z</time>
      </trkpt>
      <trkpt lat="45.22812" lon="5.79946">
        <ele>323</ele>
        <time>2017-10-21T12:22:46Z</time>
      </trkpt>
      <trkpt lat="45.22815" lon="5.79952">
        <ele>323</ele>
        <time>2017-10-21T12:22:48Z</time>
      </trkpt>
      <trkpt lat="45.22819" lon="5.79958">
        <ele>323</ele>
        <time>2017-10-21T12:22:50Z</time>
      </trkpt>
      <trkpt lat="45.22823" lon="5.79964">
        <ele>323</ele>
        <time>2017-10-21T12:22:52Z</time>
      </trkpt>
      <trkpt lat="45.22826" lon="5.79971">
        <ele>323</ele>
        <time>2017-10-21T12:22:54Z</time>
      </trkpt>
      <trkpt lat="45.22829" lon="5.79977">
        <ele>324</ele>
        <time>2017-10-21T12:22:56Z</time>
      </trkpt>
      <trkpt lat="45.22833" lon="5.79983">
        <ele>324</ele>
        <time>2017-10-21T12:22:58Z</time>
      </trkpt>
      <trkpt lat="45.22836" lon="5.79989">
        <ele>324</ele>
        <time>2017-10-21T12:23:00Z</time>
      </trkpt>
      <trkpt lat="45.22839" lon="5.79995">
        <ele>324</ele>
        <time>2017-10-21T12:23:02Z</time>
      </trkpt>
      <trkpt lat="45.22841" lon="5.80002">
        <ele>324</ele>
        <time>2017-10-21T12:23:04Z</time>
      </trkpt>
      <trkpt lat="45.22843" lon="5.80008">
        <ele>324</ele>
        <time>2017-10-21T12:23:06Z</time>
      </trkpt>
      <trkpt lat="45.22848" lon="5.80013">
        <ele>324</ele>
        <time>2017-10-21T12:23:08Z</time>
      </trkpt>
      <trkpt lat="45.22854" lon="5.80013">
        <ele>325</ele>
        <time>2017-10-21T12:23:10Z</time>
      </trkpt>
      <trkpt lat="45.22861" lon="5.80012">
        <ele>325</ele>
        <time>2017-10-21T12:23:12Z</time>
      </trkpt>
      <trkpt lat="45.22866" lon="5.80009">
        <ele>326</ele>
        <time>2017-10-21T12:23:14Z</time>
      </trkpt>
      <trkpt lat="45.2287" lon="5.80005">
        <ele>326</ele>
        <time>2017-10-21T12:23:16Z</time>
      </trkpt>
      <trkpt lat="45.22876" lon="5.8">
        <ele>327</ele>
        <time>2017-10-21T12:23:19Z</time>
      </trkpt>
      <trkpt lat="45.22882" lon="5.79996">
        <ele>327</ele>
        <time>2017-10-21T12:23:22Z</time>
      </trkpt>
      <trkpt lat="45.22887" lon="5.79993">
        <ele>328</ele>
        <time>2017-10-21T12:23:25Z</time>
      </trkpt>
      <trkpt lat="45.22893" lon="5.79992">
        <ele>328</ele>
        <time>2017-10-21T12:23:28Z</time>
      </trkpt>
      <trkpt lat="45.22898" lon="5.79989">
        <ele>329</ele>
        <time>2017-10-21T12:23:31Z</time>
      </trkpt>
      <trkpt lat="45.22902" lon="5.79986">
        <ele>329</ele>
        <time>2017-10-21T12:23:34Z</time>
      </trkpt>
      <trkpt lat="45.22907" lon="5.79983">
        <ele>330</ele>
        <time>2017-10-21T12:23:37Z</time>
      </trkpt>
      <trkpt lat="45.22912" lon="5.7998">
        <ele>330</ele>
        <time>2017-10-21T12:23:40Z</time>
      </trkpt>
      <trkpt lat="45.22918" lon="5.79978">
        <ele>331</ele>
        <time>2017-10-21T12:23:43Z</time>
      </trkpt>
      <trkpt lat="45.22924" lon="5.79976">
        <ele>332</ele>
        <time>2017-10-21T12:23:46Z</time>
      </trkpt>
      <trkpt lat="45.2293" lon="5.79973">
        <ele>332</ele>
        <time>2017-10-21T12:23:49Z</time>
      </trkpt>
      <trkpt lat="45.22935" lon="5.79968">
        <ele>333</ele>
        <time>2017-10-21T12:23:52Z</time>
      </trkpt>
      <trkpt lat="45.22939" lon="5.79963">
        <ele>333</ele>
        <time>2017-10-21T12:23:55Z</time>
      </trkpt>
      <trkpt lat="45.22943" lon="5.79957">
        <ele>334</ele>
        <time>2017-10-21T12:23:58Z</time>
      </trkpt>
      <trkpt lat="45.22949" lon="5.79953">
        <ele>335</ele>
        <time>2017-10-21T12:24:01Z</time>
      </trkpt>
      <trkpt lat="45.22954" lon="5.79949">
        <ele>335</ele>
        <time>2017-10-21T12:24:04Z</time>
      </trkpt>
      <trkpt lat="45.22959" lon="5.79945">
        <ele>336</ele>
        <time>2017-10-21T12:24:07Z</time>
      </trkpt>
      <trkpt lat="45.22965" lon="5.79941">
        <ele>337</ele>
        <time>2017-10-21T12:24:10Z</time>
      </trkpt>
      <trkpt lat="45.22971" lon="5.79938">
        <ele>337</ele>
        <time>2017-10-21T12:24:13Z</time>
      </trkpt>
      <trkpt lat="45.22977" lon="5.7994">
        <ele>338</ele>
        <time>2017-10-21T12:24:16Z</time>
      </trkpt>
      <trkpt lat="45.22982" lon="5.79947">
        <ele>338</ele>
        <time>2017-10-21T12:24:19Z</time>
      </trkpt>
      <trkpt lat="45.22986" lon="5.79954">
        <ele>338</ele>
        <time>2017-10-21T12:24:22Z</time>
      </trkpt>
      <trkpt lat="45.2299" lon="5.79959">
        <ele>339</ele>
        <time>2017-10-21T12:24:24Z</time>
      </trkpt>
      <trkpt lat="45.22994" lon="5.79966">
        <ele>339</ele>
        <time>2017-10-21T12:24:26Z</time>
      </trkpt>
      <trkpt lat="45.22998" lon="5.79973">
        <ele>339</ele>
        <time>2017-10-21T12:24:28Z</time>
      </trkpt>
      <trkpt lat="45.23003" lon="5.79981">
        <ele>339</ele>
        <time>2017-10-21T12:24:30Z</time>
      </trkpt>
      <trkpt lat="45.23008" lon="5.79989">
        <ele>340</ele>
        <time>2017-10-21T12:24:32Z</time>
      </trkpt>
      <trkpt lat="45.23013" lon="5.79997">
        <ele>340</ele>
        <time>2017-10-21T12:24:34Z</time>
      </trkpt>
      <trkpt lat="45.23019" lon="5.80004">
        <ele>340</ele>
        <time>2017-10-21T12:24:36Z</time>
      </trkpt>
      <trkpt lat="45.23024" lon="5.80012">
        <ele>340</ele>
        <time>2017-10-21T12:24:38Z</time>
      </trkpt>
      <trkpt lat="45.23028" lon="5.8002">
        <ele>340</ele>
        <time>2017-10-21T12:24:40Z</time>
      </trkpt>
      <trkpt lat="45.23032" lon="5.80029">
        <ele>340</ele>
        <time>2017-10-21T12:24:42Z</time>
      </trkpt>
      <trkpt lat="45.23037" lon="5.80037">
        <ele>340</ele>
        <time>2017-10-21T12:24:44Z</time>
      </trkpt>
      <trkpt lat="45.23042" lon="5.80044">
        <ele>340</ele>
        <time>2017-10-21T12:24:46Z</time>
      </trkpt>
      <trkpt lat="45.23047" lon="5.8005">
        <ele>340</ele>
        <time>2017-10-21T12:24:48Z</time>
      </trkpt>
      <trkpt lat="45.23052" lon="5.80056">
        <ele>340</ele>
        <time>2017-10-21T12:24:50Z</time>
      </trkpt>
      <trkpt lat="45.23058" lon="5.80063">
        <ele>340</ele>
        <time>2017-10-21T12:24:52Z</time>
      </trkpt>
      <trkpt lat="45.23063" lon="5.8007">
        <ele>340</ele>
        <time>2017-10-21T12:24:54Z</time>
      </trkpt>
      <trkpt lat="45.23069" lon="5.80076">
        <ele>340</ele>
        <time>2017-10-21T12:24:56Z</time>
      </trkpt>
      <trkpt lat="45.23076" lon="5.80083">
        <ele>340</ele>
        <time>2017-10-21T12:24:58Z</time>
      </trkpt>
      <trkpt lat="45.23081" lon="5.8009">
        <ele>340</ele>
        <time>2017-10-21T12:25:00Z</time>
      </trkpt>
      <trkpt lat="45.23087" lon="5.80098">
        <ele>340</ele>
        <time>2017-10-21T12:25:02Z</time>
      </trkpt>
      <trkpt lat="45.23093" lon="5.80106">
        <ele>340</ele>
        <time>2017-10-21T12:25:04Z</time>
      </trkpt>
      <trkpt lat="45.231" lon="5.80114">
        <ele>340</ele>
        <time>2017-10-21T12:25:06Z</time>
      </trkpt>
      <trkpt lat="45.23105" lon="5.80121">
        <ele>340</ele>
        <time>2017-10-21T12:25:08Z</time>
      </trkpt>
      <trkpt lat="45.23112" lon="5.80128">
        <ele>340</ele>
        <time>2017-10-21T12:25:10Z</time>
      </trkpt>
      <trkpt lat="45.23116" lon="5.80132">
        <ele>339</ele>
        <time>2017-10-21T12:25:11Z</time>
      </trkpt>
      <trkpt lat="45.2312" lon="5.80139">
        <ele>339</ele>
        <time>2017-10-21T12:25:12Z</time>
      </trkpt>
      <trkpt lat="45.23127" lon="5.80146">
        <ele>339</ele>
        <time>2017-10-21T12:25:14Z</time>
      </trkpt>
      <trkpt lat="45.23135" lon="5.80153">
        <ele>339</ele>
        <time>2017-10-21T12:25:16Z</time>
      </trkpt>
      <trkpt lat="45.23142" lon="5.80163">
        <ele>338</ele>
        <time>2017-10-21T12:25:18Z</time>
      </trkpt>
      <trkpt lat="45.23148" lon="5.80168">
        <ele>338</ele>
        <time>2017-10-21T12:25:19Z</time>
      </trkpt>
      <trkpt lat="45.23153" lon="5.80175">
        <ele>338</ele>
        <time>2017-10-21T12:25:20Z</time>
      </trkpt>
      <trkpt lat="45.23163" lon="5.80186">
        <ele>337</ele>
        <time>2017-10-21T12:25:22Z</time>
      </trkpt>
      <trkpt lat="45.23169" lon="5.80193">
        <ele>337</ele>
        <time>2017-10-21T12:25:23Z</time>
      </trkpt>
      <trkpt lat="45.23173" lon="5.80199">
        <ele>336</ele>
        <time>2017-10-21T12:25:24Z</time>
      </trkpt>
      <trkpt lat="45.2318" lon="5.80205">
        <ele>336</ele>
        <time>2017-10-21T12:25:25Z</time>
      </trkpt>
      <trkpt lat="45.23186" lon="5.80211">
        <ele>336</ele>
        <time>2017-10-21T12:25:26Z</time>
      </trkpt>
      <trkpt lat="45.23192" lon="5.80218">
        <ele>335</ele>
        <time>2017-10-21T12:25:27Z</time>
      </trkpt>
      <trkpt lat="45.23202" lon="5.80229">
        <ele>334</ele>
        <time>2017-10-21T12:25:29Z</time>
      </trkpt>
      <trkpt lat="45.23208" lon="5.80236">
        <ele>334</ele>
        <time>2017-10-21T12:25:30Z</time>
      </trkpt>
      <trkpt lat="45.23213" lon="5.8024">
        <ele>334</ele>
        <time>2017-10-21T12:25:31Z</time>
      </trkpt>
      <trkpt lat="45.23218" lon="5.80241">
        <ele>334</ele>
        <time>2017-10-21T12:25:32Z</time>
      </trkpt>
      <trkpt lat="45.23222" lon="5.80235">
        <ele>334</ele>
        <time>2017-10-21T12:25:34Z</time>
      </trkpt>
      <trkpt lat="45.23224" lon="5.80229">
        <ele>335</ele>
        <time>2017-10-21T12:25:36Z</time>
      </trkpt>
      <trkpt lat="45.23226" lon="5.80221">
        <ele>336</ele>
        <time>2017-10-21T12:25:38Z</time>
      </trkpt>
      <trkpt lat="45.23229" lon="5.80215">
        <ele>336</ele>
        <time>2017-10-21T12:25:40Z</time>
      </trkpt>
      <trkpt lat="45.23233" lon="5.80208">
        <ele>337</ele>
        <time>2017-10-21T12:25:43Z</time>
      </trkpt>
      <trkpt lat="45.23239" lon="5.80202">
        <ele>337</ele>
        <time>2017-10-21T12:25:46Z</time>
      </trkpt>
      <trkpt lat="45.23245" lon="5.80193">
        <ele>338</ele>
        <time>2017-10-21T12:25:50Z</time>
      </trkpt>
      <trkpt lat="45.23249" lon="5.8019">
        <ele>339</ele>
        <time>2017-10-21T12:25:52Z</time>
      </trkpt>
      <trkpt lat="45.23253" lon="5.80187">
        <ele>339</ele>
        <time>2017-10-21T12:25:54Z</time>
      </trkpt>
      <trkpt lat="45.23258" lon="5.80186">
        <ele>339</ele>
        <time>2017-10-21T12:25:56Z</time>
      </trkpt>
      <trkpt lat="45.23262" lon="5.80188">
        <ele>339</ele>
        <time>2017-10-21T12:25:58Z</time>
      </trkpt>
      <trkpt lat="45.23268" lon="5.80195">
        <ele>339</ele>
        <time>2017-10-21T12:26:00Z</time>
      </trkpt>
      <trkpt lat="45.23272" lon="5.80199">
        <ele>339</ele>
        <time>2017-10-21T12:26:01Z</time>
      </trkpt>
      <trkpt lat="45.23277" lon="5.80205">
        <ele>338</ele>
        <time>2017-10-21T12:26:02Z</time>
      </trkpt>
      <trkpt lat="45.23282" lon="5.80209">
        <ele>338</ele>
        <time>2017-10-21T12:26:03Z</time>
      </trkpt>
      <trkpt lat="45.23291" lon="5.80219">
        <ele>338</ele>
        <time>2017-10-21T12:26:05Z</time>
      </trkpt>
      <trkpt lat="45.23296" lon="5.80224">
        <ele>338</ele>
        <time>2017-10-21T12:26:06Z</time>
      </trkpt>
      <trkpt lat="45.23301" lon="5.80231">
        <ele>337</ele>
        <time>2017-10-21T12:26:07Z</time>
      </trkpt>
      <trkpt lat="45.23306" lon="5.80236">
        <ele>337</ele>
        <time>2017-10-21T12:26:08Z</time>
      </trkpt>
      <trkpt lat="45.23311" lon="5.80241">
        <ele>337</ele>
        <time>2017-10-21T12:26:09Z</time>
      </trkpt>
      <trkpt lat="45.23317" lon="5.80247">
        <ele>337</ele>
        <time>2017-10-21T12:26:10Z</time>
      </trkpt>
      <trkpt lat="45.23322" lon="5.80251">
        <ele>337</ele>
        <time>2017-10-21T12:26:11Z</time>
      </trkpt>
      <trkpt lat="45.23326" lon="5.80255">
        <ele>337</ele>
        <time>2017-10-21T12:26:12Z</time>
      </trkpt>
      <trkpt lat="45.23332" lon="5.80252">
        <ele>338</ele>
        <time>2017-10-21T12:26:14Z</time>
      </trkpt>
      <trkpt lat="45.23336" lon="5.80244">
        <ele>338</ele>
        <time>2017-10-21T12:26:16Z</time>
      </trkpt>
      <trkpt lat="45.2334" lon="5.80239">
        <ele>339</ele>
        <time>2017-10-21T12:26:18Z</time>
      </trkpt>
      <trkpt lat="45.23344" lon="5.80233">
        <ele>339</ele>
        <time>2017-10-21T12:26:20Z</time>
      </trkpt>
      <trkpt lat="45.23348" lon="5.80227">
        <ele>340</ele>
        <time>2017-10-21T12:26:22Z</time>
      </trkpt>
      <trkpt lat="45.2335" lon="5.80221">
        <ele>340</ele>
        <time>2017-10-21T12:26:24Z</time>
      </trkpt>
      <trkpt lat="45.23352" lon="5.80213">
        <ele>341</ele>
        <time>2017-10-21T12:26:27Z</time>
      </trkpt>
      <trkpt lat="45.23355" lon="5.80205">
        <ele>342</ele>
        <time>2017-10-21T12:26:30Z</time>
      </trkpt>
      <trkpt lat="45.23357" lon="5.80197">
        <ele>343</ele>
        <time>2017-10-21T12:26:33Z</time>
      </trkpt>
      <trkpt lat="45.23361" lon="5.80191">
        <ele>343</ele>
        <time>2017-10-21T12:26:36Z</time>
      </trkpt>
      <trkpt lat="45.23366" lon="5.80191">
        <ele>344</ele>
        <time>2017-10-21T12:26:39Z</time>
      </trkpt>
      <trkpt lat="45.2337" lon="5.80191">
        <ele>344</ele>
        <time>2017-10-21T12:26:42Z</time>
      </trkpt>
      <trkpt lat="45.23376" lon="5.80186">
        <ele>345</ele>
        <time>2017-10-21T12:26:45Z</time>
      </trkpt>
      <trkpt lat="45.23379" lon="5.8018">
        <ele>345</ele>
        <time>2017-10-21T12:26:48Z</time>
      </trkpt>
      <trkpt lat="45.23384" lon="5.80175">
        <ele>346</ele>
        <time>2017-10-21T12:26:51Z</time>
      </trkpt>
      <trkpt lat="45.23389" lon="5.8017">
        <ele>347</ele>
        <time>2017-10-21T12:26:54Z</time>
      </trkpt>
      <trkpt lat="45.23393" lon="5.80163">
        <ele>347</ele>
        <time>2017-10-21T12:26:57Z</time>
      </trkpt>
      <trkpt lat="45.23394" lon="5.80156">
        <ele>348</ele>
        <time>2017-10-21T12:27:00Z</time>
      </trkpt>
      <trkpt lat="45.23396" lon="5.8015">
        <ele>348</ele>
        <time>2017-10-21T12:27:03Z</time>
      </trkpt>
      <trkpt lat="45.23397" lon="5.80142">
        <ele>349</ele>
        <time>2017-10-21T12:27:06Z</time>
      </trkpt>
      <trkpt lat="45.23398" lon="5.80134">
        <ele>349</ele>
        <time>2017-10-21T12:27:08Z</time>
      </trkpt>
      <trkpt lat="45.23399" lon="5.80126">
        <ele>350</ele>
        <time>2017-10-21T12:27:11Z</time>
      </trkpt>
      <trkpt lat="45.23399" lon="5.80117">
        <ele>351</ele>
        <time>2017-10-21T12:27:14Z</time>
      </trkpt>
      <trkpt lat="45.23399" lon="5.8011">
        <ele>351</ele>
        <time>2017-10-21T12:27:17Z</time>
      </trkpt>
      <trkpt lat="45.23401" lon="5.80104">
        <ele>351</ele>
        <time>2017-10-21T12:27:20Z</time>
      </trkpt>
      <trkpt lat="45.23404" lon="5.80098">
        <ele>352</ele>
        <time>2017-10-21T12:27:23Z</time>
      </trkpt>
      <trkpt lat="45.23406" lon="5.80092">
        <ele>352</ele>
        <time>2017-10-21T12:27:26Z</time>
      </trkpt>
      <trkpt lat="45.2341" lon="5.80083">
        <ele>353</ele>
        <time>2017-10-21T12:27:30Z</time>
      </trkpt>
      <trkpt lat="45.23412" lon="5.80074">
        <ele>354</ele>
        <time>2017-10-21T12:27:33Z</time>
      </trkpt>
      <trkpt lat="45.23413" lon="5.80066">
        <ele>354</ele>
        <time>2017-10-21T12:27:36Z</time>
      </trkpt>
      <trkpt lat="45.23416" lon="5.80061">
        <ele>355</ele>
        <time>2017-10-21T12:27:39Z</time>
      </trkpt>
      <trkpt lat="45.23418" lon="5.80054">
        <ele>355</ele>
        <time>2017-10-21T12:27:42Z</time>
      </trkpt>
      <trkpt lat="45.23418" lon="5.80047">
        <ele>356</ele>
        <time>2017-10-21T12:27:45Z</time>
      </trkpt>
      <trkpt lat="45.2342" lon="5.80041">
        <ele>356</ele>
        <time>2017-10-21T12:27:48Z</time>
      </trkpt>
      <trkpt lat="45.23423" lon="5.80035">
        <ele>357</ele>
        <time>2017-10-21T12:27:51Z</time>
      </trkpt>
      <trkpt lat="45.23426" lon="5.80028">
        <ele>358</ele>
        <time>2017-10-21T12:27:54Z</time>
      </trkpt>
      <trkpt lat="45.23427" lon="5.80022">
        <ele>358</ele>
        <time>2017-10-21T12:27:57Z</time>
      </trkpt>
      <trkpt lat="45.23427" lon="5.80014">
        <ele>359</ele>
        <time>2017-10-21T12:28:01Z</time>
      </trkpt>
      <trkpt lat="45.23426" lon="5.80006">
        <ele>359</ele>
        <time>2017-10-21T12:28:05Z</time>
      </trkpt>
      <trkpt lat="45.23428" lon="5.79999">
        <ele>360</ele>
        <time>2017-10-21T12:28:08Z</time>
      </trkpt>
      <trkpt lat="45.23433" lon="5.79993">
        <ele>361</ele>
        <time>2017-10-21T12:28:11Z</time>
      </trkpt>
      <trkpt lat="45.23437" lon="5.79987">
        <ele>361</ele>
        <time>2017-10-21T12:28:14Z</time>
      </trkpt>
      <trkpt lat="45.23442" lon="5.79983">
        <ele>362</ele>
        <time>2017-10-21T12:28:17Z</time>
      </trkpt>
      <trkpt lat="45.23447" lon="5.79979">
        <ele>362</ele>
        <time>2017-10-21T12:28:20Z</time>
      </trkpt>
      <trkpt lat="45.23452" lon="5.79974">
        <ele>363</ele>
        <time>2017-10-21T12:28:23Z</time>
      </trkpt>
      <trkpt lat="45.23457" lon="5.79969">
        <ele>363</ele>
        <time>2017-10-21T12:28:26Z</time>
      </trkpt>
      <trkpt lat="45.2346" lon="5.79963">
        <ele>364</ele>
        <time>2017-10-21T12:28:29Z</time>
      </trkpt>
      <trkpt lat="45.23465" lon="5.79961">
        <ele>364</ele>
        <time>2017-10-21T12:28:32Z</time>
      </trkpt>
      <trkpt lat="45.23471" lon="5.7996">
        <ele>365</ele>
        <time>2017-10-21T12:28:35Z</time>
      </trkpt>
      <trkpt lat="45.23476" lon="5.79961">
        <ele>365</ele>
        <time>2017-10-21T12:28:37Z</time>
      </trkpt>
      <trkpt lat="45.23481" lon="5.79962">
        <ele>365</ele>
        <time>2017-10-21T12:28:39Z</time>
      </trkpt>
      <trkpt lat="45.23486" lon="5.79962">
        <ele>365</ele>
        <time>2017-10-21T12:28:41Z</time>
      </trkpt>
      <trkpt lat="45.23492" lon="5.79962">
        <ele>365</ele>
        <time>2017-10-21T12:28:43Z</time>
      </trkpt>
      <trkpt lat="45.23497" lon="5.79962">
        <ele>366</ele>
        <time>2017-10-21T12:28:45Z</time>
      </trkpt>
      <trkpt lat="45.23503" lon="5.79962">
        <ele>366</ele>
        <time>2017-10-21T12:28:47Z</time>
      </trkpt>
      <trkpt lat="45.23509" lon="5.79962">
        <ele>367</ele>
        <time>2017-10-21T12:28:49Z</time>
      </trkpt>
      <trkpt lat="45.23514" lon="5.79963">
        <ele>367</ele>
        <time>2017-10-21T12:28:51Z</time>
      </trkpt>
      <trkpt lat="45.23518" lon="5.79963">
        <ele>368</ele>
        <time>2017-10-21T12:28:53Z</time>
      </trkpt>
      <trkpt lat="45.23523" lon="5.79963">
        <ele>368</ele>
        <time>2017-10-21T12:28:55Z</time>
      </trkpt>
      <trkpt lat="45.23528" lon="5.79964">
        <ele>369</ele>
        <time>2017-10-21T12:28:57Z</time>
      </trkpt>
      <trkpt lat="45.23534" lon="5.79965">
        <ele>369</ele>
        <time>2017-10-21T12:28:59Z</time>
      </trkpt>
      <trkpt lat="45.23539" lon="5.79965">
        <ele>370</ele>
        <time>2017-10-21T12:29:01Z</time>
      </trkpt>
      <trkpt lat="45.23543" lon="5.79965">
        <ele>370</ele>
        <time>2017-10-21T12:29:03Z</time>
      </trkpt>
      <trkpt lat="45.23548" lon="5.79964">
        <ele>370</ele>
        <time>2017-10-21T12:29:05Z</time>
      </trkpt>
      <trkpt lat="45.23554" lon="5.79963">
        <ele>371</ele>
        <time>2017-10-21T12:29:08Z</time>
      </trkpt>
      <trkpt lat="45.23559" lon="5.79964">
        <ele>372</ele>
        <time>2017-10-21T12:29:10Z</time>
      </trkpt>
      <trkpt lat="45.23565" lon="5.79964">
        <ele>372</ele>
        <time>2017-10-21T12:29:12Z</time>
      </trkpt>
      <trkpt lat="45.2357" lon="5.79963">
        <ele>373</ele>
        <time>2017-10-21T12:29:14Z</time>
      </trkpt>
      <trkpt lat="45.23575" lon="5.79961">
        <ele>374</ele>
        <time>2017-10-21T12:29:16Z</time>
      </trkpt>
      <trkpt lat="45.23579" lon="5.7996">
        <ele>374</ele>
        <time>2017-10-21T12:29:18Z</time>
      </trkpt>
      <trkpt lat="45.23584" lon="5.7996">
        <ele>375</ele>
        <time>2017-10-21T12:29:20Z</time>
      </trkpt>
      <trkpt lat="45.23589" lon="5.79961">
        <ele>376</ele>
        <time>2017-10-21T12:29:22Z</time>
      </trkpt>
      <trkpt lat="45.23594" lon="5.79963">
        <ele>376</ele>
        <time>2017-10-21T12:29:24Z</time>
      </trkpt>
      <trkpt lat="45.23599" lon="5.79965">
        <ele>376</ele>
        <time>2017-10-21T12:29:26Z</time>
      </trkpt>
      <trkpt lat="45.23604" lon="5.79966">
        <ele>377</ele>
        <time>2017-10-21T12:29:28Z</time>
      </trkpt>
      <trkpt lat="45.23609" lon="5.79967">
        <ele>378</ele>
        <time>2017-10-21T12:29:30Z</time>
      </trkpt>
      <trkpt lat="45.23615" lon="5.79969">
        <ele>378</ele>
        <time>2017-10-21T12:29:33Z</time>
      </trkpt>
      <trkpt lat="45.2362" lon="5.79972">
        <ele>378</ele>
        <time>2017-10-21T12:29:35Z</time>
      </trkpt>
      <trkpt lat="45.23625" lon="5.79975">
        <ele>379</ele>
        <time>2017-10-21T12:29:38Z</time>
      </trkpt>
      <trkpt lat="45.2363" lon="5.79978">
        <ele>380</ele>
        <time>2017-10-21T12:29:41Z</time>
      </trkpt>
      <trkpt lat="45.23636" lon="5.79982">
        <ele>381</ele>
        <time>2017-10-21T12:29:44Z</time>
      </trkpt>
      <trkpt lat="45.2364" lon="5.79988">
        <ele>381</ele>
        <time>2017-10-21T12:29:47Z</time>
      </trkpt>
      <trkpt lat="45.23645" lon="5.79995">
        <ele>381</ele>
        <time>2017-10-21T12:29:50Z</time>
      </trkpt>
      <trkpt lat="45.23649" lon="5.80002">
        <ele>381</ele>
        <time>2017-10-21T12:29:53Z</time>
      </trkpt>
      <trkpt lat="45.23651" lon="5.80008">
        <ele>381</ele>
        <time>2017-10-21T12:29:55Z</time>
      </trkpt>
      <trkpt lat="45.23654" lon="5.80015">
        <ele>382</ele>
        <time>2017-10-21T12:29:58Z</time>
      </trkpt>
      <trkpt lat="45.23657" lon="5.80024">
        <ele>382</ele>
        <time>2017-10-21T12:30:01Z</time>
      </trkpt>
      <trkpt lat="45.23658" lon="5.80032">
        <ele>382</ele>
        <time>2017-10-21T12:30:04Z</time>
      </trkpt>
      <trkpt lat="45.23659" lon="5.8004">
        <ele>381</ele>
        <time>2017-10-21T12:30:07Z</time>
      </trkpt>
      <trkpt lat="45.2366" lon="5.8005">
        <ele>381</ele>
        <time>2017-10-21T12:30:10Z</time>
      </trkpt>
      <trkpt lat="45.23661" lon="5.8006">
        <ele>381</ele>
        <time>2017-10-21T12:30:13Z</time>
      </trkpt>
      <trkpt lat="45.23663" lon="5.80066">
        <ele>381</ele>
        <time>2017-10-21T12:30:15Z</time>
      </trkpt>
      <trkpt lat="45.23664" lon="5.80075">
        <ele>381</ele>
        <time>2017-10-21T12:30:18Z</time>
      </trkpt>
      <trkpt lat="45.23666" lon="5.80084">
        <ele>380</ele>
        <time>2017-10-21T12:30:21Z</time>
      </trkpt>
      <trkpt lat="45.23668" lon="5.80096">
        <ele>380</ele>
        <time>2017-10-21T12:30:25Z</time>
      </trkpt>
      <trkpt lat="45.23669" lon="5.80102">
        <ele>380</ele>
        <time>2017-10-21T12:30:27Z</time>
      </trkpt>
      <trkpt lat="45.23673" lon="5.8011">
        <ele>380</ele>
        <time>2017-10-21T12:30:30Z</time>
      </trkpt>
      <trkpt lat="45.23677" lon="5.80115">
        <ele>380</ele>
        <time>2017-10-21T12:30:32Z</time>
      </trkpt>
      <trkpt lat="45.23681" lon="5.80123">
        <ele>381</ele>
        <time>2017-10-21T12:30:34Z</time>
      </trkpt>
      <trkpt lat="45.23684" lon="5.80131">
        <ele>381</ele>
        <time>2017-10-21T12:30:36Z</time>
      </trkpt>
      <trkpt lat="45.23687" lon="5.80139">
        <ele>381</ele>
        <time>2017-10-21T12:30:38Z</time>
      </trkpt>
      <trkpt lat="45.23692" lon="5.80149">
        <ele>381</ele>
        <time>2017-10-21T12:30:40Z</time>
      </trkpt>
      <trkpt lat="45.23696" lon="5.80159">
        <ele>381</ele>
        <time>2017-10-21T12:30:42Z</time>
      </trkpt>
      <trkpt lat="45.237" lon="5.8017">
        <ele>382</ele>
        <time>2017-10-21T12:30:44Z</time>
      </trkpt>
      <trkpt lat="45.23701" lon="5.80177">
        <ele>382</ele>
        <time>2017-10-21T12:30:45Z</time>
      </trkpt>
      <trkpt lat="45.23703" lon="5.80183">
        <ele>382</ele>
        <time>2017-10-21T12:30:46Z</time>
      </trkpt>
      <trkpt lat="45.23709" lon="5.80192">
        <ele>383</ele>
        <time>2017-10-21T12:30:47Z</time>
      </trkpt>
      <trkpt lat="45.23716" lon="5.80202">
        <ele>384</ele>
        <time>2017-10-21T12:30:49Z</time>
      </trkpt>
      <trkpt lat="45.23721" lon="5.8021">
        <ele>384</ele>
        <time>2017-10-21T12:30:50Z</time>
      </trkpt>
      <trkpt lat="45.23724" lon="5.80216">
        <ele>385</ele>
        <time>2017-10-21T12:30:51Z</time>
      </trkpt>
      <trkpt lat="45.23726" lon="5.80223">
        <ele>385</ele>
        <time>2017-10-21T12:30:52Z</time>
      </trkpt>
      <trkpt lat="45.2373" lon="5.80229">
        <ele>385</ele>
        <time>2017-10-21T12:30:53Z</time>
      </trkpt>
      <trkpt lat="45.23735" lon="5.80242">
        <ele>385</ele>
        <time>2017-10-21T12:30:55Z</time>
      </trkpt>
      <trkpt lat="45.23738" lon="5.80249">
        <ele>386</ele>
        <time>2017-10-21T12:30:56Z</time>
      </trkpt>
      <trkpt lat="45.2374" lon="5.80257">
        <ele>386</ele>
        <time>2017-10-21T12:30:57Z</time>
      </trkpt>
      <trkpt lat="45.23744" lon="5.80265">
        <ele>386</ele>
        <time>2017-10-21T12:30:58Z</time>
      </trkpt>
      <trkpt lat="45.23747" lon="5.80276">
        <ele>386</ele>
        <time>2017-10-21T12:31:00Z</time>
      </trkpt>
      <trkpt lat="45.23751" lon="5.80289">
        <ele>386</ele>
        <time>2017-10-21T12:31:02Z</time>
      </trkpt>
      <trkpt lat="45.23756" lon="5.803">
        <ele>386</ele>
        <time>2017-10-21T12:31:04Z</time>
      </trkpt>
      <trkpt lat="45.23758" lon="5.80311">
        <ele>386</ele>
        <time>2017-10-21T12:31:06Z</time>
      </trkpt>
      <trkpt lat="45.23763" lon="5.80321">
        <ele>387</ele>
        <time>2017-10-21T12:31:08Z</time>
      </trkpt>
      <trkpt lat="45.23765" lon="5.80327">
        <ele>387</ele>
        <time>2017-10-21T12:31:09Z</time>
      </trkpt>
      <trkpt lat="45.23768" lon="5.80337">
        <ele>386</ele>
        <time>2017-10-21T12:31:11Z</time>
      </trkpt>
      <trkpt lat="45.23772" lon="5.80353">
        <ele>386</ele>
        <time>2017-10-21T12:31:14Z</time>
      </trkpt>
      <trkpt lat="45.23776" lon="5.80363">
        <ele>386</ele>
        <time>2017-10-21T12:31:16Z</time>
      </trkpt>
      <trkpt lat="45.23779" lon="5.80372">
        <ele>386</ele>
        <time>2017-10-21T12:31:18Z</time>
      </trkpt>
      <trkpt lat="45.23783" lon="5.80382">
        <ele>386</ele>
        <time>2017-10-21T12:31:20Z</time>
      </trkpt>
      <trkpt lat="45.23786" lon="5.80388">
        <ele>386</ele>
        <time>2017-10-21T12:31:21Z</time>
      </trkpt>
      <trkpt lat="45.23789" lon="5.80394">
        <ele>385</ele>
        <time>2017-10-21T12:31:22Z</time>
      </trkpt>
      <trkpt lat="45.23792" lon="5.80401">
        <ele>385</ele>
        <time>2017-10-21T12:31:23Z</time>
      </trkpt>
      <trkpt lat="45.23795" lon="5.80408">
        <ele>385</ele>
        <time>2017-10-21T12:31:24Z</time>
      </trkpt>
      <trkpt lat="45.23798" lon="5.80416">
        <ele>385</ele>
        <time>2017-10-21T12:31:25Z</time>
      </trkpt>
      <trkpt lat="45.23801" lon="5.80423">
        <ele>385</ele>
        <time>2017-10-21T12:31:26Z</time>
      </trkpt>
      <trkpt lat="45.23805" lon="5.8043">
        <ele>385</ele>
        <time>2017-10-21T12:31:27Z</time>
      </trkpt>
      <trkpt lat="45.23809" lon="5.80436">
        <ele>385</ele>
        <time>2017-10-21T12:31:28Z</time>
      </trkpt>
      <trkpt lat="45.23812" lon="5.80443">
        <ele>384</ele>
        <time>2017-10-21T12:31:29Z</time>
      </trkpt>
      <trkpt lat="45.23816" lon="5.80452">
        <ele>384</ele>
        <time>2017-10-21T12:31:30Z</time>
      </trkpt>
      <trkpt lat="45.23819" lon="5.80459">
        <ele>384</ele>
        <time>2017-10-21T12:31:31Z</time>
      </trkpt>
      <trkpt lat="45.23823" lon="5.80467">
        <ele>384</ele>
        <time>2017-10-21T12:31:32Z</time>
      </trkpt>
      <trkpt lat="45.23826" lon="5.80475">
        <ele>384</ele>
        <time>2017-10-21T12:31:33Z</time>
      </trkpt>
      <trkpt lat="45.2383" lon="5.80482">
        <ele>383</ele>
        <time>2017-10-21T12:31:34Z</time>
      </trkpt>
      <trkpt lat="45.23834" lon="5.8049">
        <ele>383</ele>
        <time>2017-10-21T12:31:35Z</time>
      </trkpt>
      <trkpt lat="45.23842" lon="5.80515">
        <ele>383</ele>
        <time>2017-10-21T12:31:38Z</time>
      </trkpt>
      <trkpt lat="45.23844" lon="5.80521">
        <ele>382</ele>
        <time>2017-10-21T12:31:39Z</time>
      </trkpt>
      <trkpt lat="45.2385" lon="5.80528">
        <ele>383</ele>
        <time>2017-10-21T12:31:40Z</time>
      </trkpt>
      <trkpt lat="45.23855" lon="5.80532">
        <ele>383</ele>
        <time>2017-10-21T12:31:41Z</time>
      </trkpt>
      <trkpt lat="45.23859" lon="5.80539">
        <ele>383</ele>
        <time>2017-10-21T12:31:42Z</time>
      </trkpt>
      <trkpt lat="45.23863" lon="5.80544">
        <ele>383</ele>
        <time>2017-10-21T12:31:43Z</time>
      </trkpt>
      <trkpt lat="45.23866" lon="5.80551">
        <ele>383</ele>
        <time>2017-10-21T12:31:44Z</time>
      </trkpt>
      <trkpt lat="45.23869" lon="5.80557">
        <ele>383</ele>
        <time>2017-10-21T12:31:45Z</time>
      </trkpt>
      <trkpt lat="45.23873" lon="5.80563">
        <ele>383</ele>
        <time>2017-10-21T12:31:46Z</time>
      </trkpt>
      <trkpt lat="45.2388" lon="5.8057">
        <ele>383</ele>
        <time>2017-10-21T12:31:48Z</time>
      </trkpt>
      <trkpt lat="45.23884" lon="5.80576">
        <ele>383</ele>
        <time>2017-10-21T12:31:49Z</time>
      </trkpt>
      <trkpt lat="45.23888" lon="5.80581">
        <ele>383</ele>
        <time>2017-10-21T12:31:50Z</time>
      </trkpt>
      <trkpt lat="45.23892" lon="5.80584">
        <ele>383</ele>
        <time>2017-10-21T12:31:51Z</time>
      </trkpt>
      <trkpt lat="45.23896" lon="5.80588">
        <ele>383</ele>
        <time>2017-10-21T12:31:52Z</time>
      </trkpt>
      <trkpt lat="45.23899" lon="5.80593">
        <ele>383</ele>
        <time>2017-10-21T12:31:53Z</time>
      </trkpt>
      <trkpt lat="45.23903" lon="5.80598">
        <ele>383</ele>
        <time>2017-10-21T12:31:54Z</time>
      </trkpt>
      <trkpt lat="45.23907" lon="5.80603">
        <ele>383</ele>
        <time>2017-10-21T12:31:55Z</time>
      </trkpt>
      <trkpt lat="45.23913" lon="5.80612">
        <ele>383</ele>
        <time>2017-10-21T12:31:57Z</time>
      </trkpt>
      <trkpt lat="45.23919" lon="5.80621">
        <ele>383</ele>
        <time>2017-10-21T12:31:59Z</time>
      </trkpt>
      <trkpt lat="45.23925" lon="5.80629">
        <ele>383</ele>
        <time>2017-10-21T12:32:01Z</time>
      </trkpt>
      <trkpt lat="45.23928" lon="5.80639">
        <ele>382</ele>
        <time>2017-10-21T12:32:03Z</time>
      </trkpt>
      <trkpt lat="45.23937" lon="5.80645">
        <ele>382</ele>
        <time>2017-10-21T12:32:05Z</time>
      </trkpt>
      <trkpt lat="45.23942" lon="5.80651">
        <ele>382</ele>
        <time>2017-10-21T12:32:07Z</time>
      </trkpt>
      <trkpt lat="45.23948" lon="5.80659">
        <ele>382</ele>
        <time>2017-10-21T12:32:09Z</time>
      </trkpt>
      <trkpt lat="45.23953" lon="5.80668">
        <ele>382</ele>
        <time>2017-10-21T12:32:11Z</time>
      </trkpt>
      <trkpt lat="45.23957" lon="5.80673">
        <ele>382</ele>
        <time>2017-10-21T12:32:13Z</time>
      </trkpt>
      <trkpt lat="45.23962" lon="5.80678">
        <ele>382</ele>
        <time>2017-10-21T12:32:15Z</time>
      </trkpt>
      <trkpt lat="45.23969" lon="5.80684">
        <ele>383</ele>
        <time>2017-10-21T12:32:17Z</time>
      </trkpt>
      <trkpt lat="45.23974" lon="5.8069">
        <ele>383</ele>
        <time>2017-10-21T12:32:19Z</time>
      </trkpt>
      <trkpt lat="45.23979" lon="5.80697">
        <ele>383</ele>
        <time>2017-10-21T12:32:21Z</time>
      </trkpt>
      <trkpt lat="45.23983" lon="5.80704">
        <ele>383</ele>
        <time>2017-10-21T12:32:23Z</time>
      </trkpt>
      <trkpt lat="45.23988" lon="5.80711">
        <ele>383</ele>
        <time>2017-10-21T12:32:25Z</time>
      </trkpt>
      <trkpt lat="45.2399" lon="5.80717">
        <ele>383</ele>
        <time>2017-10-21T12:32:26Z</time>
      </trkpt>
      <trkpt lat="45.23993" lon="5.8073">
        <ele>383</ele>
        <time>2017-10-21T12:32:28Z</time>
      </trkpt>
      <trkpt lat="45.23996" lon="5.80742">
        <ele>382</ele>
        <time>2017-10-21T12:32:30Z</time>
      </trkpt>
      <trkpt lat="45.24002" lon="5.80758">
        <ele>382</ele>
        <time>2017-10-21T12:32:32Z</time>
      </trkpt>
      <trkpt lat="45.24003" lon="5.80764">
        <ele>382</ele>
        <time>2017-10-21T12:32:33Z</time>
      </trkpt>
      <trkpt lat="45.24004" lon="5.80771">
        <ele>381</ele>
        <time>2017-10-21T12:32:34Z</time>
      </trkpt>
      <trkpt lat="45.24005" lon="5.80777">
        <ele>381</ele>
        <time>2017-10-21T12:32:35Z</time>
      </trkpt>
      <trkpt lat="45.24007" lon="5.80784">
        <ele>381</ele>
        <time>2017-10-21T12:32:36Z</time>
      </trkpt>
      <trkpt lat="45.24009" lon="5.80792">
        <ele>381</ele>
        <time>2017-10-21T12:32:37Z</time>
      </trkpt>
      <trkpt lat="45.24009" lon="5.80799">
        <ele>380</ele>
        <time>2017-10-21T12:32:38Z</time>
      </trkpt>
      <trkpt lat="45.24011" lon="5.80808">
        <ele>380</ele>
        <time>2017-10-21T12:32:39Z</time>
      </trkpt>
      <trkpt lat="45.24012" lon="5.80815">
        <ele>380</ele>
        <time>2017-10-21T12:32:40Z</time>
      </trkpt>
      <trkpt lat="45.24013" lon="5.80824">
        <ele>380</ele>
        <time>2017-10-21T12:32:41Z</time>
      </trkpt>
      <trkpt lat="45.24014" lon="5.80833">
        <ele>379</ele>
        <time>2017-10-21T12:32:42Z</time>
      </trkpt>
      <trkpt lat="45.24015" lon="5.80841">
        <ele>379</ele>
        <time>2017-10-21T12:32:43Z</time>
      </trkpt>
      <trkpt lat="45.24017" lon="5.8085">
        <ele>379</ele>
        <time>2017-10-21T12:32:44Z</time>
      </trkpt>
      <trkpt lat="45.24019" lon="5.80858">
        <ele>379</ele>
        <time>2017-10-21T12:32:45Z</time>
      </trkpt>
      <trkpt lat="45.24022" lon="5.80866">
        <ele>379</ele>
        <time>2017-10-21T12:32:46Z</time>
      </trkpt>
      <trkpt lat="45.24025" lon="5.80874">
        <ele>379</ele>
        <time>2017-10-21T12:32:47Z</time>
      </trkpt>
      <trkpt lat="45.24028" lon="5.80883">
        <ele>380</ele>
        <time>2017-10-21T12:32:48Z</time>
      </trkpt>
      <trkpt lat="45.24033" lon="5.80901">
        <ele>380</ele>
        <time>2017-10-21T12:32:50Z</time>
      </trkpt>
      <trkpt lat="45.24036" lon="5.80908">
        <ele>380</ele>
        <time>2017-10-21T12:32:51Z</time>
      </trkpt>
      <trkpt lat="45.24039" lon="5.80915">
        <ele>380</ele>
        <time>2017-10-21T12:32:52Z</time>
      </trkpt>
      <trkpt lat="45.24042" lon="5.80922">
        <ele>380</ele>
        <time>2017-10-21T12:32:53Z</time>
      </trkpt>
      <trkpt lat="45.24045" lon="5.80933">
        <ele>379</ele>
        <time>2017-10-21T12:32:55Z</time>
      </trkpt>
      <trkpt lat="45.24047" lon="5.80939">
        <ele>379</ele>
        <time>2017-10-21T12:32:56Z</time>
      </trkpt>
      <trkpt lat="45.24049" lon="5.80946">
        <ele>379</ele>
        <time>2017-10-21T12:32:57Z</time>
      </trkpt>
      <trkpt lat="45.24051" lon="5.80954">
        <ele>379</ele>
        <time>2017-10-21T12:32:58Z</time>
      </trkpt>
      <trkpt lat="45.24054" lon="5.8096">
        <ele>379</ele>
        <time>2017-10-21T12:32:59Z</time>
      </trkpt>
      <trkpt lat="45.24057" lon="5.80969">
        <ele>379</ele>
        <time>2017-10-21T12:33:00Z</time>
      </trkpt>
      <trkpt lat="45.24059" lon="5.80978">
        <ele>379</ele>
        <time>2017-10-21T12:33:01Z</time>
      </trkpt>
      <trkpt lat="45.24062" lon="5.80984">
        <ele>379</ele>
        <time>2017-10-21T12:33:02Z</time>
      </trkpt>
      <trkpt lat="45.24064" lon="5.80992">
        <ele>379</ele>
        <time>2017-10-21T12:33:03Z</time>
      </trkpt>
      <trkpt lat="45.24066" lon="5.81">
        <ele>379</ele>
        <time>2017-10-21T12:33:04Z</time>
      </trkpt>
      <trkpt lat="45.24068" lon="5.81007">
        <ele>379</ele>
        <time>2017-10-21T12:33:05Z</time>
      </trkpt>
      <trkpt lat="45.2407" lon="5.81015">
        <ele>379</ele>
        <time>2017-10-21T12:33:06Z</time>
      </trkpt>
      <trkpt lat="45.24072" lon="5.81023">
        <ele>379</ele>
        <time>2017-10-21T12:33:07Z</time>
      </trkpt>
      <trkpt lat="45.24075" lon="5.81029">
        <ele>379</ele>
        <time>2017-10-21T12:33:08Z</time>
      </trkpt>
      <trkpt lat="45.24078" lon="5.81038">
        <ele>379</ele>
        <time>2017-10-21T12:33:09Z</time>
      </trkpt>
      <trkpt lat="45.24081" lon="5.81044">
        <ele>379</ele>
        <time>2017-10-21T12:33:10Z</time>
      </trkpt>
      <trkpt lat="45.24085" lon="5.81052">
        <ele>379</ele>
        <time>2017-10-21T12:33:11Z</time>
      </trkpt>
      <trkpt lat="45.24088" lon="5.81058">
        <ele>380</ele>
        <time>2017-10-21T12:33:12Z</time>
      </trkpt>
      <trkpt lat="45.24092" lon="5.81065">
        <ele>380</ele>
        <time>2017-10-21T12:33:13Z</time>
      </trkpt>
      <trkpt lat="45.24097" lon="5.81073">
        <ele>380</ele>
        <time>2017-10-21T12:33:14Z</time>
      </trkpt>
      <trkpt lat="45.24099" lon="5.8108">
        <ele>380</ele>
        <time>2017-10-21T12:33:15Z</time>
      </trkpt>
      <trkpt lat="45.24102" lon="5.81087">
        <ele>380</ele>
        <time>2017-10-21T12:33:16Z</time>
      </trkpt>
      <trkpt lat="45.24106" lon="5.81094">
        <ele>380</ele>
        <time>2017-10-21T12:33:17Z</time>
      </trkpt>
      <trkpt lat="45.2411" lon="5.81101">
        <ele>380</ele>
        <time>2017-10-21T12:33:18Z</time>
      </trkpt>
      <trkpt lat="45.24114" lon="5.81109">
        <ele>379</ele>
        <time>2017-10-21T12:33:19Z</time>
      </trkpt>
      <trkpt lat="45.24117" lon="5.81115">
        <ele>379</ele>
        <time>2017-10-21T12:33:20Z</time>
      </trkpt>
      <trkpt lat="45.2412" lon="5.81122">
        <ele>379</ele>
        <time>2017-10-21T12:33:21Z</time>
      </trkpt>
      <trkpt lat="45.24124" lon="5.81129">
        <ele>379</ele>
        <time>2017-10-21T12:33:22Z</time>
      </trkpt>
      <trkpt lat="45.24128" lon="5.81136">
        <ele>379</ele>
        <time>2017-10-21T12:33:23Z</time>
      </trkpt>
      <trkpt lat="45.24133" lon="5.81147">
        <ele>379</ele>
        <time>2017-10-21T12:33:25Z</time>
      </trkpt>
      <trkpt lat="45.24136" lon="5.81152">
        <ele>378</ele>
        <time>2017-10-21T12:33:26Z</time>
      </trkpt>
      <trkpt lat="45.24139" lon="5.81159">
        <ele>378</ele>
        <time>2017-10-21T12:33:27Z</time>
      </trkpt>
      <trkpt lat="45.24143" lon="5.81164">
        <ele>378</ele>
        <time>2017-10-21T12:33:28Z</time>
      </trkpt>
      <trkpt lat="45.24151" lon="5.81171">
        <ele>378</ele>
        <time>2017-10-21T12:33:30Z</time>
      </trkpt>
      <trkpt lat="45.24159" lon="5.8118">
        <ele>378</ele>
        <time>2017-10-21T12:33:32Z</time>
      </trkpt>
      <trkpt lat="45.24162" lon="5.81186">
        <ele>378</ele>
        <time>2017-10-21T12:33:33Z</time>
      </trkpt>
      <trkpt lat="45.24166" lon="5.81193">
        <ele>378</ele>
        <time>2017-10-21T12:33:34Z</time>
      </trkpt>
      <trkpt lat="45.2417" lon="5.812">
        <ele>378</ele>
        <time>2017-10-21T12:33:35Z</time>
      </trkpt>
      <trkpt lat="45.24173" lon="5.81204">
        <ele>378</ele>
        <time>2017-10-21T12:33:36Z</time>
      </trkpt>
      <trkpt lat="45.24178" lon="5.81211">
        <ele>378</ele>
        <time>2017-10-21T12:33:37Z</time>
      </trkpt>
      <trkpt lat="45.24181" lon="5.81217">
        <ele>377</ele>
        <time>2017-10-21T12:33:38Z</time>
      </trkpt>
      <trkpt lat="45.24188" lon="5.81228">
        <ele>377</ele>
        <time>2017-10-21T12:33:40Z</time>
      </trkpt>
      <trkpt lat="45.24194" lon="5.81234">
        <ele>377</ele>
        <time>2017-10-21T12:33:41Z</time>
      </trkpt>
      <trkpt lat="45.24198" lon="5.8124">
        <ele>377</ele>
        <time>2017-10-21T12:33:42Z</time>
      </trkpt>
      <trkpt lat="45.24202" lon="5.81247">
        <ele>377</ele>
        <time>2017-10-21T12:33:43Z</time>
      </trkpt>
      <trkpt lat="45.24205" lon="5.81253">
        <ele>377</ele>
        <time>2017-10-21T12:33:44Z</time>
      </trkpt>
      <trkpt lat="45.24209" lon="5.8126">
        <ele>376</ele>
        <time>2017-10-21T12:33:45Z</time>
      </trkpt>
      <trkpt lat="45.24214" lon="5.81267">
        <ele>376</ele>
        <time>2017-10-21T12:33:46Z</time>
      </trkpt>
      <trkpt lat="45.24219" lon="5.81274">
        <ele>376</ele>
        <time>2017-10-21T12:33:47Z</time>
      </trkpt>
      <trkpt lat="45.24223" lon="5.8128">
        <ele>376</ele>
        <time>2017-10-21T12:33:48Z</time>
      </trkpt>
      <trkpt lat="45.24229" lon="5.81287">
        <ele>376</ele>
        <time>2017-10-21T12:33:49Z</time>
      </trkpt>
      <trkpt lat="45.24234" lon="5.81294">
        <ele>376</ele>
        <time>2017-10-21T12:33:50Z</time>
      </trkpt>
      <trkpt lat="45.24244" lon="5.81309">
        <ele>375</ele>
        <time>2017-10-21T12:33:52Z</time>
      </trkpt>
      <trkpt lat="45.2425" lon="5.81317">
        <ele>375</ele>
        <time>2017-10-21T12:33:53Z</time>
      </trkpt>
      <trkpt lat="45.24255" lon="5.81324">
        <ele>374</ele>
        <time>2017-10-21T12:33:54Z</time>
      </trkpt>
      <trkpt lat="45.2426" lon="5.81331">
        <ele>374</ele>
        <time>2017-10-21T12:33:55Z</time>
      </trkpt>
      <trkpt lat="45.24265" lon="5.81339">
        <ele>373</ele>
        <time>2017-10-21T12:33:56Z</time>
      </trkpt>
      <trkpt lat="45.24273" lon="5.81346">
        <ele>373</ele>
        <time>2017-10-21T12:33:57Z</time>
      </trkpt>
      <trkpt lat="45.24278" lon="5.81353">
        <ele>373</ele>
        <time>2017-10-21T12:33:58Z</time>
      </trkpt>
      <trkpt lat="45.24284" lon="5.81362">
        <ele>372</ele>
        <time>2017-10-21T12:33:59Z</time>
      </trkpt>
      <trkpt lat="45.2429" lon="5.81368">
        <ele>372</ele>
        <time>2017-10-21T12:34:00Z</time>
      </trkpt>
      <trkpt lat="45.24296" lon="5.81375">
        <ele>372</ele>
        <time>2017-10-21T12:34:01Z</time>
      </trkpt>
      <trkpt lat="45.24303" lon="5.81382">
        <ele>371</ele>
        <time>2017-10-21T12:34:02Z</time>
      </trkpt>
      <trkpt lat="45.24308" lon="5.81388">
        <ele>371</ele>
        <time>2017-10-21T12:34:03Z</time>
      </trkpt>
      <trkpt lat="45.24315" lon="5.81395">
        <ele>371</ele>
        <time>2017-10-21T12:34:04Z</time>
      </trkpt>
      <trkpt lat="45.24321" lon="5.81402">
        <ele>371</ele>
        <time>2017-10-21T12:34:05Z</time>
      </trkpt>
      <trkpt lat="45.24328" lon="5.8141">
        <ele>370</ele>
        <time>2017-10-21T12:34:06Z</time>
      </trkpt>
      <trkpt lat="45.24335" lon="5.81418">
        <ele>370</ele>
        <time>2017-10-21T12:34:07Z</time>
      </trkpt>
      <trkpt lat="45.24342" lon="5.81427">
        <ele>370</ele>
        <time>2017-10-21T12:34:08Z</time>
      </trkpt>
      <trkpt lat="45.24348" lon="5.81432">
        <ele>370</ele>
        <time>2017-10-21T12:34:09Z</time>
      </trkpt>
      <trkpt lat="45.24356" lon="5.81439">
        <ele>370</ele>
        <time>2017-10-21T12:34:10Z</time>
      </trkpt>
      <trkpt lat="45.24364" lon="5.81444">
        <ele>370</ele>
        <time>2017-10-21T12:34:11Z</time>
      </trkpt>
      <trkpt lat="45.2437" lon="5.81451">
        <ele>370</ele>
        <time>2017-10-21T12:34:12Z</time>
      </trkpt>
      <trkpt lat="45.24379" lon="5.81457">
        <ele>370</ele>
        <time>2017-10-21T12:34:13Z</time>
      </trkpt>
      <trkpt lat="45.24386" lon="5.81463">
        <ele>371</ele>
        <time>2017-10-21T12:34:14Z</time>
      </trkpt>
      <trkpt lat="45.24393" lon="5.81469">
        <ele>371</ele>
        <time>2017-10-21T12:34:15Z</time>
      </trkpt>
      <trkpt lat="45.244" lon="5.81475">
        <ele>371</ele>
        <time>2017-10-21T12:34:16Z</time>
      </trkpt>
      <trkpt lat="45.24406" lon="5.81483">
        <ele>371</ele>
        <time>2017-10-21T12:34:17Z</time>
      </trkpt>
      <trkpt lat="45.24413" lon="5.81491">
        <ele>372</ele>
        <time>2017-10-21T12:34:18Z</time>
      </trkpt>
      <trkpt lat="45.24416" lon="5.81499">
        <ele>372</ele>
        <time>2017-10-21T12:34:19Z</time>
      </trkpt>
      <trkpt lat="45.2442" lon="5.81508">
        <ele>372</ele>
        <time>2017-10-21T12:34:20Z</time>
      </trkpt>
      <trkpt lat="45.24423" lon="5.8152">
        <ele>371</ele>
        <time>2017-10-21T12:34:21Z</time>
      </trkpt>
      <trkpt lat="45.24422" lon="5.81527">
        <ele>371</ele>
        <time>2017-10-21T12:34:22Z</time>
      </trkpt>
      <trkpt lat="45.24422" lon="5.81538">
        <ele>371</ele>
        <time>2017-10-21T12:34:23Z</time>
      </trkpt>
      <trkpt lat="45.24422" lon="5.81547">
        <ele>371</ele>
        <time>2017-10-21T12:34:24Z</time>
      </trkpt>
      <trkpt lat="45.24424" lon="5.81558">
        <ele>371</ele>
        <time>2017-10-21T12:34:26Z</time>
      </trkpt>
      <trkpt lat="45.24424" lon="5.81568">
        <ele>370</ele>
        <time>2017-10-21T12:34:28Z</time>
      </trkpt>
      <trkpt lat="45.24427" lon="5.81579">
        <ele>371</ele>
        <time>2017-10-21T12:34:30Z</time>
      </trkpt>
      <trkpt lat="45.24428" lon="5.81589">
        <ele>371</ele>
        <time>2017-10-21T12:34:32Z</time>
      </trkpt>
      <trkpt lat="45.2443" lon="5.81599">
        <ele>371</ele>
        <time>2017-10-21T12:34:34Z</time>
      </trkpt>
      <trkpt lat="45.24434" lon="5.81608">
        <ele>371</ele>
        <time>2017-10-21T12:34:36Z</time>
      </trkpt>
      <trkpt lat="45.24435" lon="5.81617">
        <ele>371</ele>
        <time>2017-10-21T12:34:38Z</time>
      </trkpt>
      <trkpt lat="45.24438" lon="5.81626">
        <ele>371</ele>
        <time>2017-10-21T12:34:40Z</time>
      </trkpt>
      <trkpt lat="45.2444" lon="5.81634">
        <ele>371</ele>
        <time>2017-10-21T12:34:42Z</time>
      </trkpt>
      <trkpt lat="45.24444" lon="5.81642">
        <ele>372</ele>
        <time>2017-10-21T12:34:44Z</time>
      </trkpt>
      <trkpt lat="45.24447" lon="5.8165">
        <ele>372</ele>
        <time>2017-10-21T12:34:46Z</time>
      </trkpt>
      <trkpt lat="45.24449" lon="5.81658">
        <ele>372</ele>
        <time>2017-10-21T12:34:48Z</time>
      </trkpt>
      <trkpt lat="45.24453" lon="5.8167">
        <ele>373</ele>
        <time>2017-10-21T12:34:51Z</time>
      </trkpt>
      <trkpt lat="45.24456" lon="5.81678">
        <ele>373</ele>
        <time>2017-10-21T12:34:53Z</time>
      </trkpt>
      <trkpt lat="45.24458" lon="5.81687">
        <ele>373</ele>
        <time>2017-10-21T12:34:55Z</time>
      </trkpt>
      <trkpt lat="45.24461" lon="5.81696">
        <ele>373</ele>
        <time>2017-10-21T12:34:57Z</time>
      </trkpt>
      <trkpt lat="45.24464" lon="5.81704">
        <ele>374</ele>
        <time>2017-10-21T12:34:59Z</time>
      </trkpt>
      <trkpt lat="45.24466" lon="5.81714">
        <ele>374</ele>
        <time>2017-10-21T12:35:01Z</time>
      </trkpt>
      <trkpt lat="45.24468" lon="5.81723">
        <ele>374</ele>
        <time>2017-10-21T12:35:03Z</time>
      </trkpt>
      <trkpt lat="45.2447" lon="5.81732">
        <ele>374</ele>
        <time>2017-10-21T12:35:05Z</time>
      </trkpt>
      <trkpt lat="45.24472" lon="5.81742">
        <ele>374</ele>
        <time>2017-10-21T12:35:07Z</time>
      </trkpt>
      <trkpt lat="45.24476" lon="5.81751">
        <ele>374</ele>
        <time>2017-10-21T12:35:09Z</time>
      </trkpt>
      <trkpt lat="45.24479" lon="5.8176">
        <ele>374</ele>
        <time>2017-10-21T12:35:11Z</time>
      </trkpt>
      <trkpt lat="45.24482" lon="5.81768">
        <ele>374</ele>
        <time>2017-10-21T12:35:13Z</time>
      </trkpt>
      <trkpt lat="45.24485" lon="5.81777">
        <ele>374</ele>
        <time>2017-10-21T12:35:15Z</time>
      </trkpt>
      <trkpt lat="45.2449" lon="5.8179">
        <ele>375</ele>
        <time>2017-10-21T12:35:18Z</time>
      </trkpt>
      <trkpt lat="45.24493" lon="5.81799">
        <ele>375</ele>
        <time>2017-10-21T12:35:20Z</time>
      </trkpt>
      <trkpt lat="45.24497" lon="5.81808">
        <ele>375</ele>
        <time>2017-10-21T12:35:22Z</time>
      </trkpt>
      <trkpt lat="45.245" lon="5.81818">
        <ele>375</ele>
        <time>2017-10-21T12:35:24Z</time>
      </trkpt>
      <trkpt lat="45.24503" lon="5.81828">
        <ele>375</ele>
        <time>2017-10-21T12:35:26Z</time>
      </trkpt>
      <trkpt lat="45.24505" lon="5.81838">
        <ele>375</ele>
        <time>2017-10-21T12:35:28Z</time>
      </trkpt>
      <trkpt lat="45.24508" lon="5.81849">
        <ele>375</ele>
        <time>2017-10-21T12:35:30Z</time>
      </trkpt>
      <trkpt lat="45.2451" lon="5.81858">
        <ele>375</ele>
        <time>2017-10-21T12:35:32Z</time>
      </trkpt>
      <trkpt lat="45.24513" lon="5.81867">
        <ele>375</ele>
        <time>2017-10-21T12:35:34Z</time>
      </trkpt>
      <trkpt lat="45.24514" lon="5.81876">
        <ele>375</ele>
        <time>2017-10-21T12:35:36Z</time>
      </trkpt>
      <trkpt lat="45.24516" lon="5.81884">
        <ele>375</ele>
        <time>2017-10-21T12:35:38Z</time>
      </trkpt>
      <trkpt lat="45.24517" lon="5.81893">
        <ele>375</ele>
        <time>2017-10-21T12:35:40Z</time>
      </trkpt>
      <trkpt lat="45.2452" lon="5.81901">
        <ele>375</ele>
        <time>2017-10-21T12:35:42Z</time>
      </trkpt>
      <trkpt lat="45.24523" lon="5.8191">
        <ele>376</ele>
        <time>2017-10-21T12:35:44Z</time>
      </trkpt>
      <trkpt lat="45.24527" lon="5.81919">
        <ele>376</ele>
        <time>2017-10-21T12:35:46Z</time>
      </trkpt>
      <trkpt lat="45.2453" lon="5.81927">
        <ele>376</ele>
        <time>2017-10-21T12:35:48Z</time>
      </trkpt>
      <trkpt lat="45.24534" lon="5.81936">
        <ele>376</ele>
        <time>2017-10-21T12:35:50Z</time>
      </trkpt>
      <trkpt lat="45.24537" lon="5.81945">
        <ele>376</ele>
        <time>2017-10-21T12:35:52Z</time>
      </trkpt>
      <trkpt lat="45.24541" lon="5.81954">
        <ele>377</ele>
        <time>2017-10-21T12:35:54Z</time>
      </trkpt>
      <trkpt lat="45.24544" lon="5.81963">
        <ele>377</ele>
        <time>2017-10-21T12:35:56Z</time>
      </trkpt>
      <trkpt lat="45.24547" lon="5.81971">
        <ele>377</ele>
        <time>2017-10-21T12:35:58Z</time>
      </trkpt>
      <trkpt lat="45.2455" lon="5.8198">
        <ele>377</ele>
        <time>2017-10-21T12:36:00Z</time>
      </trkpt>
      <trkpt lat="45.24554" lon="5.8199">
        <ele>377</ele>
        <time>2017-10-21T12:36:02Z</time>
      </trkpt>
      <trkpt lat="45.24557" lon="5.81999">
        <ele>378</ele>
        <time>2017-10-21T12:36:04Z</time>
      </trkpt>
      <trkpt lat="45.24562" lon="5.82006">
        <ele>378</ele>
        <time>2017-10-21T12:36:06Z</time>
      </trkpt>
      <trkpt lat="45.24569" lon="5.82007">
        <ele>379</ele>
        <time>2017-10-21T12:36:08Z</time>
      </trkpt>
      <trkpt lat="45.24574" lon="5.82002">
        <ele>380</ele>
        <time>2017-10-21T12:36:10Z</time>
      </trkpt>
      <trkpt lat="45.24579" lon="5.81993">
        <ele>381</ele>
        <time>2017-10-21T12:36:13Z</time>
      </trkpt>
      <trkpt lat="45.24582" lon="5.81987">
        <ele>382</ele>
        <time>2017-10-21T12:36:15Z</time>
      </trkpt>
      <trkpt lat="45.24585" lon="5.81979">
        <ele>382</ele>
        <time>2017-10-21T12:36:18Z</time>
      </trkpt>
      <trkpt lat="45.24589" lon="5.81973">
        <ele>383</ele>
        <time>2017-10-21T12:36:21Z</time>
      </trkpt>
      <trkpt lat="45.24593" lon="5.81967">
        <ele>384</ele>
        <time>2017-10-21T12:36:24Z</time>
      </trkpt>
      <trkpt lat="45.24596" lon="5.81961">
        <ele>384</ele>
        <time>2017-10-21T12:36:27Z</time>
      </trkpt>
      <trkpt lat="45.246" lon="5.81955">
        <ele>385</ele>
        <time>2017-10-21T12:36:30Z</time>
      </trkpt>
      <trkpt lat="45.24604" lon="5.81949">
        <ele>385</ele>
        <time>2017-10-21T12:36:33Z</time>
      </trkpt>
      <trkpt lat="45.24608" lon="5.81943">
        <ele>386</ele>
        <time>2017-10-21T12:36:36Z</time>
      </trkpt>
      <trkpt lat="45.24611" lon="5.81937">
        <ele>387</ele>
        <time>2017-10-21T12:36:39Z</time>
      </trkpt>
      <trkpt lat="45.24616" lon="5.81933">
        <ele>387</ele>
        <time>2017-10-21T12:36:42Z</time>
      </trkpt>
      <trkpt lat="45.2462" lon="5.81929">
        <ele>388</ele>
        <time>2017-10-21T12:36:45Z</time>
      </trkpt>
      <trkpt lat="45.24624" lon="5.81926">
        <ele>389</ele>
        <time>2017-10-21T12:36:48Z</time>
      </trkpt>
      <trkpt lat="45.2463" lon="5.81927">
        <ele>389</ele>
        <time>2017-10-21T12:36:51Z</time>
      </trkpt>
      <trkpt lat="45.24634" lon="5.81933">
        <ele>390</ele>
        <time>2017-10-21T12:36:54Z</time>
      </trkpt>
      <trkpt lat="45.24637" lon="5.81937">
        <ele>390</ele>
        <time>2017-10-21T12:36:56Z</time>
      </trkpt>
      <trkpt lat="45.2464" lon="5.81942">
        <ele>390</ele>
        <time>2017-10-21T12:36:58Z</time>
      </trkpt>
      <trkpt lat="45.24644" lon="5.81949">
        <ele>390</ele>
        <time>2017-10-21T12:37:00Z</time>
      </trkpt>
      <trkpt lat="45.24648" lon="5.81956">
        <ele>390</ele>
        <time>2017-10-21T12:37:02Z</time>
      </trkpt>
      <trkpt lat="45.24653" lon="5.81962">
        <ele>390</ele>
        <time>2017-10-21T12:37:04Z</time>
      </trkpt>
      <trkpt lat="45.24658" lon="5.8197">
        <ele>390</ele>
        <time>2017-10-21T12:37:06Z</time>
      </trkpt>
      <trkpt lat="45.24664" lon="5.81978">
        <ele>390</ele>
        <time>2017-10-21T12:37:08Z</time>
      </trkpt>
      <trkpt lat="45.24669" lon="5.81986">
        <ele>391</ele>
        <time>2017-10-21T12:37:10Z</time>
      </trkpt>
      <trkpt lat="45.24675" lon="5.81995">
        <ele>391</ele>
        <time>2017-10-21T12:37:12Z</time>
      </trkpt>
      <trkpt lat="45.24682" lon="5.82004">
        <ele>391</ele>
        <time>2017-10-21T12:37:14Z</time>
      </trkpt>
      <trkpt lat="45.24692" lon="5.82019">
        <ele>391</ele>
        <time>2017-10-21T12:37:17Z</time>
      </trkpt>
      <trkpt lat="45.24696" lon="5.82023">
        <ele>391</ele>
        <time>2017-10-21T12:37:18Z</time>
      </trkpt>
      <trkpt lat="45.247" lon="5.82029">
        <ele>391</ele>
        <time>2017-10-21T12:37:19Z</time>
      </trkpt>
      <trkpt lat="45.24707" lon="5.82037">
        <ele>391</ele>
        <time>2017-10-21T12:37:21Z</time>
      </trkpt>
      <trkpt lat="45.2471" lon="5.82042">
        <ele>391</ele>
        <time>2017-10-21T12:37:22Z</time>
      </trkpt>
      <trkpt lat="45.24713" lon="5.82047">
        <ele>391</ele>
        <time>2017-10-21T12:37:23Z</time>
      </trkpt>
      <trkpt lat="45.24717" lon="5.82053">
        <ele>391</ele>
        <time>2017-10-21T12:37:24Z</time>
      </trkpt>
      <trkpt lat="45.24726" lon="5.82064">
        <ele>390</ele>
        <time>2017-10-21T12:37:26Z</time>
      </trkpt>
      <trkpt lat="45.24729" lon="5.82069">
        <ele>390</ele>
        <time>2017-10-21T12:37:27Z</time>
      </trkpt>
      <trkpt lat="45.24735" lon="5.82072">
        <ele>390</ele>
        <time>2017-10-21T12:37:28Z</time>
      </trkpt>
      <trkpt lat="45.2474" lon="5.82074">
        <ele>391</ele>
        <time>2017-10-21T12:37:29Z</time>
      </trkpt>
      <trkpt lat="45.24744" lon="5.82072">
        <ele>391</ele>
        <time>2017-10-21T12:37:30Z</time>
      </trkpt>
      <trkpt lat="45.24749" lon="5.82068">
        <ele>392</ele>
        <time>2017-10-21T12:37:32Z</time>
      </trkpt>
      <trkpt lat="45.24753" lon="5.82061">
        <ele>393</ele>
        <time>2017-10-21T12:37:35Z</time>
      </trkpt>
      <trkpt lat="45.24757" lon="5.82056">
        <ele>394</ele>
        <time>2017-10-21T12:37:38Z</time>
      </trkpt>
      <trkpt lat="45.2476" lon="5.82049">
        <ele>394</ele>
        <time>2017-10-21T12:37:41Z</time>
      </trkpt>
      <trkpt lat="45.24764" lon="5.82044">
        <ele>395</ele>
        <time>2017-10-21T12:37:44Z</time>
      </trkpt>
      <trkpt lat="45.24767" lon="5.82038">
        <ele>396</ele>
        <time>2017-10-21T12:37:47Z</time>
      </trkpt>
      <trkpt lat="45.24771" lon="5.82031">
        <ele>397</ele>
        <time>2017-10-21T12:37:50Z</time>
      </trkpt>
      <trkpt lat="45.24775" lon="5.82025">
        <ele>398</ele>
        <time>2017-10-21T12:37:53Z</time>
      </trkpt>
      <trkpt lat="45.24778" lon="5.82019">
        <ele>399</ele>
        <time>2017-10-21T12:37:56Z</time>
      </trkpt>
      <trkpt lat="45.24781" lon="5.82012">
        <ele>400</ele>
        <time>2017-10-21T12:37:59Z</time>
      </trkpt>
      <trkpt lat="45.24784" lon="5.82006">
        <ele>401</ele>
        <time>2017-10-21T12:38:02Z</time>
      </trkpt>
      <trkpt lat="45.24786" lon="5.81999">
        <ele>401</ele>
        <time>2017-10-21T12:38:05Z</time>
      </trkpt>
      <trkpt lat="45.24789" lon="5.81992">
        <ele>402</ele>
        <time>2017-10-21T12:38:08Z</time>
      </trkpt>
      <trkpt lat="45.24793" lon="5.81986">
        <ele>403</ele>
        <time>2017-10-21T12:38:11Z</time>
      </trkpt>
      <trkpt lat="45.24797" lon="5.81982">
        <ele>404</ele>
        <time>2017-10-21T12:38:14Z</time>
      </trkpt>
      <trkpt lat="45.24802" lon="5.81977">
        <ele>404</ele>
        <time>2017-10-21T12:38:17Z</time>
      </trkpt>
      <trkpt lat="45.24807" lon="5.81975">
        <ele>405</ele>
        <time>2017-10-21T12:38:20Z</time>
      </trkpt>
      <trkpt lat="45.24812" lon="5.81978">
        <ele>405</ele>
        <time>2017-10-21T12:38:22Z</time>
      </trkpt>
      <trkpt lat="45.24816" lon="5.81981">
        <ele>405</ele>
        <time>2017-10-21T12:38:24Z</time>
      </trkpt>
      <trkpt lat="45.24821" lon="5.81985">
        <ele>405</ele>
        <time>2017-10-21T12:38:26Z</time>
      </trkpt>
      <trkpt lat="45.24826" lon="5.81988">
        <ele>405</ele>
        <time>2017-10-21T12:38:28Z</time>
      </trkpt>
      <trkpt lat="45.24831" lon="5.8199">
        <ele>405</ele>
        <time>2017-10-21T12:38:30Z</time>
      </trkpt>
      <trkpt lat="45.24837" lon="5.81993">
        <ele>406</ele>
        <time>2017-10-21T12:38:32Z</time>
      </trkpt>
      <trkpt lat="45.24842" lon="5.81995">
        <ele>406</ele>
        <time>2017-10-21T12:38:34Z</time>
      </trkpt>
      <trkpt lat="45.24847" lon="5.81997">
        <ele>406</ele>
        <time>2017-10-21T12:38:36Z</time>
      </trkpt>
      <trkpt lat="45.24852" lon="5.81999">
        <ele>406</ele>
        <time>2017-10-21T12:38:38Z</time>
      </trkpt>
      <trkpt lat="45.24857" lon="5.82001">
        <ele>407</ele>
        <time>2017-10-21T12:38:40Z</time>
      </trkpt>
      <trkpt lat="45.24862" lon="5.82002">
        <ele>407</ele>
        <time>2017-10-21T12:38:42Z</time>
      </trkpt>
      <trkpt lat="45.24867" lon="5.82004">
        <ele>407</ele>
        <time>2017-10-21T12:38:44Z</time>
      </trkpt>
      <trkpt lat="45.24873" lon="5.82007">
        <ele>407</ele>
        <time>2017-10-21T12:38:46Z</time>
      </trkpt>
      <trkpt lat="45.24879" lon="5.8201">
        <ele>407</ele>
        <time>2017-10-21T12:38:48Z</time>
      </trkpt>
      <trkpt lat="45.24886" lon="5.82012">
        <ele>407</ele>
        <time>2017-10-21T12:38:50Z</time>
      </trkpt>
      <trkpt lat="45.24891" lon="5.82015">
        <ele>407</ele>
        <time>2017-10-21T12:38:52Z</time>
      </trkpt>
      <trkpt lat="45.24897" lon="5.82016">
        <ele>408</ele>
        <time>2017-10-21T12:38:54Z</time>
      </trkpt>
      <trkpt lat="45.24904" lon="5.82018">
        <ele>408</ele>
        <time>2017-10-21T12:38:56Z</time>
      </trkpt>
      <trkpt lat="45.2491" lon="5.82019">
        <ele>408</ele>
        <time>2017-10-21T12:38:58Z</time>
      </trkpt>
      <trkpt lat="45.24917" lon="5.8202">
        <ele>409</ele>
        <time>2017-10-21T12:39:00Z</time>
      </trkpt>
      <trkpt lat="45.24923" lon="5.82023">
        <ele>409</ele>
        <time>2017-10-21T12:39:02Z</time>
      </trkpt>
      <trkpt lat="45.24929" lon="5.82024">
        <ele>409</ele>
        <time>2017-10-21T12:39:04Z</time>
      </trkpt>
      <trkpt lat="45.24936" lon="5.82024">
        <ele>410</ele>
        <time>2017-10-21T12:39:06Z</time>
      </trkpt>
      <trkpt lat="45.24941" lon="5.82025">
        <ele>410</ele>
        <time>2017-10-21T12:39:08Z</time>
      </trkpt>
      <trkpt lat="45.24947" lon="5.82026">
        <ele>411</ele>
        <time>2017-10-21T12:39:10Z</time>
      </trkpt>
      <trkpt lat="45.24952" lon="5.82026">
        <ele>411</ele>
        <time>2017-10-21T12:39:12Z</time>
      </trkpt>
      <trkpt lat="45.24957" lon="5.82027">
        <ele>411</ele>
        <time>2017-10-21T12:39:14Z</time>
      </trkpt>
      <trkpt lat="45.24962" lon="5.8203">
        <ele>411</ele>
        <time>2017-10-21T12:39:16Z</time>
      </trkpt>
      <trkpt lat="45.24966" lon="5.82035">
        <ele>412</ele>
        <time>2017-10-21T12:39:18Z</time>
      </trkpt>
      <trkpt lat="45.24969" lon="5.8204">
        <ele>411</ele>
        <time>2017-10-21T12:39:20Z</time>
      </trkpt>
      <trkpt lat="45.24973" lon="5.82045">
        <ele>411</ele>
        <time>2017-10-21T12:39:22Z</time>
      </trkpt>
      <trkpt lat="45.24976" lon="5.8205">
        <ele>411</ele>
        <time>2017-10-21T12:39:24Z</time>
      </trkpt>
      <trkpt lat="45.24979" lon="5.82055">
        <ele>411</ele>
        <time>2017-10-21T12:39:26Z</time>
      </trkpt>
      <trkpt lat="45.24983" lon="5.82061">
        <ele>411</ele>
        <time>2017-10-21T12:39:28Z</time>
      </trkpt>
      <trkpt lat="45.24987" lon="5.82067">
        <ele>411</ele>
        <time>2017-10-21T12:39:30Z</time>
      </trkpt>
      <trkpt lat="45.2499" lon="5.82072">
        <ele>411</ele>
        <time>2017-10-21T12:39:32Z</time>
      </trkpt>
      <trkpt lat="45.24994" lon="5.82078">
        <ele>411</ele>
        <time>2017-10-21T12:39:34Z</time>
      </trkpt>
      <trkpt lat="45.24997" lon="5.82084">
        <ele>411</ele>
        <time>2017-10-21T12:39:36Z</time>
      </trkpt>
      <trkpt lat="45.25002" lon="5.82091">
        <ele>411</ele>
        <time>2017-10-21T12:39:38Z</time>
      </trkpt>
      <trkpt lat="45.25006" lon="5.82098">
        <ele>411</ele>
        <time>2017-10-21T12:39:40Z</time>
      </trkpt>
      <trkpt lat="45.2501" lon="5.82104">
        <ele>412</ele>
        <time>2017-10-21T12:39:42Z</time>
      </trkpt>
      <trkpt lat="45.25015" lon="5.82111">
        <ele>412</ele>
        <time>2017-10-21T12:39:44Z</time>
      </trkpt>
      <trkpt lat="45.2502" lon="5.82119">
        <ele>412</ele>
        <time>2017-10-21T12:39:46Z</time>
      </trkpt>
      <trkpt lat="45.25024" lon="5.82127">
        <ele>412</ele>
        <time>2017-10-21T12:39:48Z</time>
      </trkpt>
      <trkpt lat="45.25028" lon="5.82135">
        <ele>412</ele>
        <time>2017-10-21T12:39:50Z</time>
      </trkpt>
      <trkpt lat="45.25032" lon="5.82144">
        <ele>412</ele>
        <time>2017-10-21T12:39:52Z</time>
      </trkpt>
      <trkpt lat="45.25037" lon="5.82153">
        <ele>412</ele>
        <time>2017-10-21T12:39:54Z</time>
      </trkpt>
      <trkpt lat="45.25042" lon="5.82162">
        <ele>412</ele>
        <time>2017-10-21T12:39:56Z</time>
      </trkpt>
      <trkpt lat="45.25047" lon="5.82172">
        <ele>412</ele>
        <time>2017-10-21T12:39:58Z</time>
      </trkpt>
      <trkpt lat="45.25052" lon="5.82181">
        <ele>412</ele>
        <time>2017-10-21T12:40:00Z</time>
      </trkpt>
      <trkpt lat="45.25056" lon="5.82191">
        <ele>412</ele>
        <time>2017-10-21T12:40:02Z</time>
      </trkpt>
      <trkpt lat="45.25059" lon="5.82201">
        <ele>411</ele>
        <time>2017-10-21T12:40:04Z</time>
      </trkpt>
      <trkpt lat="45.25062" lon="5.82212">
        <ele>411</ele>
        <time>2017-10-21T12:40:06Z</time>
      </trkpt>
      <trkpt lat="45.25065" lon="5.82222">
        <ele>411</ele>
        <time>2017-10-21T12:40:08Z</time>
      </trkpt>
      <trkpt lat="45.25069" lon="5.82233">
        <ele>411</ele>
        <time>2017-10-21T12:40:10Z</time>
      </trkpt>
      <trkpt lat="45.25073" lon="5.82244">
        <ele>411</ele>
        <time>2017-10-21T12:40:12Z</time>
      </trkpt>
      <trkpt lat="45.25075" lon="5.82251">
        <ele>411</ele>
        <time>2017-10-21T12:40:13Z</time>
      </trkpt>
      <trkpt lat="45.25079" lon="5.82258">
        <ele>411</ele>
        <time>2017-10-21T12:40:14Z</time>
      </trkpt>
      <trkpt lat="45.25082" lon="5.82268">
        <ele>411</ele>
        <time>2017-10-21T12:40:16Z</time>
      </trkpt>
      <trkpt lat="45.25085" lon="5.82274">
        <ele>411</ele>
        <time>2017-10-21T12:40:17Z</time>
      </trkpt>
      <trkpt lat="45.25087" lon="5.8228">
        <ele>410</ele>
        <time>2017-10-21T12:40:18Z</time>
      </trkpt>
      <trkpt lat="45.2509" lon="5.82286">
        <ele>410</ele>
        <time>2017-10-21T12:40:19Z</time>
      </trkpt>
      <trkpt lat="45.25095" lon="5.82294">
        <ele>410</ele>
        <time>2017-10-21T12:40:21Z</time>
      </trkpt>
      <trkpt lat="45.25104" lon="5.823">
        <ele>411</ele>
        <time>2017-10-21T12:40:24Z</time>
      </trkpt>
      <trkpt lat="45.25111" lon="5.82302">
        <ele>411</ele>
        <time>2017-10-21T12:40:27Z</time>
      </trkpt>
      <trkpt lat="45.25115" lon="5.82303">
        <ele>411</ele>
        <time>2017-10-21T12:40:29Z</time>
      </trkpt>
      <trkpt lat="45.2512" lon="5.82302">
        <ele>412</ele>
        <time>2017-10-21T12:40:31Z</time>
      </trkpt>
      <trkpt lat="45.25126" lon="5.823">
        <ele>413</ele>
        <time>2017-10-21T12:40:34Z</time>
      </trkpt>
      <trkpt lat="45.25131" lon="5.82297">
        <ele>413</ele>
        <time>2017-10-21T12:40:37Z</time>
      </trkpt>
      <trkpt lat="45.25137" lon="5.82294">
        <ele>414</ele>
        <time>2017-10-21T12:40:40Z</time>
      </trkpt>
      <trkpt lat="45.25142" lon="5.8229">
        <ele>415</ele>
        <time>2017-10-21T12:40:43Z</time>
      </trkpt>
      <trkpt lat="45.25147" lon="5.82285">
        <ele>415</ele>
        <time>2017-10-21T12:40:46Z</time>
      </trkpt>
      <trkpt lat="45.25152" lon="5.8228">
        <ele>416</ele>
        <time>2017-10-21T12:40:49Z</time>
      </trkpt>
      <trkpt lat="45.25157" lon="5.82276">
        <ele>417</ele>
        <time>2017-10-21T12:40:52Z</time>
      </trkpt>
      <trkpt lat="45.25162" lon="5.82272">
        <ele>417</ele>
        <time>2017-10-21T12:40:55Z</time>
      </trkpt>
      <trkpt lat="45.25168" lon="5.8227">
        <ele>418</ele>
        <time>2017-10-21T12:40:58Z</time>
      </trkpt>
      <trkpt lat="45.25173" lon="5.82271">
        <ele>418</ele>
        <time>2017-10-21T12:41:01Z</time>
      </trkpt>
      <trkpt lat="45.25179" lon="5.82272">
        <ele>419</ele>
        <time>2017-10-21T12:41:04Z</time>
      </trkpt>
      <trkpt lat="45.25184" lon="5.82269">
        <ele>419</ele>
        <time>2017-10-21T12:41:07Z</time>
      </trkpt>
      <trkpt lat="45.25188" lon="5.82263">
        <ele>420</ele>
        <time>2017-10-21T12:41:10Z</time>
      </trkpt>
      <trkpt lat="45.25194" lon="5.82262">
        <ele>421</ele>
        <time>2017-10-21T12:41:13Z</time>
      </trkpt>
      <trkpt lat="45.252" lon="5.82264">
        <ele>421</ele>
        <time>2017-10-21T12:41:16Z</time>
      </trkpt>
      <trkpt lat="45.25205" lon="5.82269">
        <ele>421</ele>
        <time>2017-10-21T12:41:19Z</time>
      </trkpt>
      <trkpt lat="45.25209" lon="5.82275">
        <ele>421</ele>
        <time>2017-10-21T12:41:22Z</time>
      </trkpt>
      <trkpt lat="45.25214" lon="5.82281">
        <ele>422</ele>
        <time>2017-10-21T12:41:25Z</time>
      </trkpt>
      <trkpt lat="45.25218" lon="5.82284">
        <ele>422</ele>
        <time>2017-10-21T12:41:27Z</time>
      </trkpt>
      <trkpt lat="45.25222" lon="5.82288">
        <ele>422</ele>
        <time>2017-10-21T12:41:29Z</time>
      </trkpt>
      <trkpt lat="45.25227" lon="5.82292">
        <ele>422</ele>
        <time>2017-10-21T12:41:31Z</time>
      </trkpt>
      <trkpt lat="45.25231" lon="5.82297">
        <ele>422</ele>
        <time>2017-10-21T12:41:33Z</time>
      </trkpt>
      <trkpt lat="45.25236" lon="5.82301">
        <ele>422</ele>
        <time>2017-10-21T12:41:35Z</time>
      </trkpt>
      <trkpt lat="45.2524" lon="5.82305">
        <ele>422</ele>
        <time>2017-10-21T12:41:37Z</time>
      </trkpt>
      <trkpt lat="45.25245" lon="5.82309">
        <ele>423</ele>
        <time>2017-10-21T12:41:39Z</time>
      </trkpt>
      <trkpt lat="45.2525" lon="5.82314">
        <ele>423</ele>
        <time>2017-10-21T12:41:41Z</time>
      </trkpt>
      <trkpt lat="45.25255" lon="5.82319">
        <ele>423</ele>
        <time>2017-10-21T12:41:43Z</time>
      </trkpt>
      <trkpt lat="45.2526" lon="5.82324">
        <ele>423</ele>
        <time>2017-10-21T12:41:45Z</time>
      </trkpt>
      <trkpt lat="45.25265" lon="5.82329">
        <ele>423</ele>
        <time>2017-10-21T12:41:47Z</time>
      </trkpt>
      <trkpt lat="45.2527" lon="5.82334">
        <ele>423</ele>
        <time>2017-10-21T12:41:49Z</time>
      </trkpt>
      <trkpt lat="45.25275" lon="5.82339">
        <ele>424</ele>
        <time>2017-10-21T12:41:51Z</time>
      </trkpt>
      <trkpt lat="45.25281" lon="5.82344">
        <ele>424</ele>
        <time>2017-10-21T12:41:53Z</time>
      </trkpt>
      <trkpt lat="45.2529" lon="5.8235">
        <ele>424</ele>
        <time>2017-10-21T12:41:56Z</time>
      </trkpt>
      <trkpt lat="45.25295" lon="5.82355">
        <ele>424</ele>
        <time>2017-10-21T12:41:58Z</time>
      </trkpt>
      <trkpt lat="45.253" lon="5.82361">
        <ele>424</ele>
        <time>2017-10-21T12:42:00Z</time>
      </trkpt>
      <trkpt lat="45.25306" lon="5.82364">
        <ele>425</ele>
        <time>2017-10-21T12:42:02Z</time>
      </trkpt>
      <trkpt lat="45.2531" lon="5.82368">
        <ele>425</ele>
        <time>2017-10-21T12:42:04Z</time>
      </trkpt>
      <trkpt lat="45.25314" lon="5.82372">
        <ele>425</ele>
        <time>2017-10-21T12:42:06Z</time>
      </trkpt>
      <trkpt lat="45.25319" lon="5.82376">
        <ele>425</ele>
        <time>2017-10-21T12:42:08Z</time>
      </trkpt>
      <trkpt lat="45.25325" lon="5.82381">
        <ele>426</ele>
        <time>2017-10-21T12:42:10Z</time>
      </trkpt>
      <trkpt lat="45.25332" lon="5.82388">
        <ele>426</ele>
        <time>2017-10-21T12:42:12Z</time>
      </trkpt>
      <trkpt lat="45.25339" lon="5.82394">
        <ele>426</ele>
        <time>2017-10-21T12:42:14Z</time>
      </trkpt>
      <trkpt lat="45.25346" lon="5.824">
        <ele>426</ele>
        <time>2017-10-21T12:42:16Z</time>
      </trkpt>
      <trkpt lat="45.25353" lon="5.82406">
        <ele>426</ele>
        <time>2017-10-21T12:42:18Z</time>
      </trkpt>
      <trkpt lat="45.25358" lon="5.8241">
        <ele>426</ele>
        <time>2017-10-21T12:42:20Z</time>
      </trkpt>
      <trkpt lat="45.25364" lon="5.82415">
        <ele>426</ele>
        <time>2017-10-21T12:42:22Z</time>
      </trkpt>
      <trkpt lat="45.2537" lon="5.82422">
        <ele>426</ele>
        <time>2017-10-21T12:42:24Z</time>
      </trkpt>
      <trkpt lat="45.25377" lon="5.8243">
        <ele>426</ele>
        <time>2017-10-21T12:42:26Z</time>
      </trkpt>
      <trkpt lat="45.25383" lon="5.82437">
        <ele>426</ele>
        <time>2017-10-21T12:42:28Z</time>
      </trkpt>
      <trkpt lat="45.2539" lon="5.82444">
        <ele>426</ele>
        <time>2017-10-21T12:42:30Z</time>
      </trkpt>
      <trkpt lat="45.25396" lon="5.82452">
        <ele>426</ele>
        <time>2017-10-21T12:42:32Z</time>
      </trkpt>
      <trkpt lat="45.25401" lon="5.8246">
        <ele>426</ele>
        <time>2017-10-21T12:42:34Z</time>
      </trkpt>
      <trkpt lat="45.25407" lon="5.82469">
        <ele>425</ele>
        <time>2017-10-21T12:42:36Z</time>
      </trkpt>
      <trkpt lat="45.2541" lon="5.82474">
        <ele>425</ele>
        <time>2017-10-21T12:42:37Z</time>
      </trkpt>
      <trkpt lat="45.25416" lon="5.82483">
        <ele>425</ele>
        <time>2017-10-21T12:42:39Z</time>
      </trkpt>
      <trkpt lat="45.25421" lon="5.82491">
        <ele>425</ele>
        <time>2017-10-21T12:42:41Z</time>
      </trkpt>
      <trkpt lat="45.25426" lon="5.82499">
        <ele>424</ele>
        <time>2017-10-21T12:42:43Z</time>
      </trkpt>
      <trkpt lat="45.25433" lon="5.82508">
        <ele>424</ele>
        <time>2017-10-21T12:42:45Z</time>
      </trkpt>
      <trkpt lat="45.25438" lon="5.82513">
        <ele>424</ele>
        <time>2017-10-21T12:42:46Z</time>
      </trkpt>
      <trkpt lat="45.25442" lon="5.82518">
        <ele>424</ele>
        <time>2017-10-21T12:42:47Z</time>
      </trkpt>
      <trkpt lat="45.25446" lon="5.82522">
        <ele>424</ele>
        <time>2017-10-21T12:42:48Z</time>
      </trkpt>
      <trkpt lat="45.25451" lon="5.82527">
        <ele>423</ele>
        <time>2017-10-21T12:42:49Z</time>
      </trkpt>
      <trkpt lat="45.25461" lon="5.82537">
        <ele>423</ele>
        <time>2017-10-21T12:42:51Z</time>
      </trkpt>
      <trkpt lat="45.25466" lon="5.82543">
        <ele>423</ele>
        <time>2017-10-21T12:42:52Z</time>
      </trkpt>
      <trkpt lat="45.25471" lon="5.82549">
        <ele>422</ele>
        <time>2017-10-21T12:42:53Z</time>
      </trkpt>
      <trkpt lat="45.25476" lon="5.82554">
        <ele>422</ele>
        <time>2017-10-21T12:42:54Z</time>
      </trkpt>
      <trkpt lat="45.25481" lon="5.82561">
        <ele>421</ele>
        <time>2017-10-21T12:42:55Z</time>
      </trkpt>
      <trkpt lat="45.25486" lon="5.82567">
        <ele>421</ele>
        <time>2017-10-21T12:42:56Z</time>
      </trkpt>
      <trkpt lat="45.25491" lon="5.82573">
        <ele>420</ele>
        <time>2017-10-21T12:42:57Z</time>
      </trkpt>
      <trkpt lat="45.25498" lon="5.82581">
        <ele>420</ele>
        <time>2017-10-21T12:42:58Z</time>
      </trkpt>
      <trkpt lat="45.25504" lon="5.82589">
        <ele>419</ele>
        <time>2017-10-21T12:42:59Z</time>
      </trkpt>
      <trkpt lat="45.25512" lon="5.82598">
        <ele>418</ele>
        <time>2017-10-21T12:43:00Z</time>
      </trkpt>
      <trkpt lat="45.25519" lon="5.82607">
        <ele>418</ele>
        <time>2017-10-21T12:43:01Z</time>
      </trkpt>
      <trkpt lat="45.25526" lon="5.82616">
        <ele>417</ele>
        <time>2017-10-21T12:43:02Z</time>
      </trkpt>
      <trkpt lat="45.25533" lon="5.82627">
        <ele>416</ele>
        <time>2017-10-21T12:43:03Z</time>
      </trkpt>
      <trkpt lat="45.2554" lon="5.82637">
        <ele>415</ele>
        <time>2017-10-21T12:43:04Z</time>
      </trkpt>
      <trkpt lat="45.25547" lon="5.82647">
        <ele>414</ele>
        <time>2017-10-21T12:43:05Z</time>
      </trkpt>
      <trkpt lat="45.25554" lon="5.82654">
        <ele>414</ele>
        <time>2017-10-21T12:43:06Z</time>
      </trkpt>
      <trkpt lat="45.25559" lon="5.82662">
        <ele>413</ele>
        <time>2017-10-21T12:43:07Z</time>
      </trkpt>
      <trkpt lat="45.25566" lon="5.8267">
        <ele>412</ele>
        <time>2017-10-21T12:43:08Z</time>
      </trkpt>
      <trkpt lat="45.25572" lon="5.82679">
        <ele>411</ele>
        <time>2017-10-21T12:43:09Z</time>
      </trkpt>
      <trkpt lat="45.25578" lon="5.82687">
        <ele>410</ele>
        <time>2017-10-21T12:43:10Z</time>
      </trkpt>
      <trkpt lat="45.25585" lon="5.82697">
        <ele>409</ele>
        <time>2017-10-21T12:43:11Z</time>
      </trkpt>
      <trkpt lat="45.25591" lon="5.82707">
        <ele>408</ele>
        <time>2017-10-21T12:43:12Z</time>
      </trkpt>
      <trkpt lat="45.25598" lon="5.82717">
        <ele>407</ele>
        <time>2017-10-21T12:43:13Z</time>
      </trkpt>
      <trkpt lat="45.25607" lon="5.82729">
        <ele>406</ele>
        <time>2017-10-21T12:43:14Z</time>
      </trkpt>
      <trkpt lat="45.25615" lon="5.82738">
        <ele>406</ele>
        <time>2017-10-21T12:43:15Z</time>
      </trkpt>
      <trkpt lat="45.25623" lon="5.82749">
        <ele>405</ele>
        <time>2017-10-21T12:43:16Z</time>
      </trkpt>
      <trkpt lat="45.25636" lon="5.82771">
        <ele>404</ele>
        <time>2017-10-21T12:43:18Z</time>
      </trkpt>
      <trkpt lat="45.25641" lon="5.82783">
        <ele>403</ele>
        <time>2017-10-21T12:43:19Z</time>
      </trkpt>
      <trkpt lat="45.25646" lon="5.82793">
        <ele>403</ele>
        <time>2017-10-21T12:43:20Z</time>
      </trkpt>
      <trkpt lat="45.25652" lon="5.82805">
        <ele>402</ele>
        <time>2017-10-21T12:43:21Z</time>
      </trkpt>
      <trkpt lat="45.25658" lon="5.82818">
        <ele>401</ele>
        <time>2017-10-21T12:43:22Z</time>
      </trkpt>
      <trkpt lat="45.25664" lon="5.82828">
        <ele>401</ele>
        <time>2017-10-21T12:43:23Z</time>
      </trkpt>
      <trkpt lat="45.25671" lon="5.82839">
        <ele>401</ele>
        <time>2017-10-21T12:43:24Z</time>
      </trkpt>
      <trkpt lat="45.25678" lon="5.82849">
        <ele>400</ele>
        <time>2017-10-21T12:43:25Z</time>
      </trkpt>
      <trkpt lat="45.25684" lon="5.82858">
        <ele>401</ele>
        <time>2017-10-21T12:43:26Z</time>
      </trkpt>
      <trkpt lat="45.2569" lon="5.82868">
        <ele>401</ele>
        <time>2017-10-21T12:43:27Z</time>
      </trkpt>
      <trkpt lat="45.25695" lon="5.82876">
        <ele>401</ele>
        <time>2017-10-21T12:43:28Z</time>
      </trkpt>
      <trkpt lat="45.25702" lon="5.82884">
        <ele>401</ele>
        <time>2017-10-21T12:43:29Z</time>
      </trkpt>
      <trkpt lat="45.25707" lon="5.82894">
        <ele>401</ele>
        <time>2017-10-21T12:43:30Z</time>
      </trkpt>
      <trkpt lat="45.25713" lon="5.82901">
        <ele>401</ele>
        <time>2017-10-21T12:43:31Z</time>
      </trkpt>
      <trkpt lat="45.25717" lon="5.82909">
        <ele>401</ele>
        <time>2017-10-21T12:43:32Z</time>
      </trkpt>
      <trkpt lat="45.25723" lon="5.82916">
        <ele>402</ele>
        <time>2017-10-21T12:43:33Z</time>
      </trkpt>
      <trkpt lat="45.25728" lon="5.82923">
        <ele>402</ele>
        <time>2017-10-21T12:43:34Z</time>
      </trkpt>
      <trkpt lat="45.25734" lon="5.82931">
        <ele>402</ele>
        <time>2017-10-21T12:43:35Z</time>
      </trkpt>
      <trkpt lat="45.25738" lon="5.82937">
        <ele>402</ele>
        <time>2017-10-21T12:43:36Z</time>
      </trkpt>
      <trkpt lat="45.25742" lon="5.82943">
        <ele>402</ele>
        <time>2017-10-21T12:43:37Z</time>
      </trkpt>
      <trkpt lat="45.25745" lon="5.82949">
        <ele>402</ele>
        <time>2017-10-21T12:43:38Z</time>
      </trkpt>
      <trkpt lat="45.25748" lon="5.82955">
        <ele>402</ele>
        <time>2017-10-21T12:43:39Z</time>
      </trkpt>
      <trkpt lat="45.25752" lon="5.8296">
        <ele>402</ele>
        <time>2017-10-21T12:43:40Z</time>
      </trkpt>
      <trkpt lat="45.25758" lon="5.82966">
        <ele>403</ele>
        <time>2017-10-21T12:43:42Z</time>
      </trkpt>
      <trkpt lat="45.25764" lon="5.82975">
        <ele>403</ele>
        <time>2017-10-21T12:43:44Z</time>
      </trkpt>
      <trkpt lat="45.25769" lon="5.82982">
        <ele>404</ele>
        <time>2017-10-21T12:43:46Z</time>
      </trkpt>
      <trkpt lat="45.25773" lon="5.82989">
        <ele>404</ele>
        <time>2017-10-21T12:43:48Z</time>
      </trkpt>
      <trkpt lat="45.25776" lon="5.82995">
        <ele>404</ele>
        <time>2017-10-21T12:43:49Z</time>
      </trkpt>
      <trkpt lat="45.25779" lon="5.83">
        <ele>404</ele>
        <time>2017-10-21T12:43:51Z</time>
      </trkpt>
      <trkpt lat="45.25784" lon="5.83007">
        <ele>405</ele>
        <time>2017-10-21T12:43:53Z</time>
      </trkpt>
      <trkpt lat="45.25788" lon="5.83013">
        <ele>405</ele>
        <time>2017-10-21T12:43:55Z</time>
      </trkpt>
      <trkpt lat="45.25794" lon="5.83021">
        <ele>405</ele>
        <time>2017-10-21T12:43:57Z</time>
      </trkpt>
      <trkpt lat="45.25799" lon="5.83027">
        <ele>406</ele>
        <time>2017-10-21T12:43:59Z</time>
      </trkpt>
      <trkpt lat="45.25804" lon="5.83033">
        <ele>406</ele>
        <time>2017-10-21T12:44:01Z</time>
      </trkpt>
      <trkpt lat="45.25809" lon="5.83038">
        <ele>407</ele>
        <time>2017-10-21T12:44:03Z</time>
      </trkpt>
      <trkpt lat="45.25815" lon="5.83042">
        <ele>407</ele>
        <time>2017-10-21T12:44:05Z</time>
      </trkpt>
      <trkpt lat="45.2582" lon="5.83047">
        <ele>408</ele>
        <time>2017-10-21T12:44:07Z</time>
      </trkpt>
      <trkpt lat="45.25825" lon="5.8305">
        <ele>408</ele>
        <time>2017-10-21T12:44:09Z</time>
      </trkpt>
      <trkpt lat="45.25831" lon="5.83053">
        <ele>409</ele>
        <time>2017-10-21T12:44:11Z</time>
      </trkpt>
      <trkpt lat="45.25836" lon="5.83056">
        <ele>409</ele>
        <time>2017-10-21T12:44:13Z</time>
      </trkpt>
      <trkpt lat="45.25842" lon="5.8306">
        <ele>410</ele>
        <time>2017-10-21T12:44:16Z</time>
      </trkpt>
      <trkpt lat="45.25848" lon="5.83062">
        <ele>410</ele>
        <time>2017-10-21T12:44:18Z</time>
      </trkpt>
      <trkpt lat="45.25853" lon="5.83065">
        <ele>411</ele>
        <time>2017-10-21T12:44:20Z</time>
      </trkpt>
      <trkpt lat="45.25857" lon="5.83069">
        <ele>411</ele>
        <time>2017-10-21T12:44:22Z</time>
      </trkpt>
      <trkpt lat="45.25862" lon="5.83073">
        <ele>411</ele>
        <time>2017-10-21T12:44:24Z</time>
      </trkpt>
      <trkpt lat="45.25867" lon="5.83076">
        <ele>412</ele>
        <time>2017-10-21T12:44:26Z</time>
      </trkpt>
      <trkpt lat="45.25872" lon="5.83079">
        <ele>412</ele>
        <time>2017-10-21T12:44:28Z</time>
      </trkpt>
      <trkpt lat="45.25876" lon="5.83082">
        <ele>412</ele>
        <time>2017-10-21T12:44:30Z</time>
      </trkpt>
      <trkpt lat="45.25881" lon="5.83086">
        <ele>413</ele>
        <time>2017-10-21T12:44:32Z</time>
      </trkpt>
      <trkpt lat="45.25885" lon="5.8309">
        <ele>413</ele>
        <time>2017-10-21T12:44:34Z</time>
      </trkpt>
      <trkpt lat="45.2589" lon="5.83093">
        <ele>413</ele>
        <time>2017-10-21T12:44:36Z</time>
      </trkpt>
      <trkpt lat="45.25895" lon="5.83097">
        <ele>414</ele>
        <time>2017-10-21T12:44:38Z</time>
      </trkpt>
      <trkpt lat="45.25899" lon="5.83101">
        <ele>414</ele>
        <time>2017-10-21T12:44:40Z</time>
      </trkpt>
      <trkpt lat="45.25903" lon="5.83105">
        <ele>414</ele>
        <time>2017-10-21T12:44:42Z</time>
      </trkpt>
      <trkpt lat="45.25908" lon="5.83109">
        <ele>415</ele>
        <time>2017-10-21T12:44:44Z</time>
      </trkpt>
      <trkpt lat="45.25913" lon="5.83112">
        <ele>415</ele>
        <time>2017-10-21T12:44:46Z</time>
      </trkpt>
      <trkpt lat="45.25918" lon="5.83116">
        <ele>415</ele>
        <time>2017-10-21T12:44:48Z</time>
      </trkpt>
      <trkpt lat="45.25922" lon="5.83121">
        <ele>416</ele>
        <time>2017-10-21T12:44:50Z</time>
      </trkpt>
      <trkpt lat="45.25927" lon="5.83125">
        <ele>416</ele>
        <time>2017-10-21T12:44:52Z</time>
      </trkpt>
      <trkpt lat="45.25931" lon="5.83129">
        <ele>416</ele>
        <time>2017-10-21T12:44:54Z</time>
      </trkpt>
      <trkpt lat="45.25935" lon="5.83133">
        <ele>416</ele>
        <time>2017-10-21T12:44:56Z</time>
      </trkpt>
      <trkpt lat="45.2594" lon="5.83138">
        <ele>417</ele>
        <time>2017-10-21T12:44:58Z</time>
      </trkpt>
      <trkpt lat="45.25943" lon="5.83143">
        <ele>417</ele>
        <time>2017-10-21T12:45:00Z</time>
      </trkpt>
      <trkpt lat="45.25946" lon="5.83147">
        <ele>417</ele>
        <time>2017-10-21T12:45:02Z</time>
      </trkpt>
      <trkpt lat="45.2595" lon="5.83152">
        <ele>417</ele>
        <time>2017-10-21T12:45:04Z</time>
      </trkpt>
      <trkpt lat="45.25954" lon="5.83155">
        <ele>417</ele>
        <time>2017-10-21T12:45:06Z</time>
      </trkpt>
      <trkpt lat="45.25958" lon="5.83159">
        <ele>417</ele>
        <time>2017-10-21T12:45:08Z</time>
      </trkpt>
      <trkpt lat="45.25962" lon="5.83164">
        <ele>418</ele>
        <time>2017-10-21T12:45:10Z</time>
      </trkpt>
      <trkpt lat="45.25967" lon="5.83168">
        <ele>418</ele>
        <time>2017-10-21T12:45:12Z</time>
      </trkpt>
      <trkpt lat="45.25971" lon="5.83172">
        <ele>418</ele>
        <time>2017-10-21T12:45:14Z</time>
      </trkpt>
      <trkpt lat="45.25975" lon="5.83176">
        <ele>418</ele>
        <time>2017-10-21T12:45:16Z</time>
      </trkpt>
      <trkpt lat="45.2598" lon="5.83182">
        <ele>419</ele>
        <time>2017-10-21T12:45:18Z</time>
      </trkpt>
      <trkpt lat="45.25985" lon="5.83186">
        <ele>419</ele>
        <time>2017-10-21T12:45:20Z</time>
      </trkpt>
      <trkpt lat="45.2599" lon="5.8319">
        <ele>420</ele>
        <time>2017-10-21T12:45:22Z</time>
      </trkpt>
      <trkpt lat="45.25995" lon="5.83193">
        <ele>420</ele>
        <time>2017-10-21T12:45:24Z</time>
      </trkpt>
      <trkpt lat="45.26" lon="5.83197">
        <ele>420</ele>
        <time>2017-10-21T12:45:26Z</time>
      </trkpt>
      <trkpt lat="45.26006" lon="5.832">
        <ele>421</ele>
        <time>2017-10-21T12:45:28Z</time>
      </trkpt>
      <trkpt lat="45.26011" lon="5.83201">
        <ele>422</ele>
        <time>2017-10-21T12:45:30Z</time>
      </trkpt>
      <trkpt lat="45.26017" lon="5.83202">
        <ele>422</ele>
        <time>2017-10-21T12:45:32Z</time>
      </trkpt>
      <trkpt lat="45.26023" lon="5.83203">
        <ele>423</ele>
        <time>2017-10-21T12:45:34Z</time>
      </trkpt>
      <trkpt lat="45.26029" lon="5.83203">
        <ele>424</ele>
        <time>2017-10-21T12:45:36Z</time>
      </trkpt>
      <trkpt lat="45.26035" lon="5.83202">
        <ele>424</ele>
        <time>2017-10-21T12:45:38Z</time>
      </trkpt>
      <trkpt lat="45.26041" lon="5.83201">
        <ele>425</ele>
        <time>2017-10-21T12:45:40Z</time>
      </trkpt>
      <trkpt lat="45.26047" lon="5.83199">
        <ele>426</ele>
        <time>2017-10-21T12:45:42Z</time>
      </trkpt>
      <trkpt lat="45.26051" lon="5.83197">
        <ele>426</ele>
        <time>2017-10-21T12:45:44Z</time>
      </trkpt>
      <trkpt lat="45.26056" lon="5.83194">
        <ele>427</ele>
        <time>2017-10-21T12:45:46Z</time>
      </trkpt>
      <trkpt lat="45.26063" lon="5.83192">
        <ele>428</ele>
        <time>2017-10-21T12:45:49Z</time>
      </trkpt>
      <trkpt lat="45.26067" lon="5.8319">
        <ele>429</ele>
        <time>2017-10-21T12:45:51Z</time>
      </trkpt>
      <trkpt lat="45.26071" lon="5.83187">
        <ele>429</ele>
        <time>2017-10-21T12:45:53Z</time>
      </trkpt>
      <trkpt lat="45.26076" lon="5.83184">
        <ele>430</ele>
        <time>2017-10-21T12:45:55Z</time>
      </trkpt>
      <trkpt lat="45.2608" lon="5.83181">
        <ele>430</ele>
        <time>2017-10-21T12:45:57Z</time>
      </trkpt>
      <trkpt lat="45.26091" lon="5.83176">
        <ele>432</ele>
        <time>2017-10-21T12:46:02Z</time>
      </trkpt>
      <trkpt lat="45.26095" lon="5.83176">
        <ele>432</ele>
        <time>2017-10-21T12:46:04Z</time>
      </trkpt>
      <trkpt lat="45.261" lon="5.83176">
        <ele>433</ele>
        <time>2017-10-21T12:46:06Z</time>
      </trkpt>
      <trkpt lat="45.26105" lon="5.83175">
        <ele>433</ele>
        <time>2017-10-21T12:46:08Z</time>
      </trkpt>
      <trkpt lat="45.26112" lon="5.83177">
        <ele>434</ele>
        <time>2017-10-21T12:46:11Z</time>
      </trkpt>
      <trkpt lat="45.26118" lon="5.83178">
        <ele>434</ele>
        <time>2017-10-21T12:46:14Z</time>
      </trkpt>
      <trkpt lat="45.26123" lon="5.83179">
        <ele>435</ele>
        <time>2017-10-21T12:46:17Z</time>
      </trkpt>
      <trkpt lat="45.26129" lon="5.83181">
        <ele>435</ele>
        <time>2017-10-21T12:46:20Z</time>
      </trkpt>
      <trkpt lat="45.26135" lon="5.83183">
        <ele>436</ele>
        <time>2017-10-21T12:46:23Z</time>
      </trkpt>
      <trkpt lat="45.26141" lon="5.83186">
        <ele>436</ele>
        <time>2017-10-21T12:46:26Z</time>
      </trkpt>
      <trkpt lat="45.26146" lon="5.83189">
        <ele>437</ele>
        <time>2017-10-21T12:46:29Z</time>
      </trkpt>
      <trkpt lat="45.26151" lon="5.83192">
        <ele>437</ele>
        <time>2017-10-21T12:46:32Z</time>
      </trkpt>
      <trkpt lat="45.26157" lon="5.83194">
        <ele>438</ele>
        <time>2017-10-21T12:46:35Z</time>
      </trkpt>
      <trkpt lat="45.26163" lon="5.83196">
        <ele>438</ele>
        <time>2017-10-21T12:46:38Z</time>
      </trkpt>
      <trkpt lat="45.26169" lon="5.83198">
        <ele>439</ele>
        <time>2017-10-21T12:46:41Z</time>
      </trkpt>
      <trkpt lat="45.26175" lon="5.83199">
        <ele>439</ele>
        <time>2017-10-21T12:46:44Z</time>
      </trkpt>
      <trkpt lat="45.26181" lon="5.83201">
        <ele>440</ele>
        <time>2017-10-21T12:46:47Z</time>
      </trkpt>
      <trkpt lat="45.26186" lon="5.83205">
        <ele>440</ele>
        <time>2017-10-21T12:46:50Z</time>
      </trkpt>
      <trkpt lat="45.26191" lon="5.83207">
        <ele>441</ele>
        <time>2017-10-21T12:46:53Z</time>
      </trkpt>
      <trkpt lat="45.26196" lon="5.83209">
        <ele>441</ele>
        <time>2017-10-21T12:46:56Z</time>
      </trkpt>
      <trkpt lat="45.26201" lon="5.8321">
        <ele>442</ele>
        <time>2017-10-21T12:46:59Z</time>
      </trkpt>
      <trkpt lat="45.26206" lon="5.83212">
        <ele>442</ele>
        <time>2017-10-21T12:47:02Z</time>
      </trkpt>
      <trkpt lat="45.26212" lon="5.83214">
        <ele>443</ele>
        <time>2017-10-21T12:47:05Z</time>
      </trkpt>
      <trkpt lat="45.26218" lon="5.83214">
        <ele>444</ele>
        <time>2017-10-21T12:47:08Z</time>
      </trkpt>
      <trkpt lat="45.26223" lon="5.83215">
        <ele>444</ele>
        <time>2017-10-21T12:47:11Z</time>
      </trkpt>
      <trkpt lat="45.26228" lon="5.83217">
        <ele>445</ele>
        <time>2017-10-21T12:47:14Z</time>
      </trkpt>
      <trkpt lat="45.26233" lon="5.8322">
        <ele>445</ele>
        <time>2017-10-21T12:47:17Z</time>
      </trkpt>
      <trkpt lat="45.26236" lon="5.83225">
        <ele>446</ele>
        <time>2017-10-21T12:47:20Z</time>
      </trkpt>
      <trkpt lat="45.26239" lon="5.83231">
        <ele>446</ele>
        <time>2017-10-21T12:47:23Z</time>
      </trkpt>
      <trkpt lat="45.26241" lon="5.8324">
        <ele>447</ele>
        <time>2017-10-21T12:47:26Z</time>
      </trkpt>
      <trkpt lat="45.26242" lon="5.83247">
        <ele>447</ele>
        <time>2017-10-21T12:47:28Z</time>
      </trkpt>
      <trkpt lat="45.26242" lon="5.83255">
        <ele>447</ele>
        <time>2017-10-21T12:47:30Z</time>
      </trkpt>
      <trkpt lat="45.26243" lon="5.83262">
        <ele>447</ele>
        <time>2017-10-21T12:47:32Z</time>
      </trkpt>
      <trkpt lat="45.26245" lon="5.83271">
        <ele>448</ele>
        <time>2017-10-21T12:47:34Z</time>
      </trkpt>
      <trkpt lat="45.26246" lon="5.8328">
        <ele>448</ele>
        <time>2017-10-21T12:47:36Z</time>
      </trkpt>
      <trkpt lat="45.26248" lon="5.8329">
        <ele>448</ele>
        <time>2017-10-21T12:47:38Z</time>
      </trkpt>
      <trkpt lat="45.2625" lon="5.83299">
        <ele>449</ele>
        <time>2017-10-21T12:47:40Z</time>
      </trkpt>
      <trkpt lat="45.26252" lon="5.83309">
        <ele>449</ele>
        <time>2017-10-21T12:47:42Z</time>
      </trkpt>
      <trkpt lat="45.26254" lon="5.83318">
        <ele>449</ele>
        <time>2017-10-21T12:47:44Z</time>
      </trkpt>
      <trkpt lat="45.26255" lon="5.83326">
        <ele>449</ele>
        <time>2017-10-21T12:47:46Z</time>
      </trkpt>
      <trkpt lat="45.26257" lon="5.83334">
        <ele>450</ele>
        <time>2017-10-21T12:47:48Z</time>
      </trkpt>
      <trkpt lat="45.26258" lon="5.83341">
        <ele>450</ele>
        <time>2017-10-21T12:47:50Z</time>
      </trkpt>
      <trkpt lat="45.26259" lon="5.83349">
        <ele>450</ele>
        <time>2017-10-21T12:47:52Z</time>
      </trkpt>
      <trkpt lat="45.2626" lon="5.83356">
        <ele>450</ele>
        <time>2017-10-21T12:47:54Z</time>
      </trkpt>
      <trkpt lat="45.26262" lon="5.83364">
        <ele>450</ele>
        <time>2017-10-21T12:47:56Z</time>
      </trkpt>
      <trkpt lat="45.26263" lon="5.8337">
        <ele>450</ele>
        <time>2017-10-21T12:47:58Z</time>
      </trkpt>
      <trkpt lat="45.26264" lon="5.83377">
        <ele>450</ele>
        <time>2017-10-21T12:48:00Z</time>
      </trkpt>
      <trkpt lat="45.26264" lon="5.83384">
        <ele>450</ele>
        <time>2017-10-21T12:48:02Z</time>
      </trkpt>
      <trkpt lat="45.26265" lon="5.83391">
        <ele>450</ele>
        <time>2017-10-21T12:48:04Z</time>
      </trkpt>
      <trkpt lat="45.26267" lon="5.83397">
        <ele>450</ele>
        <time>2017-10-21T12:48:06Z</time>
      </trkpt>
      <trkpt lat="45.26268" lon="5.83405">
        <ele>450</ele>
        <time>2017-10-21T12:48:08Z</time>
      </trkpt>
      <trkpt lat="45.2627" lon="5.83413">
        <ele>451</ele>
        <time>2017-10-21T12:48:10Z</time>
      </trkpt>
      <trkpt lat="45.26271" lon="5.8342">
        <ele>451</ele>
        <time>2017-10-21T12:48:12Z</time>
      </trkpt>
      <trkpt lat="45.26273" lon="5.83429">
        <ele>451</ele>
        <time>2017-10-21T12:48:14Z</time>
      </trkpt>
      <trkpt lat="45.26274" lon="5.83439">
        <ele>451</ele>
        <time>2017-10-21T12:48:16Z</time>
      </trkpt>
      <trkpt lat="45.26276" lon="5.8345">
        <ele>451</ele>
        <time>2017-10-21T12:48:18Z</time>
      </trkpt>
      <trkpt lat="45.26278" lon="5.8346">
        <ele>450</ele>
        <time>2017-10-21T12:48:20Z</time>
      </trkpt>
      <trkpt lat="45.2628" lon="5.83471">
        <ele>450</ele>
        <time>2017-10-21T12:48:22Z</time>
      </trkpt>
      <trkpt lat="45.26282" lon="5.83481">
        <ele>450</ele>
        <time>2017-10-21T12:48:24Z</time>
      </trkpt>
      <trkpt lat="45.26284" lon="5.83492">
        <ele>450</ele>
        <time>2017-10-21T12:48:26Z</time>
      </trkpt>
      <trkpt lat="45.26286" lon="5.83501">
        <ele>450</ele>
        <time>2017-10-21T12:48:28Z</time>
      </trkpt>
      <trkpt lat="45.26288" lon="5.83512">
        <ele>449</ele>
        <time>2017-10-21T12:48:30Z</time>
      </trkpt>
      <trkpt lat="45.2629" lon="5.83521">
        <ele>449</ele>
        <time>2017-10-21T12:48:32Z</time>
      </trkpt>
      <trkpt lat="45.26292" lon="5.83532">
        <ele>449</ele>
        <time>2017-10-21T12:48:34Z</time>
      </trkpt>
      <trkpt lat="45.26295" lon="5.83541">
        <ele>449</ele>
        <time>2017-10-21T12:48:36Z</time>
      </trkpt>
      <trkpt lat="45.26297" lon="5.8355">
        <ele>449</ele>
        <time>2017-10-21T12:48:38Z</time>
      </trkpt>
      <trkpt lat="45.26297" lon="5.8356">
        <ele>449</ele>
        <time>2017-10-21T12:48:40Z</time>
      </trkpt>
      <trkpt lat="45.26299" lon="5.8357">
        <ele>449</ele>
        <time>2017-10-21T12:48:42Z</time>
      </trkpt>
      <trkpt lat="45.26301" lon="5.83579">
        <ele>449</ele>
        <time>2017-10-21T12:48:44Z</time>
      </trkpt>
      <trkpt lat="45.26302" lon="5.83588">
        <ele>449</ele>
        <time>2017-10-21T12:48:46Z</time>
      </trkpt>
      <trkpt lat="45.26303" lon="5.83597">
        <ele>448</ele>
        <time>2017-10-21T12:48:48Z</time>
      </trkpt>
      <trkpt lat="45.26303" lon="5.83604">
        <ele>448</ele>
        <time>2017-10-21T12:48:51Z</time>
      </trkpt>
      <trkpt lat="45.263" lon="5.83609">
        <ele>447</ele>
        <time>2017-10-21T12:48:55Z</time>
      </trkpt>
      <trkpt lat="45.26296" lon="5.83619">
        <ele>446</ele>
        <time>2017-10-21T12:50:46Z</time>
      </trkpt>
      <trkpt lat="45.26298" lon="5.83627">
        <ele>446</ele>
        <time>2017-10-21T12:50:48Z</time>
      </trkpt>
      <trkpt lat="45.26304" lon="5.83631">
        <ele>447</ele>
        <time>2017-10-21T12:50:50Z</time>
      </trkpt>
      <trkpt lat="45.26309" lon="5.83637">
        <ele>448</ele>
        <time>2017-10-21T12:50:52Z</time>
      </trkpt>
      <trkpt lat="45.2631" lon="5.83645">
        <ele>447</ele>
        <time>2017-10-21T12:50:54Z</time>
      </trkpt>
      <trkpt lat="45.2631" lon="5.83652">
        <ele>447</ele>
        <time>2017-10-21T12:50:56Z</time>
      </trkpt>
      <trkpt lat="45.2631" lon="5.83659">
        <ele>447</ele>
        <time>2017-10-21T12:50:58Z</time>
      </trkpt>
      <trkpt lat="45.26311" lon="5.83669">
        <ele>447</ele>
        <time>2017-10-21T12:51:01Z</time>
      </trkpt>
      <trkpt lat="45.26312" lon="5.83675">
        <ele>447</ele>
        <time>2017-10-21T12:51:03Z</time>
      </trkpt>
      <trkpt lat="45.26314" lon="5.83682">
        <ele>447</ele>
        <time>2017-10-21T12:51:05Z</time>
      </trkpt>
      <trkpt lat="45.26317" lon="5.8369">
        <ele>447</ele>
        <time>2017-10-21T12:51:07Z</time>
      </trkpt>
      <trkpt lat="45.26319" lon="5.83699">
        <ele>447</ele>
        <time>2017-10-21T12:51:09Z</time>
      </trkpt>
      <trkpt lat="45.26321" lon="5.83709">
        <ele>447</ele>
        <time>2017-10-21T12:51:11Z</time>
      </trkpt>
      <trkpt lat="45.26326" lon="5.83727">
        <ele>448</ele>
        <time>2017-10-21T12:51:14Z</time>
      </trkpt>
      <trkpt lat="45.2633" lon="5.83737">
        <ele>448</ele>
        <time>2017-10-21T12:51:16Z</time>
      </trkpt>
      <trkpt lat="45.26333" lon="5.83743">
        <ele>448</ele>
        <time>2017-10-21T12:51:17Z</time>
      </trkpt>
      <trkpt lat="45.26337" lon="5.83753">
        <ele>448</ele>
        <time>2017-10-21T12:51:19Z</time>
      </trkpt>
      <trkpt lat="45.26342" lon="5.83763">
        <ele>448</ele>
        <time>2017-10-21T12:51:21Z</time>
      </trkpt>
      <trkpt lat="45.26351" lon="5.83776">
        <ele>449</ele>
        <time>2017-10-21T12:51:24Z</time>
      </trkpt>
      <trkpt lat="45.26357" lon="5.83785">
        <ele>449</ele>
        <time>2017-10-21T12:51:26Z</time>
      </trkpt>
      <trkpt lat="45.26362" lon="5.83794">
        <ele>450</ele>
        <time>2017-10-21T12:51:28Z</time>
      </trkpt>
      <trkpt lat="45.26368" lon="5.83804">
        <ele>450</ele>
        <time>2017-10-21T12:51:30Z</time>
      </trkpt>
      <trkpt lat="45.26373" lon="5.83813">
        <ele>450</ele>
        <time>2017-10-21T12:51:32Z</time>
      </trkpt>
      <trkpt lat="45.26378" lon="5.83822">
        <ele>451</ele>
        <time>2017-10-21T12:51:34Z</time>
      </trkpt>
      <trkpt lat="45.26382" lon="5.83831">
        <ele>451</ele>
        <time>2017-10-21T12:51:36Z</time>
      </trkpt>
      <trkpt lat="45.26386" lon="5.8384">
        <ele>451</ele>
        <time>2017-10-21T12:51:38Z</time>
      </trkpt>
      <trkpt lat="45.26391" lon="5.83849">
        <ele>451</ele>
        <time>2017-10-21T12:51:40Z</time>
      </trkpt>
      <trkpt lat="45.26395" lon="5.83857">
        <ele>452</ele>
        <time>2017-10-21T12:51:42Z</time>
      </trkpt>
      <trkpt lat="45.26401" lon="5.83865">
        <ele>452</ele>
        <time>2017-10-21T12:51:44Z</time>
      </trkpt>
      <trkpt lat="45.26406" lon="5.83873">
        <ele>452</ele>
        <time>2017-10-21T12:51:46Z</time>
      </trkpt>
      <trkpt lat="45.26412" lon="5.8388">
        <ele>453</ele>
        <time>2017-10-21T12:51:48Z</time>
      </trkpt>
      <trkpt lat="45.26417" lon="5.83888">
        <ele>453</ele>
        <time>2017-10-21T12:51:50Z</time>
      </trkpt>
      <trkpt lat="45.26422" lon="5.83897">
        <ele>453</ele>
        <time>2017-10-21T12:51:52Z</time>
      </trkpt>
      <trkpt lat="45.26427" lon="5.83905">
        <ele>453</ele>
        <time>2017-10-21T12:51:54Z</time>
      </trkpt>
      <trkpt lat="45.26431" lon="5.83912">
        <ele>453</ele>
        <time>2017-10-21T12:51:56Z</time>
      </trkpt>
      <trkpt lat="45.26436" lon="5.83919">
        <ele>454</ele>
        <time>2017-10-21T12:51:58Z</time>
      </trkpt>
      <trkpt lat="45.26441" lon="5.83927">
        <ele>454</ele>
        <time>2017-10-21T12:52:00Z</time>
      </trkpt>
      <trkpt lat="45.26447" lon="5.83934">
        <ele>454</ele>
        <time>2017-10-21T12:52:02Z</time>
      </trkpt>
      <trkpt lat="45.26453" lon="5.83945">
        <ele>455</ele>
        <time>2017-10-21T12:52:05Z</time>
      </trkpt>
      <trkpt lat="45.26456" lon="5.83952">
        <ele>455</ele>
        <time>2017-10-21T12:52:07Z</time>
      </trkpt>
      <trkpt lat="45.26459" lon="5.83959">
        <ele>455</ele>
        <time>2017-10-21T12:52:09Z</time>
      </trkpt>
      <trkpt lat="45.26463" lon="5.83966">
        <ele>455</ele>
        <time>2017-10-21T12:52:11Z</time>
      </trkpt>
      <trkpt lat="45.26467" lon="5.83973">
        <ele>455</ele>
        <time>2017-10-21T12:52:13Z</time>
      </trkpt>
      <trkpt lat="45.26471" lon="5.83979">
        <ele>455</ele>
        <time>2017-10-21T12:52:15Z</time>
      </trkpt>
      <trkpt lat="45.26474" lon="5.83986">
        <ele>455</ele>
        <time>2017-10-21T12:52:17Z</time>
      </trkpt>
      <trkpt lat="45.26478" lon="5.83993">
        <ele>455</ele>
        <time>2017-10-21T12:52:19Z</time>
      </trkpt>
      <trkpt lat="45.26482" lon="5.84">
        <ele>455</ele>
        <time>2017-10-21T12:52:21Z</time>
      </trkpt>
      <trkpt lat="45.26486" lon="5.84006">
        <ele>456</ele>
        <time>2017-10-21T12:52:23Z</time>
      </trkpt>
      <trkpt lat="45.26491" lon="5.84012">
        <ele>456</ele>
        <time>2017-10-21T12:52:25Z</time>
      </trkpt>
      <trkpt lat="45.26496" lon="5.84017">
        <ele>456</ele>
        <time>2017-10-21T12:52:27Z</time>
      </trkpt>
      <trkpt lat="45.26502" lon="5.84022">
        <ele>456</ele>
        <time>2017-10-21T12:52:29Z</time>
      </trkpt>
      <trkpt lat="45.26508" lon="5.84025">
        <ele>457</ele>
        <time>2017-10-21T12:52:31Z</time>
      </trkpt>
      <trkpt lat="45.26514" lon="5.84028">
        <ele>457</ele>
        <time>2017-10-21T12:52:33Z</time>
      </trkpt>
      <trkpt lat="45.26521" lon="5.84031">
        <ele>458</ele>
        <time>2017-10-21T12:52:35Z</time>
      </trkpt>
      <trkpt lat="45.26528" lon="5.84036">
        <ele>458</ele>
        <time>2017-10-21T12:52:37Z</time>
      </trkpt>
      <trkpt lat="45.26534" lon="5.84041">
        <ele>459</ele>
        <time>2017-10-21T12:52:39Z</time>
      </trkpt>
      <trkpt lat="45.2654" lon="5.84046">
        <ele>459</ele>
        <time>2017-10-21T12:52:41Z</time>
      </trkpt>
      <trkpt lat="45.26543" lon="5.84051">
        <ele>459</ele>
        <time>2017-10-21T12:52:43Z</time>
      </trkpt>
      <trkpt lat="45.26548" lon="5.84056">
        <ele>459</ele>
        <time>2017-10-21T12:52:45Z</time>
      </trkpt>
      <trkpt lat="45.26552" lon="5.8406">
        <ele>459</ele>
        <time>2017-10-21T12:52:47Z</time>
      </trkpt>
      <trkpt lat="45.26556" lon="5.84065">
        <ele>459</ele>
        <time>2017-10-21T12:52:49Z</time>
      </trkpt>
      <trkpt lat="45.26558" lon="5.84073">
        <ele>459</ele>
        <time>2017-10-21T12:52:51Z</time>
      </trkpt>
      <trkpt lat="45.2656" lon="5.84086">
        <ele>459</ele>
        <time>2017-10-21T12:52:53Z</time>
      </trkpt>
      <trkpt lat="45.26564" lon="5.84101">
        <ele>458</ele>
        <time>2017-10-21T12:52:55Z</time>
      </trkpt>
      <trkpt lat="45.26567" lon="5.84109">
        <ele>458</ele>
        <time>2017-10-21T12:52:56Z</time>
      </trkpt>
      <trkpt lat="45.26569" lon="5.84116">
        <ele>458</ele>
        <time>2017-10-21T12:52:57Z</time>
      </trkpt>
      <trkpt lat="45.26573" lon="5.84124">
        <ele>458</ele>
        <time>2017-10-21T12:52:58Z</time>
      </trkpt>
      <trkpt lat="45.26578" lon="5.84129">
        <ele>458</ele>
        <time>2017-10-21T12:52:59Z</time>
      </trkpt>
      <trkpt lat="45.26584" lon="5.84133">
        <ele>458</ele>
        <time>2017-10-21T12:53:00Z</time>
      </trkpt>
      <trkpt lat="45.26588" lon="5.84139">
        <ele>458</ele>
        <time>2017-10-21T12:53:01Z</time>
      </trkpt>
      <trkpt lat="45.26592" lon="5.84145">
        <ele>459</ele>
        <time>2017-10-21T12:53:02Z</time>
      </trkpt>
      <trkpt lat="45.26597" lon="5.84151">
        <ele>459</ele>
        <time>2017-10-21T12:53:03Z</time>
      </trkpt>
      <trkpt lat="45.26601" lon="5.84156">
        <ele>459</ele>
        <time>2017-10-21T12:53:04Z</time>
      </trkpt>
      <trkpt lat="45.26606" lon="5.84161">
        <ele>459</ele>
        <time>2017-10-21T12:53:05Z</time>
      </trkpt>
      <trkpt lat="45.26611" lon="5.84166">
        <ele>459</ele>
        <time>2017-10-21T12:53:06Z</time>
      </trkpt>
      <trkpt lat="45.26614" lon="5.8417">
        <ele>459</ele>
        <time>2017-10-21T12:53:07Z</time>
      </trkpt>
      <trkpt lat="45.26618" lon="5.84174">
        <ele>459</ele>
        <time>2017-10-21T12:53:08Z</time>
      </trkpt>
      <trkpt lat="45.26622" lon="5.84179">
        <ele>460</ele>
        <time>2017-10-21T12:53:09Z</time>
      </trkpt>
      <trkpt lat="45.26626" lon="5.84182">
        <ele>460</ele>
        <time>2017-10-21T12:53:10Z</time>
      </trkpt>
      <trkpt lat="45.2663" lon="5.84187">
        <ele>460</ele>
        <time>2017-10-21T12:53:11Z</time>
      </trkpt>
      <trkpt lat="45.26634" lon="5.84192">
        <ele>460</ele>
        <time>2017-10-21T12:53:12Z</time>
      </trkpt>
      <trkpt lat="45.26641" lon="5.84201">
        <ele>460</ele>
        <time>2017-10-21T12:53:14Z</time>
      </trkpt>
      <trkpt lat="45.26644" lon="5.84206">
        <ele>460</ele>
        <time>2017-10-21T12:53:15Z</time>
      </trkpt>
      <trkpt lat="45.26647" lon="5.84211">
        <ele>460</ele>
        <time>2017-10-21T12:53:16Z</time>
      </trkpt>
      <trkpt lat="45.26651" lon="5.84216">
        <ele>460</ele>
        <time>2017-10-21T12:53:17Z</time>
      </trkpt>
      <trkpt lat="45.26654" lon="5.84221">
        <ele>460</ele>
        <time>2017-10-21T12:53:18Z</time>
      </trkpt>
      <trkpt lat="45.26661" lon="5.84227">
        <ele>461</ele>
        <time>2017-10-21T12:53:20Z</time>
      </trkpt>
      <trkpt lat="45.26669" lon="5.84229">
        <ele>461</ele>
        <time>2017-10-21T12:53:22Z</time>
      </trkpt>
      <trkpt lat="45.26674" lon="5.84234">
        <ele>462</ele>
        <time>2017-10-21T12:53:24Z</time>
      </trkpt>
      <trkpt lat="45.26678" lon="5.84239">
        <ele>462</ele>
        <time>2017-10-21T12:53:26Z</time>
      </trkpt>
      <trkpt lat="45.26678" lon="5.84247">
        <ele>461</ele>
        <time>2017-10-21T12:53:28Z</time>
      </trkpt>
      <trkpt lat="45.26679" lon="5.84258">
        <ele>461</ele>
        <time>2017-10-21T12:53:30Z</time>
      </trkpt>
      <trkpt lat="45.26684" lon="5.84271">
        <ele>461</ele>
        <time>2017-10-21T12:53:32Z</time>
      </trkpt>
      <trkpt lat="45.26688" lon="5.84277">
        <ele>461</ele>
        <time>2017-10-21T12:53:33Z</time>
      </trkpt>
      <trkpt lat="45.26691" lon="5.84283">
        <ele>460</ele>
        <time>2017-10-21T12:53:34Z</time>
      </trkpt>
      <trkpt lat="45.26695" lon="5.84287">
        <ele>461</ele>
        <time>2017-10-21T12:53:35Z</time>
      </trkpt>
      <trkpt lat="45.26703" lon="5.8429">
        <ele>461</ele>
        <time>2017-10-21T12:53:37Z</time>
      </trkpt>
      <trkpt lat="45.26709" lon="5.84286">
        <ele>462</ele>
        <time>2017-10-21T12:53:39Z</time>
      </trkpt>
      <trkpt lat="45.26714" lon="5.84282">
        <ele>463</ele>
        <time>2017-10-21T12:53:41Z</time>
      </trkpt>
      <trkpt lat="45.26719" lon="5.84281">
        <ele>463</ele>
        <time>2017-10-21T12:53:43Z</time>
      </trkpt>
      <trkpt lat="45.26724" lon="5.84286">
        <ele>463</ele>
        <time>2017-10-21T12:53:45Z</time>
      </trkpt>
      <trkpt lat="45.2673" lon="5.84294">
        <ele>463</ele>
        <time>2017-10-21T12:53:47Z</time>
      </trkpt>
      <trkpt lat="45.26738" lon="5.84306">
        <ele>463</ele>
        <time>2017-10-21T12:53:49Z</time>
      </trkpt>
      <trkpt lat="45.26742" lon="5.84311">
        <ele>463</ele>
        <time>2017-10-21T12:53:50Z</time>
      </trkpt>
      <trkpt lat="45.26749" lon="5.84318">
        <ele>463</ele>
        <time>2017-10-21T12:53:52Z</time>
      </trkpt>
      <trkpt lat="45.26751" lon="5.84325">
        <ele>463</ele>
        <time>2017-10-21T12:53:53Z</time>
      </trkpt>
      <trkpt lat="45.26755" lon="5.84332">
        <ele>463</ele>
        <time>2017-10-21T12:53:54Z</time>
      </trkpt>
      <trkpt lat="45.26762" lon="5.84344">
        <ele>462</ele>
        <time>2017-10-21T12:53:56Z</time>
      </trkpt>
      <trkpt lat="45.26765" lon="5.84351">
        <ele>462</ele>
        <time>2017-10-21T12:53:57Z</time>
      </trkpt>
      <trkpt lat="45.26768" lon="5.84356">
        <ele>462</ele>
        <time>2017-10-21T12:53:58Z</time>
      </trkpt>
      <trkpt lat="45.26772" lon="5.84364">
        <ele>461</ele>
        <time>2017-10-21T12:53:59Z</time>
      </trkpt>
      <trkpt lat="45.26775" lon="5.8437">
        <ele>461</ele>
        <time>2017-10-21T12:54:00Z</time>
      </trkpt>
      <trkpt lat="45.26778" lon="5.84377">
        <ele>461</ele>
        <time>2017-10-21T12:54:01Z</time>
      </trkpt>
      <trkpt lat="45.26781" lon="5.84385">
        <ele>460</ele>
        <time>2017-10-21T12:54:02Z</time>
      </trkpt>
      <trkpt lat="45.26785" lon="5.84392">
        <ele>460</ele>
        <time>2017-10-21T12:54:03Z</time>
      </trkpt>
      <trkpt lat="45.26788" lon="5.84399">
        <ele>460</ele>
        <time>2017-10-21T12:54:04Z</time>
      </trkpt>
      <trkpt lat="45.26794" lon="5.84411">
        <ele>459</ele>
        <time>2017-10-21T12:54:06Z</time>
      </trkpt>
      <trkpt lat="45.26798" lon="5.84418">
        <ele>459</ele>
        <time>2017-10-21T12:54:07Z</time>
      </trkpt>
      <trkpt lat="45.26801" lon="5.84425">
        <ele>458</ele>
        <time>2017-10-21T12:54:08Z</time>
      </trkpt>
      <trkpt lat="45.26804" lon="5.84434">
        <ele>458</ele>
        <time>2017-10-21T12:54:09Z</time>
      </trkpt>
      <trkpt lat="45.26809" lon="5.8444">
        <ele>458</ele>
        <time>2017-10-21T12:54:10Z</time>
      </trkpt>
      <trkpt lat="45.26817" lon="5.84441">
        <ele>458</ele>
        <time>2017-10-21T12:54:12Z</time>
      </trkpt>
      <trkpt lat="45.26825" lon="5.84441">
        <ele>459</ele>
        <time>2017-10-21T12:54:13Z</time>
      </trkpt>
      <trkpt lat="45.26831" lon="5.84441">
        <ele>459</ele>
        <time>2017-10-21T12:54:14Z</time>
      </trkpt>
      <trkpt lat="45.26837" lon="5.84442">
        <ele>460</ele>
        <time>2017-10-21T12:54:15Z</time>
      </trkpt>
      <trkpt lat="45.26843" lon="5.84442">
        <ele>460</ele>
        <time>2017-10-21T12:54:16Z</time>
      </trkpt>
      <trkpt lat="45.26856" lon="5.84443">
        <ele>461</ele>
        <time>2017-10-21T12:54:18Z</time>
      </trkpt>
      <trkpt lat="45.2686" lon="5.84445">
        <ele>461</ele>
        <time>2017-10-21T12:54:19Z</time>
      </trkpt>
      <trkpt lat="45.26866" lon="5.84449">
        <ele>461</ele>
        <time>2017-10-21T12:54:20Z</time>
      </trkpt>
      <trkpt lat="45.26875" lon="5.84456">
        <ele>460</ele>
        <time>2017-10-21T12:54:22Z</time>
      </trkpt>
      <trkpt lat="45.26881" lon="5.84462">
        <ele>460</ele>
        <time>2017-10-21T12:54:23Z</time>
      </trkpt>
      <trkpt lat="45.26886" lon="5.84466">
        <ele>460</ele>
        <time>2017-10-21T12:54:24Z</time>
      </trkpt>
      <trkpt lat="45.26892" lon="5.84469">
        <ele>460</ele>
        <time>2017-10-21T12:54:25Z</time>
      </trkpt>
      <trkpt lat="45.269" lon="5.84473">
        <ele>460</ele>
        <time>2017-10-21T12:54:26Z</time>
      </trkpt>
      <trkpt lat="45.26909" lon="5.84478">
        <ele>460</ele>
        <time>2017-10-21T12:54:28Z</time>
      </trkpt>
      <trkpt lat="45.26914" lon="5.84484">
        <ele>459</ele>
        <time>2017-10-21T12:54:29Z</time>
      </trkpt>
      <trkpt lat="45.26922" lon="5.84495">
        <ele>459</ele>
        <time>2017-10-21T12:54:31Z</time>
      </trkpt>
      <trkpt lat="45.26927" lon="5.845">
        <ele>459</ele>
        <time>2017-10-21T12:54:32Z</time>
      </trkpt>
      <trkpt lat="45.26933" lon="5.84507">
        <ele>458</ele>
        <time>2017-10-21T12:54:33Z</time>
      </trkpt>
      <trkpt lat="45.26938" lon="5.84514">
        <ele>458</ele>
        <time>2017-10-21T12:54:34Z</time>
      </trkpt>
      <trkpt lat="45.26943" lon="5.84521">
        <ele>458</ele>
        <time>2017-10-21T12:54:35Z</time>
      </trkpt>
      <trkpt lat="45.26948" lon="5.84527">
        <ele>458</ele>
        <time>2017-10-21T12:54:36Z</time>
      </trkpt>
      <trkpt lat="45.26953" lon="5.84542">
        <ele>457</ele>
        <time>2017-10-21T12:54:38Z</time>
      </trkpt>
      <trkpt lat="45.2696" lon="5.84548">
        <ele>456</ele>
        <time>2017-10-21T12:54:40Z</time>
      </trkpt>
      <trkpt lat="45.26967" lon="5.8455">
        <ele>457</ele>
        <time>2017-10-21T12:54:42Z</time>
      </trkpt>
      <trkpt lat="45.26974" lon="5.84551">
        <ele>457</ele>
        <time>2017-10-21T12:54:44Z</time>
      </trkpt>
      <trkpt lat="45.26981" lon="5.84556">
        <ele>457</ele>
        <time>2017-10-21T12:54:46Z</time>
      </trkpt>
      <trkpt lat="45.26985" lon="5.84565">
        <ele>456</ele>
        <time>2017-10-21T12:54:48Z</time>
      </trkpt>
      <trkpt lat="45.26987" lon="5.84571">
        <ele>456</ele>
        <time>2017-10-21T12:54:49Z</time>
      </trkpt>
      <trkpt lat="45.26992" lon="5.84581">
        <ele>455</ele>
        <time>2017-10-21T12:54:51Z</time>
      </trkpt>
      <trkpt lat="45.26996" lon="5.84584">
        <ele>455</ele>
        <time>2017-10-21T12:54:52Z</time>
      </trkpt>
      <trkpt lat="45.27003" lon="5.84591">
        <ele>455</ele>
        <time>2017-10-21T12:54:54Z</time>
      </trkpt>
      <trkpt lat="45.27007" lon="5.84595">
        <ele>455</ele>
        <time>2017-10-21T12:54:55Z</time>
      </trkpt>
      <trkpt lat="45.27013" lon="5.84597">
        <ele>455</ele>
        <time>2017-10-21T12:54:57Z</time>
      </trkpt>
      <trkpt lat="45.2702" lon="5.84602">
        <ele>455</ele>
        <time>2017-10-21T12:54:59Z</time>
      </trkpt>
      <trkpt lat="45.27026" lon="5.84612">
        <ele>454</ele>
        <time>2017-10-21T12:55:01Z</time>
      </trkpt>
      <trkpt lat="45.27031" lon="5.84621">
        <ele>454</ele>
        <time>2017-10-21T12:55:03Z</time>
      </trkpt>
      <trkpt lat="45.27039" lon="5.84621">
        <ele>454</ele>
        <time>2017-10-21T12:55:05Z</time>
      </trkpt>
      <trkpt lat="45.27045" lon="5.84621">
        <ele>454</ele>
        <time>2017-10-21T12:55:07Z</time>
      </trkpt>
      <trkpt lat="45.27049" lon="5.84625">
        <ele>454</ele>
        <time>2017-10-21T12:55:09Z</time>
      </trkpt>
      <trkpt lat="45.27056" lon="5.84629">
        <ele>454</ele>
        <time>2017-10-21T12:55:11Z</time>
      </trkpt>
      <trkpt lat="45.2706" lon="5.84636">
        <ele>454</ele>
        <time>2017-10-21T12:55:13Z</time>
      </trkpt>
      <trkpt lat="45.27066" lon="5.8464">
        <ele>454</ele>
        <time>2017-10-21T12:55:15Z</time>
      </trkpt>
      <trkpt lat="45.27075" lon="5.84645">
        <ele>453</ele>
        <time>2017-10-21T12:55:18Z</time>
      </trkpt>
      <trkpt lat="45.27082" lon="5.84646">
        <ele>453</ele>
        <time>2017-10-21T12:55:20Z</time>
      </trkpt>
      <trkpt lat="45.27091" lon="5.84646">
        <ele>453</ele>
        <time>2017-10-21T12:55:22Z</time>
      </trkpt>
      <trkpt lat="45.27098" lon="5.84646">
        <ele>453</ele>
        <time>2017-10-21T12:55:24Z</time>
      </trkpt>
      <trkpt lat="45.27103" lon="5.84645">
        <ele>454</ele>
        <time>2017-10-21T12:55:25Z</time>
      </trkpt>
      <trkpt lat="45.27108" lon="5.84644">
        <ele>454</ele>
        <time>2017-10-21T12:55:26Z</time>
      </trkpt>
      <trkpt lat="45.27114" lon="5.84643">
        <ele>454</ele>
        <time>2017-10-21T12:55:27Z</time>
      </trkpt>
      <trkpt lat="45.27119" lon="5.84641">
        <ele>454</ele>
        <time>2017-10-21T12:55:29Z</time>
      </trkpt>
      <trkpt lat="45.27125" lon="5.84641">
        <ele>454</ele>
        <time>2017-10-21T12:55:30Z</time>
      </trkpt>
      <trkpt lat="45.27134" lon="5.84639">
        <ele>455</ele>
        <time>2017-10-21T12:55:32Z</time>
      </trkpt>
      <trkpt lat="45.27139" lon="5.84637">
        <ele>456</ele>
        <time>2017-10-21T12:55:33Z</time>
      </trkpt>
      <trkpt lat="45.27146" lon="5.84641">
        <ele>456</ele>
        <time>2017-10-21T12:55:35Z</time>
      </trkpt>
      <trkpt lat="45.27148" lon="5.84648">
        <ele>455</ele>
        <time>2017-10-21T12:55:38Z</time>
      </trkpt>
      <trkpt lat="45.27152" lon="5.84659">
        <ele>454</ele>
        <time>2017-10-21T12:57:52Z</time>
      </trkpt>
      <trkpt lat="45.27157" lon="5.8466">
        <ele>454</ele>
        <time>2017-10-21T12:57:55Z</time>
      </trkpt>
      <trkpt lat="45.27161" lon="5.84655">
        <ele>455</ele>
        <time>2017-10-21T12:57:59Z</time>
      </trkpt>
      <trkpt lat="45.27166" lon="5.84654">
        <ele>456</ele>
        <time>2017-10-21T12:58:03Z</time>
      </trkpt>
      <trkpt lat="45.27173" lon="5.84651">
        <ele>456</ele>
        <time>2017-10-21T12:58:54Z</time>
      </trkpt>
      <trkpt lat="45.27178" lon="5.84648">
        <ele>457</ele>
        <time>2017-10-21T12:58:58Z</time>
      </trkpt>
      <trkpt lat="45.27183" lon="5.84646">
        <ele>457</ele>
        <time>2017-10-21T12:59:02Z</time>
      </trkpt>
      <trkpt lat="45.27188" lon="5.84642">
        <ele>458</ele>
        <time>2017-10-21T12:59:06Z</time>
      </trkpt>
      <trkpt lat="45.27193" lon="5.8464">
        <ele>459</ele>
        <time>2017-10-21T12:59:10Z</time>
      </trkpt>
      <trkpt lat="45.27198" lon="5.84637">
        <ele>460</ele>
        <time>2017-10-21T12:59:15Z</time>
      </trkpt>
      <trkpt lat="45.27203" lon="5.84635">
        <ele>461</ele>
        <time>2017-10-21T12:59:20Z</time>
      </trkpt>
      <trkpt lat="45.27207" lon="5.84635">
        <ele>462</ele>
        <time>2017-10-21T12:59:25Z</time>
      </trkpt>
      <trkpt lat="45.27212" lon="5.84633">
        <ele>463</ele>
        <time>2017-10-21T12:59:30Z</time>
      </trkpt>
      <trkpt lat="45.27222" lon="5.84631">
        <ele>465</ele>
        <time>2017-10-21T12:59:38Z</time>
      </trkpt>
      <trkpt lat="45.27226" lon="5.84631">
        <ele>466</ele>
        <time>2017-10-21T12:59:42Z</time>
      </trkpt>
      <trkpt lat="45.27231" lon="5.84628">
        <ele>467</ele>
        <time>2017-10-21T12:59:47Z</time>
      </trkpt>
      <trkpt lat="45.27236" lon="5.84626">
        <ele>468</ele>
        <time>2017-10-21T12:59:52Z</time>
      </trkpt>
      <trkpt lat="45.27242" lon="5.84624">
        <ele>470</ele>
        <time>2017-10-21T12:59:57Z</time>
      </trkpt>
      <trkpt lat="45.27247" lon="5.84625">
        <ele>470</ele>
        <time>2017-10-21T13:00:02Z</time>
      </trkpt>
      <trkpt lat="45.27252" lon="5.84627">
        <ele>471</ele>
        <time>2017-10-21T13:00:07Z</time>
      </trkpt>
      <trkpt lat="45.27256" lon="5.8463">
        <ele>472</ele>
        <time>2017-10-21T13:00:12Z</time>
      </trkpt>
      <trkpt lat="45.27259" lon="5.84636">
        <ele>472</ele>
        <time>2017-10-21T13:00:17Z</time>
      </trkpt>
      <trkpt lat="45.27262" lon="5.84642">
        <ele>472</ele>
        <time>2017-10-21T13:00:22Z</time>
      </trkpt>
      <trkpt lat="45.27266" lon="5.84646">
        <ele>472</ele>
        <time>2017-10-21T13:00:27Z</time>
      </trkpt>
      <trkpt lat="45.27271" lon="5.84647">
        <ele>474</ele>
        <time>2017-10-21T13:00:32Z</time>
      </trkpt>
      <trkpt lat="45.27274" lon="5.84652">
        <ele>474</ele>
        <time>2017-10-21T13:00:36Z</time>
      </trkpt>
      <trkpt lat="45.27277" lon="5.84657">
        <ele>474</ele>
        <time>2017-10-21T13:00:40Z</time>
      </trkpt>
      <trkpt lat="45.27281" lon="5.84663">
        <ele>474</ele>
        <time>2017-10-21T13:00:44Z</time>
      </trkpt>
      <trkpt lat="45.27284" lon="5.84669">
        <ele>475</ele>
        <time>2017-10-21T13:00:49Z</time>
      </trkpt>
      <trkpt lat="45.27287" lon="5.84675">
        <ele>475</ele>
        <time>2017-10-21T13:00:52Z</time>
      </trkpt>
      <trkpt lat="45.2729" lon="5.84681">
        <ele>475</ele>
        <time>2017-10-21T13:00:55Z</time>
      </trkpt>
      <trkpt lat="45.27293" lon="5.84688">
        <ele>475</ele>
        <time>2017-10-21T13:00:59Z</time>
      </trkpt>
      <trkpt lat="45.27296" lon="5.84694">
        <ele>475</ele>
        <time>2017-10-21T13:01:02Z</time>
      </trkpt>
      <trkpt lat="45.27298" lon="5.84699">
        <ele>475</ele>
        <time>2017-10-21T13:01:04Z</time>
      </trkpt>
      <trkpt lat="45.27303" lon="5.84705">
        <ele>476</ele>
        <time>2017-10-21T13:01:07Z</time>
      </trkpt>
      <trkpt lat="45.27308" lon="5.84711">
        <ele>476</ele>
        <time>2017-10-21T13:01:10Z</time>
      </trkpt>
      <trkpt lat="45.27314" lon="5.84715">
        <ele>477</ele>
        <time>2017-10-21T13:01:13Z</time>
      </trkpt>
      <trkpt lat="45.27317" lon="5.84719">
        <ele>478</ele>
        <time>2017-10-21T13:01:15Z</time>
      </trkpt>
      <trkpt lat="45.27323" lon="5.84725">
        <ele>478</ele>
        <time>2017-10-21T13:01:17Z</time>
      </trkpt>
      <trkpt lat="45.27329" lon="5.84731">
        <ele>479</ele>
        <time>2017-10-21T13:01:19Z</time>
      </trkpt>
      <trkpt lat="45.27335" lon="5.84736">
        <ele>480</ele>
        <time>2017-10-21T13:01:21Z</time>
      </trkpt>
      <trkpt lat="45.27343" lon="5.84743">
        <ele>481</ele>
        <time>2017-10-21T13:01:24Z</time>
      </trkpt>
      <trkpt lat="45.27348" lon="5.84749">
        <ele>481</ele>
        <time>2017-10-21T13:01:26Z</time>
      </trkpt>
      <trkpt lat="45.27353" lon="5.84754">
        <ele>481</ele>
        <time>2017-10-21T13:01:28Z</time>
      </trkpt>
      <trkpt lat="45.27358" lon="5.84759">
        <ele>482</ele>
        <time>2017-10-21T13:01:30Z</time>
      </trkpt>
      <trkpt lat="45.27362" lon="5.84763">
        <ele>482</ele>
        <time>2017-10-21T13:01:32Z</time>
      </trkpt>
      <trkpt lat="45.27367" lon="5.84766">
        <ele>483</ele>
        <time>2017-10-21T13:02:06Z</time>
      </trkpt>
      <trkpt lat="45.27371" lon="5.84774">
        <ele>483</ele>
        <time>2017-10-21T13:02:08Z</time>
      </trkpt>
      <trkpt lat="45.27371" lon="5.84785">
        <ele>481</ele>
        <time>2017-10-21T13:02:10Z</time>
      </trkpt>
      <trkpt lat="45.2736" lon="5.84796">
        <ele>479</ele>
        <time>2017-10-21T13:02:12Z</time>
      </trkpt>
      <trkpt lat="45.27356" lon="5.84803">
        <ele>477</ele>
        <time>2017-10-21T13:02:13Z</time>
      </trkpt>
      <trkpt lat="45.27348" lon="5.84812">
        <ele>475</ele>
        <time>2017-10-21T13:02:15Z</time>
      </trkpt>
      <trkpt lat="45.27344" lon="5.84817">
        <ele>474</ele>
        <time>2017-10-21T13:02:16Z</time>
      </trkpt>
      <trkpt lat="45.27338" lon="5.84821">
        <ele>473</ele>
        <time>2017-10-21T13:02:17Z</time>
      </trkpt>
      <trkpt lat="45.27335" lon="5.84831">
        <ele>471</ele>
        <time>2017-10-21T13:02:19Z</time>
      </trkpt>
      <trkpt lat="45.27333" lon="5.84837">
        <ele>471</ele>
        <time>2017-10-21T13:02:20Z</time>
      </trkpt>
      <trkpt lat="45.2733" lon="5.84844">
        <ele>470</ele>
        <time>2017-10-21T13:02:21Z</time>
      </trkpt>
      <trkpt lat="45.27329" lon="5.84851">
        <ele>469</ele>
        <time>2017-10-21T13:02:22Z</time>
      </trkpt>
      <trkpt lat="45.27327" lon="5.84857">
        <ele>468</ele>
        <time>2017-10-21T13:02:24Z</time>
      </trkpt>
      <trkpt lat="45.27325" lon="5.84867">
        <ele>467</ele>
        <time>2017-10-21T13:02:26Z</time>
      </trkpt>
      <trkpt lat="45.27325" lon="5.84873">
        <ele>467</ele>
        <time>2017-10-21T13:02:28Z</time>
      </trkpt>
      <trkpt lat="45.27325" lon="5.84881">
        <ele>466</ele>
        <time>2017-10-21T13:02:31Z</time>
      </trkpt>
      <trkpt lat="45.27324" lon="5.8489">
        <ele>465</ele>
        <time>2017-10-21T13:02:33Z</time>
      </trkpt>
      <trkpt lat="45.27322" lon="5.849">
        <ele>464</ele>
        <time>2017-10-21T13:02:35Z</time>
      </trkpt>
      <trkpt lat="45.27325" lon="5.84907">
        <ele>464</ele>
        <time>2017-10-21T13:02:37Z</time>
      </trkpt>
      <trkpt lat="45.27326" lon="5.84917">
        <ele>463</ele>
        <time>2017-10-21T13:02:39Z</time>
      </trkpt>
      <trkpt lat="45.27325" lon="5.84925">
        <ele>462</ele>
        <time>2017-10-21T13:02:40Z</time>
      </trkpt>
      <trkpt lat="45.27322" lon="5.84934">
        <ele>461</ele>
        <time>2017-10-21T13:02:41Z</time>
      </trkpt>
      <trkpt lat="45.27313" lon="5.84947">
        <ele>458</ele>
        <time>2017-10-21T13:02:42Z</time>
      </trkpt>
      <trkpt lat="45.2731" lon="5.84952">
        <ele>457</ele>
        <time>2017-10-21T13:02:43Z</time>
      </trkpt>
      <trkpt lat="45.27304" lon="5.84959">
        <ele>456</ele>
        <time>2017-10-21T13:02:45Z</time>
      </trkpt>
      <trkpt lat="45.27299" lon="5.84966">
        <ele>454</ele>
        <time>2017-10-21T13:02:47Z</time>
      </trkpt>
      <trkpt lat="45.27292" lon="5.84967">
        <ele>452</ele>
        <time>2017-10-21T13:02:49Z</time>
      </trkpt>
      <trkpt lat="45.27287" lon="5.8497">
        <ele>451</ele>
        <time>2017-10-21T13:02:50Z</time>
      </trkpt>
      <trkpt lat="45.27278" lon="5.84982">
        <ele>448</ele>
        <time>2017-10-21T13:02:52Z</time>
      </trkpt>
      <trkpt lat="45.27272" lon="5.84978">
        <ele>448</ele>
        <time>2017-10-21T13:02:54Z</time>
      </trkpt>
      <trkpt lat="45.27268" lon="5.84982">
        <ele>447</ele>
        <time>2017-10-21T13:02:56Z</time>
      </trkpt>
      <trkpt lat="45.27259" lon="5.84986">
        <ele>444</ele>
        <time>2017-10-21T13:02:58Z</time>
      </trkpt>
      <trkpt lat="45.27255" lon="5.84994">
        <ele>443</ele>
        <time>2017-10-21T13:03:00Z</time>
      </trkpt>
      <trkpt lat="45.27258" lon="5.85004">
        <ele>442</ele>
        <time>2017-10-21T13:03:03Z</time>
      </trkpt>
      <trkpt lat="45.27262" lon="5.85011">
        <ele>442</ele>
        <time>2017-10-21T13:03:05Z</time>
      </trkpt>
      <trkpt lat="45.27267" lon="5.85018">
        <ele>442</ele>
        <time>2017-10-21T13:03:07Z</time>
      </trkpt>
      <trkpt lat="45.27273" lon="5.85026">
        <ele>442</ele>
        <time>2017-10-21T13:03:09Z</time>
      </trkpt>
      <trkpt lat="45.27273" lon="5.85036">
        <ele>440</ele>
        <time>2017-10-21T13:03:11Z</time>
      </trkpt>
      <trkpt lat="45.27274" lon="5.85043">
        <ele>439</ele>
        <time>2017-10-21T13:03:13Z</time>
      </trkpt>
      <trkpt lat="45.27275" lon="5.85052">
        <ele>438</ele>
        <time>2017-10-21T13:03:16Z</time>
      </trkpt>
      <trkpt lat="45.27272" lon="5.85058">
        <ele>437</ele>
        <time>2017-10-21T13:03:18Z</time>
      </trkpt>
      <trkpt lat="45.27268" lon="5.85062">
        <ele>436</ele>
        <time>2017-10-21T13:03:20Z</time>
      </trkpt>
      <trkpt lat="45.27264" lon="5.85066">
        <ele>435</ele>
        <time>2017-10-21T13:03:22Z</time>
      </trkpt>
      <trkpt lat="45.2726" lon="5.85076">
        <ele>433</ele>
        <time>2017-10-21T13:03:26Z</time>
      </trkpt>
      <trkpt lat="45.27259" lon="5.85082">
        <ele>432</ele>
        <time>2017-10-21T13:03:30Z</time>
      </trkpt>
      <trkpt lat="45.27258" lon="5.8509">
        <ele>430</ele>
        <time>2017-10-21T13:03:33Z</time>
      </trkpt>
      <trkpt lat="45.27259" lon="5.85097">
        <ele>429</ele>
        <time>2017-10-21T13:03:35Z</time>
      </trkpt>
      <trkpt lat="45.27259" lon="5.85103">
        <ele>428</ele>
        <time>2017-10-21T13:03:37Z</time>
      </trkpt>
      <trkpt lat="45.27262" lon="5.85111">
        <ele>426</ele>
        <time>2017-10-21T13:03:39Z</time>
      </trkpt>
      <trkpt lat="45.27267" lon="5.85121">
        <ele>425</ele>
        <time>2017-10-21T13:03:41Z</time>
      </trkpt>
      <trkpt lat="45.27273" lon="5.8513">
        <ele>423</ele>
        <time>2017-10-21T13:03:42Z</time>
      </trkpt>
      <trkpt lat="45.27276" lon="5.85136">
        <ele>422</ele>
        <time>2017-10-21T13:03:43Z</time>
      </trkpt>
      <trkpt lat="45.27276" lon="5.85145">
        <ele>420</ele>
        <time>2017-10-21T13:03:45Z</time>
      </trkpt>
      <trkpt lat="45.27273" lon="5.85157">
        <ele>417</ele>
        <time>2017-10-21T13:03:47Z</time>
      </trkpt>
      <trkpt lat="45.27272" lon="5.85163">
        <ele>416</ele>
        <time>2017-10-21T13:03:48Z</time>
      </trkpt>
      <trkpt lat="45.27274" lon="5.85174">
        <ele>413</ele>
        <time>2017-10-21T13:03:50Z</time>
      </trkpt>
      <trkpt lat="45.27277" lon="5.85183">
        <ele>412</ele>
        <time>2017-10-21T13:03:52Z</time>
      </trkpt>
      <trkpt lat="45.27284" lon="5.85186">
        <ele>411</ele>
        <time>2017-10-21T13:03:54Z</time>
      </trkpt>
      <trkpt lat="45.27287" lon="5.85191">
        <ele>410</ele>
        <time>2017-10-21T13:03:55Z</time>
      </trkpt>
      <trkpt lat="45.27295" lon="5.85195">
        <ele>410</ele>
        <time>2017-10-21T13:03:57Z</time>
      </trkpt>
      <trkpt lat="45.27303" lon="5.85198">
        <ele>409</ele>
        <time>2017-10-21T13:03:59Z</time>
      </trkpt>
      <trkpt lat="45.2731" lon="5.852">
        <ele>409</ele>
        <time>2017-10-21T13:04:01Z</time>
      </trkpt>
      <trkpt lat="45.27318" lon="5.85202">
        <ele>409</ele>
        <time>2017-10-21T13:04:03Z</time>
      </trkpt>
      <trkpt lat="45.27327" lon="5.85206">
        <ele>408</ele>
        <time>2017-10-21T13:04:05Z</time>
      </trkpt>
      <trkpt lat="45.27332" lon="5.85208">
        <ele>408</ele>
        <time>2017-10-21T13:04:06Z</time>
      </trkpt>
      <trkpt lat="45.27337" lon="5.8521">
        <ele>407</ele>
        <time>2017-10-21T13:04:08Z</time>
      </trkpt>
      <trkpt lat="45.27343" lon="5.85213">
        <ele>406</ele>
        <time>2017-10-21T13:04:10Z</time>
      </trkpt>
      <trkpt lat="45.27349" lon="5.85221">
        <ele>404</ele>
        <time>2017-10-21T13:04:12Z</time>
      </trkpt>
      <trkpt lat="45.27351" lon="5.85227">
        <ele>402</ele>
        <time>2017-10-21T13:04:14Z</time>
      </trkpt>
      <trkpt lat="45.27349" lon="5.85238">
        <ele>400</ele>
        <time>2017-10-21T13:04:16Z</time>
      </trkpt>
      <trkpt lat="45.27347" lon="5.85249">
        <ele>398</ele>
        <time>2017-10-21T13:04:18Z</time>
      </trkpt>
      <trkpt lat="45.27345" lon="5.85259">
        <ele>396</ele>
        <time>2017-10-21T13:04:20Z</time>
      </trkpt>
      <trkpt lat="45.27342" lon="5.85269">
        <ele>394</ele>
        <time>2017-10-21T13:04:22Z</time>
      </trkpt>
      <trkpt lat="45.27341" lon="5.85279">
        <ele>392</ele>
        <time>2017-10-21T13:04:24Z</time>
      </trkpt>
      <trkpt lat="45.2734" lon="5.85289">
        <ele>390</ele>
        <time>2017-10-21T13:04:26Z</time>
      </trkpt>
      <trkpt lat="45.2734" lon="5.853">
        <ele>388</ele>
        <time>2017-10-21T13:04:28Z</time>
      </trkpt>
      <trkpt lat="45.2734" lon="5.85309">
        <ele>387</ele>
        <time>2017-10-21T13:04:30Z</time>
      </trkpt>
      <trkpt lat="45.27334" lon="5.85312">
        <ele>386</ele>
        <time>2017-10-21T13:04:32Z</time>
      </trkpt>
      <trkpt lat="45.27326" lon="5.85312">
        <ele>386</ele>
        <time>2017-10-21T13:04:33Z</time>
      </trkpt>
      <trkpt lat="45.27313" lon="5.85321">
        <ele>385</ele>
        <time>2017-10-21T13:04:35Z</time>
      </trkpt>
      <trkpt lat="45.27304" lon="5.85326">
        <ele>384</ele>
        <time>2017-10-21T13:04:37Z</time>
      </trkpt>
      <trkpt lat="45.27296" lon="5.85335">
        <ele>383</ele>
        <time>2017-10-21T13:04:39Z</time>
      </trkpt>
      <trkpt lat="45.27292" lon="5.85338">
        <ele>382</ele>
        <time>2017-10-21T13:04:40Z</time>
      </trkpt>
      <trkpt lat="45.27287" lon="5.85339">
        <ele>382</ele>
        <time>2017-10-21T13:04:41Z</time>
      </trkpt>
      <trkpt lat="45.27282" lon="5.85342">
        <ele>382</ele>
        <time>2017-10-21T13:04:42Z</time>
      </trkpt>
      <trkpt lat="45.27275" lon="5.85349">
        <ele>381</ele>
        <time>2017-10-21T13:04:44Z</time>
      </trkpt>
      <trkpt lat="45.27271" lon="5.85352">
        <ele>380</ele>
        <time>2017-10-21T13:04:45Z</time>
      </trkpt>
      <trkpt lat="45.27264" lon="5.85359">
        <ele>379</ele>
        <time>2017-10-21T13:04:47Z</time>
      </trkpt>
      <trkpt lat="45.27257" lon="5.85365">
        <ele>379</ele>
        <time>2017-10-21T13:04:49Z</time>
      </trkpt>
      <trkpt lat="45.27251" lon="5.85371">
        <ele>379</ele>
        <time>2017-10-21T13:04:51Z</time>
      </trkpt>
      <trkpt lat="45.27243" lon="5.85377">
        <ele>379</ele>
        <time>2017-10-21T13:04:53Z</time>
      </trkpt>
      <trkpt lat="45.27237" lon="5.85384">
        <ele>379</ele>
        <time>2017-10-21T13:04:55Z</time>
      </trkpt>
      <trkpt lat="45.27234" lon="5.85396">
        <ele>379</ele>
        <time>2017-10-21T13:04:57Z</time>
      </trkpt>
      <trkpt lat="45.27234" lon="5.85405">
        <ele>378</ele>
        <time>2017-10-21T13:04:58Z</time>
      </trkpt>
      <trkpt lat="45.27234" lon="5.85412">
        <ele>378</ele>
        <time>2017-10-21T13:04:59Z</time>
      </trkpt>
      <trkpt lat="45.27235" lon="5.85418">
        <ele>377</ele>
        <time>2017-10-21T13:05:00Z</time>
      </trkpt>
      <trkpt lat="45.27239" lon="5.85422">
        <ele>376</ele>
        <time>2017-10-21T13:05:01Z</time>
      </trkpt>
      <trkpt lat="45.27244" lon="5.85422">
        <ele>376</ele>
        <time>2017-10-21T13:05:02Z</time>
      </trkpt>
      <trkpt lat="45.27249" lon="5.8542">
        <ele>376</ele>
        <time>2017-10-21T13:05:03Z</time>
      </trkpt>
      <trkpt lat="45.27256" lon="5.85414">
        <ele>375</ele>
        <time>2017-10-21T13:05:05Z</time>
      </trkpt>
      <trkpt lat="45.27262" lon="5.85412">
        <ele>375</ele>
        <time>2017-10-21T13:05:06Z</time>
      </trkpt>
      <trkpt lat="45.27268" lon="5.8541">
        <ele>375</ele>
        <time>2017-10-21T13:05:07Z</time>
      </trkpt>
      <trkpt lat="45.27275" lon="5.85411">
        <ele>375</ele>
        <time>2017-10-21T13:05:08Z</time>
      </trkpt>
      <trkpt lat="45.27284" lon="5.85411">
        <ele>375</ele>
        <time>2017-10-21T13:05:09Z</time>
      </trkpt>
      <trkpt lat="45.27291" lon="5.85412">
        <ele>374</ele>
        <time>2017-10-21T13:05:10Z</time>
      </trkpt>
      <trkpt lat="45.27299" lon="5.85411">
        <ele>374</ele>
        <time>2017-10-21T13:05:11Z</time>
      </trkpt>
      <trkpt lat="45.27307" lon="5.85411">
        <ele>374</ele>
        <time>2017-10-21T13:05:12Z</time>
      </trkpt>
      <trkpt lat="45.27316" lon="5.85411">
        <ele>374</ele>
        <time>2017-10-21T13:05:13Z</time>
      </trkpt>
      <trkpt lat="45.27324" lon="5.85412">
        <ele>374</ele>
        <time>2017-10-21T13:05:14Z</time>
      </trkpt>
      <trkpt lat="45.27331" lon="5.85413">
        <ele>373</ele>
        <time>2017-10-21T13:05:15Z</time>
      </trkpt>
      <trkpt lat="45.27337" lon="5.85409">
        <ele>374</ele>
        <time>2017-10-21T13:05:16Z</time>
      </trkpt>
      <trkpt lat="45.27344" lon="5.85418">
        <ele>373</ele>
        <time>2017-10-21T13:05:17Z</time>
      </trkpt>
      <trkpt lat="45.27347" lon="5.85429">
        <ele>372</ele>
        <time>2017-10-21T13:05:18Z</time>
      </trkpt>
      <trkpt lat="45.2735" lon="5.85441">
        <ele>371</ele>
        <time>2017-10-21T13:05:20Z</time>
      </trkpt>
      <trkpt lat="45.27352" lon="5.85449">
        <ele>370</ele>
        <time>2017-10-21T13:05:21Z</time>
      </trkpt>
      <trkpt lat="45.27357" lon="5.85458">
        <ele>369</ele>
        <time>2017-10-21T13:05:23Z</time>
      </trkpt>
      <trkpt lat="45.2736" lon="5.8547">
        <ele>367</ele>
        <time>2017-10-21T13:05:25Z</time>
      </trkpt>
      <trkpt lat="45.27364" lon="5.85484">
        <ele>366</ele>
        <time>2017-10-21T13:05:27Z</time>
      </trkpt>
      <trkpt lat="45.27362" lon="5.85494">
        <ele>365</ele>
        <time>2017-10-21T13:05:28Z</time>
      </trkpt>
      <trkpt lat="45.27362" lon="5.85503">
        <ele>363</ele>
        <time>2017-10-21T13:05:29Z</time>
      </trkpt>
      <trkpt lat="45.27362" lon="5.85513">
        <ele>363</ele>
        <time>2017-10-21T13:05:30Z</time>
      </trkpt>
      <trkpt lat="45.27364" lon="5.85521">
        <ele>362</ele>
        <time>2017-10-21T13:05:31Z</time>
      </trkpt>
      <trkpt lat="45.27367" lon="5.8553">
        <ele>361</ele>
        <time>2017-10-21T13:05:32Z</time>
      </trkpt>
      <trkpt lat="45.27369" lon="5.85539">
        <ele>361</ele>
        <time>2017-10-21T13:05:33Z</time>
      </trkpt>
      <trkpt lat="45.27371" lon="5.85548">
        <ele>360</ele>
        <time>2017-10-21T13:05:34Z</time>
      </trkpt>
      <trkpt lat="45.27374" lon="5.85555">
        <ele>359</ele>
        <time>2017-10-21T13:05:35Z</time>
      </trkpt>
      <trkpt lat="45.27377" lon="5.8556">
        <ele>359</ele>
        <time>2017-10-21T13:05:36Z</time>
      </trkpt>
      <trkpt lat="45.27382" lon="5.85568">
        <ele>358</ele>
        <time>2017-10-21T13:05:38Z</time>
      </trkpt>
      <trkpt lat="45.27388" lon="5.85577">
        <ele>357</ele>
        <time>2017-10-21T13:05:40Z</time>
      </trkpt>
      <trkpt lat="45.27391" lon="5.85582">
        <ele>357</ele>
        <time>2017-10-21T13:05:41Z</time>
      </trkpt>
      <trkpt lat="45.27397" lon="5.85586">
        <ele>356</ele>
        <time>2017-10-21T13:05:42Z</time>
      </trkpt>
      <trkpt lat="45.27408" lon="5.85598">
        <ele>355</ele>
        <time>2017-10-21T13:05:44Z</time>
      </trkpt>
      <trkpt lat="45.27412" lon="5.85603">
        <ele>354</ele>
        <time>2017-10-21T13:05:45Z</time>
      </trkpt>
      <trkpt lat="45.27414" lon="5.85611">
        <ele>353</ele>
        <time>2017-10-21T13:05:46Z</time>
      </trkpt>
      <trkpt lat="45.27416" lon="5.85619">
        <ele>352</ele>
        <time>2017-10-21T13:05:47Z</time>
      </trkpt>
      <trkpt lat="45.27417" lon="5.8563">
        <ele>351</ele>
        <time>2017-10-21T13:05:48Z</time>
      </trkpt>
      <trkpt lat="45.27418" lon="5.8564">
        <ele>350</ele>
        <time>2017-10-21T13:05:49Z</time>
      </trkpt>
      <trkpt lat="45.2742" lon="5.85649">
        <ele>349</ele>
        <time>2017-10-21T13:05:50Z</time>
      </trkpt>
      <trkpt lat="45.27422" lon="5.85658">
        <ele>349</ele>
        <time>2017-10-21T13:05:51Z</time>
      </trkpt>
      <trkpt lat="45.27427" lon="5.85664">
        <ele>348</ele>
        <time>2017-10-21T13:05:52Z</time>
      </trkpt>
      <trkpt lat="45.27433" lon="5.85673">
        <ele>347</ele>
        <time>2017-10-21T13:05:53Z</time>
      </trkpt>
      <trkpt lat="45.27438" lon="5.85682">
        <ele>345</ele>
        <time>2017-10-21T13:05:54Z</time>
      </trkpt>
      <trkpt lat="45.27443" lon="5.8569">
        <ele>344</ele>
        <time>2017-10-21T13:05:55Z</time>
      </trkpt>
      <trkpt lat="45.27448" lon="5.85701">
        <ele>343</ele>
        <time>2017-10-21T13:05:56Z</time>
      </trkpt>
      <trkpt lat="45.27454" lon="5.8571">
        <ele>341</ele>
        <time>2017-10-21T13:05:57Z</time>
      </trkpt>
      <trkpt lat="45.2746" lon="5.8572">
        <ele>340</ele>
        <time>2017-10-21T13:05:58Z</time>
      </trkpt>
      <trkpt lat="45.27464" lon="5.85731">
        <ele>339</ele>
        <time>2017-10-21T13:05:59Z</time>
      </trkpt>
      <trkpt lat="45.27469" lon="5.85741">
        <ele>339</ele>
        <time>2017-10-21T13:06:00Z</time>
      </trkpt>
      <trkpt lat="45.27474" lon="5.85754">
        <ele>338</ele>
        <time>2017-10-21T13:06:01Z</time>
      </trkpt>
      <trkpt lat="45.27481" lon="5.85767">
        <ele>337</ele>
        <time>2017-10-21T13:06:02Z</time>
      </trkpt>
      <trkpt lat="45.27487" lon="5.85777">
        <ele>336</ele>
        <time>2017-10-21T13:06:03Z</time>
      </trkpt>
      <trkpt lat="45.27492" lon="5.85789">
        <ele>335</ele>
        <time>2017-10-21T13:06:04Z</time>
      </trkpt>
      <trkpt lat="45.27498" lon="5.85799">
        <ele>334</ele>
        <time>2017-10-21T13:06:05Z</time>
      </trkpt>
      <trkpt lat="45.27502" lon="5.85807">
        <ele>333</ele>
        <time>2017-10-21T13:06:06Z</time>
      </trkpt>
      <trkpt lat="45.27508" lon="5.85818">
        <ele>332</ele>
        <time>2017-10-21T13:06:07Z</time>
      </trkpt>
      <trkpt lat="45.27512" lon="5.85824">
        <ele>331</ele>
        <time>2017-10-21T13:06:08Z</time>
      </trkpt>
      <trkpt lat="45.27516" lon="5.8583">
        <ele>331</ele>
        <time>2017-10-21T13:06:09Z</time>
      </trkpt>
      <trkpt lat="45.27521" lon="5.85837">
        <ele>330</ele>
        <time>2017-10-21T13:06:10Z</time>
      </trkpt>
      <trkpt lat="45.27525" lon="5.85844">
        <ele>329</ele>
        <time>2017-10-21T13:06:11Z</time>
      </trkpt>
      <trkpt lat="45.27533" lon="5.8586">
        <ele>328</ele>
        <time>2017-10-21T13:06:13Z</time>
      </trkpt>
      <trkpt lat="45.27536" lon="5.85868">
        <ele>327</ele>
        <time>2017-10-21T13:06:14Z</time>
      </trkpt>
      <trkpt lat="45.27541" lon="5.85876">
        <ele>326</ele>
        <time>2017-10-21T13:06:15Z</time>
      </trkpt>
      <trkpt lat="45.27546" lon="5.85884">
        <ele>325</ele>
        <time>2017-10-21T13:06:16Z</time>
      </trkpt>
      <trkpt lat="45.27557" lon="5.85899">
        <ele>324</ele>
        <time>2017-10-21T13:06:18Z</time>
      </trkpt>
      <trkpt lat="45.27561" lon="5.85908">
        <ele>323</ele>
        <time>2017-10-21T13:06:19Z</time>
      </trkpt>
      <trkpt lat="45.27566" lon="5.85916">
        <ele>323</ele>
        <time>2017-10-21T13:06:20Z</time>
      </trkpt>
      <trkpt lat="45.27572" lon="5.85923">
        <ele>322</ele>
        <time>2017-10-21T13:06:21Z</time>
      </trkpt>
      <trkpt lat="45.27576" lon="5.85929">
        <ele>322</ele>
        <time>2017-10-21T13:06:22Z</time>
      </trkpt>
      <trkpt lat="45.27581" lon="5.85937">
        <ele>321</ele>
        <time>2017-10-21T13:06:23Z</time>
      </trkpt>
      <trkpt lat="45.27586" lon="5.85943">
        <ele>320</ele>
        <time>2017-10-21T13:06:24Z</time>
      </trkpt>
      <trkpt lat="45.2759" lon="5.85951">
        <ele>320</ele>
        <time>2017-10-21T13:06:25Z</time>
      </trkpt>
      <trkpt lat="45.27596" lon="5.85961">
        <ele>319</ele>
        <time>2017-10-21T13:06:26Z</time>
      </trkpt>
      <trkpt lat="45.27601" lon="5.85968">
        <ele>319</ele>
        <time>2017-10-21T13:06:27Z</time>
      </trkpt>
      <trkpt lat="45.2761" lon="5.85982">
        <ele>318</ele>
        <time>2017-10-21T13:06:29Z</time>
      </trkpt>
      <trkpt lat="45.27613" lon="5.85988">
        <ele>318</ele>
        <time>2017-10-21T13:06:30Z</time>
      </trkpt>
      <trkpt lat="45.27616" lon="5.85997">
        <ele>317</ele>
        <time>2017-10-21T13:06:31Z</time>
      </trkpt>
      <trkpt lat="45.27619" lon="5.86003">
        <ele>317</ele>
        <time>2017-10-21T13:06:32Z</time>
      </trkpt>
      <trkpt lat="45.27624" lon="5.8601">
        <ele>317</ele>
        <time>2017-10-21T13:06:33Z</time>
      </trkpt>
      <trkpt lat="45.27628" lon="5.86016">
        <ele>317</ele>
        <time>2017-10-21T13:06:34Z</time>
      </trkpt>
      <trkpt lat="45.27635" lon="5.86026">
        <ele>317</ele>
        <time>2017-10-21T13:06:36Z</time>
      </trkpt>
      <trkpt lat="45.27639" lon="5.86034">
        <ele>317</ele>
        <time>2017-10-21T13:06:38Z</time>
      </trkpt>
      <trkpt lat="45.27641" lon="5.86041">
        <ele>317</ele>
        <time>2017-10-21T13:06:46Z</time>
      </trkpt>
      <trkpt lat="45.27638" lon="5.86055">
        <ele>316</ele>
        <time>2017-10-21T13:11:55Z</time>
      </trkpt>
      <trkpt lat="45.2763" lon="5.86063">
        <ele>315</ele>
        <time>2017-10-21T13:11:57Z</time>
      </trkpt>
      <trkpt lat="45.27622" lon="5.86069">
        <ele>314</ele>
        <time>2017-10-21T13:11:59Z</time>
      </trkpt>
      <trkpt lat="45.27616" lon="5.86071">
        <ele>314</ele>
        <time>2017-10-21T13:12:00Z</time>
      </trkpt>
      <trkpt lat="45.2761" lon="5.86081">
        <ele>313</ele>
        <time>2017-10-21T13:12:02Z</time>
      </trkpt>
      <trkpt lat="45.27607" lon="5.86089">
        <ele>313</ele>
        <time>2017-10-21T13:12:04Z</time>
      </trkpt>
      <trkpt lat="45.27605" lon="5.86098">
        <ele>312</ele>
        <time>2017-10-21T13:12:05Z</time>
      </trkpt>
      <trkpt lat="45.27602" lon="5.86104">
        <ele>311</ele>
        <time>2017-10-21T13:12:06Z</time>
      </trkpt>
      <trkpt lat="45.27599" lon="5.8611">
        <ele>311</ele>
        <time>2017-10-21T13:12:07Z</time>
      </trkpt>
      <trkpt lat="45.27592" lon="5.86119">
        <ele>311</ele>
        <time>2017-10-21T13:12:09Z</time>
      </trkpt>
      <trkpt lat="45.27588" lon="5.86129">
        <ele>310</ele>
        <time>2017-10-21T13:12:11Z</time>
      </trkpt>
      <trkpt lat="45.27591" lon="5.8614">
        <ele>310</ele>
        <time>2017-10-21T13:12:13Z</time>
      </trkpt>
      <trkpt lat="45.27597" lon="5.86145">
        <ele>309</ele>
        <time>2017-10-21T13:12:15Z</time>
      </trkpt>
      <trkpt lat="45.27603" lon="5.86144">
        <ele>310</ele>
        <time>2017-10-21T13:12:17Z</time>
      </trkpt>
      <trkpt lat="45.27607" lon="5.86139">
        <ele>310</ele>
        <time>2017-10-21T13:12:19Z</time>
      </trkpt>
      <trkpt lat="45.2761" lon="5.86134">
        <ele>310</ele>
        <time>2017-10-21T13:12:21Z</time>
      </trkpt>
      <trkpt lat="45.27613" lon="5.86127">
        <ele>311</ele>
        <time>2017-10-21T13:12:24Z</time>
      </trkpt>
      <trkpt lat="45.27619" lon="5.86123">
        <ele>312</ele>
        <time>2017-10-21T13:12:27Z</time>
      </trkpt>
      <trkpt lat="45.27624" lon="5.86118">
        <ele>312</ele>
        <time>2017-10-21T13:12:30Z</time>
      </trkpt>
      <trkpt lat="45.27631" lon="5.86115">
        <ele>313</ele>
        <time>2017-10-21T13:12:33Z</time>
      </trkpt>
      <trkpt lat="45.27635" lon="5.86112">
        <ele>313</ele>
        <time>2017-10-21T13:12:35Z</time>
      </trkpt>
      <trkpt lat="45.27639" lon="5.86109">
        <ele>314</ele>
        <time>2017-10-21T13:12:37Z</time>
      </trkpt>
      <trkpt lat="45.27644" lon="5.86107">
        <ele>314</ele>
        <time>2017-10-21T13:12:39Z</time>
      </trkpt>
      <trkpt lat="45.27649" lon="5.86104">
        <ele>315</ele>
        <time>2017-10-21T13:12:42Z</time>
      </trkpt>
      <trkpt lat="45.27655" lon="5.861">
        <ele>315</ele>
        <time>2017-10-21T13:12:45Z</time>
      </trkpt>
      <trkpt lat="45.27661" lon="5.86099">
        <ele>315</ele>
        <time>2017-10-21T13:12:48Z</time>
      </trkpt>
      <trkpt lat="45.27667" lon="5.86098">
        <ele>316</ele>
        <time>2017-10-21T13:12:51Z</time>
      </trkpt>
      <trkpt lat="45.27672" lon="5.86097">
        <ele>316</ele>
        <time>2017-10-21T13:12:54Z</time>
      </trkpt>
      <trkpt lat="45.27677" lon="5.86095">
        <ele>317</ele>
        <time>2017-10-21T13:12:57Z</time>
      </trkpt>
      <trkpt lat="45.27682" lon="5.86094">
        <ele>317</ele>
        <time>2017-10-21T13:13:01Z</time>
      </trkpt>
      <trkpt lat="45.27688" lon="5.86091">
        <ele>318</ele>
        <time>2017-10-21T13:13:05Z</time>
      </trkpt>
      <trkpt lat="45.27692" lon="5.86087">
        <ele>318</ele>
        <time>2017-10-21T13:13:08Z</time>
      </trkpt>
      <trkpt lat="45.27697" lon="5.86084">
        <ele>319</ele>
        <time>2017-10-21T13:13:11Z</time>
      </trkpt>
      <trkpt lat="45.27702" lon="5.86082">
        <ele>319</ele>
        <time>2017-10-21T13:13:14Z</time>
      </trkpt>
      <trkpt lat="45.27706" lon="5.86079">
        <ele>320</ele>
        <time>2017-10-21T13:13:17Z</time>
      </trkpt>
      <trkpt lat="45.2771" lon="5.86076">
        <ele>320</ele>
        <time>2017-10-21T13:13:20Z</time>
      </trkpt>
      <trkpt lat="45.27715" lon="5.86073">
        <ele>321</ele>
        <time>2017-10-21T13:13:23Z</time>
      </trkpt>
      <trkpt lat="45.2772" lon="5.86071">
        <ele>321</ele>
        <time>2017-10-21T13:13:26Z</time>
      </trkpt>
      <trkpt lat="45.27723" lon="5.86067">
        <ele>322</ele>
        <time>2017-10-21T13:13:29Z</time>
      </trkpt>
      <trkpt lat="45.27728" lon="5.86063">
        <ele>322</ele>
        <time>2017-10-21T13:13:33Z</time>
      </trkpt>
      <trkpt lat="45.27733" lon="5.8606">
        <ele>323</ele>
        <time>2017-10-21T13:13:37Z</time>
      </trkpt>
      <trkpt lat="45.27739" lon="5.86057">
        <ele>323</ele>
        <time>2017-10-21T13:13:41Z</time>
      </trkpt>
      <trkpt lat="45.27743" lon="5.86055">
        <ele>324</ele>
        <time>2017-10-21T13:13:44Z</time>
      </trkpt>
      <trkpt lat="45.27748" lon="5.86052">
        <ele>326</ele>
        <time>2017-10-21T13:13:47Z</time>
      </trkpt>
      <trkpt lat="45.27757" lon="5.8605">
        <ele>329</ele>
        <time>2017-10-21T13:13:53Z</time>
      </trkpt>
      <trkpt lat="45.27761" lon="5.86055">
        <ele>330</ele>
        <time>2017-10-21T13:13:57Z</time>
      </trkpt>
      <trkpt lat="45.27764" lon="5.86061">
        <ele>331</ele>
        <time>2017-10-21T13:14:00Z</time>
      </trkpt>
      <trkpt lat="45.27766" lon="5.86067">
        <ele>331</ele>
        <time>2017-10-21T13:14:03Z</time>
      </trkpt>
      <trkpt lat="45.27769" lon="5.86073">
        <ele>332</ele>
        <time>2017-10-21T13:14:06Z</time>
      </trkpt>
      <trkpt lat="45.27771" lon="5.86081">
        <ele>332</ele>
        <time>2017-10-21T13:14:09Z</time>
      </trkpt>
      <trkpt lat="45.27774" lon="5.86087">
        <ele>332</ele>
        <time>2017-10-21T13:14:12Z</time>
      </trkpt>
      <trkpt lat="45.27778" lon="5.86093">
        <ele>333</ele>
        <time>2017-10-21T13:14:15Z</time>
      </trkpt>
      <trkpt lat="45.27781" lon="5.86099">
        <ele>334</ele>
        <time>2017-10-21T13:14:18Z</time>
      </trkpt>
      <trkpt lat="45.27784" lon="5.86106">
        <ele>334</ele>
        <time>2017-10-21T13:14:21Z</time>
      </trkpt>
      <trkpt lat="45.27786" lon="5.86112">
        <ele>335</ele>
        <time>2017-10-21T13:14:24Z</time>
      </trkpt>
      <trkpt lat="45.27789" lon="5.86119">
        <ele>335</ele>
        <time>2017-10-21T13:14:28Z</time>
      </trkpt>
      <trkpt lat="45.27792" lon="5.86124">
        <ele>336</ele>
        <time>2017-10-21T13:14:31Z</time>
      </trkpt>
      <trkpt lat="45.27794" lon="5.8613">
        <ele>336</ele>
        <time>2017-10-21T13:14:34Z</time>
      </trkpt>
      <trkpt lat="45.27796" lon="5.86136">
        <ele>336</ele>
        <time>2017-10-21T13:14:37Z</time>
      </trkpt>
      <trkpt lat="45.27798" lon="5.86142">
        <ele>336</ele>
        <time>2017-10-21T13:14:40Z</time>
      </trkpt>
      <trkpt lat="45.278" lon="5.86148">
        <ele>336</ele>
        <time>2017-10-21T13:14:43Z</time>
      </trkpt>
      <trkpt lat="45.27803" lon="5.86154">
        <ele>336</ele>
        <time>2017-10-21T13:14:46Z</time>
      </trkpt>
      <trkpt lat="45.27805" lon="5.8616">
        <ele>337</ele>
        <time>2017-10-21T13:14:49Z</time>
      </trkpt>
      <trkpt lat="45.27808" lon="5.86167">
        <ele>337</ele>
        <time>2017-10-21T13:14:52Z</time>
      </trkpt>
      <trkpt lat="45.2781" lon="5.86174">
        <ele>337</ele>
        <time>2017-10-21T13:14:55Z</time>
      </trkpt>
      <trkpt lat="45.27815" lon="5.86184">
        <ele>338</ele>
        <time>2017-10-21T13:15:01Z</time>
      </trkpt>
      <trkpt lat="45.27818" lon="5.86189">
        <ele>338</ele>
        <time>2017-10-21T13:15:04Z</time>
      </trkpt>
      <trkpt lat="45.27821" lon="5.86194">
        <ele>339</ele>
        <time>2017-10-21T13:15:07Z</time>
      </trkpt>
      <trkpt lat="45.27824" lon="5.862">
        <ele>339</ele>
        <time>2017-10-21T13:15:10Z</time>
      </trkpt>
      <trkpt lat="45.27826" lon="5.86209">
        <ele>339</ele>
        <time>2017-10-21T13:15:14Z</time>
      </trkpt>
      <trkpt lat="45.27829" lon="5.86214">
        <ele>339</ele>
        <time>2017-10-21T13:15:17Z</time>
      </trkpt>
      <trkpt lat="45.27832" lon="5.86219">
        <ele>340</ele>
        <time>2017-10-21T13:15:20Z</time>
      </trkpt>
      <trkpt lat="45.27837" lon="5.86226">
        <ele>341</ele>
        <time>2017-10-21T13:15:23Z</time>
      </trkpt>
      <trkpt lat="45.2784" lon="5.86232">
        <ele>341</ele>
        <time>2017-10-21T13:15:26Z</time>
      </trkpt>
      <trkpt lat="45.27843" lon="5.86237">
        <ele>341</ele>
        <time>2017-10-21T13:15:28Z</time>
      </trkpt>
      <trkpt lat="45.27845" lon="5.86243">
        <ele>342</ele>
        <time>2017-10-21T13:15:30Z</time>
      </trkpt>
      <trkpt lat="45.2785" lon="5.86249">
        <ele>343</ele>
        <time>2017-10-21T13:15:33Z</time>
      </trkpt>
      <trkpt lat="45.27854" lon="5.86256">
        <ele>343</ele>
        <time>2017-10-21T13:15:36Z</time>
      </trkpt>
      <trkpt lat="45.27858" lon="5.86263">
        <ele>344</ele>
        <time>2017-10-21T13:15:39Z</time>
      </trkpt>
      <trkpt lat="45.27861" lon="5.8627">
        <ele>344</ele>
        <time>2017-10-21T13:15:42Z</time>
      </trkpt>
      <trkpt lat="45.27864" lon="5.86278">
        <ele>344</ele>
        <time>2017-10-21T13:15:45Z</time>
      </trkpt>
      <trkpt lat="45.27868" lon="5.86285">
        <ele>345</ele>
        <time>2017-10-21T13:15:48Z</time>
      </trkpt>
      <trkpt lat="45.27871" lon="5.86291">
        <ele>345</ele>
        <time>2017-10-21T13:15:50Z</time>
      </trkpt>
      <trkpt lat="45.27873" lon="5.86296">
        <ele>345</ele>
        <time>2017-10-21T13:15:52Z</time>
      </trkpt>
      <trkpt lat="45.27876" lon="5.86302">
        <ele>345</ele>
        <time>2017-10-21T13:15:54Z</time>
      </trkpt>
      <trkpt lat="45.27878" lon="5.86308">
        <ele>345</ele>
        <time>2017-10-21T13:15:56Z</time>
      </trkpt>
      <trkpt lat="45.27881" lon="5.86314">
        <ele>345</ele>
        <time>2017-10-21T13:15:58Z</time>
      </trkpt>
      <trkpt lat="45.27884" lon="5.86318">
        <ele>346</ele>
        <time>2017-10-21T13:16:00Z</time>
      </trkpt>
      <trkpt lat="45.27888" lon="5.86323">
        <ele>346</ele>
        <time>2017-10-21T13:16:02Z</time>
      </trkpt>
      <trkpt lat="45.27894" lon="5.86332">
        <ele>347</ele>
        <time>2017-10-21T13:16:06Z</time>
      </trkpt>
      <trkpt lat="45.27898" lon="5.86339">
        <ele>347</ele>
        <time>2017-10-21T13:16:09Z</time>
      </trkpt>
      <trkpt lat="45.27903" lon="5.86346">
        <ele>348</ele>
        <time>2017-10-21T13:16:12Z</time>
      </trkpt>
      <trkpt lat="45.27908" lon="5.86352">
        <ele>348</ele>
        <time>2017-10-21T13:16:15Z</time>
      </trkpt>
      <trkpt lat="45.27913" lon="5.86358">
        <ele>349</ele>
        <time>2017-10-21T13:16:18Z</time>
      </trkpt>
      <trkpt lat="45.27917" lon="5.86361">
        <ele>350</ele>
        <time>2017-10-21T13:16:20Z</time>
      </trkpt>
      <trkpt lat="45.27921" lon="5.86365">
        <ele>350</ele>
        <time>2017-10-21T13:16:22Z</time>
      </trkpt>
      <trkpt lat="45.27926" lon="5.86368">
        <ele>352</ele>
        <time>2017-10-21T13:16:24Z</time>
      </trkpt>
      <trkpt lat="45.27931" lon="5.86372">
        <ele>353</ele>
        <time>2017-10-21T13:16:26Z</time>
      </trkpt>
      <trkpt lat="45.27935" lon="5.86375">
        <ele>353</ele>
        <time>2017-10-21T13:16:28Z</time>
      </trkpt>
      <trkpt lat="45.2794" lon="5.86379">
        <ele>354</ele>
        <time>2017-10-21T13:16:30Z</time>
      </trkpt>
      <trkpt lat="45.27944" lon="5.86381">
        <ele>355</ele>
        <time>2017-10-21T13:16:32Z</time>
      </trkpt>
      <trkpt lat="45.27948" lon="5.86384">
        <ele>356</ele>
        <time>2017-10-21T13:16:34Z</time>
      </trkpt>
      <trkpt lat="45.27953" lon="5.86386">
        <ele>357</ele>
        <time>2017-10-21T13:16:36Z</time>
      </trkpt>
      <trkpt lat="45.27957" lon="5.86389">
        <ele>357</ele>
        <time>2017-10-21T13:16:38Z</time>
      </trkpt>
      <trkpt lat="45.27961" lon="5.86393">
        <ele>357</ele>
        <time>2017-10-21T13:16:40Z</time>
      </trkpt>
      <trkpt lat="45.27966" lon="5.86397">
        <ele>358</ele>
        <time>2017-10-21T13:16:42Z</time>
      </trkpt>
      <trkpt lat="45.27974" lon="5.86403">
        <ele>359</ele>
        <time>2017-10-21T13:16:46Z</time>
      </trkpt>
      <trkpt lat="45.2798" lon="5.86407">
        <ele>360</ele>
        <time>2017-10-21T13:16:49Z</time>
      </trkpt>
      <trkpt lat="45.27985" lon="5.86411">
        <ele>360</ele>
        <time>2017-10-21T13:16:52Z</time>
      </trkpt>
      <trkpt lat="45.27989" lon="5.86414">
        <ele>361</ele>
        <time>2017-10-21T13:16:55Z</time>
      </trkpt>
      <trkpt lat="45.27993" lon="5.86416">
        <ele>361</ele>
        <time>2017-10-21T13:16:58Z</time>
      </trkpt>
      <trkpt lat="45.27999" lon="5.86416">
        <ele>363</ele>
        <time>2017-10-21T13:17:01Z</time>
      </trkpt>
      <trkpt lat="45.28" lon="5.86409">
        <ele>364</ele>
        <time>2017-10-21T13:17:04Z</time>
      </trkpt>
      <trkpt lat="45.27996" lon="5.86403">
        <ele>364</ele>
        <time>2017-10-21T13:17:07Z</time>
      </trkpt>
      <trkpt lat="45.27992" lon="5.86398">
        <ele>364</ele>
        <time>2017-10-21T13:17:10Z</time>
      </trkpt>
      <trkpt lat="45.27988" lon="5.86392">
        <ele>364</ele>
        <time>2017-10-21T13:17:13Z</time>
      </trkpt>
      <trkpt lat="45.27985" lon="5.86385">
        <ele>365</ele>
        <time>2017-10-21T13:17:16Z</time>
      </trkpt>
      <trkpt lat="45.27982" lon="5.86378">
        <ele>365</ele>
        <time>2017-10-21T13:17:19Z</time>
      </trkpt>
      <trkpt lat="45.27979" lon="5.86371">
        <ele>366</ele>
        <time>2017-10-21T13:17:22Z</time>
      </trkpt>
      <trkpt lat="45.27975" lon="5.86363">
        <ele>366</ele>
        <time>2017-10-21T13:17:25Z</time>
      </trkpt>
      <trkpt lat="45.27972" lon="5.86357">
        <ele>367</ele>
        <time>2017-10-21T13:17:28Z</time>
      </trkpt>
      <trkpt lat="45.27969" lon="5.8635">
        <ele>367</ele>
        <time>2017-10-21T13:17:31Z</time>
      </trkpt>
      <trkpt lat="45.27966" lon="5.86344">
        <ele>368</ele>
        <time>2017-10-21T13:17:34Z</time>
      </trkpt>
      <trkpt lat="45.27962" lon="5.86338">
        <ele>368</ele>
        <time>2017-10-21T13:17:37Z</time>
      </trkpt>
      <trkpt lat="45.27959" lon="5.8633">
        <ele>368</ele>
        <time>2017-10-21T13:17:40Z</time>
      </trkpt>
      <trkpt lat="45.27956" lon="5.86323">
        <ele>368</ele>
        <time>2017-10-21T13:17:43Z</time>
      </trkpt>
      <trkpt lat="45.27952" lon="5.86315">
        <ele>368</ele>
        <time>2017-10-21T13:17:46Z</time>
      </trkpt>
      <trkpt lat="45.2795" lon="5.86308">
        <ele>369</ele>
        <time>2017-10-21T13:17:49Z</time>
      </trkpt>
      <trkpt lat="45.27947" lon="5.863">
        <ele>369</ele>
        <time>2017-10-21T13:17:52Z</time>
      </trkpt>
      <trkpt lat="45.27944" lon="5.86291">
        <ele>369</ele>
        <time>2017-10-21T13:17:55Z</time>
      </trkpt>
      <trkpt lat="45.27941" lon="5.86284">
        <ele>369</ele>
        <time>2017-10-21T13:17:58Z</time>
      </trkpt>
      <trkpt lat="45.27938" lon="5.86276">
        <ele>369</ele>
        <time>2017-10-21T13:18:01Z</time>
      </trkpt>
      <trkpt lat="45.27936" lon="5.8627">
        <ele>369</ele>
        <time>2017-10-21T13:18:03Z</time>
      </trkpt>
      <trkpt lat="45.27933" lon="5.86264">
        <ele>368</ele>
        <time>2017-10-21T13:18:05Z</time>
      </trkpt>
      <trkpt lat="45.27931" lon="5.86258">
        <ele>369</ele>
        <time>2017-10-21T13:18:07Z</time>
      </trkpt>
      <trkpt lat="45.27928" lon="5.86248">
        <ele>369</ele>
        <time>2017-10-21T13:18:10Z</time>
      </trkpt>
      <trkpt lat="45.27927" lon="5.86241">
        <ele>369</ele>
        <time>2017-10-21T13:18:12Z</time>
      </trkpt>
      <trkpt lat="45.27926" lon="5.86234">
        <ele>370</ele>
        <time>2017-10-21T13:18:14Z</time>
      </trkpt>
      <trkpt lat="45.27926" lon="5.86227">
        <ele>370</ele>
        <time>2017-10-21T13:18:16Z</time>
      </trkpt>
      <trkpt lat="45.27927" lon="5.8622">
        <ele>371</ele>
        <time>2017-10-21T13:18:18Z</time>
      </trkpt>
      <trkpt lat="45.27927" lon="5.86213">
        <ele>372</ele>
        <time>2017-10-21T13:18:20Z</time>
      </trkpt>
      <trkpt lat="45.27927" lon="5.86206">
        <ele>373</ele>
        <time>2017-10-21T13:18:22Z</time>
      </trkpt>
      <trkpt lat="45.27926" lon="5.86199">
        <ele>373</ele>
        <time>2017-10-21T13:18:24Z</time>
      </trkpt>
      <trkpt lat="45.27925" lon="5.86192">
        <ele>374</ele>
        <time>2017-10-21T13:18:26Z</time>
      </trkpt>
      <trkpt lat="45.27924" lon="5.86185">
        <ele>374</ele>
        <time>2017-10-21T13:18:28Z</time>
      </trkpt>
      <trkpt lat="45.27923" lon="5.86178">
        <ele>374</ele>
        <time>2017-10-21T13:18:30Z</time>
      </trkpt>
      <trkpt lat="45.27922" lon="5.86171">
        <ele>375</ele>
        <time>2017-10-21T13:18:32Z</time>
      </trkpt>
      <trkpt lat="45.27921" lon="5.86165">
        <ele>375</ele>
        <time>2017-10-21T13:18:34Z</time>
      </trkpt>
      <trkpt lat="45.27922" lon="5.86158">
        <ele>376</ele>
        <time>2017-10-21T13:18:38Z</time>
      </trkpt>
      <trkpt lat="45.27922" lon="5.86151">
        <ele>377</ele>
        <time>2017-10-21T13:18:40Z</time>
      </trkpt>
      <trkpt lat="45.27922" lon="5.86142">
        <ele>378</ele>
        <time>2017-10-21T13:18:42Z</time>
      </trkpt>
      <trkpt lat="45.27924" lon="5.86134">
        <ele>379</ele>
        <time>2017-10-21T13:18:44Z</time>
      </trkpt>
      <trkpt lat="45.27925" lon="5.86126">
        <ele>380</ele>
        <time>2017-10-21T13:18:46Z</time>
      </trkpt>
      <trkpt lat="45.27925" lon="5.86118">
        <ele>381</ele>
        <time>2017-10-21T13:18:48Z</time>
      </trkpt>
      <trkpt lat="45.27924" lon="5.86109">
        <ele>382</ele>
        <time>2017-10-21T13:18:50Z</time>
      </trkpt>
      <trkpt lat="45.27924" lon="5.861">
        <ele>382</ele>
        <time>2017-10-21T13:18:52Z</time>
      </trkpt>
      <trkpt lat="45.27923" lon="5.86091">
        <ele>383</ele>
        <time>2017-10-21T13:18:54Z</time>
      </trkpt>
      <trkpt lat="45.27924" lon="5.86082">
        <ele>384</ele>
        <time>2017-10-21T13:18:56Z</time>
      </trkpt>
      <trkpt lat="45.27924" lon="5.86074">
        <ele>384</ele>
        <time>2017-10-21T13:18:58Z</time>
      </trkpt>
      <trkpt lat="45.27924" lon="5.86067">
        <ele>385</ele>
        <time>2017-10-21T13:19:00Z</time>
      </trkpt>
      <trkpt lat="45.27926" lon="5.86061">
        <ele>386</ele>
        <time>2017-10-21T13:19:02Z</time>
      </trkpt>
      <trkpt lat="45.27931" lon="5.8606">
        <ele>388</ele>
        <time>2017-10-21T13:19:05Z</time>
      </trkpt>
      <trkpt lat="45.27933" lon="5.86066">
        <ele>388</ele>
        <time>2017-10-21T13:19:07Z</time>
      </trkpt>
      <trkpt lat="45.27935" lon="5.86073">
        <ele>389</ele>
        <time>2017-10-21T13:19:09Z</time>
      </trkpt>
      <trkpt lat="45.27937" lon="5.8608">
        <ele>389</ele>
        <time>2017-10-21T13:19:11Z</time>
      </trkpt>
      <trkpt lat="45.2794" lon="5.86086">
        <ele>389</ele>
        <time>2017-10-21T13:19:13Z</time>
      </trkpt>
      <trkpt lat="45.27942" lon="5.86092">
        <ele>389</ele>
        <time>2017-10-21T13:19:15Z</time>
      </trkpt>
      <trkpt lat="45.27945" lon="5.86098">
        <ele>390</ele>
        <time>2017-10-21T13:19:17Z</time>
      </trkpt>
      <trkpt lat="45.27948" lon="5.86104">
        <ele>390</ele>
        <time>2017-10-21T13:19:19Z</time>
      </trkpt>
      <trkpt lat="45.27953" lon="5.8611">
        <ele>392</ele>
        <time>2017-10-21T13:19:22Z</time>
      </trkpt>
      <trkpt lat="45.27955" lon="5.86102">
        <ele>393</ele>
        <time>2017-10-21T13:19:25Z</time>
      </trkpt>
      <trkpt lat="45.27953" lon="5.86094">
        <ele>393</ele>
        <time>2017-10-21T13:19:27Z</time>
      </trkpt>
      <trkpt lat="45.27951" lon="5.86086">
        <ele>393</ele>
        <time>2017-10-21T13:19:29Z</time>
      </trkpt>
      <trkpt lat="45.27949" lon="5.86076">
        <ele>393</ele>
        <time>2017-10-21T13:19:31Z</time>
      </trkpt>
      <trkpt lat="45.27949" lon="5.86067">
        <ele>394</ele>
        <time>2017-10-21T13:19:33Z</time>
      </trkpt>
      <trkpt lat="45.27949" lon="5.86059">
        <ele>395</ele>
        <time>2017-10-21T13:19:35Z</time>
      </trkpt>
      <trkpt lat="45.27949" lon="5.86051">
        <ele>396</ele>
        <time>2017-10-21T13:19:37Z</time>
      </trkpt>
      <trkpt lat="45.27949" lon="5.86044">
        <ele>396</ele>
        <time>2017-10-21T13:19:39Z</time>
      </trkpt>
      <trkpt lat="45.27949" lon="5.86036">
        <ele>397</ele>
        <time>2017-10-21T13:19:41Z</time>
      </trkpt>
      <trkpt lat="45.27948" lon="5.8603">
        <ele>397</ele>
        <time>2017-10-21T13:19:43Z</time>
      </trkpt>
      <trkpt lat="45.27947" lon="5.86021">
        <ele>397</ele>
        <time>2017-10-21T13:19:46Z</time>
      </trkpt>
      <trkpt lat="45.27944" lon="5.86013">
        <ele>396</ele>
        <time>2017-10-21T13:19:49Z</time>
      </trkpt>
      <trkpt lat="45.2794" lon="5.86008">
        <ele>395</ele>
        <time>2017-10-21T13:19:53Z</time>
      </trkpt>
      <trkpt lat="45.27939" lon="5.85999">
        <ele>396</ele>
        <time>2017-10-21T13:19:56Z</time>
      </trkpt>
      <trkpt lat="45.27938" lon="5.8599">
        <ele>396</ele>
        <time>2017-10-21T13:19:59Z</time>
      </trkpt>
      <trkpt lat="45.27937" lon="5.8598">
        <ele>396</ele>
        <time>2017-10-21T13:20:02Z</time>
      </trkpt>
      <trkpt lat="45.27936" lon="5.85971">
        <ele>395</ele>
        <time>2017-10-21T13:20:05Z</time>
      </trkpt>
      <trkpt lat="45.27937" lon="5.85962">
        <ele>395</ele>
        <time>2017-10-21T13:20:07Z</time>
      </trkpt>
      <trkpt lat="45.27937" lon="5.85955">
        <ele>395</ele>
        <time>2017-10-21T13:20:09Z</time>
      </trkpt>
      <trkpt lat="45.27937" lon="5.85947">
        <ele>395</ele>
        <time>2017-10-21T13:20:11Z</time>
      </trkpt>
      <trkpt lat="45.27936" lon="5.85939">
        <ele>394</ele>
        <time>2017-10-21T13:20:13Z</time>
      </trkpt>
      <trkpt lat="45.27936" lon="5.85932">
        <ele>394</ele>
        <time>2017-10-21T13:20:15Z</time>
      </trkpt>
      <trkpt lat="45.27938" lon="5.85926">
        <ele>394</ele>
        <time>2017-10-21T13:20:17Z</time>
      </trkpt>
      <trkpt lat="45.27941" lon="5.85921">
        <ele>395</ele>
        <time>2017-10-21T13:20:19Z</time>
      </trkpt>
      <trkpt lat="45.27946" lon="5.85922">
        <ele>398</ele>
        <time>2017-10-21T13:20:22Z</time>
      </trkpt>
      <trkpt lat="45.27948" lon="5.8593">
        <ele>399</ele>
        <time>2017-10-21T13:20:25Z</time>
      </trkpt>
      <trkpt lat="45.2795" lon="5.85938">
        <ele>400</ele>
        <time>2017-10-21T13:20:28Z</time>
      </trkpt>
      <trkpt lat="45.27953" lon="5.85946">
        <ele>401</ele>
        <time>2017-10-21T13:20:31Z</time>
      </trkpt>
      <trkpt lat="45.27957" lon="5.85952">
        <ele>403</ele>
        <time>2017-10-21T13:20:34Z</time>
      </trkpt>
      <trkpt lat="45.27961" lon="5.85959">
        <ele>405</ele>
        <time>2017-10-21T13:20:37Z</time>
      </trkpt>
      <trkpt lat="45.27965" lon="5.85964">
        <ele>406</ele>
        <time>2017-10-21T13:20:40Z</time>
      </trkpt>
      <trkpt lat="45.27968" lon="5.85971">
        <ele>407</ele>
        <time>2017-10-21T13:20:43Z</time>
      </trkpt>
      <trkpt lat="45.27969" lon="5.85979">
        <ele>408</ele>
        <time>2017-10-21T13:20:46Z</time>
      </trkpt>
      <trkpt lat="45.27972" lon="5.85986">
        <ele>409</ele>
        <time>2017-10-21T13:20:49Z</time>
      </trkpt>
      <trkpt lat="45.27976" lon="5.85994">
        <ele>410</ele>
        <time>2017-10-21T13:20:52Z</time>
      </trkpt>
      <trkpt lat="45.2798" lon="5.86001">
        <ele>411</ele>
        <time>2017-10-21T13:20:55Z</time>
      </trkpt>
      <trkpt lat="45.27984" lon="5.86007">
        <ele>412</ele>
        <time>2017-10-21T13:20:58Z</time>
      </trkpt>
      <trkpt lat="45.27989" lon="5.86013">
        <ele>414</ele>
        <time>2017-10-21T13:21:01Z</time>
      </trkpt>
      <trkpt lat="45.27993" lon="5.86021">
        <ele>415</ele>
        <time>2017-10-21T13:21:04Z</time>
      </trkpt>
      <trkpt lat="45.27995" lon="5.86026">
        <ele>415</ele>
        <time>2017-10-21T13:21:06Z</time>
      </trkpt>
      <trkpt lat="45.27999" lon="5.86035">
        <ele>416</ele>
        <time>2017-10-21T13:21:09Z</time>
      </trkpt>
      <trkpt lat="45.28002" lon="5.86042">
        <ele>416</ele>
        <time>2017-10-21T13:21:12Z</time>
      </trkpt>
      <trkpt lat="45.28005" lon="5.8605">
        <ele>417</ele>
        <time>2017-10-21T13:21:15Z</time>
      </trkpt>
      <trkpt lat="45.28007" lon="5.86056">
        <ele>417</ele>
        <time>2017-10-21T13:21:17Z</time>
      </trkpt>
      <trkpt lat="45.2801" lon="5.86065">
        <ele>417</ele>
        <time>2017-10-21T13:21:20Z</time>
      </trkpt>
      <trkpt lat="45.28014" lon="5.86079">
        <ele>417</ele>
        <time>2017-10-21T13:21:25Z</time>
      </trkpt>
      <trkpt lat="45.28018" lon="5.86089">
        <ele>417</ele>
        <time>2017-10-21T13:21:29Z</time>
      </trkpt>
      <trkpt lat="45.2802" lon="5.86097">
        <ele>417</ele>
        <time>2017-10-21T13:21:32Z</time>
      </trkpt>
      <trkpt lat="45.28023" lon="5.86106">
        <ele>418</ele>
        <time>2017-10-21T13:21:35Z</time>
      </trkpt>
      <trkpt lat="45.28026" lon="5.86114">
        <ele>418</ele>
        <time>2017-10-21T13:21:38Z</time>
      </trkpt>
      <trkpt lat="45.28029" lon="5.86121">
        <ele>418</ele>
        <time>2017-10-21T13:21:41Z</time>
      </trkpt>
      <trkpt lat="45.28032" lon="5.86128">
        <ele>419</ele>
        <time>2017-10-21T13:21:44Z</time>
      </trkpt>
      <trkpt lat="45.28036" lon="5.86134">
        <ele>420</ele>
        <time>2017-10-21T13:21:47Z</time>
      </trkpt>
      <trkpt lat="45.28039" lon="5.8614">
        <ele>420</ele>
        <time>2017-10-21T13:21:50Z</time>
      </trkpt>
      <trkpt lat="45.28043" lon="5.86146">
        <ele>421</ele>
        <time>2017-10-21T13:21:53Z</time>
      </trkpt>
      <trkpt lat="45.28045" lon="5.86154">
        <ele>420</ele>
        <time>2017-10-21T13:21:56Z</time>
      </trkpt>
      <trkpt lat="45.28048" lon="5.86162">
        <ele>420</ele>
        <time>2017-10-21T13:21:59Z</time>
      </trkpt>
      <trkpt lat="45.28052" lon="5.86168">
        <ele>421</ele>
        <time>2017-10-21T13:22:02Z</time>
      </trkpt>
      <trkpt lat="45.28056" lon="5.86174">
        <ele>422</ele>
        <time>2017-10-21T13:22:05Z</time>
      </trkpt>
      <trkpt lat="45.2806" lon="5.8618">
        <ele>422</ele>
        <time>2017-10-21T13:22:08Z</time>
      </trkpt>
      <trkpt lat="45.28065" lon="5.86185">
        <ele>423</ele>
        <time>2017-10-21T13:22:11Z</time>
      </trkpt>
      <trkpt lat="45.28069" lon="5.86192">
        <ele>424</ele>
        <time>2017-10-21T13:22:14Z</time>
      </trkpt>
      <trkpt lat="45.28073" lon="5.86197">
        <ele>424</ele>
        <time>2017-10-21T13:22:17Z</time>
      </trkpt>
      <trkpt lat="45.28077" lon="5.86203">
        <ele>424</ele>
        <time>2017-10-21T13:22:20Z</time>
      </trkpt>
      <trkpt lat="45.28081" lon="5.86208">
        <ele>425</ele>
        <time>2017-10-21T13:22:23Z</time>
      </trkpt>
      <trkpt lat="45.28085" lon="5.86214">
        <ele>425</ele>
        <time>2017-10-21T13:22:26Z</time>
      </trkpt>
      <trkpt lat="45.28089" lon="5.8622">
        <ele>426</ele>
        <time>2017-10-21T13:22:29Z</time>
      </trkpt>
      <trkpt lat="45.28094" lon="5.86225">
        <ele>427</ele>
        <time>2017-10-21T13:22:32Z</time>
      </trkpt>
      <trkpt lat="45.28098" lon="5.86231">
        <ele>428</ele>
        <time>2017-10-21T13:22:35Z</time>
      </trkpt>
      <trkpt lat="45.28105" lon="5.86243">
        <ele>429</ele>
        <time>2017-10-21T13:22:40Z</time>
      </trkpt>
      <trkpt lat="45.28109" lon="5.86249">
        <ele>429</ele>
        <time>2017-10-21T13:22:43Z</time>
      </trkpt>
      <trkpt lat="45.28114" lon="5.86255">
        <ele>431</ele>
        <time>2017-10-21T13:22:46Z</time>
      </trkpt>
      <trkpt lat="45.28118" lon="5.86261">
        <ele>431</ele>
        <time>2017-10-21T13:22:49Z</time>
      </trkpt>
      <trkpt lat="45.28122" lon="5.86266">
        <ele>432</ele>
        <time>2017-10-21T13:22:52Z</time>
      </trkpt>
      <trkpt lat="45.28127" lon="5.86272">
        <ele>433</ele>
        <time>2017-10-21T13:22:55Z</time>
      </trkpt>
      <trkpt lat="45.28132" lon="5.86277">
        <ele>434</ele>
        <time>2017-10-21T13:22:58Z</time>
      </trkpt>
      <trkpt lat="45.28136" lon="5.86282">
        <ele>436</ele>
        <time>2017-10-21T13:23:01Z</time>
      </trkpt>
      <trkpt lat="45.2814" lon="5.86288">
        <ele>436</ele>
        <time>2017-10-21T13:23:04Z</time>
      </trkpt>
      <trkpt lat="45.28145" lon="5.86293">
        <ele>438</ele>
        <time>2017-10-21T13:23:07Z</time>
      </trkpt>
      <trkpt lat="45.28148" lon="5.863">
        <ele>438</ele>
        <time>2017-10-21T13:23:10Z</time>
      </trkpt>
      <trkpt lat="45.28151" lon="5.86308">
        <ele>438</ele>
        <time>2017-10-21T13:23:13Z</time>
      </trkpt>
      <trkpt lat="45.28153" lon="5.86316">
        <ele>436</ele>
        <time>2017-10-21T13:23:16Z</time>
      </trkpt>
      <trkpt lat="45.28155" lon="5.86325">
        <ele>436</ele>
        <time>2017-10-21T13:23:19Z</time>
      </trkpt>
      <trkpt lat="45.28156" lon="5.86334">
        <ele>435</ele>
        <time>2017-10-21T13:23:22Z</time>
      </trkpt>
      <trkpt lat="45.28156" lon="5.86341">
        <ele>433</ele>
        <time>2017-10-21T13:23:24Z</time>
      </trkpt>
      <trkpt lat="45.28156" lon="5.86348">
        <ele>432</ele>
        <time>2017-10-21T13:23:26Z</time>
      </trkpt>
      <trkpt lat="45.28157" lon="5.86354">
        <ele>431</ele>
        <time>2017-10-21T13:23:28Z</time>
      </trkpt>
      <trkpt lat="45.28158" lon="5.86361">
        <ele>430</ele>
        <time>2017-10-21T13:23:30Z</time>
      </trkpt>
      <trkpt lat="45.28159" lon="5.86369">
        <ele>429</ele>
        <time>2017-10-21T13:23:32Z</time>
      </trkpt>
      <trkpt lat="45.28161" lon="5.8638">
        <ele>428</ele>
        <time>2017-10-21T13:23:34Z</time>
      </trkpt>
      <trkpt lat="45.28164" lon="5.8639">
        <ele>427</ele>
        <time>2017-10-21T13:23:36Z</time>
      </trkpt>
      <trkpt lat="45.28167" lon="5.86396">
        <ele>427</ele>
        <time>2017-10-21T13:23:55Z</time>
      </trkpt>
      <trkpt lat="45.28173" lon="5.86402">
        <ele>428</ele>
        <time>2017-10-21T13:23:57Z</time>
      </trkpt>
      <trkpt lat="45.28178" lon="5.86405">
        <ele>429</ele>
        <time>2017-10-21T13:23:58Z</time>
      </trkpt>
      <trkpt lat="45.2819" lon="5.86404">
        <ele>434</ele>
        <time>2017-10-21T13:23:59Z</time>
      </trkpt>
      <trkpt lat="45.28194" lon="5.86409">
        <ele>435</ele>
        <time>2017-10-21T13:24:00Z</time>
      </trkpt>
      <trkpt lat="45.28199" lon="5.86417">
        <ele>435</ele>
        <time>2017-10-21T13:24:01Z</time>
      </trkpt>
      <trkpt lat="45.28203" lon="5.86427">
        <ele>434</ele>
        <time>2017-10-21T13:24:02Z</time>
      </trkpt>
      <trkpt lat="45.28208" lon="5.86432">
        <ele>435</ele>
        <time>2017-10-21T13:24:03Z</time>
      </trkpt>
      <trkpt lat="45.28212" lon="5.86441">
        <ele>434</ele>
        <time>2017-10-21T13:24:04Z</time>
      </trkpt>
      <trkpt lat="45.28218" lon="5.86447">
        <ele>435</ele>
        <time>2017-10-21T13:24:05Z</time>
      </trkpt>
      <trkpt lat="45.28221" lon="5.86457">
        <ele>434</ele>
        <time>2017-10-21T13:24:06Z</time>
      </trkpt>
      <trkpt lat="45.28227" lon="5.86466">
        <ele>434</ele>
        <time>2017-10-21T13:24:07Z</time>
      </trkpt>
      <trkpt lat="45.28232" lon="5.86474">
        <ele>433</ele>
        <time>2017-10-21T13:24:08Z</time>
      </trkpt>
      <trkpt lat="45.28236" lon="5.86483">
        <ele>432</ele>
        <time>2017-10-21T13:24:09Z</time>
      </trkpt>
      <trkpt lat="45.28242" lon="5.86489">
        <ele>433</ele>
        <time>2017-10-21T13:24:10Z</time>
      </trkpt>
      <trkpt lat="45.28247" lon="5.86495">
        <ele>433</ele>
        <time>2017-10-21T13:24:11Z</time>
      </trkpt>
      <trkpt lat="45.28253" lon="5.86498">
        <ele>434</ele>
        <time>2017-10-21T13:24:12Z</time>
      </trkpt>
      <trkpt lat="45.28259" lon="5.865">
        <ele>435</ele>
        <time>2017-10-21T13:24:13Z</time>
      </trkpt>
      <trkpt lat="45.28267" lon="5.86503">
        <ele>437</ele>
        <time>2017-10-21T13:24:15Z</time>
      </trkpt>
      <trkpt lat="45.28272" lon="5.86503">
        <ele>439</ele>
        <time>2017-10-21T13:24:17Z</time>
      </trkpt>
      <trkpt lat="45.28275" lon="5.86509">
        <ele>438</ele>
        <time>2017-10-21T13:24:19Z</time>
      </trkpt>
      <trkpt lat="45.28274" lon="5.86518">
        <ele>435</ele>
        <time>2017-10-21T13:24:22Z</time>
      </trkpt>
      <trkpt lat="45.28273" lon="5.86526">
        <ele>433</ele>
        <time>2017-10-21T13:24:25Z</time>
      </trkpt>
      <trkpt lat="45.28276" lon="5.86534">
        <ele>431</ele>
        <time>2017-10-21T13:24:28Z</time>
      </trkpt>
      <trkpt lat="45.28276" lon="5.86542">
        <ele>429</ele>
        <time>2017-10-21T13:24:31Z</time>
      </trkpt>
      <trkpt lat="45.28275" lon="5.86548">
        <ele>427</ele>
        <time>2017-10-21T13:24:33Z</time>
      </trkpt>
      <trkpt lat="45.28276" lon="5.86556">
        <ele>425</ele>
        <time>2017-10-21T13:24:35Z</time>
      </trkpt>
      <trkpt lat="45.28277" lon="5.86564">
        <ele>423</ele>
        <time>2017-10-21T13:24:38Z</time>
      </trkpt>
      <trkpt lat="45.28274" lon="5.86569">
        <ele>421</ele>
        <time>2017-10-21T13:24:43Z</time>
      </trkpt>
      <trkpt lat="45.28273" lon="5.86575">
        <ele>419</ele>
        <time>2017-10-21T13:24:48Z</time>
      </trkpt>
      <trkpt lat="45.28272" lon="5.86582">
        <ele>416</ele>
        <time>2017-10-21T13:24:53Z</time>
      </trkpt>
      <trkpt lat="45.28268" lon="5.86588">
        <ele>413</ele>
        <time>2017-10-21T13:24:57Z</time>
      </trkpt>
      <trkpt lat="45.28267" lon="5.86595">
        <ele>411</ele>
        <time>2017-10-21T13:25:01Z</time>
      </trkpt>
      <trkpt lat="45.28269" lon="5.86603">
        <ele>409</ele>
        <time>2017-10-21T13:25:03Z</time>
      </trkpt>
      <trkpt lat="45.2827" lon="5.86614">
        <ele>406</ele>
        <time>2017-10-21T13:25:05Z</time>
      </trkpt>
      <trkpt lat="45.28271" lon="5.86621">
        <ele>405</ele>
        <time>2017-10-21T13:25:06Z</time>
      </trkpt>
      <trkpt lat="45.28275" lon="5.86633">
        <ele>403</ele>
        <time>2017-10-21T13:25:08Z</time>
      </trkpt>
      <trkpt lat="45.28281" lon="5.86641">
        <ele>403</ele>
        <time>2017-10-21T13:25:09Z</time>
      </trkpt>
      <trkpt lat="45.28284" lon="5.86647">
        <ele>402</ele>
        <time>2017-10-21T13:25:10Z</time>
      </trkpt>
      <trkpt lat="45.28286" lon="5.86653">
        <ele>401</ele>
        <time>2017-10-21T13:25:11Z</time>
      </trkpt>
      <trkpt lat="45.2829" lon="5.86664">
        <ele>399</ele>
        <time>2017-10-21T13:25:13Z</time>
      </trkpt>
      <trkpt lat="45.28292" lon="5.86671">
        <ele>398</ele>
        <time>2017-10-21T13:25:16Z</time>
      </trkpt>
      <trkpt lat="45.28293" lon="5.86683">
        <ele>395</ele>
        <time>2017-10-21T13:25:18Z</time>
      </trkpt>
      <trkpt lat="45.28294" lon="5.8669">
        <ele>394</ele>
        <time>2017-10-21T13:25:19Z</time>
      </trkpt>
      <trkpt lat="45.28295" lon="5.86703">
        <ele>391</ele>
        <time>2017-10-21T13:25:21Z</time>
      </trkpt>
      <trkpt lat="45.28302" lon="5.86714">
        <ele>390</ele>
        <time>2017-10-21T13:25:23Z</time>
      </trkpt>
      <trkpt lat="45.28306" lon="5.8672">
        <ele>390</ele>
        <time>2017-10-21T13:25:24Z</time>
      </trkpt>
      <trkpt lat="45.28311" lon="5.86726">
        <ele>390</ele>
        <time>2017-10-21T13:25:25Z</time>
      </trkpt>
      <trkpt lat="45.28315" lon="5.86733">
        <ele>390</ele>
        <time>2017-10-21T13:25:26Z</time>
      </trkpt>
      <trkpt lat="45.2832" lon="5.86739">
        <ele>390</ele>
        <time>2017-10-21T13:25:27Z</time>
      </trkpt>
      <trkpt lat="45.28329" lon="5.86752">
        <ele>389</ele>
        <time>2017-10-21T13:25:29Z</time>
      </trkpt>
      <trkpt lat="45.28334" lon="5.8676">
        <ele>389</ele>
        <time>2017-10-21T13:25:30Z</time>
      </trkpt>
      <trkpt lat="45.28342" lon="5.86769">
        <ele>389</ele>
        <time>2017-10-21T13:25:32Z</time>
      </trkpt>
      <trkpt lat="45.28344" lon="5.86775">
        <ele>388</ele>
        <time>2017-10-21T13:25:34Z</time>
      </trkpt>
      <trkpt lat="45.2834" lon="5.86779">
        <ele>385</ele>
        <time>2017-10-21T13:25:36Z</time>
      </trkpt>
      <trkpt lat="45.28333" lon="5.86778">
        <ele>383</ele>
        <time>2017-10-21T13:25:38Z</time>
      </trkpt>
      <trkpt lat="45.28323" lon="5.86768">
        <ele>383</ele>
        <time>2017-10-21T13:25:40Z</time>
      </trkpt>
      <trkpt lat="45.28318" lon="5.86765">
        <ele>382</ele>
        <time>2017-10-21T13:25:41Z</time>
      </trkpt>
      <trkpt lat="45.28312" lon="5.86763">
        <ele>381</ele>
        <time>2017-10-21T13:25:42Z</time>
      </trkpt>
      <trkpt lat="45.28304" lon="5.8676">
        <ele>379</ele>
        <time>2017-10-21T13:25:43Z</time>
      </trkpt>
      <trkpt lat="45.28296" lon="5.86758">
        <ele>377</ele>
        <time>2017-10-21T13:25:44Z</time>
      </trkpt>
      <trkpt lat="45.28288" lon="5.86756">
        <ele>374</ele>
        <time>2017-10-21T13:25:45Z</time>
      </trkpt>
      <trkpt lat="45.28281" lon="5.86755">
        <ele>373</ele>
        <time>2017-10-21T13:25:46Z</time>
      </trkpt>
      <trkpt lat="45.28268" lon="5.86749">
        <ele>370</ele>
        <time>2017-10-21T13:25:48Z</time>
      </trkpt>
      <trkpt lat="45.2826" lon="5.86744">
        <ele>369</ele>
        <time>2017-10-21T13:25:49Z</time>
      </trkpt>
      <trkpt lat="45.28253" lon="5.86738">
        <ele>368</ele>
        <time>2017-10-21T13:25:50Z</time>
      </trkpt>
      <trkpt lat="45.28245" lon="5.86731">
        <ele>368</ele>
        <time>2017-10-21T13:25:51Z</time>
      </trkpt>
      <trkpt lat="45.28237" lon="5.86725">
        <ele>367</ele>
        <time>2017-10-21T13:25:52Z</time>
      </trkpt>
      <trkpt lat="45.28229" lon="5.86718">
        <ele>366</ele>
        <time>2017-10-21T13:25:53Z</time>
      </trkpt>
      <trkpt lat="45.28221" lon="5.86711">
        <ele>365</ele>
        <time>2017-10-21T13:25:54Z</time>
      </trkpt>
      <trkpt lat="45.28209" lon="5.86699">
        <ele>364</ele>
        <time>2017-10-21T13:25:56Z</time>
      </trkpt>
      <trkpt lat="45.28202" lon="5.86691">
        <ele>363</ele>
        <time>2017-10-21T13:25:57Z</time>
      </trkpt>
      <trkpt lat="45.28194" lon="5.86687">
        <ele>361</ele>
        <time>2017-10-21T13:25:58Z</time>
      </trkpt>
      <trkpt lat="45.28186" lon="5.86682">
        <ele>360</ele>
        <time>2017-10-21T13:25:59Z</time>
      </trkpt>
      <trkpt lat="45.28179" lon="5.86678">
        <ele>358</ele>
        <time>2017-10-21T13:26:00Z</time>
      </trkpt>
      <trkpt lat="45.28173" lon="5.86679">
        <ele>356</ele>
        <time>2017-10-21T13:26:01Z</time>
      </trkpt>
      <trkpt lat="45.28167" lon="5.86678">
        <ele>354</ele>
        <time>2017-10-21T13:26:02Z</time>
      </trkpt>
      <trkpt lat="45.28161" lon="5.86681">
        <ele>351</ele>
        <time>2017-10-21T13:26:04Z</time>
      </trkpt>
      <trkpt lat="45.28166" lon="5.86685">
        <ele>352</ele>
        <time>2017-10-21T13:26:07Z</time>
      </trkpt>
      <trkpt lat="45.28169" lon="5.86693">
        <ele>351</ele>
        <time>2017-10-21T13:26:09Z</time>
      </trkpt>
      <trkpt lat="45.28171" lon="5.86701">
        <ele>350</ele>
        <time>2017-10-21T13:26:10Z</time>
      </trkpt>
      <trkpt lat="45.28173" lon="5.86708">
        <ele>350</ele>
        <time>2017-10-21T13:26:11Z</time>
      </trkpt>
      <trkpt lat="45.28176" lon="5.86717">
        <ele>349</ele>
        <time>2017-10-21T13:26:12Z</time>
      </trkpt>
      <trkpt lat="45.2818" lon="5.86726">
        <ele>348</ele>
        <time>2017-10-21T13:26:13Z</time>
      </trkpt>
      <trkpt lat="45.28184" lon="5.86733">
        <ele>348</ele>
        <time>2017-10-21T13:26:14Z</time>
      </trkpt>
      <trkpt lat="45.28189" lon="5.86744">
        <ele>347</ele>
        <time>2017-10-21T13:26:15Z</time>
      </trkpt>
      <trkpt lat="45.28192" lon="5.86752">
        <ele>346</ele>
        <time>2017-10-21T13:26:16Z</time>
      </trkpt>
      <trkpt lat="45.28197" lon="5.8676">
        <ele>346</ele>
        <time>2017-10-21T13:26:17Z</time>
      </trkpt>
      <trkpt lat="45.28203" lon="5.86768">
        <ele>346</ele>
        <time>2017-10-21T13:26:18Z</time>
      </trkpt>
      <trkpt lat="45.28208" lon="5.86775">
        <ele>347</ele>
        <time>2017-10-21T13:26:19Z</time>
      </trkpt>
      <trkpt lat="45.28212" lon="5.86783">
        <ele>346</ele>
        <time>2017-10-21T13:26:20Z</time>
      </trkpt>
      <trkpt lat="45.28216" lon="5.86788">
        <ele>346</ele>
        <time>2017-10-21T13:26:21Z</time>
      </trkpt>
      <trkpt lat="45.28222" lon="5.86795">
        <ele>346</ele>
        <time>2017-10-21T13:26:23Z</time>
      </trkpt>
      <trkpt lat="45.28223" lon="5.86805">
        <ele>344</ele>
        <time>2017-10-21T13:26:52Z</time>
      </trkpt>
      <trkpt lat="45.28223" lon="5.86812">
        <ele>343</ele>
        <time>2017-10-21T13:26:55Z</time>
      </trkpt>
      <trkpt lat="45.28228" lon="5.86816">
        <ele>343</ele>
        <time>2017-10-21T13:27:09Z</time>
      </trkpt>
      <trkpt lat="45.28233" lon="5.86819">
        <ele>344</ele>
        <time>2017-10-21T13:27:12Z</time>
      </trkpt>
      <trkpt lat="45.28241" lon="5.86823">
        <ele>345</ele>
        <time>2017-10-21T13:27:18Z</time>
      </trkpt>
      <trkpt lat="45.28246" lon="5.86824">
        <ele>346</ele>
        <time>2017-10-21T13:27:21Z</time>
      </trkpt>
      <trkpt lat="45.28252" lon="5.86824">
        <ele>348</ele>
        <time>2017-10-21T13:27:24Z</time>
      </trkpt>
      <trkpt lat="45.28259" lon="5.86823">
        <ele>350</ele>
        <time>2017-10-21T13:27:27Z</time>
      </trkpt>
      <trkpt lat="45.28264" lon="5.86821">
        <ele>352</ele>
        <time>2017-10-21T13:27:30Z</time>
      </trkpt>
      <trkpt lat="45.2827" lon="5.86824">
        <ele>352</ele>
        <time>2017-10-21T13:27:33Z</time>
      </trkpt>
      <trkpt lat="45.28275" lon="5.86827">
        <ele>353</ele>
        <time>2017-10-21T13:27:36Z</time>
      </trkpt>
      <trkpt lat="45.2828" lon="5.86829">
        <ele>354</ele>
        <time>2017-10-21T13:27:39Z</time>
      </trkpt>
      <trkpt lat="45.28285" lon="5.86833">
        <ele>354</ele>
        <time>2017-10-21T13:27:42Z</time>
      </trkpt>
      <trkpt lat="45.28289" lon="5.86838">
        <ele>354</ele>
        <time>2017-10-21T13:27:45Z</time>
      </trkpt>
      <trkpt lat="45.28294" lon="5.86844">
        <ele>354</ele>
        <time>2017-10-21T13:27:48Z</time>
      </trkpt>
      <trkpt lat="45.28299" lon="5.86848">
        <ele>355</ele>
        <time>2017-10-21T13:27:51Z</time>
      </trkpt>
      <trkpt lat="45.28303" lon="5.86852">
        <ele>355</ele>
        <time>2017-10-21T13:27:54Z</time>
      </trkpt>
      <trkpt lat="45.28308" lon="5.86856">
        <ele>356</ele>
        <time>2017-10-21T13:27:57Z</time>
      </trkpt>
      <trkpt lat="45.28313" lon="5.86861">
        <ele>356</ele>
        <time>2017-10-21T13:28:00Z</time>
      </trkpt>
      <trkpt lat="45.28318" lon="5.86866">
        <ele>356</ele>
        <time>2017-10-21T13:28:03Z</time>
      </trkpt>
      <trkpt lat="45.28322" lon="5.86872">
        <ele>356</ele>
        <time>2017-10-21T13:28:06Z</time>
      </trkpt>
      <trkpt lat="45.28326" lon="5.86878">
        <ele>356</ele>
        <time>2017-10-21T13:28:09Z</time>
      </trkpt>
      <trkpt lat="45.2833" lon="5.86882">
        <ele>356</ele>
        <time>2017-10-21T13:28:12Z</time>
      </trkpt>
      <trkpt lat="45.28333" lon="5.86887">
        <ele>356</ele>
        <time>2017-10-21T13:28:15Z</time>
      </trkpt>
      <trkpt lat="45.28337" lon="5.86893">
        <ele>356</ele>
        <time>2017-10-21T13:28:20Z</time>
      </trkpt>
      <trkpt lat="45.28341" lon="5.86897">
        <ele>356</ele>
        <time>2017-10-21T13:28:23Z</time>
      </trkpt>
      <trkpt lat="45.28345" lon="5.86901">
        <ele>356</ele>
        <time>2017-10-21T13:28:26Z</time>
      </trkpt>
      <trkpt lat="45.28348" lon="5.86905">
        <ele>357</ele>
        <time>2017-10-21T13:28:29Z</time>
      </trkpt>
      <trkpt lat="45.28352" lon="5.8691">
        <ele>357</ele>
        <time>2017-10-21T13:28:32Z</time>
      </trkpt>
      <trkpt lat="45.28356" lon="5.86914">
        <ele>357</ele>
        <time>2017-10-21T13:28:35Z</time>
      </trkpt>
      <trkpt lat="45.2836" lon="5.86919">
        <ele>357</ele>
        <time>2017-10-21T13:28:38Z</time>
      </trkpt>
      <trkpt lat="45.28364" lon="5.86923">
        <ele>358</ele>
        <time>2017-10-21T13:28:41Z</time>
      </trkpt>
      <trkpt lat="45.28368" lon="5.86927">
        <ele>358</ele>
        <time>2017-10-21T13:28:44Z</time>
      </trkpt>
      <trkpt lat="45.28373" lon="5.8693">
        <ele>359</ele>
        <time>2017-10-21T13:28:47Z</time>
      </trkpt>
      <trkpt lat="45.28377" lon="5.86935">
        <ele>359</ele>
        <time>2017-10-21T13:28:50Z</time>
      </trkpt>
      <trkpt lat="45.28381" lon="5.8694">
        <ele>359</ele>
        <time>2017-10-21T13:28:53Z</time>
      </trkpt>
      <trkpt lat="45.28385" lon="5.86946">
        <ele>359</ele>
        <time>2017-10-21T13:28:56Z</time>
      </trkpt>
      <trkpt lat="45.28389" lon="5.86951">
        <ele>360</ele>
        <time>2017-10-21T13:28:59Z</time>
      </trkpt>
      <trkpt lat="45.28395" lon="5.86956">
        <ele>360</ele>
        <time>2017-10-21T13:29:02Z</time>
      </trkpt>
      <trkpt lat="45.284" lon="5.86961">
        <ele>361</ele>
        <time>2017-10-21T13:29:04Z</time>
      </trkpt>
      <trkpt lat="45.28405" lon="5.86965">
        <ele>361</ele>
        <time>2017-10-21T13:29:06Z</time>
      </trkpt>
      <trkpt lat="45.28413" lon="5.8697">
        <ele>362</ele>
        <time>2017-10-21T13:29:10Z</time>
      </trkpt>
      <trkpt lat="45.28417" lon="5.86973">
        <ele>363</ele>
        <time>2017-10-21T13:29:12Z</time>
      </trkpt>
      <trkpt lat="45.28422" lon="5.86978">
        <ele>363</ele>
        <time>2017-10-21T13:29:15Z</time>
      </trkpt>
      <trkpt lat="45.28427" lon="5.86984">
        <ele>363</ele>
        <time>2017-10-21T13:29:18Z</time>
      </trkpt>
      <trkpt lat="45.28431" lon="5.8699">
        <ele>363</ele>
        <time>2017-10-21T13:29:21Z</time>
      </trkpt>
      <trkpt lat="45.28437" lon="5.86996">
        <ele>364</ele>
        <time>2017-10-21T13:29:24Z</time>
      </trkpt>
      <trkpt lat="45.28441" lon="5.87002">
        <ele>363</ele>
        <time>2017-10-21T13:29:27Z</time>
      </trkpt>
      <trkpt lat="45.28445" lon="5.87007">
        <ele>363</ele>
        <time>2017-10-21T13:29:30Z</time>
      </trkpt>
      <trkpt lat="45.28449" lon="5.87012">
        <ele>363</ele>
        <time>2017-10-21T13:29:33Z</time>
      </trkpt>
      <trkpt lat="45.28452" lon="5.87018">
        <ele>363</ele>
        <time>2017-10-21T13:29:36Z</time>
      </trkpt>
      <trkpt lat="45.28457" lon="5.87022">
        <ele>363</ele>
        <time>2017-10-21T13:29:40Z</time>
      </trkpt>
      <trkpt lat="45.28458" lon="5.87029">
        <ele>362</ele>
        <time>2017-10-21T13:29:43Z</time>
      </trkpt>
      <trkpt lat="45.28462" lon="5.87031">
        <ele>363</ele>
        <time>2017-10-21T13:29:53Z</time>
      </trkpt>
      <trkpt lat="45.28469" lon="5.8704">
        <ele>363</ele>
        <time>2017-10-21T13:30:02Z</time>
      </trkpt>
      <trkpt lat="45.28473" lon="5.87046">
        <ele>364</ele>
        <time>2017-10-21T13:30:06Z</time>
      </trkpt>
      <trkpt lat="45.28477" lon="5.87051">
        <ele>364</ele>
        <time>2017-10-21T13:30:09Z</time>
      </trkpt>
      <trkpt lat="45.28481" lon="5.87058">
        <ele>364</ele>
        <time>2017-10-21T13:30:12Z</time>
      </trkpt>
      <trkpt lat="45.28486" lon="5.87069">
        <ele>363</ele>
        <time>2017-10-21T13:30:16Z</time>
      </trkpt>
      <trkpt lat="45.28489" lon="5.87074">
        <ele>363</ele>
        <time>2017-10-21T13:30:18Z</time>
      </trkpt>
      <trkpt lat="45.28493" lon="5.87082">
        <ele>363</ele>
        <time>2017-10-21T13:30:21Z</time>
      </trkpt>
      <trkpt lat="45.28497" lon="5.87088">
        <ele>363</ele>
        <time>2017-10-21T13:30:24Z</time>
      </trkpt>
      <trkpt lat="45.28501" lon="5.87093">
        <ele>363</ele>
        <time>2017-10-21T13:30:29Z</time>
      </trkpt>
      <trkpt lat="45.28502" lon="5.87099">
        <ele>363</ele>
        <time>2017-10-21T13:31:10Z</time>
      </trkpt>
      <trkpt lat="45.28498" lon="5.87105">
        <ele>359</ele>
        <time>2017-10-21T13:31:24Z</time>
      </trkpt>
      <trkpt lat="45.28495" lon="5.87111">
        <ele>357</ele>
        <time>2017-10-21T13:31:41Z</time>
      </trkpt>
      <trkpt lat="45.28491" lon="5.87115">
        <ele>355</ele>
        <time>2017-10-21T13:31:47Z</time>
      </trkpt>
      <trkpt lat="45.28489" lon="5.87125">
        <ele>352</ele>
        <time>2017-10-21T13:32:03Z</time>
      </trkpt>
      <trkpt lat="45.2849" lon="5.87132">
        <ele>351</ele>
        <time>2017-10-21T13:32:07Z</time>
      </trkpt>
      <trkpt lat="45.28488" lon="5.87138">
        <ele>349</ele>
        <time>2017-10-21T13:32:10Z</time>
      </trkpt>
      <trkpt lat="45.2849" lon="5.87144">
        <ele>348</ele>
        <time>2017-10-21T13:32:18Z</time>
      </trkpt>
      <trkpt lat="45.28494" lon="5.8715">
        <ele>348</ele>
        <time>2017-10-21T13:32:22Z</time>
      </trkpt>
      <trkpt lat="45.28496" lon="5.87157">
        <ele>347</ele>
        <time>2017-10-21T13:32:25Z</time>
      </trkpt>
      <trkpt lat="45.28497" lon="5.87164">
        <ele>346</ele>
        <time>2017-10-21T13:32:28Z</time>
      </trkpt>
      <trkpt lat="45.28499" lon="5.87172">
        <ele>344</ele>
        <time>2017-10-21T13:32:32Z</time>
      </trkpt>
      <trkpt lat="45.285" lon="5.87179">
        <ele>343</ele>
        <time>2017-10-21T13:32:36Z</time>
      </trkpt>
      <trkpt lat="45.28504" lon="5.87185">
        <ele>343</ele>
        <time>2017-10-21T13:32:40Z</time>
      </trkpt>
      <trkpt lat="45.2851" lon="5.87188">
        <ele>345</ele>
        <time>2017-10-21T13:32:43Z</time>
      </trkpt>
      <trkpt lat="45.28515" lon="5.87193">
        <ele>345</ele>
        <time>2017-10-21T13:32:46Z</time>
      </trkpt>
      <trkpt lat="45.28518" lon="5.87198">
        <ele>345</ele>
        <time>2017-10-21T13:32:48Z</time>
      </trkpt>
      <trkpt lat="45.28522" lon="5.87203">
        <ele>345</ele>
        <time>2017-10-21T13:32:50Z</time>
      </trkpt>
      <trkpt lat="45.28526" lon="5.87208">
        <ele>346</ele>
        <time>2017-10-21T13:32:52Z</time>
      </trkpt>
      <trkpt lat="45.28529" lon="5.87213">
        <ele>345</ele>
        <time>2017-10-21T13:32:54Z</time>
      </trkpt>
      <trkpt lat="45.2853" lon="5.87219">
        <ele>344</ele>
        <time>2017-10-21T13:32:57Z</time>
      </trkpt>
      <trkpt lat="45.28532" lon="5.87227">
        <ele>343</ele>
        <time>2017-10-21T13:33:00Z</time>
      </trkpt>
      <trkpt lat="45.28535" lon="5.87234">
        <ele>342</ele>
        <time>2017-10-21T13:33:02Z</time>
      </trkpt>
      <trkpt lat="45.28538" lon="5.87239">
        <ele>342</ele>
        <time>2017-10-21T13:33:03Z</time>
      </trkpt>
      <trkpt lat="45.28541" lon="5.87245">
        <ele>341</ele>
        <time>2017-10-21T13:33:04Z</time>
      </trkpt>
      <trkpt lat="45.28545" lon="5.8725">
        <ele>341</ele>
        <time>2017-10-21T13:33:05Z</time>
      </trkpt>
      <trkpt lat="45.2855" lon="5.8726">
        <ele>340</ele>
        <time>2017-10-21T13:33:06Z</time>
      </trkpt>
      <trkpt lat="45.28554" lon="5.87268">
        <ele>339</ele>
        <time>2017-10-21T13:33:07Z</time>
      </trkpt>
      <trkpt lat="45.28556" lon="5.87276">
        <ele>337</ele>
        <time>2017-10-21T13:33:08Z</time>
      </trkpt>
      <trkpt lat="45.28561" lon="5.87281">
        <ele>337</ele>
        <time>2017-10-21T13:33:09Z</time>
      </trkpt>
      <trkpt lat="45.28566" lon="5.87289">
        <ele>337</ele>
        <time>2017-10-21T13:33:10Z</time>
      </trkpt>
      <trkpt lat="45.28571" lon="5.87295">
        <ele>336</ele>
        <time>2017-10-21T13:33:11Z</time>
      </trkpt>
      <trkpt lat="45.28575" lon="5.87302">
        <ele>336</ele>
        <time>2017-10-21T13:33:12Z</time>
      </trkpt>
      <trkpt lat="45.28581" lon="5.87308">
        <ele>336</ele>
        <time>2017-10-21T13:33:13Z</time>
      </trkpt>
      <trkpt lat="45.28588" lon="5.87316">
        <ele>335</ele>
        <time>2017-10-21T13:33:14Z</time>
      </trkpt>
      <trkpt lat="45.286" lon="5.87328">
        <ele>334</ele>
        <time>2017-10-21T13:33:16Z</time>
      </trkpt>
      <trkpt lat="45.28603" lon="5.87332">
        <ele>334</ele>
        <time>2017-10-21T13:33:17Z</time>
      </trkpt>
      <trkpt lat="45.28609" lon="5.8734">
        <ele>333</ele>
        <time>2017-10-21T13:33:19Z</time>
      </trkpt>
      <trkpt lat="45.28614" lon="5.87343">
        <ele>333</ele>
        <time>2017-10-21T13:33:32Z</time>
      </trkpt>
      <trkpt lat="45.28621" lon="5.87347">
        <ele>333</ele>
        <time>2017-10-21T13:33:34Z</time>
      </trkpt>
      <trkpt lat="45.28626" lon="5.87347">
        <ele>334</ele>
        <time>2017-10-21T13:33:35Z</time>
      </trkpt>
      <trkpt lat="45.28632" lon="5.87347">
        <ele>335</ele>
        <time>2017-10-21T13:33:37Z</time>
      </trkpt>
      <trkpt lat="45.28635" lon="5.87353">
        <ele>334</ele>
        <time>2017-10-21T13:33:40Z</time>
      </trkpt>
      <trkpt lat="45.28639" lon="5.87359">
        <ele>333</ele>
        <time>2017-10-21T13:33:43Z</time>
      </trkpt>
      <trkpt lat="45.28643" lon="5.87363">
        <ele>333</ele>
        <time>2017-10-21T13:33:46Z</time>
      </trkpt>
      <trkpt lat="45.28647" lon="5.87369">
        <ele>331</ele>
        <time>2017-10-21T13:33:48Z</time>
      </trkpt>
      <trkpt lat="45.28649" lon="5.87378">
        <ele>329</ele>
        <time>2017-10-21T13:33:50Z</time>
      </trkpt>
      <trkpt lat="45.2865" lon="5.87384">
        <ele>328</ele>
        <time>2017-10-21T13:33:52Z</time>
      </trkpt>
      <trkpt lat="45.28655" lon="5.87388">
        <ele>327</ele>
        <time>2017-10-21T13:33:55Z</time>
      </trkpt>
      <trkpt lat="45.28659" lon="5.87391">
        <ele>327</ele>
        <time>2017-10-21T13:33:58Z</time>
      </trkpt>
      <trkpt lat="45.28663" lon="5.87395">
        <ele>327</ele>
        <time>2017-10-21T13:34:00Z</time>
      </trkpt>
      <trkpt lat="45.28668" lon="5.87396">
        <ele>327</ele>
        <time>2017-10-21T13:34:02Z</time>
      </trkpt>
      <trkpt lat="45.28674" lon="5.87394">
        <ele>329</ele>
        <time>2017-10-21T13:34:05Z</time>
      </trkpt>
      <trkpt lat="45.28678" lon="5.87392">
        <ele>330</ele>
        <time>2017-10-21T13:34:08Z</time>
      </trkpt>
      <trkpt lat="45.28684" lon="5.87389">
        <ele>332</ele>
        <time>2017-10-21T13:34:11Z</time>
      </trkpt>
      <trkpt lat="45.2869" lon="5.87388">
        <ele>333</ele>
        <time>2017-10-21T13:34:14Z</time>
      </trkpt>
      <trkpt lat="45.28695" lon="5.87389">
        <ele>334</ele>
        <time>2017-10-21T13:34:17Z</time>
      </trkpt>
      <trkpt lat="45.28702" lon="5.87389">
        <ele>335</ele>
        <time>2017-10-21T13:34:20Z</time>
      </trkpt>
      <trkpt lat="45.28708" lon="5.87392">
        <ele>334</ele>
        <time>2017-10-21T13:34:22Z</time>
      </trkpt>
      <trkpt lat="45.28714" lon="5.87393">
        <ele>335</ele>
        <time>2017-10-21T13:34:24Z</time>
      </trkpt>
      <trkpt lat="45.28719" lon="5.87394">
        <ele>335</ele>
        <time>2017-10-21T13:34:26Z</time>
      </trkpt>
      <trkpt lat="45.28724" lon="5.87395">
        <ele>336</ele>
        <time>2017-10-21T13:34:28Z</time>
      </trkpt>
      <trkpt lat="45.28728" lon="5.87394">
        <ele>336</ele>
        <time>2017-10-21T13:34:30Z</time>
      </trkpt>
      <trkpt lat="45.28732" lon="5.87392">
        <ele>338</ele>
        <time>2017-10-21T13:34:32Z</time>
      </trkpt>
      <trkpt lat="45.28737" lon="5.8739">
        <ele>339</ele>
        <time>2017-10-21T13:34:35Z</time>
      </trkpt>
      <trkpt lat="45.28743" lon="5.87392">
        <ele>339</ele>
        <time>2017-10-21T13:34:38Z</time>
      </trkpt>
      <trkpt lat="45.28748" lon="5.87394">
        <ele>339</ele>
        <time>2017-10-21T13:34:41Z</time>
      </trkpt>
      <trkpt lat="45.28753" lon="5.87394">
        <ele>340</ele>
        <time>2017-10-21T13:34:44Z</time>
      </trkpt>
      <trkpt lat="45.28759" lon="5.87396">
        <ele>340</ele>
        <time>2017-10-21T13:34:48Z</time>
      </trkpt>
      <trkpt lat="45.28764" lon="5.87397">
        <ele>340</ele>
        <time>2017-10-21T13:34:52Z</time>
      </trkpt>
      <trkpt lat="45.28769" lon="5.87398">
        <ele>340</ele>
        <time>2017-10-21T13:34:56Z</time>
      </trkpt>
      <trkpt lat="45.28774" lon="5.87402">
        <ele>340</ele>
        <time>2017-10-21T13:35:01Z</time>
      </trkpt>
      <trkpt lat="45.28778" lon="5.87402">
        <ele>340</ele>
        <time>2017-10-21T13:35:04Z</time>
      </trkpt>
      <trkpt lat="45.28783" lon="5.87404">
        <ele>339</ele>
        <time>2017-10-21T13:35:07Z</time>
      </trkpt>
      <trkpt lat="45.28789" lon="5.87406">
        <ele>339</ele>
        <time>2017-10-21T13:35:09Z</time>
      </trkpt>
      <trkpt lat="45.28796" lon="5.87408">
        <ele>339</ele>
        <time>2017-10-21T13:35:11Z</time>
      </trkpt>
      <trkpt lat="45.28803" lon="5.87408">
        <ele>340</ele>
        <time>2017-10-21T13:35:13Z</time>
      </trkpt>
      <trkpt lat="45.28807" lon="5.8741">
        <ele>339</ele>
        <time>2017-10-21T13:35:15Z</time>
      </trkpt>
      <trkpt lat="45.28811" lon="5.87415">
        <ele>338</ele>
        <time>2017-10-21T13:35:23Z</time>
      </trkpt>
      <trkpt lat="45.28816" lon="5.87416">
        <ele>338</ele>
        <time>2017-10-21T13:35:26Z</time>
      </trkpt>
      <trkpt lat="45.2882" lon="5.87419">
        <ele>338</ele>
        <time>2017-10-21T13:35:28Z</time>
      </trkpt>
      <trkpt lat="45.28826" lon="5.87424">
        <ele>337</ele>
        <time>2017-10-21T13:35:30Z</time>
      </trkpt>
      <trkpt lat="45.28832" lon="5.87428">
        <ele>336</ele>
        <time>2017-10-21T13:35:32Z</time>
      </trkpt>
      <trkpt lat="45.28836" lon="5.87434">
        <ele>336</ele>
        <time>2017-10-21T13:35:34Z</time>
      </trkpt>
      <trkpt lat="45.28837" lon="5.87441">
        <ele>335</ele>
        <time>2017-10-21T13:35:36Z</time>
      </trkpt>
      <trkpt lat="45.28832" lon="5.87447">
        <ele>334</ele>
        <time>2017-10-21T13:35:38Z</time>
      </trkpt>
      <trkpt lat="45.28827" lon="5.87452">
        <ele>333</ele>
        <time>2017-10-21T13:35:40Z</time>
      </trkpt>
      <trkpt lat="45.28828" lon="5.8746">
        <ele>332</ele>
        <time>2017-10-21T13:35:44Z</time>
      </trkpt>
      <trkpt lat="45.28834" lon="5.87467">
        <ele>332</ele>
        <time>2017-10-21T13:35:47Z</time>
      </trkpt>
      <trkpt lat="45.2884" lon="5.87472">
        <ele>332</ele>
        <time>2017-10-21T13:35:49Z</time>
      </trkpt>
      <trkpt lat="45.28844" lon="5.87476">
        <ele>333</ele>
        <time>2017-10-21T13:35:51Z</time>
      </trkpt>
      <trkpt lat="45.28848" lon="5.87482">
        <ele>334</ele>
        <time>2017-10-21T13:35:54Z</time>
      </trkpt>
      <trkpt lat="45.28848" lon="5.87488">
        <ele>333</ele>
        <time>2017-10-21T13:36:06Z</time>
      </trkpt>
      <trkpt lat="45.28839" lon="5.87488">
        <ele>330</ele>
        <time>2017-10-21T13:36:18Z</time>
      </trkpt>
      <trkpt lat="45.28837" lon="5.87495">
        <ele>329</ele>
        <time>2017-10-21T13:36:29Z</time>
      </trkpt>
      <trkpt lat="45.28834" lon="5.87501">
        <ele>328</ele>
        <time>2017-10-21T13:36:31Z</time>
      </trkpt>
      <trkpt lat="45.28829" lon="5.87507">
        <ele>327</ele>
        <time>2017-10-21T13:36:33Z</time>
      </trkpt>
      <trkpt lat="45.28824" lon="5.87512">
        <ele>325</ele>
        <time>2017-10-21T13:36:35Z</time>
      </trkpt>
      <trkpt lat="45.2882" lon="5.87517">
        <ele>324</ele>
        <time>2017-10-21T13:36:37Z</time>
      </trkpt>
      <trkpt lat="45.28817" lon="5.87522">
        <ele>323</ele>
        <time>2017-10-21T13:36:40Z</time>
      </trkpt>
      <trkpt lat="45.28813" lon="5.87528">
        <ele>322</ele>
        <time>2017-10-21T13:36:43Z</time>
      </trkpt>
      <trkpt lat="45.28811" lon="5.87536">
        <ele>321</ele>
        <time>2017-10-21T13:36:46Z</time>
      </trkpt>
      <trkpt lat="45.28807" lon="5.87544">
        <ele>319</ele>
        <time>2017-10-21T13:36:48Z</time>
      </trkpt>
      <trkpt lat="45.28804" lon="5.87554">
        <ele>318</ele>
        <time>2017-10-21T13:36:50Z</time>
      </trkpt>
      <trkpt lat="45.28801" lon="5.87562">
        <ele>316</ele>
        <time>2017-10-21T13:36:52Z</time>
      </trkpt>
      <trkpt lat="45.28801" lon="5.87569">
        <ele>316</ele>
        <time>2017-10-21T13:36:54Z</time>
      </trkpt>
      <trkpt lat="45.28803" lon="5.87575">
        <ele>315</ele>
        <time>2017-10-21T13:36:56Z</time>
      </trkpt>
      <trkpt lat="45.28807" lon="5.87581">
        <ele>315</ele>
        <time>2017-10-21T13:36:59Z</time>
      </trkpt>
      <trkpt lat="45.28809" lon="5.87587">
        <ele>315</ele>
        <time>2017-10-21T13:37:01Z</time>
      </trkpt>
      <trkpt lat="45.28808" lon="5.87595">
        <ele>314</ele>
        <time>2017-10-21T13:37:03Z</time>
      </trkpt>
      <trkpt lat="45.28806" lon="5.87604">
        <ele>313</ele>
        <time>2017-10-21T13:37:06Z</time>
      </trkpt>
      <trkpt lat="45.28806" lon="5.87611">
        <ele>312</ele>
        <time>2017-10-21T13:37:08Z</time>
      </trkpt>
      <trkpt lat="45.28803" lon="5.87621">
        <ele>311</ele>
        <time>2017-10-21T13:37:10Z</time>
      </trkpt>
      <trkpt lat="45.28801" lon="5.87629">
        <ele>310</ele>
        <time>2017-10-21T13:37:11Z</time>
      </trkpt>
      <trkpt lat="45.28799" lon="5.87635">
        <ele>309</ele>
        <time>2017-10-21T13:37:12Z</time>
      </trkpt>
      <trkpt lat="45.28798" lon="5.87641">
        <ele>308</ele>
        <time>2017-10-21T13:37:13Z</time>
      </trkpt>
      <trkpt lat="45.28796" lon="5.87648">
        <ele>307</ele>
        <time>2017-10-21T13:37:14Z</time>
      </trkpt>
      <trkpt lat="45.28786" lon="5.87669">
        <ele>304</ele>
        <time>2017-10-21T13:37:16Z</time>
      </trkpt>
      <trkpt lat="45.28783" lon="5.87679">
        <ele>302</ele>
        <time>2017-10-21T13:37:18Z</time>
      </trkpt>
      <trkpt lat="45.28781" lon="5.87689">
        <ele>301</ele>
        <time>2017-10-21T13:37:20Z</time>
      </trkpt>
      <trkpt lat="45.2878" lon="5.87695">
        <ele>300</ele>
        <time>2017-10-21T13:37:21Z</time>
      </trkpt>
      <trkpt lat="45.28777" lon="5.87706">
        <ele>299</ele>
        <time>2017-10-21T13:37:22Z</time>
      </trkpt>
      <trkpt lat="45.28774" lon="5.87717">
        <ele>298</ele>
        <time>2017-10-21T13:37:24Z</time>
      </trkpt>
      <trkpt lat="45.28771" lon="5.87727">
        <ele>297</ele>
        <time>2017-10-21T13:37:26Z</time>
      </trkpt>
      <trkpt lat="45.28774" lon="5.87737">
        <ele>296</ele>
        <time>2017-10-21T13:37:30Z</time>
      </trkpt>
      <trkpt lat="45.28778" lon="5.87744">
        <ele>297</ele>
        <time>2017-10-21T13:37:32Z</time>
      </trkpt>
      <trkpt lat="45.2878" lon="5.87751">
        <ele>296</ele>
        <time>2017-10-21T13:37:35Z</time>
      </trkpt>
      <trkpt lat="45.28785" lon="5.87753">
        <ele>297</ele>
        <time>2017-10-21T13:37:42Z</time>
      </trkpt>
      <trkpt lat="45.28783" lon="5.8776">
        <ele>296</ele>
        <time>2017-10-21T13:39:57Z</time>
      </trkpt>
      <trkpt lat="45.28785" lon="5.8777">
        <ele>296</ele>
        <time>2017-10-21T13:40:01Z</time>
      </trkpt>
      <trkpt lat="45.28784" lon="5.87776">
        <ele>295</ele>
        <time>2017-10-21T13:40:03Z</time>
      </trkpt>
      <trkpt lat="45.28782" lon="5.87783">
        <ele>294</ele>
        <time>2017-10-21T13:40:05Z</time>
      </trkpt>
      <trkpt lat="45.28781" lon="5.8779">
        <ele>294</ele>
        <time>2017-10-21T13:40:07Z</time>
      </trkpt>
      <trkpt lat="45.28781" lon="5.878">
        <ele>293</ele>
        <time>2017-10-21T13:40:09Z</time>
      </trkpt>
      <trkpt lat="45.28783" lon="5.8781">
        <ele>292</ele>
        <time>2017-10-21T13:40:11Z</time>
      </trkpt>
      <trkpt lat="45.28788" lon="5.87816">
        <ele>293</ele>
        <time>2017-10-21T13:40:13Z</time>
      </trkpt>
      <trkpt lat="45.28795" lon="5.87826">
        <ele>293</ele>
        <time>2017-10-21T13:40:17Z</time>
      </trkpt>
      <trkpt lat="45.28798" lon="5.87831">
        <ele>293</ele>
        <time>2017-10-21T13:40:19Z</time>
      </trkpt>
      <trkpt lat="45.28802" lon="5.87836">
        <ele>294</ele>
        <time>2017-10-21T13:40:21Z</time>
      </trkpt>
      <trkpt lat="45.28805" lon="5.87841">
        <ele>294</ele>
        <time>2017-10-21T13:40:23Z</time>
      </trkpt>
      <trkpt lat="45.28807" lon="5.87848">
        <ele>294</ele>
        <time>2017-10-21T13:40:26Z</time>
      </trkpt>
      <trkpt lat="45.2881" lon="5.87856">
        <ele>294</ele>
        <time>2017-10-21T13:40:29Z</time>
      </trkpt>
      <trkpt lat="45.28813" lon="5.87862">
        <ele>294</ele>
        <time>2017-10-21T13:40:32Z</time>
      </trkpt>
      <trkpt lat="45.28815" lon="5.87868">
        <ele>294</ele>
        <time>2017-10-21T13:40:36Z</time>
      </trkpt>
      <trkpt lat="45.28817" lon="5.87876">
        <ele>294</ele>
        <time>2017-10-21T13:40:39Z</time>
      </trkpt>
      <trkpt lat="45.28821" lon="5.87884">
        <ele>294</ele>
        <time>2017-10-21T13:40:42Z</time>
      </trkpt>
      <trkpt lat="45.28824" lon="5.87889">
        <ele>295</ele>
        <time>2017-10-21T13:40:45Z</time>
      </trkpt>
      <trkpt lat="45.28828" lon="5.87895">
        <ele>295</ele>
        <time>2017-10-21T13:40:48Z</time>
      </trkpt>
      <trkpt lat="45.28832" lon="5.87901">
        <ele>295</ele>
        <time>2017-10-21T13:40:51Z</time>
      </trkpt>
      <trkpt lat="45.28835" lon="5.87908">
        <ele>296</ele>
        <time>2017-10-21T13:40:54Z</time>
      </trkpt>
      <trkpt lat="45.28838" lon="5.87915">
        <ele>296</ele>
        <time>2017-10-21T13:40:57Z</time>
      </trkpt>
      <trkpt lat="45.28841" lon="5.87923">
        <ele>296</ele>
        <time>2017-10-21T13:41:00Z</time>
      </trkpt>
      <trkpt lat="45.28845" lon="5.8793">
        <ele>297</ele>
        <time>2017-10-21T13:41:03Z</time>
      </trkpt>
      <trkpt lat="45.28848" lon="5.87937">
        <ele>297</ele>
        <time>2017-10-21T13:41:06Z</time>
      </trkpt>
      <trkpt lat="45.28849" lon="5.87944">
        <ele>297</ele>
        <time>2017-10-21T13:41:09Z</time>
      </trkpt>
      <trkpt lat="45.28852" lon="5.87949">
        <ele>297</ele>
        <time>2017-10-21T13:41:12Z</time>
      </trkpt>
      <trkpt lat="45.28856" lon="5.87954">
        <ele>298</ele>
        <time>2017-10-21T13:41:19Z</time>
      </trkpt>
      <trkpt lat="45.28864" lon="5.87964">
        <ele>300</ele>
        <time>2017-10-21T13:41:27Z</time>
      </trkpt>
      <trkpt lat="45.28865" lon="5.8797">
        <ele>299</ele>
        <time>2017-10-21T13:41:32Z</time>
      </trkpt>
      <trkpt lat="45.2887" lon="5.87974">
        <ele>301</ele>
        <time>2017-10-21T13:41:38Z</time>
      </trkpt>
      <trkpt lat="45.28873" lon="5.8798">
        <ele>301</ele>
        <time>2017-10-21T13:41:43Z</time>
      </trkpt>
      <trkpt lat="45.28877" lon="5.87977">
        <ele>302</ele>
        <time>2017-10-21T13:42:00Z</time>
      </trkpt>
      <trkpt lat="45.28882" lon="5.87978">
        <ele>304</ele>
        <time>2017-10-21T13:42:14Z</time>
      </trkpt>
      <trkpt lat="45.28886" lon="5.87982">
        <ele>304</ele>
        <time>2017-10-21T13:42:21Z</time>
      </trkpt>
      <trkpt lat="45.2889" lon="5.87988">
        <ele>305</ele>
        <time>2017-10-21T13:42:27Z</time>
      </trkpt>
      <trkpt lat="45.28894" lon="5.87998">
        <ele>305</ele>
        <time>2017-10-21T13:42:44Z</time>
      </trkpt>
      <trkpt lat="45.28899" lon="5.88002">
        <ele>306</ele>
        <time>2017-10-21T13:42:52Z</time>
      </trkpt>
      <trkpt lat="45.28904" lon="5.88005">
        <ele>307</ele>
        <time>2017-10-21T13:42:54Z</time>
      </trkpt>
      <trkpt lat="45.2891" lon="5.88008">
        <ele>308</ele>
        <time>2017-10-21T13:42:56Z</time>
      </trkpt>
      <trkpt lat="45.28915" lon="5.88011">
        <ele>309</ele>
        <time>2017-10-21T13:43:01Z</time>
      </trkpt>
      <trkpt lat="45.2892" lon="5.88013">
        <ele>310</ele>
        <time>2017-10-21T13:43:06Z</time>
      </trkpt>
      <trkpt lat="45.28924" lon="5.88013">
        <ele>312</ele>
        <time>2017-10-21T13:43:10Z</time>
      </trkpt>
      <trkpt lat="45.28929" lon="5.88012">
        <ele>313</ele>
        <time>2017-10-21T13:43:15Z</time>
      </trkpt>
      <trkpt lat="45.28934" lon="5.88013">
        <ele>314</ele>
        <time>2017-10-21T13:43:21Z</time>
      </trkpt>
      <trkpt lat="45.28939" lon="5.88013">
        <ele>316</ele>
        <time>2017-10-21T13:43:44Z</time>
      </trkpt>
      <trkpt lat="45.28944" lon="5.88014">
        <ele>317</ele>
        <time>2017-10-21T13:43:51Z</time>
      </trkpt>
      <trkpt lat="45.28949" lon="5.88011">
        <ele>319</ele>
        <time>2017-10-21T13:44:20Z</time>
      </trkpt>
      <trkpt lat="45.28954" lon="5.88013">
        <ele>320</ele>
        <time>2017-10-21T13:44:28Z</time>
      </trkpt>
      <trkpt lat="45.28959" lon="5.88012">
        <ele>322</ele>
        <time>2017-10-21T13:44:34Z</time>
      </trkpt>
      <trkpt lat="45.28964" lon="5.88014">
        <ele>322</ele>
        <time>2017-10-21T13:44:38Z</time>
      </trkpt>
      <trkpt lat="45.28968" lon="5.88017">
        <ele>323</ele>
        <time>2017-10-21T13:44:42Z</time>
      </trkpt>
      <trkpt lat="45.28972" lon="5.88021">
        <ele>324</ele>
        <time>2017-10-21T13:44:56Z</time>
      </trkpt>
      <trkpt lat="45.28976" lon="5.88026">
        <ele>324</ele>
        <time>2017-10-21T13:44:58Z</time>
      </trkpt>
      <trkpt lat="45.28981" lon="5.88034">
        <ele>324</ele>
        <time>2017-10-21T13:45:00Z</time>
      </trkpt>
      <trkpt lat="45.28985" lon="5.88038">
        <ele>325</ele>
        <time>2017-10-21T13:45:01Z</time>
      </trkpt>
      <trkpt lat="45.28993" lon="5.88046">
        <ele>325</ele>
        <time>2017-10-21T13:45:03Z</time>
      </trkpt>
      <trkpt lat="45.29" lon="5.88055">
        <ele>326</ele>
        <time>2017-10-21T13:45:04Z</time>
      </trkpt>
      <trkpt lat="45.29003" lon="5.88062">
        <ele>325</ele>
        <time>2017-10-21T13:45:05Z</time>
      </trkpt>
      <trkpt lat="45.29006" lon="5.88067">
        <ele>325</ele>
        <time>2017-10-21T13:45:06Z</time>
      </trkpt>
      <trkpt lat="45.29009" lon="5.88073">
        <ele>325</ele>
        <time>2017-10-21T13:45:07Z</time>
      </trkpt>
      <trkpt lat="45.29018" lon="5.88081">
        <ele>326</ele>
        <time>2017-10-21T13:45:09Z</time>
      </trkpt>
      <trkpt lat="45.29023" lon="5.88085">
        <ele>326</ele>
        <time>2017-10-21T13:45:10Z</time>
      </trkpt>
      <trkpt lat="45.29028" lon="5.88089">
        <ele>327</ele>
        <time>2017-10-21T13:45:11Z</time>
      </trkpt>
      <trkpt lat="45.29031" lon="5.88095">
        <ele>326</ele>
        <time>2017-10-21T13:45:12Z</time>
      </trkpt>
      <trkpt lat="45.29034" lon="5.88109">
        <ele>324</ele>
        <time>2017-10-21T13:45:14Z</time>
      </trkpt>
      <trkpt lat="45.29035" lon="5.88117">
        <ele>323</ele>
        <time>2017-10-21T13:45:15Z</time>
      </trkpt>
      <trkpt lat="45.29037" lon="5.88128">
        <ele>322</ele>
        <time>2017-10-21T13:45:16Z</time>
      </trkpt>
      <trkpt lat="45.2904" lon="5.88138">
        <ele>321</ele>
        <time>2017-10-21T13:45:17Z</time>
      </trkpt>
      <trkpt lat="45.29041" lon="5.88149">
        <ele>320</ele>
        <time>2017-10-21T13:45:18Z</time>
      </trkpt>
      <trkpt lat="45.29039" lon="5.88165">
        <ele>316</ele>
        <time>2017-10-21T13:45:19Z</time>
      </trkpt>
      <trkpt lat="45.29038" lon="5.88175">
        <ele>315</ele>
        <time>2017-10-21T13:45:20Z</time>
      </trkpt>
      <trkpt lat="45.29037" lon="5.88185">
        <ele>313</ele>
        <time>2017-10-21T13:45:21Z</time>
      </trkpt>
      <trkpt lat="45.29037" lon="5.88195">
        <ele>312</ele>
        <time>2017-10-21T13:45:22Z</time>
      </trkpt>
      <trkpt lat="45.2904" lon="5.88202">
        <ele>312</ele>
        <time>2017-10-21T13:45:23Z</time>
      </trkpt>
      <trkpt lat="45.29042" lon="5.88207">
        <ele>312</ele>
        <time>2017-10-21T13:45:24Z</time>
      </trkpt>
      <trkpt lat="45.29046" lon="5.88215">
        <ele>311</ele>
        <time>2017-10-21T13:45:25Z</time>
      </trkpt>
      <trkpt lat="45.29048" lon="5.88223">
        <ele>311</ele>
        <time>2017-10-21T13:45:26Z</time>
      </trkpt>
      <trkpt lat="45.29049" lon="5.8823">
        <ele>311</ele>
        <time>2017-10-21T13:45:27Z</time>
      </trkpt>
      <trkpt lat="45.29049" lon="5.8824">
        <ele>310</ele>
        <time>2017-10-21T13:45:28Z</time>
      </trkpt>
      <trkpt lat="45.2905" lon="5.8825">
        <ele>309</ele>
        <time>2017-10-21T13:45:29Z</time>
      </trkpt>
      <trkpt lat="45.29052" lon="5.88259">
        <ele>308</ele>
        <time>2017-10-21T13:45:30Z</time>
      </trkpt>
      <trkpt lat="45.29057" lon="5.88266">
        <ele>309</ele>
        <time>2017-10-21T13:45:31Z</time>
      </trkpt>
      <trkpt lat="45.29059" lon="5.88274">
        <ele>308</ele>
        <time>2017-10-21T13:45:32Z</time>
      </trkpt>
      <trkpt lat="45.2906" lon="5.88285">
        <ele>307</ele>
        <time>2017-10-21T13:45:33Z</time>
      </trkpt>
      <trkpt lat="45.29061" lon="5.88295">
        <ele>306</ele>
        <time>2017-10-21T13:45:34Z</time>
      </trkpt>
      <trkpt lat="45.29062" lon="5.88306">
        <ele>305</ele>
        <time>2017-10-21T13:45:35Z</time>
      </trkpt>
      <trkpt lat="45.29064" lon="5.88314">
        <ele>305</ele>
        <time>2017-10-21T13:45:36Z</time>
      </trkpt>
      <trkpt lat="45.29066" lon="5.88321">
        <ele>305</ele>
        <time>2017-10-21T13:45:37Z</time>
      </trkpt>
      <trkpt lat="45.2907" lon="5.88329">
        <ele>305</ele>
        <time>2017-10-21T13:45:39Z</time>
      </trkpt>
      <trkpt lat="45.29075" lon="5.88337">
        <ele>305</ele>
        <time>2017-10-21T13:45:41Z</time>
      </trkpt>
      <trkpt lat="45.29078" lon="5.88343">
        <ele>305</ele>
        <time>2017-10-21T13:45:42Z</time>
      </trkpt>
      <trkpt lat="45.29083" lon="5.8835">
        <ele>305</ele>
        <time>2017-10-21T13:45:43Z</time>
      </trkpt>
      <trkpt lat="45.29086" lon="5.88354">
        <ele>306</ele>
        <time>2017-10-21T13:45:44Z</time>
      </trkpt>
      <trkpt lat="45.2909" lon="5.8836">
        <ele>306</ele>
        <time>2017-10-21T13:45:45Z</time>
      </trkpt>
      <trkpt lat="45.29094" lon="5.8837">
        <ele>306</ele>
        <time>2017-10-21T13:45:47Z</time>
      </trkpt>
      <trkpt lat="45.29098" lon="5.88377">
        <ele>306</ele>
        <time>2017-10-21T13:45:49Z</time>
      </trkpt>
      <trkpt lat="45.29102" lon="5.88383">
        <ele>306</ele>
        <time>2017-10-21T13:45:51Z</time>
      </trkpt>
      <trkpt lat="45.29111" lon="5.88385">
        <ele>308</ele>
        <time>2017-10-21T13:45:55Z</time>
      </trkpt>
      <trkpt lat="45.29116" lon="5.88386">
        <ele>309</ele>
        <time>2017-10-21T13:45:57Z</time>
      </trkpt>
      <trkpt lat="45.29122" lon="5.88389">
        <ele>310</ele>
        <time>2017-10-21T13:46:00Z</time>
      </trkpt>
      <trkpt lat="45.29126" lon="5.88391">
        <ele>311</ele>
        <time>2017-10-21T13:46:02Z</time>
      </trkpt>
      <trkpt lat="45.29131" lon="5.88393">
        <ele>312</ele>
        <time>2017-10-21T13:46:05Z</time>
      </trkpt>
      <trkpt lat="45.29136" lon="5.88396">
        <ele>313</ele>
        <time>2017-10-21T13:46:11Z</time>
      </trkpt>
      <trkpt lat="45.2914" lon="5.88399">
        <ele>314</ele>
        <time>2017-10-21T13:46:14Z</time>
      </trkpt>
      <trkpt lat="45.29144" lon="5.88402">
        <ele>315</ele>
        <time>2017-10-21T13:46:17Z</time>
      </trkpt>
      <trkpt lat="45.29149" lon="5.88406">
        <ele>315</ele>
        <time>2017-10-21T13:46:21Z</time>
      </trkpt>
      <trkpt lat="45.29152" lon="5.88411">
        <ele>315</ele>
        <time>2017-10-21T13:46:26Z</time>
      </trkpt>
      <trkpt lat="45.29156" lon="5.88416">
        <ele>316</ele>
        <time>2017-10-21T13:46:31Z</time>
      </trkpt>
      <trkpt lat="45.2916" lon="5.88421">
        <ele>316</ele>
        <time>2017-10-21T13:46:35Z</time>
      </trkpt>
      <trkpt lat="45.29162" lon="5.88427">
        <ele>315</ele>
        <time>2017-10-21T13:46:38Z</time>
      </trkpt>
      <trkpt lat="45.29163" lon="5.88434">
        <ele>315</ele>
        <time>2017-10-21T13:46:41Z</time>
      </trkpt>
      <trkpt lat="45.29167" lon="5.88438">
        <ele>315</ele>
        <time>2017-10-21T13:46:45Z</time>
      </trkpt>
      <trkpt lat="45.29171" lon="5.88444">
        <ele>315</ele>
        <time>2017-10-21T13:46:49Z</time>
      </trkpt>
      <trkpt lat="45.29176" lon="5.88448">
        <ele>316</ele>
        <time>2017-10-21T13:46:53Z</time>
      </trkpt>
      <trkpt lat="45.29179" lon="5.88452">
        <ele>316</ele>
        <time>2017-10-21T13:46:57Z</time>
      </trkpt>
      <trkpt lat="45.29182" lon="5.88457">
        <ele>316</ele>
        <time>2017-10-21T13:47:00Z</time>
      </trkpt>
      <trkpt lat="45.29185" lon="5.88463">
        <ele>316</ele>
        <time>2017-10-21T13:47:04Z</time>
      </trkpt>
      <trkpt lat="45.29189" lon="5.88468">
        <ele>317</ele>
        <time>2017-10-21T13:47:08Z</time>
      </trkpt>
      <trkpt lat="45.29194" lon="5.88472">
        <ele>317</ele>
        <time>2017-10-21T13:47:12Z</time>
      </trkpt>
      <trkpt lat="45.29199" lon="5.88475">
        <ele>319</ele>
        <time>2017-10-21T13:47:15Z</time>
      </trkpt>
      <trkpt lat="45.29203" lon="5.88477">
        <ele>320</ele>
        <time>2017-10-21T13:47:19Z</time>
      </trkpt>
      <trkpt lat="45.29208" lon="5.88479">
        <ele>321</ele>
        <time>2017-10-21T13:47:22Z</time>
      </trkpt>
      <trkpt lat="45.29213" lon="5.88479">
        <ele>323</ele>
        <time>2017-10-21T13:47:24Z</time>
      </trkpt>
      <trkpt lat="45.29218" lon="5.88481">
        <ele>324</ele>
        <time>2017-10-21T13:47:26Z</time>
      </trkpt>
      <trkpt lat="45.29222" lon="5.88485">
        <ele>325</ele>
        <time>2017-10-21T13:47:29Z</time>
      </trkpt>
      <trkpt lat="45.29226" lon="5.8849">
        <ele>325</ele>
        <time>2017-10-21T13:47:34Z</time>
      </trkpt>
      <trkpt lat="45.29231" lon="5.88493">
        <ele>327</ele>
        <time>2017-10-21T13:47:38Z</time>
      </trkpt>
      <trkpt lat="45.29236" lon="5.88496">
        <ele>328</ele>
        <time>2017-10-21T13:47:41Z</time>
      </trkpt>
      <trkpt lat="45.29239" lon="5.88502">
        <ele>328</ele>
        <time>2017-10-21T13:47:45Z</time>
      </trkpt>
      <trkpt lat="45.2924" lon="5.88509">
        <ele>327</ele>
        <time>2017-10-21T13:47:56Z</time>
      </trkpt>
      <trkpt lat="45.29244" lon="5.88514">
        <ele>327</ele>
        <time>2017-10-21T13:48:02Z</time>
      </trkpt>
      <trkpt lat="45.29247" lon="5.88518">
        <ele>328</ele>
        <time>2017-10-21T13:48:15Z</time>
      </trkpt>
      <trkpt lat="45.2925" lon="5.88524">
        <ele>328</ele>
        <time>2017-10-21T13:48:24Z</time>
      </trkpt>
      <trkpt lat="45.29248" lon="5.88531">
        <ele>326</ele>
        <time>2017-10-21T13:48:34Z</time>
      </trkpt>
      <trkpt lat="45.2925" lon="5.88538">
        <ele>326</ele>
        <time>2017-10-21T13:48:44Z</time>
      </trkpt>
      <trkpt lat="45.29255" lon="5.88538">
        <ele>328</ele>
        <time>2017-10-21T13:48:49Z</time>
      </trkpt>
      <trkpt lat="45.2926" lon="5.88542">
        <ele>328</ele>
        <time>2017-10-21T13:49:28Z</time>
      </trkpt>
      <trkpt lat="45.2926" lon="5.88551">
        <ele>327</ele>
        <time>2017-10-21T13:49:33Z</time>
      </trkpt>
      <trkpt lat="45.2926" lon="5.8856">
        <ele>326</ele>
        <time>2017-10-21T13:49:36Z</time>
      </trkpt>
      <trkpt lat="45.29261" lon="5.88568">
        <ele>325</ele>
        <time>2017-10-21T13:49:41Z</time>
      </trkpt>
      <trkpt lat="45.29261" lon="5.88575">
        <ele>324</ele>
        <time>2017-10-21T13:49:44Z</time>
      </trkpt>
      <trkpt lat="45.29265" lon="5.88579">
        <ele>325</ele>
        <time>2017-10-21T13:49:48Z</time>
      </trkpt>
      <trkpt lat="45.29269" lon="5.88584">
        <ele>325</ele>
        <time>2017-10-21T13:49:50Z</time>
      </trkpt>
      <trkpt lat="45.29273" lon="5.88589">
        <ele>325</ele>
        <time>2017-10-21T13:49:52Z</time>
      </trkpt>
      <trkpt lat="45.29275" lon="5.88598">
        <ele>325</ele>
        <time>2017-10-21T13:49:55Z</time>
      </trkpt>
      <trkpt lat="45.29275" lon="5.88605">
        <ele>323</ele>
        <time>2017-10-21T13:49:57Z</time>
      </trkpt>
      <trkpt lat="45.29274" lon="5.88614">
        <ele>321</ele>
        <time>2017-10-21T13:49:59Z</time>
      </trkpt>
      <trkpt lat="45.29276" lon="5.88625">
        <ele>320</ele>
        <time>2017-10-21T13:50:01Z</time>
      </trkpt>
      <trkpt lat="45.29276" lon="5.88636">
        <ele>317</ele>
        <time>2017-10-21T13:50:03Z</time>
      </trkpt>
      <trkpt lat="45.29277" lon="5.88646">
        <ele>316</ele>
        <time>2017-10-21T13:50:05Z</time>
      </trkpt>
      <trkpt lat="45.29279" lon="5.88654">
        <ele>315</ele>
        <time>2017-10-21T13:50:07Z</time>
      </trkpt>
      <trkpt lat="45.29275" lon="5.88663">
        <ele>312</ele>
        <time>2017-10-21T13:50:09Z</time>
      </trkpt>
      <trkpt lat="45.29271" lon="5.88671">
        <ele>310</ele>
        <time>2017-10-21T13:50:10Z</time>
      </trkpt>
      <trkpt lat="45.29268" lon="5.8868">
        <ele>308</ele>
        <time>2017-10-21T13:50:11Z</time>
      </trkpt>
      <trkpt lat="45.2927" lon="5.88674">
        <ele>309</ele>
        <time>2017-10-21T13:50:12Z</time>
      </trkpt>
      <trkpt lat="45.29265" lon="5.88675">
        <ele>307</ele>
        <time>2017-10-21T13:50:16Z</time>
      </trkpt>
      <trkpt lat="45.29259" lon="5.88673">
        <ele>307</ele>
        <time>2017-10-21T13:50:17Z</time>
      </trkpt>
      <trkpt lat="45.29252" lon="5.88671">
        <ele>305</ele>
        <time>2017-10-21T13:50:19Z</time>
      </trkpt>
      <trkpt lat="45.29244" lon="5.8867">
        <ele>303</ele>
        <time>2017-10-21T13:50:21Z</time>
      </trkpt>
      <trkpt lat="45.2924" lon="5.88669">
        <ele>302</ele>
        <time>2017-10-21T13:50:23Z</time>
      </trkpt>
      <trkpt lat="45.29234" lon="5.88669">
        <ele>301</ele>
        <time>2017-10-21T13:50:25Z</time>
      </trkpt>
      <trkpt lat="45.29229" lon="5.8867">
        <ele>299</ele>
        <time>2017-10-21T13:50:27Z</time>
      </trkpt>
      <trkpt lat="45.29223" lon="5.88676">
        <ele>297</ele>
        <time>2017-10-21T13:50:29Z</time>
      </trkpt>
      <trkpt lat="45.29216" lon="5.88683">
        <ele>294</ele>
        <time>2017-10-21T13:50:31Z</time>
      </trkpt>
      <trkpt lat="45.29209" lon="5.88688">
        <ele>291</ele>
        <time>2017-10-21T13:50:33Z</time>
      </trkpt>
      <trkpt lat="45.29205" lon="5.88692">
        <ele>289</ele>
        <time>2017-10-21T13:50:34Z</time>
      </trkpt>
      <trkpt lat="45.29202" lon="5.88697">
        <ele>288</ele>
        <time>2017-10-21T13:50:35Z</time>
      </trkpt>
      <trkpt lat="45.29199" lon="5.88702">
        <ele>286</ele>
        <time>2017-10-21T13:50:36Z</time>
      </trkpt>
      <trkpt lat="45.29195" lon="5.88711">
        <ele>284</ele>
        <time>2017-10-21T13:50:38Z</time>
      </trkpt>
      <trkpt lat="45.29196" lon="5.88719">
        <ele>283</ele>
        <time>2017-10-21T13:50:40Z</time>
      </trkpt>
      <trkpt lat="45.29202" lon="5.88727">
        <ele>284</ele>
        <time>2017-10-21T13:50:42Z</time>
      </trkpt>
      <trkpt lat="45.29205" lon="5.88733">
        <ele>284</ele>
        <time>2017-10-21T13:50:43Z</time>
      </trkpt>
      <trkpt lat="45.29208" lon="5.88738">
        <ele>284</ele>
        <time>2017-10-21T13:50:44Z</time>
      </trkpt>
      <trkpt lat="45.29211" lon="5.88744">
        <ele>284</ele>
        <time>2017-10-21T13:50:45Z</time>
      </trkpt>
      <trkpt lat="45.29216" lon="5.88751">
        <ele>285</ele>
        <time>2017-10-21T13:50:46Z</time>
      </trkpt>
      <trkpt lat="45.2922" lon="5.8876">
        <ele>285</ele>
        <time>2017-10-21T13:50:48Z</time>
      </trkpt>
      <trkpt lat="45.29227" lon="5.88769">
        <ele>286</ele>
        <time>2017-10-21T13:52:17Z</time>
      </trkpt>
      <trkpt lat="45.29231" lon="5.88775">
        <ele>286</ele>
        <time>2017-10-21T13:52:20Z</time>
      </trkpt>
      <trkpt lat="45.29234" lon="5.8878">
        <ele>286</ele>
        <time>2017-10-21T13:52:22Z</time>
      </trkpt>
      <trkpt lat="45.29237" lon="5.88785">
        <ele>287</ele>
        <time>2017-10-21T13:52:24Z</time>
      </trkpt>
      <trkpt lat="45.2924" lon="5.88791">
        <ele>287</ele>
        <time>2017-10-21T13:52:26Z</time>
      </trkpt>
      <trkpt lat="45.29243" lon="5.88797">
        <ele>287</ele>
        <time>2017-10-21T13:52:28Z</time>
      </trkpt>
      <trkpt lat="45.29246" lon="5.88803">
        <ele>287</ele>
        <time>2017-10-21T13:52:30Z</time>
      </trkpt>
      <trkpt lat="45.29249" lon="5.8881">
        <ele>287</ele>
        <time>2017-10-21T13:52:32Z</time>
      </trkpt>
      <trkpt lat="45.29252" lon="5.88816">
        <ele>287</ele>
        <time>2017-10-21T13:52:34Z</time>
      </trkpt>
      <trkpt lat="45.29255" lon="5.88822">
        <ele>287</ele>
        <time>2017-10-21T13:52:36Z</time>
      </trkpt>
      <trkpt lat="45.29258" lon="5.88828">
        <ele>287</ele>
        <time>2017-10-21T13:52:38Z</time>
      </trkpt>
      <trkpt lat="45.2926" lon="5.88835">
        <ele>287</ele>
        <time>2017-10-21T13:52:40Z</time>
      </trkpt>
      <trkpt lat="45.29263" lon="5.88841">
        <ele>287</ele>
        <time>2017-10-21T13:52:42Z</time>
      </trkpt>
      <trkpt lat="45.29265" lon="5.88847">
        <ele>287</ele>
        <time>2017-10-21T13:52:44Z</time>
      </trkpt>
      <trkpt lat="45.29268" lon="5.88853">
        <ele>287</ele>
        <time>2017-10-21T13:52:46Z</time>
      </trkpt>
      <trkpt lat="45.29271" lon="5.88858">
        <ele>287</ele>
        <time>2017-10-21T13:52:48Z</time>
      </trkpt>
      <trkpt lat="45.29274" lon="5.88864">
        <ele>287</ele>
        <time>2017-10-21T13:52:50Z</time>
      </trkpt>
      <trkpt lat="45.2928" lon="5.88874">
        <ele>288</ele>
        <time>2017-10-21T13:52:54Z</time>
      </trkpt>
      <trkpt lat="45.29284" lon="5.88879">
        <ele>288</ele>
        <time>2017-10-21T13:52:56Z</time>
      </trkpt>
      <trkpt lat="45.29287" lon="5.88885">
        <ele>289</ele>
        <time>2017-10-21T13:52:58Z</time>
      </trkpt>
      <trkpt lat="45.29291" lon="5.88893">
        <ele>289</ele>
        <time>2017-10-21T13:53:01Z</time>
      </trkpt>
      <trkpt lat="45.29295" lon="5.88899">
        <ele>289</ele>
        <time>2017-10-21T13:53:04Z</time>
      </trkpt>
      <trkpt lat="45.29299" lon="5.88906">
        <ele>289</ele>
        <time>2017-10-21T13:53:07Z</time>
      </trkpt>
      <trkpt lat="45.29303" lon="5.88912">
        <ele>290</ele>
        <time>2017-10-21T13:53:10Z</time>
      </trkpt>
      <trkpt lat="45.29307" lon="5.88917">
        <ele>290</ele>
        <time>2017-10-21T13:53:13Z</time>
      </trkpt>
      <trkpt lat="45.29311" lon="5.88923">
        <ele>291</ele>
        <time>2017-10-21T13:53:16Z</time>
      </trkpt>
      <trkpt lat="45.29315" lon="5.88929">
        <ele>291</ele>
        <time>2017-10-21T13:53:19Z</time>
      </trkpt>
      <trkpt lat="45.2932" lon="5.88935">
        <ele>292</ele>
        <time>2017-10-21T13:53:22Z</time>
      </trkpt>
      <trkpt lat="45.29325" lon="5.88942">
        <ele>292</ele>
        <time>2017-10-21T13:53:25Z</time>
      </trkpt>
      <trkpt lat="45.2933" lon="5.88947">
        <ele>293</ele>
        <time>2017-10-21T13:53:28Z</time>
      </trkpt>
      <trkpt lat="45.29335" lon="5.88953">
        <ele>293</ele>
        <time>2017-10-21T13:53:31Z</time>
      </trkpt>
      <trkpt lat="45.29339" lon="5.88959">
        <ele>294</ele>
        <time>2017-10-21T13:53:34Z</time>
      </trkpt>
      <trkpt lat="45.29342" lon="5.88954">
        <ele>295</ele>
        <time>2017-10-21T13:53:40Z</time>
      </trkpt>
      <trkpt lat="45.29338" lon="5.88949">
        <ele>295</ele>
        <time>2017-10-21T13:53:43Z</time>
      </trkpt>
      <trkpt lat="45.29335" lon="5.88943">
        <ele>294</ele>
        <time>2017-10-21T13:53:45Z</time>
      </trkpt>
      <trkpt lat="45.29333" lon="5.88936">
        <ele>295</ele>
        <time>2017-10-21T13:53:47Z</time>
      </trkpt>
      <trkpt lat="45.29331" lon="5.88929">
        <ele>295</ele>
        <time>2017-10-21T13:53:49Z</time>
      </trkpt>
      <trkpt lat="45.2933" lon="5.88922">
        <ele>295</ele>
        <time>2017-10-21T13:53:51Z</time>
      </trkpt>
      <trkpt lat="45.29329" lon="5.88913">
        <ele>295</ele>
        <time>2017-10-21T13:53:54Z</time>
      </trkpt>
      <trkpt lat="45.29328" lon="5.88903">
        <ele>296</ele>
        <time>2017-10-21T13:53:57Z</time>
      </trkpt>
      <trkpt lat="45.29329" lon="5.88897">
        <ele>297</ele>
        <time>2017-10-21T13:53:59Z</time>
      </trkpt>
      <trkpt lat="45.29329" lon="5.8889">
        <ele>297</ele>
        <time>2017-10-21T13:54:01Z</time>
      </trkpt>
      <trkpt lat="45.29329" lon="5.88881">
        <ele>298</ele>
        <time>2017-10-21T13:54:04Z</time>
      </trkpt>
      <trkpt lat="45.29329" lon="5.88874">
        <ele>298</ele>
        <time>2017-10-21T13:54:06Z</time>
      </trkpt>
      <trkpt lat="45.29329" lon="5.88865">
        <ele>299</ele>
        <time>2017-10-21T13:54:09Z</time>
      </trkpt>
      <trkpt lat="45.2933" lon="5.88856">
        <ele>300</ele>
        <time>2017-10-21T13:54:12Z</time>
      </trkpt>
      <trkpt lat="45.2933" lon="5.88849">
        <ele>301</ele>
        <time>2017-10-21T13:54:16Z</time>
      </trkpt>
      <trkpt lat="45.2933" lon="5.88839">
        <ele>302</ele>
        <time>2017-10-21T13:54:19Z</time>
      </trkpt>
      <trkpt lat="45.29328" lon="5.88833">
        <ele>302</ele>
        <time>2017-10-21T13:54:21Z</time>
      </trkpt>
      <trkpt lat="45.29328" lon="5.88824">
        <ele>303</ele>
        <time>2017-10-21T13:54:24Z</time>
      </trkpt>
      <trkpt lat="45.29328" lon="5.88815">
        <ele>303</ele>
        <time>2017-10-21T13:54:27Z</time>
      </trkpt>
      <trkpt lat="45.29328" lon="5.88808">
        <ele>304</ele>
        <time>2017-10-21T13:54:29Z</time>
      </trkpt>
      <trkpt lat="45.29329" lon="5.88801">
        <ele>305</ele>
        <time>2017-10-21T13:54:31Z</time>
      </trkpt>
      <trkpt lat="45.2933" lon="5.88795">
        <ele>306</ele>
        <time>2017-10-21T13:54:33Z</time>
      </trkpt>
      <trkpt lat="45.29329" lon="5.88788">
        <ele>307</ele>
        <time>2017-10-21T13:54:35Z</time>
      </trkpt>
      <trkpt lat="45.29329" lon="5.88781">
        <ele>307</ele>
        <time>2017-10-21T13:54:37Z</time>
      </trkpt>
      <trkpt lat="45.29329" lon="5.88774">
        <ele>308</ele>
        <time>2017-10-21T13:54:39Z</time>
      </trkpt>
      <trkpt lat="45.29331" lon="5.88767">
        <ele>310</ele>
        <time>2017-10-21T13:54:41Z</time>
      </trkpt>
      <trkpt lat="45.29333" lon="5.8876">
        <ele>311</ele>
        <time>2017-10-21T13:54:43Z</time>
      </trkpt>
      <trkpt lat="45.29337" lon="5.88754">
        <ele>313</ele>
        <time>2017-10-21T13:54:45Z</time>
      </trkpt>
      <trkpt lat="45.29342" lon="5.88751">
        <ele>315</ele>
        <time>2017-10-21T13:54:47Z</time>
      </trkpt>
      <trkpt lat="45.29348" lon="5.88756">
        <ele>316</ele>
        <time>2017-10-21T13:54:50Z</time>
      </trkpt>
      <trkpt lat="45.29352" lon="5.88762">
        <ele>317</ele>
        <time>2017-10-21T13:54:53Z</time>
      </trkpt>
      <trkpt lat="45.29355" lon="5.88767">
        <ele>317</ele>
        <time>2017-10-21T13:54:55Z</time>
      </trkpt>
      <trkpt lat="45.29357" lon="5.88774">
        <ele>317</ele>
        <time>2017-10-21T13:54:57Z</time>
      </trkpt>
      <trkpt lat="45.29358" lon="5.8878">
        <ele>316</ele>
        <time>2017-10-21T13:54:59Z</time>
      </trkpt>
      <trkpt lat="45.29358" lon="5.88787">
        <ele>315</ele>
        <time>2017-10-21T13:55:02Z</time>
      </trkpt>
      <trkpt lat="45.29361" lon="5.88793">
        <ele>315</ele>
        <time>2017-10-21T13:55:05Z</time>
      </trkpt>
      <trkpt lat="45.29363" lon="5.88799">
        <ele>315</ele>
        <time>2017-10-21T13:55:08Z</time>
      </trkpt>
      <trkpt lat="45.29365" lon="5.88806">
        <ele>315</ele>
        <time>2017-10-21T13:55:11Z</time>
      </trkpt>
      <trkpt lat="45.29368" lon="5.88813">
        <ele>315</ele>
        <time>2017-10-21T13:55:14Z</time>
      </trkpt>
      <trkpt lat="45.29373" lon="5.8882">
        <ele>316</ele>
        <time>2017-10-21T13:55:17Z</time>
      </trkpt>
      <trkpt lat="45.29377" lon="5.88826">
        <ele>316</ele>
        <time>2017-10-21T13:55:20Z</time>
      </trkpt>
      <trkpt lat="45.29382" lon="5.88831">
        <ele>317</ele>
        <time>2017-10-21T13:55:23Z</time>
      </trkpt>
      <trkpt lat="45.29385" lon="5.88838">
        <ele>317</ele>
        <time>2017-10-21T13:55:26Z</time>
      </trkpt>
      <trkpt lat="45.29389" lon="5.88844">
        <ele>317</ele>
        <time>2017-10-21T13:55:29Z</time>
      </trkpt>
      <trkpt lat="45.29393" lon="5.88849">
        <ele>318</ele>
        <time>2017-10-21T13:55:32Z</time>
      </trkpt>
      <trkpt lat="45.29398" lon="5.88854">
        <ele>319</ele>
        <time>2017-10-21T13:55:35Z</time>
      </trkpt>
      <trkpt lat="45.29403" lon="5.88859">
        <ele>319</ele>
        <time>2017-10-21T13:55:38Z</time>
      </trkpt>
      <trkpt lat="45.29408" lon="5.88863">
        <ele>320</ele>
        <time>2017-10-21T13:55:41Z</time>
      </trkpt>
      <trkpt lat="45.29413" lon="5.88867">
        <ele>321</ele>
        <time>2017-10-21T13:55:44Z</time>
      </trkpt>
      <trkpt lat="45.29418" lon="5.88872">
        <ele>322</ele>
        <time>2017-10-21T13:55:47Z</time>
      </trkpt>
      <trkpt lat="45.29423" lon="5.88876">
        <ele>323</ele>
        <time>2017-10-21T13:55:50Z</time>
      </trkpt>
      <trkpt lat="45.29429" lon="5.88879">
        <ele>323</ele>
        <time>2017-10-21T13:55:53Z</time>
      </trkpt>
      <trkpt lat="45.29434" lon="5.88884">
        <ele>324</ele>
        <time>2017-10-21T13:55:56Z</time>
      </trkpt>
      <trkpt lat="45.2944" lon="5.88887">
        <ele>326</ele>
        <time>2017-10-21T13:55:59Z</time>
      </trkpt>
      <trkpt lat="45.29445" lon="5.8889">
        <ele>326</ele>
        <time>2017-10-21T13:56:02Z</time>
      </trkpt>
      <trkpt lat="45.2945" lon="5.88894">
        <ele>327</ele>
        <time>2017-10-21T13:56:05Z</time>
      </trkpt>
      <trkpt lat="45.29454" lon="5.889">
        <ele>327</ele>
        <time>2017-10-21T13:56:08Z</time>
      </trkpt>
      <trkpt lat="45.2946" lon="5.88905">
        <ele>328</ele>
        <time>2017-10-21T13:56:11Z</time>
      </trkpt>
      <trkpt lat="45.29465" lon="5.88911">
        <ele>328</ele>
        <time>2017-10-21T13:56:14Z</time>
      </trkpt>
      <trkpt lat="45.29469" lon="5.88916">
        <ele>329</ele>
        <time>2017-10-21T13:56:17Z</time>
      </trkpt>
      <trkpt lat="45.29474" lon="5.88921">
        <ele>329</ele>
        <time>2017-10-21T13:56:20Z</time>
      </trkpt>
      <trkpt lat="45.29481" lon="5.88925">
        <ele>330</ele>
        <time>2017-10-21T13:56:24Z</time>
      </trkpt>
      <trkpt lat="45.29486" lon="5.88926">
        <ele>331</ele>
        <time>2017-10-21T13:56:26Z</time>
      </trkpt>
      <trkpt lat="45.29494" lon="5.88931">
        <ele>332</ele>
        <time>2017-10-21T13:56:30Z</time>
      </trkpt>
      <trkpt lat="45.29501" lon="5.88934">
        <ele>333</ele>
        <time>2017-10-21T13:56:33Z</time>
      </trkpt>
      <trkpt lat="45.29506" lon="5.88939">
        <ele>333</ele>
        <time>2017-10-21T13:56:36Z</time>
      </trkpt>
      <trkpt lat="45.29511" lon="5.88943">
        <ele>333</ele>
        <time>2017-10-21T13:56:39Z</time>
      </trkpt>
      <trkpt lat="45.29516" lon="5.88947">
        <ele>334</ele>
        <time>2017-10-21T13:56:42Z</time>
      </trkpt>
      <trkpt lat="45.2952" lon="5.88953">
        <ele>334</ele>
        <time>2017-10-21T13:56:45Z</time>
      </trkpt>
      <trkpt lat="45.29525" lon="5.88954">
        <ele>335</ele>
        <time>2017-10-21T13:56:48Z</time>
      </trkpt>
      <trkpt lat="45.29531" lon="5.88953">
        <ele>336</ele>
        <time>2017-10-21T13:56:51Z</time>
      </trkpt>
      <trkpt lat="45.29537" lon="5.88951">
        <ele>337</ele>
        <time>2017-10-21T13:56:55Z</time>
      </trkpt>
      <trkpt lat="45.29543" lon="5.88949">
        <ele>339</ele>
        <time>2017-10-21T13:56:58Z</time>
      </trkpt>
      <trkpt lat="45.29548" lon="5.88947">
        <ele>340</ele>
        <time>2017-10-21T13:57:00Z</time>
      </trkpt>
      <trkpt lat="45.29552" lon="5.88945">
        <ele>341</ele>
        <time>2017-10-21T13:57:02Z</time>
      </trkpt>
      <trkpt lat="45.29557" lon="5.88943">
        <ele>342</ele>
        <time>2017-10-21T13:57:04Z</time>
      </trkpt>
      <trkpt lat="45.29562" lon="5.88942">
        <ele>343</ele>
        <time>2017-10-21T13:57:06Z</time>
      </trkpt>
      <trkpt lat="45.2957" lon="5.88949">
        <ele>343</ele>
        <time>2017-10-21T13:57:10Z</time>
      </trkpt>
      <trkpt lat="45.29573" lon="5.88954">
        <ele>343</ele>
        <time>2017-10-21T13:57:12Z</time>
      </trkpt>
      <trkpt lat="45.29575" lon="5.88961">
        <ele>342</ele>
        <time>2017-10-21T13:57:14Z</time>
      </trkpt>
      <trkpt lat="45.29578" lon="5.88967">
        <ele>342</ele>
        <time>2017-10-21T13:57:16Z</time>
      </trkpt>
      <trkpt lat="45.29581" lon="5.88974">
        <ele>342</ele>
        <time>2017-10-21T13:57:18Z</time>
      </trkpt>
      <trkpt lat="45.29583" lon="5.8898">
        <ele>341</ele>
        <time>2017-10-21T13:57:20Z</time>
      </trkpt>
      <trkpt lat="45.29584" lon="5.88987">
        <ele>340</ele>
        <time>2017-10-21T13:57:22Z</time>
      </trkpt>
      <trkpt lat="45.29588" lon="5.88993">
        <ele>340</ele>
        <time>2017-10-21T13:57:25Z</time>
      </trkpt>
      <trkpt lat="45.29593" lon="5.88996">
        <ele>340</ele>
        <time>2017-10-21T13:57:27Z</time>
      </trkpt>
      <trkpt lat="45.29597" lon="5.88999">
        <ele>341</ele>
        <time>2017-10-21T13:57:29Z</time>
      </trkpt>
      <trkpt lat="45.29602" lon="5.89001">
        <ele>342</ele>
        <time>2017-10-21T13:57:32Z</time>
      </trkpt>
      <trkpt lat="45.29606" lon="5.88995">
        <ele>344</ele>
        <time>2017-10-21T13:57:39Z</time>
      </trkpt>
      <trkpt lat="45.2961" lon="5.8899">
        <ele>345</ele>
        <time>2017-10-21T13:57:43Z</time>
      </trkpt>
      <trkpt lat="45.29614" lon="5.88989">
        <ele>346</ele>
        <time>2017-10-21T13:57:49Z</time>
      </trkpt>
      <trkpt lat="45.29611" lon="5.88983">
        <ele>346</ele>
        <time>2017-10-21T13:58:03Z</time>
      </trkpt>
      <trkpt lat="45.29608" lon="5.88978">
        <ele>346</ele>
        <time>2017-10-21T13:58:07Z</time>
      </trkpt>
      <trkpt lat="45.29614" lon="5.88976">
        <ele>348</ele>
        <time>2017-10-21T13:58:11Z</time>
      </trkpt>
      <trkpt lat="45.29618" lon="5.88978">
        <ele>349</ele>
        <time>2017-10-21T13:58:14Z</time>
      </trkpt>
      <trkpt lat="45.29622" lon="5.88982">
        <ele>349</ele>
        <time>2017-10-21T13:58:18Z</time>
      </trkpt>
      <trkpt lat="45.29627" lon="5.88984">
        <ele>350</ele>
        <time>2017-10-21T13:58:22Z</time>
      </trkpt>
      <trkpt lat="45.29631" lon="5.88989">
        <ele>350</ele>
        <time>2017-10-21T13:58:27Z</time>
      </trkpt>
      <trkpt lat="45.29637" lon="5.88992">
        <ele>351</ele>
        <time>2017-10-21T13:58:31Z</time>
      </trkpt>
      <trkpt lat="45.29641" lon="5.88996">
        <ele>352</ele>
        <time>2017-10-21T13:58:34Z</time>
      </trkpt>
      <trkpt lat="45.29645" lon="5.89001">
        <ele>352</ele>
        <time>2017-10-21T13:58:37Z</time>
      </trkpt>
      <trkpt lat="45.29649" lon="5.89005">
        <ele>352</ele>
        <time>2017-10-21T13:58:40Z</time>
      </trkpt>
      <trkpt lat="45.29653" lon="5.89011">
        <ele>352</ele>
        <time>2017-10-21T13:58:44Z</time>
      </trkpt>
      <trkpt lat="45.29659" lon="5.89012">
        <ele>353</ele>
        <time>2017-10-21T13:58:47Z</time>
      </trkpt>
      <trkpt lat="45.29664" lon="5.89012">
        <ele>355</ele>
        <time>2017-10-21T13:58:50Z</time>
      </trkpt>
      <trkpt lat="45.2967" lon="5.89013">
        <ele>356</ele>
        <time>2017-10-21T13:58:53Z</time>
      </trkpt>
      <trkpt lat="45.29675" lon="5.89015">
        <ele>357</ele>
        <time>2017-10-21T13:58:56Z</time>
      </trkpt>
      <trkpt lat="45.29679" lon="5.89018">
        <ele>357</ele>
        <time>2017-10-21T13:58:59Z</time>
      </trkpt>
      <trkpt lat="45.29684" lon="5.8902">
        <ele>358</ele>
        <time>2017-10-21T13:59:03Z</time>
      </trkpt>
      <trkpt lat="45.29688" lon="5.89025">
        <ele>358</ele>
        <time>2017-10-21T13:59:07Z</time>
      </trkpt>
      <trkpt lat="45.29685" lon="5.8903">
        <ele>357</ele>
        <time>2017-10-21T13:59:15Z</time>
      </trkpt>
      <trkpt lat="45.29688" lon="5.89039">
        <ele>356</ele>
        <time>2017-10-21T14:00:08Z</time>
      </trkpt>
      <trkpt lat="45.2969" lon="5.89047">
        <ele>355</ele>
        <time>2017-10-21T14:00:10Z</time>
      </trkpt>
      <trkpt lat="45.29693" lon="5.89056">
        <ele>354</ele>
        <time>2017-10-21T14:00:12Z</time>
      </trkpt>
      <trkpt lat="45.29696" lon="5.89062">
        <ele>353</ele>
        <time>2017-10-21T14:00:13Z</time>
      </trkpt>
      <trkpt lat="45.29699" lon="5.89067">
        <ele>353</ele>
        <time>2017-10-21T14:00:14Z</time>
      </trkpt>
      <trkpt lat="45.29704" lon="5.8907">
        <ele>353</ele>
        <time>2017-10-21T14:00:15Z</time>
      </trkpt>
      <trkpt lat="45.29715" lon="5.89075">
        <ele>354</ele>
        <time>2017-10-21T14:00:16Z</time>
      </trkpt>
      <trkpt lat="45.29721" lon="5.89082">
        <ele>354</ele>
        <time>2017-10-21T14:00:17Z</time>
      </trkpt>
      <trkpt lat="45.29728" lon="5.89085">
        <ele>354</ele>
        <time>2017-10-21T14:00:18Z</time>
      </trkpt>
      <trkpt lat="45.29736" lon="5.89091">
        <ele>355</ele>
        <time>2017-10-21T14:00:19Z</time>
      </trkpt>
      <trkpt lat="45.29744" lon="5.891">
        <ele>354</ele>
        <time>2017-10-21T14:00:20Z</time>
      </trkpt>
      <trkpt lat="45.29752" lon="5.89105">
        <ele>355</ele>
        <time>2017-10-21T14:00:21Z</time>
      </trkpt>
      <trkpt lat="45.29758" lon="5.89109">
        <ele>355</ele>
        <time>2017-10-21T14:00:22Z</time>
      </trkpt>
      <trkpt lat="45.29763" lon="5.89121">
        <ele>353</ele>
        <time>2017-10-21T14:00:23Z</time>
      </trkpt>
      <trkpt lat="45.2977" lon="5.89127">
        <ele>353</ele>
        <time>2017-10-21T14:00:24Z</time>
      </trkpt>
      <trkpt lat="45.29778" lon="5.89134">
        <ele>352</ele>
        <time>2017-10-21T14:00:25Z</time>
      </trkpt>
      <trkpt lat="45.29786" lon="5.89141">
        <ele>352</ele>
        <time>2017-10-21T14:00:26Z</time>
      </trkpt>
      <trkpt lat="45.29793" lon="5.89148">
        <ele>351</ele>
        <time>2017-10-21T14:00:27Z</time>
      </trkpt>
      <trkpt lat="45.29802" lon="5.89156">
        <ele>350</ele>
        <time>2017-10-21T14:00:28Z</time>
      </trkpt>
      <trkpt lat="45.29808" lon="5.89165">
        <ele>349</ele>
        <time>2017-10-21T14:00:29Z</time>
      </trkpt>
      <trkpt lat="45.29812" lon="5.89172">
        <ele>348</ele>
        <time>2017-10-21T14:00:30Z</time>
      </trkpt>
      <trkpt lat="45.29812" lon="5.8918">
        <ele>346</ele>
        <time>2017-10-21T14:00:31Z</time>
      </trkpt>
      <trkpt lat="45.29815" lon="5.89188">
        <ele>345</ele>
        <time>2017-10-21T14:00:33Z</time>
      </trkpt>
      <trkpt lat="45.29815" lon="5.89196">
        <ele>343</ele>
        <time>2017-10-21T14:00:35Z</time>
      </trkpt>
      <trkpt lat="45.29805" lon="5.89203">
        <ele>339</ele>
        <time>2017-10-21T14:00:37Z</time>
      </trkpt>
      <trkpt lat="45.29799" lon="5.892">
        <ele>339</ele>
        <time>2017-10-21T14:00:39Z</time>
      </trkpt>
      <trkpt lat="45.29792" lon="5.89195">
        <ele>339</ele>
        <time>2017-10-21T14:00:40Z</time>
      </trkpt>
      <trkpt lat="45.29784" lon="5.89187">
        <ele>340</ele>
        <time>2017-10-21T14:00:41Z</time>
      </trkpt>
      <trkpt lat="45.29771" lon="5.89183">
        <ele>339</ele>
        <time>2017-10-21T14:00:42Z</time>
      </trkpt>
      <trkpt lat="45.29765" lon="5.89182">
        <ele>339</ele>
        <time>2017-10-21T14:00:43Z</time>
      </trkpt>
      <trkpt lat="45.2975" lon="5.89176">
        <ele>338</ele>
        <time>2017-10-21T14:00:44Z</time>
      </trkpt>
      <trkpt lat="45.2974" lon="5.89172">
        <ele>338</ele>
        <time>2017-10-21T14:00:45Z</time>
      </trkpt>
      <trkpt lat="45.29723" lon="5.89171">
        <ele>336</ele>
        <time>2017-10-21T14:00:47Z</time>
      </trkpt>
      <trkpt lat="45.29716" lon="5.89155">
        <ele>338</ele>
        <time>2017-10-21T14:00:48Z</time>
      </trkpt>
      <trkpt lat="45.29702" lon="5.8917">
        <ele>333</ele>
        <time>2017-10-21T14:00:49Z</time>
      </trkpt>
      <trkpt lat="45.2971" lon="5.89179">
        <ele>332</ele>
        <time>2017-10-21T14:00:52Z</time>
      </trkpt>
      <trkpt lat="45.29717" lon="5.89183">
        <ele>332</ele>
        <time>2017-10-21T14:00:53Z</time>
      </trkpt>
      <trkpt lat="45.29724" lon="5.89189">
        <ele>332</ele>
        <time>2017-10-21T14:00:54Z</time>
      </trkpt>
      <trkpt lat="45.29732" lon="5.89198">
        <ele>330</ele>
        <time>2017-10-21T14:00:55Z</time>
      </trkpt>
      <trkpt lat="45.29739" lon="5.89205">
        <ele>330</ele>
        <time>2017-10-21T14:00:56Z</time>
      </trkpt>
      <trkpt lat="45.29745" lon="5.89212">
        <ele>329</ele>
        <time>2017-10-21T14:00:57Z</time>
      </trkpt>
      <trkpt lat="45.29754" lon="5.89219">
        <ele>328</ele>
        <time>2017-10-21T14:00:58Z</time>
      </trkpt>
      <trkpt lat="45.29765" lon="5.89237">
        <ele>326</ele>
        <time>2017-10-21T14:01:00Z</time>
      </trkpt>
      <trkpt lat="45.29771" lon="5.89247">
        <ele>324</ele>
        <time>2017-10-21T14:01:01Z</time>
      </trkpt>
      <trkpt lat="45.29784" lon="5.89278">
        <ele>319</ele>
        <time>2017-10-21T14:01:04Z</time>
      </trkpt>
      <trkpt lat="45.29786" lon="5.89289">
        <ele>317</ele>
        <time>2017-10-21T14:01:05Z</time>
      </trkpt>
      <trkpt lat="45.29783" lon="5.89295">
        <ele>315</ele>
        <time>2017-10-21T14:01:06Z</time>
      </trkpt>
      <trkpt lat="45.29783" lon="5.89301">
        <ele>314</ele>
        <time>2017-10-21T14:01:07Z</time>
      </trkpt>
      <trkpt lat="45.29781" lon="5.89294">
        <ele>315</ele>
        <time>2017-10-21T14:01:09Z</time>
      </trkpt>
      <trkpt lat="45.29798" lon="5.89286">
        <ele>319</ele>
        <time>2017-10-21T14:01:10Z</time>
      </trkpt>
      <trkpt lat="45.29793" lon="5.89282">
        <ele>319</ele>
        <time>2017-10-21T14:01:11Z</time>
      </trkpt>
      <trkpt lat="45.29786" lon="5.89276">
        <ele>320</ele>
        <time>2017-10-21T14:01:13Z</time>
      </trkpt>
      <trkpt lat="45.29779" lon="5.89272">
        <ele>320</ele>
        <time>2017-10-21T14:01:14Z</time>
      </trkpt>
      <trkpt lat="45.29773" lon="5.8927">
        <ele>319</ele>
        <time>2017-10-21T14:01:15Z</time>
      </trkpt>
      <trkpt lat="45.29767" lon="5.89268">
        <ele>319</ele>
        <time>2017-10-21T14:01:16Z</time>
      </trkpt>
      <trkpt lat="45.2976" lon="5.89267">
        <ele>319</ele>
        <time>2017-10-21T14:01:17Z</time>
      </trkpt>
      <trkpt lat="45.29752" lon="5.89268">
        <ele>317</ele>
        <time>2017-10-21T14:01:18Z</time>
      </trkpt>
      <trkpt lat="45.29745" lon="5.89267">
        <ele>317</ele>
        <time>2017-10-21T14:01:19Z</time>
      </trkpt>
      <trkpt lat="45.29734" lon="5.89268">
        <ele>315</ele>
        <time>2017-10-21T14:01:20Z</time>
      </trkpt>
      <trkpt lat="45.29727" lon="5.89268">
        <ele>315</ele>
        <time>2017-10-21T14:01:21Z</time>
      </trkpt>
      <trkpt lat="45.2972" lon="5.89269">
        <ele>314</ele>
        <time>2017-10-21T14:01:22Z</time>
      </trkpt>
      <trkpt lat="45.29712" lon="5.8927">
        <ele>313</ele>
        <time>2017-10-21T14:01:23Z</time>
      </trkpt>
      <trkpt lat="45.29703" lon="5.89269">
        <ele>312</ele>
        <time>2017-10-21T14:01:24Z</time>
      </trkpt>
      <trkpt lat="45.29694" lon="5.89268">
        <ele>311</ele>
        <time>2017-10-21T14:01:25Z</time>
      </trkpt>
      <trkpt lat="45.29687" lon="5.89265">
        <ele>311</ele>
        <time>2017-10-21T14:01:26Z</time>
      </trkpt>
      <trkpt lat="45.29678" lon="5.89263">
        <ele>311</ele>
        <time>2017-10-21T14:01:27Z</time>
      </trkpt>
      <trkpt lat="45.29668" lon="5.89262">
        <ele>310</ele>
        <time>2017-10-21T14:01:28Z</time>
      </trkpt>
      <trkpt lat="45.2966" lon="5.8926">
        <ele>310</ele>
        <time>2017-10-21T14:01:29Z</time>
      </trkpt>
      <trkpt lat="45.29649" lon="5.8926">
        <ele>308</ele>
        <time>2017-10-21T14:01:30Z</time>
      </trkpt>
      <trkpt lat="45.29639" lon="5.8926">
        <ele>307</ele>
        <time>2017-10-21T14:01:31Z</time>
      </trkpt>
      <trkpt lat="45.29628" lon="5.89261">
        <ele>305</ele>
        <time>2017-10-21T14:01:32Z</time>
      </trkpt>
      <trkpt lat="45.29619" lon="5.8926">
        <ele>304</ele>
        <time>2017-10-21T14:01:33Z</time>
      </trkpt>
      <trkpt lat="45.29612" lon="5.89259">
        <ele>303</ele>
        <time>2017-10-21T14:01:34Z</time>
      </trkpt>
      <trkpt lat="45.29606" lon="5.89252">
        <ele>304</ele>
        <time>2017-10-21T14:01:35Z</time>
      </trkpt>
      <trkpt lat="45.29601" lon="5.89251">
        <ele>303</ele>
        <time>2017-10-21T14:01:36Z</time>
      </trkpt>
      <trkpt lat="45.29598" lon="5.89255">
        <ele>302</ele>
        <time>2017-10-21T14:01:37Z</time>
      </trkpt>
      <trkpt lat="45.29593" lon="5.89265">
        <ele>300</ele>
        <time>2017-10-21T14:01:39Z</time>
      </trkpt>
      <trkpt lat="45.29599" lon="5.89271">
        <ele>299</ele>
        <time>2017-10-21T14:01:41Z</time>
      </trkpt>
      <trkpt lat="45.29604" lon="5.89273">
        <ele>300</ele>
        <time>2017-10-21T14:01:42Z</time>
      </trkpt>
      <trkpt lat="45.29609" lon="5.89278">
        <ele>300</ele>
        <time>2017-10-21T14:01:43Z</time>
      </trkpt>
      <trkpt lat="45.29615" lon="5.89282">
        <ele>300</ele>
        <time>2017-10-21T14:01:44Z</time>
      </trkpt>
      <trkpt lat="45.29623" lon="5.8929">
        <ele>299</ele>
        <time>2017-10-21T14:01:45Z</time>
      </trkpt>
      <trkpt lat="45.29629" lon="5.89294">
        <ele>299</ele>
        <time>2017-10-21T14:01:46Z</time>
      </trkpt>
      <trkpt lat="45.29637" lon="5.893">
        <ele>299</ele>
        <time>2017-10-21T14:01:47Z</time>
      </trkpt>
      <trkpt lat="45.29645" lon="5.89307">
        <ele>299</ele>
        <time>2017-10-21T14:01:48Z</time>
      </trkpt>
      <trkpt lat="45.29653" lon="5.89316">
        <ele>298</ele>
        <time>2017-10-21T14:01:49Z</time>
      </trkpt>
      <trkpt lat="45.29659" lon="5.89323">
        <ele>297</ele>
        <time>2017-10-21T14:01:50Z</time>
      </trkpt>
      <trkpt lat="45.29667" lon="5.89332">
        <ele>296</ele>
        <time>2017-10-21T14:01:51Z</time>
      </trkpt>
      <trkpt lat="45.29677" lon="5.89337">
        <ele>296</ele>
        <time>2017-10-21T14:01:52Z</time>
      </trkpt>
      <trkpt lat="45.29684" lon="5.89347">
        <ele>294</ele>
        <time>2017-10-21T14:01:53Z</time>
      </trkpt>
      <trkpt lat="45.29696" lon="5.89358">
        <ele>293</ele>
        <time>2017-10-21T14:01:54Z</time>
      </trkpt>
      <trkpt lat="45.29704" lon="5.89365">
        <ele>292</ele>
        <time>2017-10-21T14:01:55Z</time>
      </trkpt>
      <trkpt lat="45.29714" lon="5.89376">
        <ele>290</ele>
        <time>2017-10-21T14:01:56Z</time>
      </trkpt>
      <trkpt lat="45.29722" lon="5.89386">
        <ele>289</ele>
        <time>2017-10-21T14:01:57Z</time>
      </trkpt>
      <trkpt lat="45.29738" lon="5.89402">
        <ele>287</ele>
        <time>2017-10-21T14:01:59Z</time>
      </trkpt>
      <trkpt lat="45.29742" lon="5.89415">
        <ele>285</ele>
        <time>2017-10-21T14:02:00Z</time>
      </trkpt>
      <trkpt lat="45.29753" lon="5.8944">
        <ele>282</ele>
        <time>2017-10-21T14:02:02Z</time>
      </trkpt>
      <trkpt lat="45.29759" lon="5.8945">
        <ele>281</ele>
        <time>2017-10-21T14:02:03Z</time>
      </trkpt>
      <trkpt lat="45.29765" lon="5.89461">
        <ele>281</ele>
        <time>2017-10-21T14:02:04Z</time>
      </trkpt>
      <trkpt lat="45.29772" lon="5.89474">
        <ele>279</ele>
        <time>2017-10-21T14:02:05Z</time>
      </trkpt>
      <trkpt lat="45.29777" lon="5.89485">
        <ele>278</ele>
        <time>2017-10-21T14:02:06Z</time>
      </trkpt>
      <trkpt lat="45.29783" lon="5.89496">
        <ele>277</ele>
        <time>2017-10-21T14:02:07Z</time>
      </trkpt>
      <trkpt lat="45.29788" lon="5.89504">
        <ele>277</ele>
        <time>2017-10-21T14:02:08Z</time>
      </trkpt>
      <trkpt lat="45.29792" lon="5.89509">
        <ele>276</ele>
        <time>2017-10-21T14:02:09Z</time>
      </trkpt>
      <trkpt lat="45.29796" lon="5.89515">
        <ele>276</ele>
        <time>2017-10-21T14:02:10Z</time>
      </trkpt>
      <trkpt lat="45.29792" lon="5.89521">
        <ele>274</ele>
        <time>2017-10-21T14:02:12Z</time>
      </trkpt>
      <trkpt lat="45.29783" lon="5.8952">
        <ele>273</ele>
        <time>2017-10-21T14:02:14Z</time>
      </trkpt>
      <trkpt lat="45.29778" lon="5.89517">
        <ele>273</ele>
        <time>2017-10-21T14:02:15Z</time>
      </trkpt>
      <trkpt lat="45.29775" lon="5.89511">
        <ele>274</ele>
        <time>2017-10-21T14:02:16Z</time>
      </trkpt>
      <trkpt lat="45.29769" lon="5.89507">
        <ele>274</ele>
        <time>2017-10-21T14:02:17Z</time>
      </trkpt>
      <trkpt lat="45.29762" lon="5.89501">
        <ele>274</ele>
        <time>2017-10-21T14:02:18Z</time>
      </trkpt>
      <trkpt lat="45.29757" lon="5.89496">
        <ele>274</ele>
        <time>2017-10-21T14:02:19Z</time>
      </trkpt>
      <trkpt lat="45.29754" lon="5.8949">
        <ele>274</ele>
        <time>2017-10-21T14:02:20Z</time>
      </trkpt>
      <trkpt lat="45.29741" lon="5.89486">
        <ele>273</ele>
        <time>2017-10-21T14:02:21Z</time>
      </trkpt>
      <trkpt lat="45.29732" lon="5.89484">
        <ele>272</ele>
        <time>2017-10-21T14:02:22Z</time>
      </trkpt>
      <trkpt lat="45.29724" lon="5.89482">
        <ele>271</ele>
        <time>2017-10-21T14:02:23Z</time>
      </trkpt>
      <trkpt lat="45.29716" lon="5.8948">
        <ele>271</ele>
        <time>2017-10-21T14:02:24Z</time>
      </trkpt>
      <trkpt lat="45.29707" lon="5.89477">
        <ele>271</ele>
        <time>2017-10-21T14:02:25Z</time>
      </trkpt>
      <trkpt lat="45.29688" lon="5.89473">
        <ele>270</ele>
        <time>2017-10-21T14:02:27Z</time>
      </trkpt>
      <trkpt lat="45.29677" lon="5.89473">
        <ele>269</ele>
        <time>2017-10-21T14:02:28Z</time>
      </trkpt>
      <trkpt lat="45.29664" lon="5.89473">
        <ele>268</ele>
        <time>2017-10-21T14:02:29Z</time>
      </trkpt>
      <trkpt lat="45.29654" lon="5.89474">
        <ele>267</ele>
        <time>2017-10-21T14:02:30Z</time>
      </trkpt>
      <trkpt lat="45.29644" lon="5.89472">
        <ele>267</ele>
        <time>2017-10-21T14:02:31Z</time>
      </trkpt>
      <trkpt lat="45.29639" lon="5.89472">
        <ele>266</ele>
        <time>2017-10-21T14:02:32Z</time>
      </trkpt>
      <trkpt lat="45.29629" lon="5.89477">
        <ele>265</ele>
        <time>2017-10-21T14:02:33Z</time>
      </trkpt>
      <trkpt lat="45.29619" lon="5.89477">
        <ele>264</ele>
        <time>2017-10-21T14:02:34Z</time>
      </trkpt>
      <trkpt lat="45.29606" lon="5.8948">
        <ele>263</ele>
        <time>2017-10-21T14:02:35Z</time>
      </trkpt>
      <trkpt lat="45.29592" lon="5.8948">
        <ele>262</ele>
        <time>2017-10-21T14:02:36Z</time>
      </trkpt>
      <trkpt lat="45.29581" lon="5.89483">
        <ele>261</ele>
        <time>2017-10-21T14:02:37Z</time>
      </trkpt>
      <trkpt lat="45.29574" lon="5.89481">
        <ele>261</ele>
        <time>2017-10-21T14:02:38Z</time>
      </trkpt>
      <trkpt lat="45.29563" lon="5.89478">
        <ele>260</ele>
        <time>2017-10-21T14:02:39Z</time>
      </trkpt>
      <trkpt lat="45.29551" lon="5.89482">
        <ele>259</ele>
        <time>2017-10-21T14:02:40Z</time>
      </trkpt>
      <trkpt lat="45.29541" lon="5.89484">
        <ele>258</ele>
        <time>2017-10-21T14:02:41Z</time>
      </trkpt>
      <trkpt lat="45.2953" lon="5.89485">
        <ele>257</ele>
        <time>2017-10-21T14:02:42Z</time>
      </trkpt>
      <trkpt lat="45.2952" lon="5.89486">
        <ele>256</ele>
        <time>2017-10-21T14:02:43Z</time>
      </trkpt>
      <trkpt lat="45.29511" lon="5.89482">
        <ele>256</ele>
        <time>2017-10-21T14:02:44Z</time>
      </trkpt>
      <trkpt lat="45.29501" lon="5.8948">
        <ele>256</ele>
        <time>2017-10-21T14:02:45Z</time>
      </trkpt>
      <trkpt lat="45.29491" lon="5.89478">
        <ele>255</ele>
        <time>2017-10-21T14:02:46Z</time>
      </trkpt>
      <trkpt lat="45.2948" lon="5.89474">
        <ele>255</ele>
        <time>2017-10-21T14:02:47Z</time>
      </trkpt>
      <trkpt lat="45.29472" lon="5.89473">
        <ele>255</ele>
        <time>2017-10-21T14:02:48Z</time>
      </trkpt>
      <trkpt lat="45.29462" lon="5.89474">
        <ele>254</ele>
        <time>2017-10-21T14:02:49Z</time>
      </trkpt>
      <trkpt lat="45.29452" lon="5.89477">
        <ele>253</ele>
        <time>2017-10-21T14:02:50Z</time>
      </trkpt>
      <trkpt lat="45.29444" lon="5.89481">
        <ele>252</ele>
        <time>2017-10-21T14:02:51Z</time>
      </trkpt>
      <trkpt lat="45.29435" lon="5.89485">
        <ele>251</ele>
        <time>2017-10-21T14:02:52Z</time>
      </trkpt>
      <trkpt lat="45.29426" lon="5.8949">
        <ele>250</ele>
        <time>2017-10-21T14:02:53Z</time>
      </trkpt>
      <trkpt lat="45.29419" lon="5.89493">
        <ele>249</ele>
        <time>2017-10-21T14:02:54Z</time>
      </trkpt>
      <trkpt lat="45.29413" lon="5.89495">
        <ele>248</ele>
        <time>2017-10-21T14:02:55Z</time>
      </trkpt>
      <trkpt lat="45.29407" lon="5.89492">
        <ele>248</ele>
        <time>2017-10-21T14:02:56Z</time>
      </trkpt>
      <trkpt lat="45.294" lon="5.89492">
        <ele>248</ele>
        <time>2017-10-21T14:02:57Z</time>
      </trkpt>
      <trkpt lat="45.2939" lon="5.8949">
        <ele>247</ele>
        <time>2017-10-21T14:02:58Z</time>
      </trkpt>
      <trkpt lat="45.29377" lon="5.89487">
        <ele>246</ele>
        <time>2017-10-21T14:03:00Z</time>
      </trkpt>
      <trkpt lat="45.2937" lon="5.89481">
        <ele>246</ele>
        <time>2017-10-21T14:03:01Z</time>
      </trkpt>
      <trkpt lat="45.29363" lon="5.89473">
        <ele>246</ele>
        <time>2017-10-21T14:03:02Z</time>
      </trkpt>
      <trkpt lat="45.2936" lon="5.89467">
        <ele>247</ele>
        <time>2017-10-21T14:03:03Z</time>
      </trkpt>
      <trkpt lat="45.29356" lon="5.89462">
        <ele>247</ele>
        <time>2017-10-21T14:03:04Z</time>
      </trkpt>
      <trkpt lat="45.2935" lon="5.89459">
        <ele>246</ele>
        <time>2017-10-21T14:03:05Z</time>
      </trkpt>
      <trkpt lat="45.29345" lon="5.89455">
        <ele>246</ele>
        <time>2017-10-21T14:03:06Z</time>
      </trkpt>
      <trkpt lat="45.2934" lon="5.89448">
        <ele>247</ele>
        <time>2017-10-21T14:03:08Z</time>
      </trkpt>
      <trkpt lat="45.29335" lon="5.89445">
        <ele>246</ele>
        <time>2017-10-21T14:03:09Z</time>
      </trkpt>
      <trkpt lat="45.2933" lon="5.89441">
        <ele>246</ele>
        <time>2017-10-21T14:03:10Z</time>
      </trkpt>
      <trkpt lat="45.29327" lon="5.89436">
        <ele>246</ele>
        <time>2017-10-21T14:03:11Z</time>
      </trkpt>
      <trkpt lat="45.29318" lon="5.89432">
        <ele>246</ele>
        <time>2017-10-21T14:03:13Z</time>
      </trkpt>
      <trkpt lat="45.29313" lon="5.89422">
        <ele>246</ele>
        <time>2017-10-21T14:03:15Z</time>
      </trkpt>
      <trkpt lat="45.29308" lon="5.89419">
        <ele>246</ele>
        <time>2017-10-21T14:03:16Z</time>
      </trkpt>
      <trkpt lat="45.29303" lon="5.8941">
        <ele>246</ele>
        <time>2017-10-21T14:03:18Z</time>
      </trkpt>
      <trkpt lat="45.29298" lon="5.89405">
        <ele>246</ele>
        <time>2017-10-21T14:03:19Z</time>
      </trkpt>
      <trkpt lat="45.29289" lon="5.89393">
        <ele>246</ele>
        <time>2017-10-21T14:03:22Z</time>
      </trkpt>
      <trkpt lat="45.29283" lon="5.89385">
        <ele>246</ele>
        <time>2017-10-21T14:03:24Z</time>
      </trkpt>
      <trkpt lat="45.29279" lon="5.89381">
        <ele>246</ele>
        <time>2017-10-21T14:03:25Z</time>
      </trkpt>
      <trkpt lat="45.29276" lon="5.89375">
        <ele>246</ele>
        <time>2017-10-21T14:03:28Z</time>
      </trkpt>
      <trkpt lat="45.2927" lon="5.89371">
        <ele>245</ele>
        <time>2017-10-21T14:04:47Z</time>
      </trkpt>
      <trkpt lat="45.29266" lon="5.89366">
        <ele>245</ele>
        <time>2017-10-21T14:04:49Z</time>
      </trkpt>
      <trkpt lat="45.2926" lon="5.8936">
        <ele>245</ele>
        <time>2017-10-21T14:04:51Z</time>
      </trkpt>
      <trkpt lat="45.29255" lon="5.89353">
        <ele>245</ele>
        <time>2017-10-21T14:04:53Z</time>
      </trkpt>
      <trkpt lat="45.29249" lon="5.89346">
        <ele>245</ele>
        <time>2017-10-21T14:04:55Z</time>
      </trkpt>
      <trkpt lat="45.29244" lon="5.89339">
        <ele>245</ele>
        <time>2017-10-21T14:04:57Z</time>
      </trkpt>
      <trkpt lat="45.29238" lon="5.89331">
        <ele>245</ele>
        <time>2017-10-21T14:04:59Z</time>
      </trkpt>
      <trkpt lat="45.29231" lon="5.89322">
        <ele>245</ele>
        <time>2017-10-21T14:05:01Z</time>
      </trkpt>
      <trkpt lat="45.29226" lon="5.89318">
        <ele>245</ele>
        <time>2017-10-21T14:05:02Z</time>
      </trkpt>
      <trkpt lat="45.29222" lon="5.89312">
        <ele>245</ele>
        <time>2017-10-21T14:05:03Z</time>
      </trkpt>
      <trkpt lat="45.29219" lon="5.89307">
        <ele>245</ele>
        <time>2017-10-21T14:05:04Z</time>
      </trkpt>
      <trkpt lat="45.29215" lon="5.89302">
        <ele>245</ele>
        <time>2017-10-21T14:05:05Z</time>
      </trkpt>
      <trkpt lat="45.29207" lon="5.89291">
        <ele>245</ele>
        <time>2017-10-21T14:05:07Z</time>
      </trkpt>
      <trkpt lat="45.29202" lon="5.89286">
        <ele>245</ele>
        <time>2017-10-21T14:05:08Z</time>
      </trkpt>
      <trkpt lat="45.29197" lon="5.89279">
        <ele>245</ele>
        <time>2017-10-21T14:05:09Z</time>
      </trkpt>
      <trkpt lat="45.29193" lon="5.89273">
        <ele>245</ele>
        <time>2017-10-21T14:05:10Z</time>
      </trkpt>
      <trkpt lat="45.29188" lon="5.89267">
        <ele>245</ele>
        <time>2017-10-21T14:05:11Z</time>
      </trkpt>
      <trkpt lat="45.29183" lon="5.89262">
        <ele>245</ele>
        <time>2017-10-21T14:05:12Z</time>
      </trkpt>
      <trkpt lat="45.29178" lon="5.89254">
        <ele>244</ele>
        <time>2017-10-21T14:05:13Z</time>
      </trkpt>
      <trkpt lat="45.29173" lon="5.89247">
        <ele>244</ele>
        <time>2017-10-21T14:05:14Z</time>
      </trkpt>
      <trkpt lat="45.29169" lon="5.89241">
        <ele>244</ele>
        <time>2017-10-21T14:05:15Z</time>
      </trkpt>
      <trkpt lat="45.29164" lon="5.89234">
        <ele>244</ele>
        <time>2017-10-21T14:05:16Z</time>
      </trkpt>
      <trkpt lat="45.29158" lon="5.89225">
        <ele>244</ele>
        <time>2017-10-21T14:05:17Z</time>
      </trkpt>
      <trkpt lat="45.29153" lon="5.89219">
        <ele>244</ele>
        <time>2017-10-21T14:05:18Z</time>
      </trkpt>
      <trkpt lat="45.29147" lon="5.89211">
        <ele>243</ele>
        <time>2017-10-21T14:05:19Z</time>
      </trkpt>
      <trkpt lat="45.29142" lon="5.89204">
        <ele>243</ele>
        <time>2017-10-21T14:05:20Z</time>
      </trkpt>
      <trkpt lat="45.29137" lon="5.89196">
        <ele>243</ele>
        <time>2017-10-21T14:05:21Z</time>
      </trkpt>
      <trkpt lat="45.2913" lon="5.89188">
        <ele>242</ele>
        <time>2017-10-21T14:05:22Z</time>
      </trkpt>
      <trkpt lat="45.29125" lon="5.89181">
        <ele>242</ele>
        <time>2017-10-21T14:05:23Z</time>
      </trkpt>
      <trkpt lat="45.2912" lon="5.89174">
        <ele>242</ele>
        <time>2017-10-21T14:05:24Z</time>
      </trkpt>
      <trkpt lat="45.29113" lon="5.89165">
        <ele>241</ele>
        <time>2017-10-21T14:05:25Z</time>
      </trkpt>
      <trkpt lat="45.29107" lon="5.89158">
        <ele>241</ele>
        <time>2017-10-21T14:05:26Z</time>
      </trkpt>
      <trkpt lat="45.29101" lon="5.89149">
        <ele>241</ele>
        <time>2017-10-21T14:05:27Z</time>
      </trkpt>
      <trkpt lat="45.29087" lon="5.89133">
        <ele>241</ele>
        <time>2017-10-21T14:05:29Z</time>
      </trkpt>
      <trkpt lat="45.2908" lon="5.89125">
        <ele>240</ele>
        <time>2017-10-21T14:05:30Z</time>
      </trkpt>
      <trkpt lat="45.29074" lon="5.89117">
        <ele>240</ele>
        <time>2017-10-21T14:05:31Z</time>
      </trkpt>
      <trkpt lat="45.29068" lon="5.89108">
        <ele>240</ele>
        <time>2017-10-21T14:05:32Z</time>
      </trkpt>
      <trkpt lat="45.2906" lon="5.891">
        <ele>240</ele>
        <time>2017-10-21T14:05:33Z</time>
      </trkpt>
      <trkpt lat="45.29054" lon="5.89092">
        <ele>239</ele>
        <time>2017-10-21T14:05:34Z</time>
      </trkpt>
      <trkpt lat="45.29047" lon="5.89084">
        <ele>239</ele>
        <time>2017-10-21T14:05:35Z</time>
      </trkpt>
      <trkpt lat="45.29041" lon="5.89077">
        <ele>239</ele>
        <time>2017-10-21T14:05:36Z</time>
      </trkpt>
      <trkpt lat="45.29035" lon="5.89069">
        <ele>239</ele>
        <time>2017-10-21T14:05:37Z</time>
      </trkpt>
      <trkpt lat="45.29028" lon="5.8906">
        <ele>239</ele>
        <time>2017-10-21T14:05:38Z</time>
      </trkpt>
      <trkpt lat="45.29023" lon="5.89054">
        <ele>239</ele>
        <time>2017-10-21T14:05:39Z</time>
      </trkpt>
      <trkpt lat="45.29017" lon="5.89046">
        <ele>239</ele>
        <time>2017-10-21T14:05:40Z</time>
      </trkpt>
      <trkpt lat="45.29012" lon="5.89037">
        <ele>239</ele>
        <time>2017-10-21T14:05:41Z</time>
      </trkpt>
      <trkpt lat="45.29007" lon="5.89029">
        <ele>239</ele>
        <time>2017-10-21T14:05:42Z</time>
      </trkpt>
      <trkpt lat="45.29002" lon="5.8902">
        <ele>239</ele>
        <time>2017-10-21T14:05:43Z</time>
      </trkpt>
      <trkpt lat="45.28997" lon="5.89014">
        <ele>238</ele>
        <time>2017-10-21T14:05:44Z</time>
      </trkpt>
      <trkpt lat="45.28993" lon="5.89007">
        <ele>238</ele>
        <time>2017-10-21T14:05:45Z</time>
      </trkpt>
      <trkpt lat="45.28988" lon="5.89001">
        <ele>238</ele>
        <time>2017-10-21T14:05:46Z</time>
      </trkpt>
      <trkpt lat="45.28983" lon="5.88996">
        <ele>238</ele>
        <time>2017-10-21T14:05:47Z</time>
      </trkpt>
      <trkpt lat="45.28976" lon="5.88991">
        <ele>238</ele>
        <time>2017-10-21T14:05:48Z</time>
      </trkpt>
      <trkpt lat="45.28971" lon="5.88986">
        <ele>238</ele>
        <time>2017-10-21T14:05:49Z</time>
      </trkpt>
      <trkpt lat="45.28966" lon="5.88982">
        <ele>238</ele>
        <time>2017-10-21T14:05:50Z</time>
      </trkpt>
      <trkpt lat="45.2896" lon="5.88978">
        <ele>238</ele>
        <time>2017-10-21T14:05:51Z</time>
      </trkpt>
      <trkpt lat="45.28955" lon="5.88974">
        <ele>238</ele>
        <time>2017-10-21T14:05:52Z</time>
      </trkpt>
      <trkpt lat="45.2895" lon="5.88969">
        <ele>238</ele>
        <time>2017-10-21T14:05:53Z</time>
      </trkpt>
      <trkpt lat="45.28945" lon="5.88965">
        <ele>238</ele>
        <time>2017-10-21T14:05:54Z</time>
      </trkpt>
      <trkpt lat="45.28936" lon="5.88956">
        <ele>239</ele>
        <time>2017-10-21T14:05:56Z</time>
      </trkpt>
      <trkpt lat="45.28932" lon="5.88952">
        <ele>239</ele>
        <time>2017-10-21T14:05:57Z</time>
      </trkpt>
      <trkpt lat="45.28927" lon="5.88946">
        <ele>239</ele>
        <time>2017-10-21T14:05:59Z</time>
      </trkpt>
      <trkpt lat="45.28922" lon="5.8894">
        <ele>239</ele>
        <time>2017-10-21T14:06:01Z</time>
      </trkpt>
      <trkpt lat="45.28917" lon="5.88934">
        <ele>239</ele>
        <time>2017-10-21T14:06:04Z</time>
      </trkpt>
      <trkpt lat="45.28912" lon="5.88939">
        <ele>239</ele>
        <time>2017-10-21T14:06:06Z</time>
      </trkpt>
      <trkpt lat="45.28912" lon="5.88947">
        <ele>239</ele>
        <time>2017-10-21T14:06:08Z</time>
      </trkpt>
      <trkpt lat="45.28914" lon="5.88958">
        <ele>239</ele>
        <time>2017-10-21T14:06:10Z</time>
      </trkpt>
      <trkpt lat="45.28917" lon="5.88964">
        <ele>239</ele>
        <time>2017-10-21T14:06:24Z</time>
      </trkpt>
      <trkpt lat="45.2892" lon="5.88974">
        <ele>238</ele>
        <time>2017-10-21T14:06:26Z</time>
      </trkpt>
      <trkpt lat="45.28923" lon="5.88984">
        <ele>238</ele>
        <time>2017-10-21T14:06:28Z</time>
      </trkpt>
      <trkpt lat="45.28924" lon="5.8899">
        <ele>238</ele>
        <time>2017-10-21T14:06:29Z</time>
      </trkpt>
      <trkpt lat="45.28927" lon="5.89003">
        <ele>238</ele>
        <time>2017-10-21T14:06:31Z</time>
      </trkpt>
      <trkpt lat="45.2893" lon="5.89013">
        <ele>237</ele>
        <time>2017-10-21T14:06:32Z</time>
      </trkpt>
      <trkpt lat="45.28931" lon="5.8902">
        <ele>237</ele>
        <time>2017-10-21T14:06:33Z</time>
      </trkpt>
      <trkpt lat="45.28931" lon="5.89028">
        <ele>237</ele>
        <time>2017-10-21T14:06:34Z</time>
      </trkpt>
      <trkpt lat="45.28933" lon="5.89039">
        <ele>237</ele>
        <time>2017-10-21T14:06:36Z</time>
      </trkpt>
      <trkpt lat="45.28933" lon="5.89052">
        <ele>237</ele>
        <time>2017-10-21T14:06:38Z</time>
      </trkpt>
      <trkpt lat="45.28933" lon="5.89061">
        <ele>236</ele>
        <time>2017-10-21T14:06:39Z</time>
      </trkpt>
      <trkpt lat="45.28938" lon="5.8907">
        <ele>236</ele>
        <time>2017-10-21T14:06:40Z</time>
      </trkpt>
      <trkpt lat="45.28944" lon="5.89079">
        <ele>236</ele>
        <time>2017-10-21T14:06:41Z</time>
      </trkpt>
      <trkpt lat="45.28946" lon="5.89089">
        <ele>236</ele>
        <time>2017-10-21T14:06:42Z</time>
      </trkpt>
      <trkpt lat="45.2895" lon="5.89097">
        <ele>236</ele>
        <time>2017-10-21T14:06:43Z</time>
      </trkpt>
      <trkpt lat="45.28949" lon="5.89105">
        <ele>235</ele>
        <time>2017-10-21T14:06:44Z</time>
      </trkpt>
      <trkpt lat="45.28956" lon="5.8911">
        <ele>235</ele>
        <time>2017-10-21T14:06:45Z</time>
      </trkpt>
      <trkpt lat="45.28962" lon="5.89112">
        <ele>235</ele>
        <time>2017-10-21T14:06:46Z</time>
      </trkpt>
      <trkpt lat="45.28963" lon="5.8912">
        <ele>235</ele>
        <time>2017-10-21T14:06:47Z</time>
      </trkpt>
      <trkpt lat="45.28967" lon="5.89126">
        <ele>235</ele>
        <time>2017-10-21T14:06:48Z</time>
      </trkpt>
      <trkpt lat="45.28972" lon="5.89132">
        <ele>235</ele>
        <time>2017-10-21T14:06:49Z</time>
      </trkpt>
      <trkpt lat="45.28976" lon="5.8914">
        <ele>235</ele>
        <time>2017-10-21T14:06:50Z</time>
      </trkpt>
      <trkpt lat="45.28979" lon="5.89147">
        <ele>234</ele>
        <time>2017-10-21T14:06:51Z</time>
      </trkpt>
      <trkpt lat="45.28982" lon="5.89153">
        <ele>234</ele>
        <time>2017-10-21T14:06:52Z</time>
      </trkpt>
      <trkpt lat="45.28985" lon="5.8916">
        <ele>234</ele>
        <time>2017-10-21T14:06:53Z</time>
      </trkpt>
      <trkpt lat="45.28988" lon="5.89165">
        <ele>234</ele>
        <time>2017-10-21T14:06:54Z</time>
      </trkpt>
      <trkpt lat="45.28994" lon="5.89178">
        <ele>234</ele>
        <time>2017-10-21T14:06:56Z</time>
      </trkpt>
      <trkpt lat="45.28997" lon="5.89184">
        <ele>234</ele>
        <time>2017-10-21T14:06:57Z</time>
      </trkpt>
      <trkpt lat="45.29" lon="5.89191">
        <ele>234</ele>
        <time>2017-10-21T14:06:58Z</time>
      </trkpt>
      <trkpt lat="45.29004" lon="5.89196">
        <ele>234</ele>
        <time>2017-10-21T14:06:59Z</time>
      </trkpt>
      <trkpt lat="45.29008" lon="5.89202">
        <ele>234</ele>
        <time>2017-10-21T14:07:00Z</time>
      </trkpt>
      <trkpt lat="45.29015" lon="5.89214">
        <ele>234</ele>
        <time>2017-10-21T14:07:02Z</time>
      </trkpt>
      <trkpt lat="45.29018" lon="5.89222">
        <ele>234</ele>
        <time>2017-10-21T14:07:03Z</time>
      </trkpt>
      <trkpt lat="45.2902" lon="5.89229">
        <ele>234</ele>
        <time>2017-10-21T14:07:04Z</time>
      </trkpt>
      <trkpt lat="45.29026" lon="5.89243">
        <ele>233</ele>
        <time>2017-10-21T14:07:06Z</time>
      </trkpt>
      <trkpt lat="45.29029" lon="5.89251">
        <ele>233</ele>
        <time>2017-10-21T14:07:07Z</time>
      </trkpt>
      <trkpt lat="45.2903" lon="5.89258">
        <ele>233</ele>
        <time>2017-10-21T14:07:08Z</time>
      </trkpt>
      <trkpt lat="45.2903" lon="5.89267">
        <ele>233</ele>
        <time>2017-10-21T14:07:09Z</time>
      </trkpt>
      <trkpt lat="45.29031" lon="5.89275">
        <ele>233</ele>
        <time>2017-10-21T14:07:10Z</time>
      </trkpt>
      <trkpt lat="45.29034" lon="5.89283">
        <ele>232</ele>
        <time>2017-10-21T14:07:11Z</time>
      </trkpt>
      <trkpt lat="45.29036" lon="5.89298">
        <ele>232</ele>
        <time>2017-10-21T14:07:13Z</time>
      </trkpt>
      <trkpt lat="45.29038" lon="5.89305">
        <ele>232</ele>
        <time>2017-10-21T14:07:14Z</time>
      </trkpt>
      <trkpt lat="45.29033" lon="5.89309">
        <ele>232</ele>
        <time>2017-10-21T14:07:15Z</time>
      </trkpt>
      <trkpt lat="45.29023" lon="5.89315">
        <ele>231</ele>
        <time>2017-10-21T14:07:17Z</time>
      </trkpt>
      <trkpt lat="45.29019" lon="5.89318">
        <ele>231</ele>
        <time>2017-10-21T14:07:18Z</time>
      </trkpt>
      <trkpt lat="45.29013" lon="5.89318">
        <ele>231</ele>
        <time>2017-10-21T14:07:19Z</time>
      </trkpt>
      <trkpt lat="45.29007" lon="5.89319">
        <ele>231</ele>
        <time>2017-10-21T14:07:20Z</time>
      </trkpt>
      <trkpt lat="45.29002" lon="5.89317">
        <ele>231</ele>
        <time>2017-10-21T14:07:21Z</time>
      </trkpt>
      <trkpt lat="45.28997" lon="5.89316">
        <ele>231</ele>
        <time>2017-10-21T14:07:22Z</time>
      </trkpt>
      <trkpt lat="45.28989" lon="5.89313">
        <ele>232</ele>
        <time>2017-10-21T14:07:24Z</time>
      </trkpt>
      <trkpt lat="45.28981" lon="5.89311">
        <ele>232</ele>
        <time>2017-10-21T14:07:26Z</time>
      </trkpt>
      <trkpt lat="45.28974" lon="5.8931">
        <ele>232</ele>
        <time>2017-10-21T14:07:28Z</time>
      </trkpt>
      <trkpt lat="45.28968" lon="5.8931">
        <ele>232</ele>
        <time>2017-10-21T14:07:29Z</time>
      </trkpt>
      <trkpt lat="45.28964" lon="5.89308">
        <ele>232</ele>
        <time>2017-10-21T14:07:30Z</time>
      </trkpt>
      <trkpt lat="45.28955" lon="5.89304">
        <ele>232</ele>
        <time>2017-10-21T14:07:32Z</time>
      </trkpt>
      <trkpt lat="45.28951" lon="5.89299">
        <ele>232</ele>
        <time>2017-10-21T14:07:33Z</time>
      </trkpt>
      <trkpt lat="45.28947" lon="5.89295">
        <ele>232</ele>
        <time>2017-10-21T14:07:34Z</time>
      </trkpt>
      <trkpt lat="45.28943" lon="5.89286">
        <ele>232</ele>
        <time>2017-10-21T14:07:36Z</time>
      </trkpt>
      <trkpt lat="45.28938" lon="5.89279">
        <ele>233</ele>
        <time>2017-10-21T14:07:38Z</time>
      </trkpt>
      <trkpt lat="45.28935" lon="5.89288">
        <ele>232</ele>
        <time>2017-10-21T14:07:42Z</time>
      </trkpt>
      <trkpt lat="45.2893" lon="5.89294">
        <ele>232</ele>
        <time>2017-10-21T14:07:44Z</time>
      </trkpt>
      <trkpt lat="45.28925" lon="5.89302">
        <ele>232</ele>
        <time>2017-10-21T14:07:46Z</time>
      </trkpt>
      <trkpt lat="45.28919" lon="5.8931">
        <ele>232</ele>
        <time>2017-10-21T14:07:48Z</time>
      </trkpt>
      <trkpt lat="45.28914" lon="5.89316">
        <ele>232</ele>
        <time>2017-10-21T14:07:50Z</time>
      </trkpt>
      <trkpt lat="45.28909" lon="5.8932">
        <ele>232</ele>
        <time>2017-10-21T14:07:56Z</time>
      </trkpt>
      <trkpt lat="45.28905" lon="5.89326">
        <ele>232</ele>
        <time>2017-10-21T14:07:58Z</time>
      </trkpt>
      <trkpt lat="45.28899" lon="5.89332">
        <ele>232</ele>
        <time>2017-10-21T14:08:00Z</time>
      </trkpt>
      <trkpt lat="45.28894" lon="5.89339">
        <ele>232</ele>
        <time>2017-10-21T14:08:02Z</time>
      </trkpt>
      <trkpt lat="45.28892" lon="5.89348">
        <ele>232</ele>
        <time>2017-10-21T14:08:04Z</time>
      </trkpt>
      <trkpt lat="45.28893" lon="5.89356">
        <ele>232</ele>
        <time>2017-10-21T14:08:06Z</time>
      </trkpt>
      <trkpt lat="45.28894" lon="5.89363">
        <ele>231</ele>
        <time>2017-10-21T14:08:11Z</time>
      </trkpt>
      <trkpt lat="45.28892" lon="5.89371">
        <ele>231</ele>
        <time>2017-10-21T14:08:14Z</time>
      </trkpt>
      <trkpt lat="45.28885" lon="5.89373">
        <ele>231</ele>
        <time>2017-10-21T14:08:16Z</time>
      </trkpt>
      <trkpt lat="45.28877" lon="5.89372">
        <ele>232</ele>
        <time>2017-10-21T14:08:18Z</time>
      </trkpt>
      <trkpt lat="45.28868" lon="5.89371">
        <ele>232</ele>
        <time>2017-10-21T14:08:20Z</time>
      </trkpt>
      <trkpt lat="45.28863" lon="5.89371">
        <ele>232</ele>
        <time>2017-10-21T14:08:21Z</time>
      </trkpt>
      <trkpt lat="45.28852" lon="5.8937">
        <ele>232</ele>
        <time>2017-10-21T14:08:23Z</time>
      </trkpt>
      <trkpt lat="45.28847" lon="5.8937">
        <ele>232</ele>
        <time>2017-10-21T14:08:24Z</time>
      </trkpt>
      <trkpt lat="45.28841" lon="5.89371">
        <ele>232</ele>
        <time>2017-10-21T14:08:25Z</time>
      </trkpt>
      <trkpt lat="45.28832" lon="5.89369">
        <ele>232</ele>
        <time>2017-10-21T14:08:27Z</time>
      </trkpt>
      <trkpt lat="45.28822" lon="5.89372">
        <ele>232</ele>
        <time>2017-10-21T14:08:29Z</time>
      </trkpt>
      <trkpt lat="45.28811" lon="5.89372">
        <ele>232</ele>
        <time>2017-10-21T14:08:31Z</time>
      </trkpt>
      <trkpt lat="45.28806" lon="5.89371">
        <ele>232</ele>
        <time>2017-10-21T14:08:32Z</time>
      </trkpt>
      <trkpt lat="45.28798" lon="5.8937">
        <ele>232</ele>
        <time>2017-10-21T14:08:34Z</time>
      </trkpt>
      <trkpt lat="45.28793" lon="5.8937">
        <ele>232</ele>
        <time>2017-10-21T14:08:35Z</time>
      </trkpt>
      <trkpt lat="45.28788" lon="5.89371">
        <ele>232</ele>
        <time>2017-10-21T14:08:36Z</time>
      </trkpt>
      <trkpt lat="45.28782" lon="5.8937">
        <ele>232</ele>
        <time>2017-10-21T14:08:37Z</time>
      </trkpt>
      <trkpt lat="45.28777" lon="5.89372">
        <ele>232</ele>
        <time>2017-10-21T14:08:38Z</time>
      </trkpt>
      <trkpt lat="45.28772" lon="5.89371">
        <ele>232</ele>
        <time>2017-10-21T14:08:39Z</time>
      </trkpt>
      <trkpt lat="45.28762" lon="5.89373">
        <ele>232</ele>
        <time>2017-10-21T14:08:41Z</time>
      </trkpt>
      <trkpt lat="45.28757" lon="5.89373">
        <ele>232</ele>
        <time>2017-10-21T14:08:42Z</time>
      </trkpt>
      <trkpt lat="45.28752" lon="5.89373">
        <ele>232</ele>
        <time>2017-10-21T14:08:43Z</time>
      </trkpt>
      <trkpt lat="45.28747" lon="5.89373">
        <ele>232</ele>
        <time>2017-10-21T14:08:44Z</time>
      </trkpt>
      <trkpt lat="45.28741" lon="5.89373">
        <ele>232</ele>
        <time>2017-10-21T14:08:45Z</time>
      </trkpt>
      <trkpt lat="45.28731" lon="5.89375">
        <ele>232</ele>
        <time>2017-10-21T14:08:47Z</time>
      </trkpt>
      <trkpt lat="45.28726" lon="5.89374">
        <ele>232</ele>
        <time>2017-10-21T14:08:48Z</time>
      </trkpt>
      <trkpt lat="45.28721" lon="5.89374">
        <ele>232</ele>
        <time>2017-10-21T14:08:49Z</time>
      </trkpt>
      <trkpt lat="45.28716" lon="5.89373">
        <ele>232</ele>
        <time>2017-10-21T14:08:50Z</time>
      </trkpt>
      <trkpt lat="45.28708" lon="5.89372">
        <ele>232</ele>
        <time>2017-10-21T14:08:52Z</time>
      </trkpt>
      <trkpt lat="45.287" lon="5.89373">
        <ele>232</ele>
        <time>2017-10-21T14:08:54Z</time>
      </trkpt>
      <trkpt lat="45.28696" lon="5.89381">
        <ele>231</ele>
        <time>2017-10-21T14:08:56Z</time>
      </trkpt>
      <trkpt lat="45.28692" lon="5.89389">
        <ele>231</ele>
        <time>2017-10-21T14:08:58Z</time>
      </trkpt>
      <trkpt lat="45.28689" lon="5.89395">
        <ele>231</ele>
        <time>2017-10-21T14:08:59Z</time>
      </trkpt>
      <trkpt lat="45.28682" lon="5.89405">
        <ele>231</ele>
        <time>2017-10-21T14:09:01Z</time>
      </trkpt>
      <trkpt lat="45.28675" lon="5.89415">
        <ele>231</ele>
        <time>2017-10-21T14:09:03Z</time>
      </trkpt>
      <trkpt lat="45.28671" lon="5.8942">
        <ele>230</ele>
        <time>2017-10-21T14:09:04Z</time>
      </trkpt>
      <trkpt lat="45.28665" lon="5.89429">
        <ele>230</ele>
        <time>2017-10-21T14:09:06Z</time>
      </trkpt>
      <trkpt lat="45.28661" lon="5.89434">
        <ele>230</ele>
        <time>2017-10-21T14:09:07Z</time>
      </trkpt>
      <trkpt lat="45.28659" lon="5.8944">
        <ele>230</ele>
        <time>2017-10-21T14:09:08Z</time>
      </trkpt>
      <trkpt lat="45.28655" lon="5.89446">
        <ele>230</ele>
        <time>2017-10-21T14:09:09Z</time>
      </trkpt>
      <trkpt lat="45.28652" lon="5.89451">
        <ele>230</ele>
        <time>2017-10-21T14:09:10Z</time>
      </trkpt>
      <trkpt lat="45.28649" lon="5.89456">
        <ele>230</ele>
        <time>2017-10-21T14:09:11Z</time>
      </trkpt>
      <trkpt lat="45.28643" lon="5.89466">
        <ele>230</ele>
        <time>2017-10-21T14:09:13Z</time>
      </trkpt>
      <trkpt lat="45.28639" lon="5.89473">
        <ele>230</ele>
        <time>2017-10-21T14:09:14Z</time>
      </trkpt>
      <trkpt lat="45.28629" lon="5.89491">
        <ele>230</ele>
        <time>2017-10-21T14:09:17Z</time>
      </trkpt>
      <trkpt lat="45.28624" lon="5.89503">
        <ele>230</ele>
        <time>2017-10-21T14:09:19Z</time>
      </trkpt>
      <trkpt lat="45.28621" lon="5.89509">
        <ele>230</ele>
        <time>2017-10-21T14:09:20Z</time>
      </trkpt>
      <trkpt lat="45.28617" lon="5.89515">
        <ele>230</ele>
        <time>2017-10-21T14:09:21Z</time>
      </trkpt>
      <trkpt lat="45.28613" lon="5.89521">
        <ele>230</ele>
        <time>2017-10-21T14:09:22Z</time>
      </trkpt>
      <trkpt lat="45.2861" lon="5.89527">
        <ele>230</ele>
        <time>2017-10-21T14:09:23Z</time>
      </trkpt>
      <trkpt lat="45.28606" lon="5.89532">
        <ele>230</ele>
        <time>2017-10-21T14:09:24Z</time>
      </trkpt>
      <trkpt lat="45.28603" lon="5.89538">
        <ele>230</ele>
        <time>2017-10-21T14:09:25Z</time>
      </trkpt>
      <trkpt lat="45.286" lon="5.89543">
        <ele>230</ele>
        <time>2017-10-21T14:09:26Z</time>
      </trkpt>
      <trkpt lat="45.28597" lon="5.89551">
        <ele>230</ele>
        <time>2017-10-21T14:09:27Z</time>
      </trkpt>
      <trkpt lat="45.28593" lon="5.89556">
        <ele>230</ele>
        <time>2017-10-21T14:09:28Z</time>
      </trkpt>
      <trkpt lat="45.2859" lon="5.89562">
        <ele>230</ele>
        <time>2017-10-21T14:09:29Z</time>
      </trkpt>
      <trkpt lat="45.28586" lon="5.89568">
        <ele>230</ele>
        <time>2017-10-21T14:09:30Z</time>
      </trkpt>
      <trkpt lat="45.28583" lon="5.89573">
        <ele>230</ele>
        <time>2017-10-21T14:09:31Z</time>
      </trkpt>
      <trkpt lat="45.28579" lon="5.89579">
        <ele>230</ele>
        <time>2017-10-21T14:09:32Z</time>
      </trkpt>
      <trkpt lat="45.28576" lon="5.89584">
        <ele>230</ele>
        <time>2017-10-21T14:09:33Z</time>
      </trkpt>
      <trkpt lat="45.28573" lon="5.89589">
        <ele>230</ele>
        <time>2017-10-21T14:09:34Z</time>
      </trkpt>
      <trkpt lat="45.28566" lon="5.89601">
        <ele>230</ele>
        <time>2017-10-21T14:09:36Z</time>
      </trkpt>
      <trkpt lat="45.28562" lon="5.89607">
        <ele>230</ele>
        <time>2017-10-21T14:09:37Z</time>
      </trkpt>
      <trkpt lat="45.28558" lon="5.89613">
        <ele>230</ele>
        <time>2017-10-21T14:09:38Z</time>
      </trkpt>
      <trkpt lat="45.28551" lon="5.89624">
        <ele>230</ele>
        <time>2017-10-21T14:09:40Z</time>
      </trkpt>
      <trkpt lat="45.28543" lon="5.89634">
        <ele>230</ele>
        <time>2017-10-21T14:09:42Z</time>
      </trkpt>
      <trkpt lat="45.2854" lon="5.89641">
        <ele>230</ele>
        <time>2017-10-21T14:09:43Z</time>
      </trkpt>
      <trkpt lat="45.28535" lon="5.89657">
        <ele>230</ele>
        <time>2017-10-21T14:09:45Z</time>
      </trkpt>
      <trkpt lat="45.2853" lon="5.89662">
        <ele>230</ele>
        <time>2017-10-21T14:09:46Z</time>
      </trkpt>
      <trkpt lat="45.28526" lon="5.89666">
        <ele>230</ele>
        <time>2017-10-21T14:09:47Z</time>
      </trkpt>
      <trkpt lat="45.28521" lon="5.8967">
        <ele>230</ele>
        <time>2017-10-21T14:09:48Z</time>
      </trkpt>
      <trkpt lat="45.2852" lon="5.89679">
        <ele>230</ele>
        <time>2017-10-21T14:09:49Z</time>
      </trkpt>
      <trkpt lat="45.28514" lon="5.89692">
        <ele>230</ele>
        <time>2017-10-21T14:09:51Z</time>
      </trkpt>
      <trkpt lat="45.28511" lon="5.89697">
        <ele>230</ele>
        <time>2017-10-21T14:09:52Z</time>
      </trkpt>
      <trkpt lat="45.28507" lon="5.89703">
        <ele>230</ele>
        <time>2017-10-21T14:09:53Z</time>
      </trkpt>
      <trkpt lat="45.28502" lon="5.89709">
        <ele>230</ele>
        <time>2017-10-21T14:09:54Z</time>
      </trkpt>
      <trkpt lat="45.28498" lon="5.89716">
        <ele>230</ele>
        <time>2017-10-21T14:09:55Z</time>
      </trkpt>
      <trkpt lat="45.28494" lon="5.89722">
        <ele>230</ele>
        <time>2017-10-21T14:09:56Z</time>
      </trkpt>
      <trkpt lat="45.28488" lon="5.89728">
        <ele>230</ele>
        <time>2017-10-21T14:09:57Z</time>
      </trkpt>
      <trkpt lat="45.2848" lon="5.89739">
        <ele>230</ele>
        <time>2017-10-21T14:09:59Z</time>
      </trkpt>
      <trkpt lat="45.28476" lon="5.89745">
        <ele>230</ele>
        <time>2017-10-21T14:10:00Z</time>
      </trkpt>
      <trkpt lat="45.28468" lon="5.89757">
        <ele>230</ele>
        <time>2017-10-21T14:10:02Z</time>
      </trkpt>
      <trkpt lat="45.28463" lon="5.89763">
        <ele>230</ele>
        <time>2017-10-21T14:10:03Z</time>
      </trkpt>
      <trkpt lat="45.2846" lon="5.89769">
        <ele>230</ele>
        <time>2017-10-21T14:10:04Z</time>
      </trkpt>
      <trkpt lat="45.28456" lon="5.89775">
        <ele>230</ele>
        <time>2017-10-21T14:10:05Z</time>
      </trkpt>
      <trkpt lat="45.28453" lon="5.89781">
        <ele>230</ele>
        <time>2017-10-21T14:10:06Z</time>
      </trkpt>
      <trkpt lat="45.2845" lon="5.89787">
        <ele>230</ele>
        <time>2017-10-21T14:10:07Z</time>
      </trkpt>
      <trkpt lat="45.28447" lon="5.89793">
        <ele>230</ele>
        <time>2017-10-21T14:10:08Z</time>
      </trkpt>
      <trkpt lat="45.28444" lon="5.89798">
        <ele>230</ele>
        <time>2017-10-21T14:10:09Z</time>
      </trkpt>
      <trkpt lat="45.28441" lon="5.89803">
        <ele>230</ele>
        <time>2017-10-21T14:10:10Z</time>
      </trkpt>
      <trkpt lat="45.28437" lon="5.89808">
        <ele>230</ele>
        <time>2017-10-21T14:10:11Z</time>
      </trkpt>
      <trkpt lat="45.28428" lon="5.89812">
        <ele>230</ele>
        <time>2017-10-21T14:10:13Z</time>
      </trkpt>
      <trkpt lat="45.2842" lon="5.89806">
        <ele>230</ele>
        <time>2017-10-21T14:10:15Z</time>
      </trkpt>
      <trkpt lat="45.28416" lon="5.89802">
        <ele>230</ele>
        <time>2017-10-21T14:10:16Z</time>
      </trkpt>
      <trkpt lat="45.28412" lon="5.89797">
        <ele>230</ele>
        <time>2017-10-21T14:10:17Z</time>
      </trkpt>
      <trkpt lat="45.28407" lon="5.89792">
        <ele>230</ele>
        <time>2017-10-21T14:10:18Z</time>
      </trkpt>
      <trkpt lat="45.28397" lon="5.89784">
        <ele>230</ele>
        <time>2017-10-21T14:10:20Z</time>
      </trkpt>
      <trkpt lat="45.28391" lon="5.8978">
        <ele>230</ele>
        <time>2017-10-21T14:10:21Z</time>
      </trkpt>
      <trkpt lat="45.28382" lon="5.89771">
        <ele>230</ele>
        <time>2017-10-21T14:10:23Z</time>
      </trkpt>
      <trkpt lat="45.28378" lon="5.89766">
        <ele>230</ele>
        <time>2017-10-21T14:10:24Z</time>
      </trkpt>
      <trkpt lat="45.28373" lon="5.89762">
        <ele>230</ele>
        <time>2017-10-21T14:10:25Z</time>
      </trkpt>
      <trkpt lat="45.28369" lon="5.89757">
        <ele>230</ele>
        <time>2017-10-21T14:10:26Z</time>
      </trkpt>
      <trkpt lat="45.28364" lon="5.89753">
        <ele>230</ele>
        <time>2017-10-21T14:10:27Z</time>
      </trkpt>
      <trkpt lat="45.28359" lon="5.89749">
        <ele>230</ele>
        <time>2017-10-21T14:10:28Z</time>
      </trkpt>
      <trkpt lat="45.28354" lon="5.89745">
        <ele>230</ele>
        <time>2017-10-21T14:10:29Z</time>
      </trkpt>
      <trkpt lat="45.28348" lon="5.89742">
        <ele>230</ele>
        <time>2017-10-21T14:10:30Z</time>
      </trkpt>
      <trkpt lat="45.28343" lon="5.89737">
        <ele>230</ele>
        <time>2017-10-21T14:10:31Z</time>
      </trkpt>
      <trkpt lat="45.28339" lon="5.89734">
        <ele>230</ele>
        <time>2017-10-21T14:10:32Z</time>
      </trkpt>
      <trkpt lat="45.28335" lon="5.89729">
        <ele>230</ele>
        <time>2017-10-21T14:10:33Z</time>
      </trkpt>
      <trkpt lat="45.2833" lon="5.89724">
        <ele>230</ele>
        <time>2017-10-21T14:10:34Z</time>
      </trkpt>
      <trkpt lat="45.28325" lon="5.89721">
        <ele>230</ele>
        <time>2017-10-21T14:10:35Z</time>
      </trkpt>
      <trkpt lat="45.28321" lon="5.89716">
        <ele>230</ele>
        <time>2017-10-21T14:10:36Z</time>
      </trkpt>
      <trkpt lat="45.28315" lon="5.89711">
        <ele>230</ele>
        <time>2017-10-21T14:10:37Z</time>
      </trkpt>
      <trkpt lat="45.28311" lon="5.89707">
        <ele>230</ele>
        <time>2017-10-21T14:10:38Z</time>
      </trkpt>
      <trkpt lat="45.28307" lon="5.89702">
        <ele>230</ele>
        <time>2017-10-21T14:10:39Z</time>
      </trkpt>
      <trkpt lat="45.28301" lon="5.89698">
        <ele>230</ele>
        <time>2017-10-21T14:10:40Z</time>
      </trkpt>
      <trkpt lat="45.28297" lon="5.89694">
        <ele>230</ele>
        <time>2017-10-21T14:10:41Z</time>
      </trkpt>
      <trkpt lat="45.28292" lon="5.8969">
        <ele>230</ele>
        <time>2017-10-21T14:10:42Z</time>
      </trkpt>
      <trkpt lat="45.28288" lon="5.89686">
        <ele>230</ele>
        <time>2017-10-21T14:10:43Z</time>
      </trkpt>
      <trkpt lat="45.28283" lon="5.89682">
        <ele>230</ele>
        <time>2017-10-21T14:10:44Z</time>
      </trkpt>
      <trkpt lat="45.28279" lon="5.89676">
        <ele>230</ele>
        <time>2017-10-21T14:10:45Z</time>
      </trkpt>
      <trkpt lat="45.28275" lon="5.89673">
        <ele>230</ele>
        <time>2017-10-21T14:10:46Z</time>
      </trkpt>
      <trkpt lat="45.2827" lon="5.89668">
        <ele>230</ele>
        <time>2017-10-21T14:10:47Z</time>
      </trkpt>
      <trkpt lat="45.28265" lon="5.89665">
        <ele>230</ele>
        <time>2017-10-21T14:10:48Z</time>
      </trkpt>
      <trkpt lat="45.2826" lon="5.8966">
        <ele>230</ele>
        <time>2017-10-21T14:10:49Z</time>
      </trkpt>
      <trkpt lat="45.28255" lon="5.89656">
        <ele>230</ele>
        <time>2017-10-21T14:10:50Z</time>
      </trkpt>
      <trkpt lat="45.28247" lon="5.89649">
        <ele>230</ele>
        <time>2017-10-21T14:10:52Z</time>
      </trkpt>
      <trkpt lat="45.28243" lon="5.89643">
        <ele>230</ele>
        <time>2017-10-21T14:10:53Z</time>
      </trkpt>
      <trkpt lat="45.28238" lon="5.89639">
        <ele>230</ele>
        <time>2017-10-21T14:10:54Z</time>
      </trkpt>
      <trkpt lat="45.28233" lon="5.89634">
        <ele>230</ele>
        <time>2017-10-21T14:10:55Z</time>
      </trkpt>
      <trkpt lat="45.28228" lon="5.8963">
        <ele>230</ele>
        <time>2017-10-21T14:10:56Z</time>
      </trkpt>
      <trkpt lat="45.28222" lon="5.89626">
        <ele>230</ele>
        <time>2017-10-21T14:10:57Z</time>
      </trkpt>
      <trkpt lat="45.28217" lon="5.89621">
        <ele>230</ele>
        <time>2017-10-21T14:10:58Z</time>
      </trkpt>
      <trkpt lat="45.28213" lon="5.89617">
        <ele>230</ele>
        <time>2017-10-21T14:10:59Z</time>
      </trkpt>
      <trkpt lat="45.28208" lon="5.89612">
        <ele>230</ele>
        <time>2017-10-21T14:11:00Z</time>
      </trkpt>
      <trkpt lat="45.28203" lon="5.89608">
        <ele>230</ele>
        <time>2017-10-21T14:11:01Z</time>
      </trkpt>
      <trkpt lat="45.28198" lon="5.89605">
        <ele>230</ele>
        <time>2017-10-21T14:11:02Z</time>
      </trkpt>
      <trkpt lat="45.28193" lon="5.89601">
        <ele>230</ele>
        <time>2017-10-21T14:11:03Z</time>
      </trkpt>
      <trkpt lat="45.28185" lon="5.89593">
        <ele>230</ele>
        <time>2017-10-21T14:11:05Z</time>
      </trkpt>
      <trkpt lat="45.2818" lon="5.89588">
        <ele>230</ele>
        <time>2017-10-21T14:11:06Z</time>
      </trkpt>
      <trkpt lat="45.28175" lon="5.89584">
        <ele>230</ele>
        <time>2017-10-21T14:11:07Z</time>
      </trkpt>
      <trkpt lat="45.2817" lon="5.89581">
        <ele>230</ele>
        <time>2017-10-21T14:11:08Z</time>
      </trkpt>
      <trkpt lat="45.28165" lon="5.89577">
        <ele>230</ele>
        <time>2017-10-21T14:11:09Z</time>
      </trkpt>
      <trkpt lat="45.28161" lon="5.89573">
        <ele>230</ele>
        <time>2017-10-21T14:11:10Z</time>
      </trkpt>
      <trkpt lat="45.28156" lon="5.89569">
        <ele>230</ele>
        <time>2017-10-21T14:11:11Z</time>
      </trkpt>
      <trkpt lat="45.28152" lon="5.89564">
        <ele>230</ele>
        <time>2017-10-21T14:11:12Z</time>
      </trkpt>
      <trkpt lat="45.28149" lon="5.8956">
        <ele>230</ele>
        <time>2017-10-21T14:11:13Z</time>
      </trkpt>
      <trkpt lat="45.28144" lon="5.89556">
        <ele>230</ele>
        <time>2017-10-21T14:11:14Z</time>
      </trkpt>
      <trkpt lat="45.2814" lon="5.89551">
        <ele>230</ele>
        <time>2017-10-21T14:11:15Z</time>
      </trkpt>
      <trkpt lat="45.28136" lon="5.89546">
        <ele>230</ele>
        <time>2017-10-21T14:11:16Z</time>
      </trkpt>
      <trkpt lat="45.28131" lon="5.89541">
        <ele>230</ele>
        <time>2017-10-21T14:11:17Z</time>
      </trkpt>
      <trkpt lat="45.28127" lon="5.89538">
        <ele>230</ele>
        <time>2017-10-21T14:11:18Z</time>
      </trkpt>
      <trkpt lat="45.28122" lon="5.89534">
        <ele>230</ele>
        <time>2017-10-21T14:11:19Z</time>
      </trkpt>
      <trkpt lat="45.28118" lon="5.89529">
        <ele>230</ele>
        <time>2017-10-21T14:11:20Z</time>
      </trkpt>
      <trkpt lat="45.28114" lon="5.89525">
        <ele>230</ele>
        <time>2017-10-21T14:11:21Z</time>
      </trkpt>
      <trkpt lat="45.28109" lon="5.89521">
        <ele>230</ele>
        <time>2017-10-21T14:11:22Z</time>
      </trkpt>
      <trkpt lat="45.28101" lon="5.89511">
        <ele>230</ele>
        <time>2017-10-21T14:11:24Z</time>
      </trkpt>
      <trkpt lat="45.28097" lon="5.89507">
        <ele>230</ele>
        <time>2017-10-21T14:11:25Z</time>
      </trkpt>
      <trkpt lat="45.28093" lon="5.89502">
        <ele>230</ele>
        <time>2017-10-21T14:11:26Z</time>
      </trkpt>
      <trkpt lat="45.28088" lon="5.89497">
        <ele>230</ele>
        <time>2017-10-21T14:11:27Z</time>
      </trkpt>
      <trkpt lat="45.28082" lon="5.89488">
        <ele>230</ele>
        <time>2017-10-21T14:11:29Z</time>
      </trkpt>
      <trkpt lat="45.28076" lon="5.89483">
        <ele>230</ele>
        <time>2017-10-21T14:11:30Z</time>
      </trkpt>
      <trkpt lat="45.28069" lon="5.89474">
        <ele>230</ele>
        <time>2017-10-21T14:11:32Z</time>
      </trkpt>
      <trkpt lat="45.28065" lon="5.8947">
        <ele>230</ele>
        <time>2017-10-21T14:11:33Z</time>
      </trkpt>
      <trkpt lat="45.28057" lon="5.89462">
        <ele>230</ele>
        <time>2017-10-21T14:11:35Z</time>
      </trkpt>
      <trkpt lat="45.2805" lon="5.89453">
        <ele>230</ele>
        <time>2017-10-21T14:11:37Z</time>
      </trkpt>
      <trkpt lat="45.28045" lon="5.89448">
        <ele>230</ele>
        <time>2017-10-21T14:11:38Z</time>
      </trkpt>
      <trkpt lat="45.28041" lon="5.89444">
        <ele>230</ele>
        <time>2017-10-21T14:11:39Z</time>
      </trkpt>
      <trkpt lat="45.28037" lon="5.89441">
        <ele>230</ele>
        <time>2017-10-21T14:11:40Z</time>
      </trkpt>
      <trkpt lat="45.28032" lon="5.89435">
        <ele>230</ele>
        <time>2017-10-21T14:11:41Z</time>
      </trkpt>
      <trkpt lat="45.28024" lon="5.89428">
        <ele>230</ele>
        <time>2017-10-21T14:11:43Z</time>
      </trkpt>
      <trkpt lat="45.2802" lon="5.89424">
        <ele>230</ele>
        <time>2017-10-21T14:11:44Z</time>
      </trkpt>
      <trkpt lat="45.28016" lon="5.89419">
        <ele>230</ele>
        <time>2017-10-21T14:11:45Z</time>
      </trkpt>
      <trkpt lat="45.28011" lon="5.89415">
        <ele>230</ele>
        <time>2017-10-21T14:11:46Z</time>
      </trkpt>
      <trkpt lat="45.28002" lon="5.8941">
        <ele>230</ele>
        <time>2017-10-21T14:11:48Z</time>
      </trkpt>
      <trkpt lat="45.27997" lon="5.89409">
        <ele>230</ele>
        <time>2017-10-21T14:11:49Z</time>
      </trkpt>
      <trkpt lat="45.27992" lon="5.8941">
        <ele>230</ele>
        <time>2017-10-21T14:11:50Z</time>
      </trkpt>
      <trkpt lat="45.27987" lon="5.89412">
        <ele>230</ele>
        <time>2017-10-21T14:11:51Z</time>
      </trkpt>
      <trkpt lat="45.27982" lon="5.89416">
        <ele>230</ele>
        <time>2017-10-21T14:11:52Z</time>
      </trkpt>
      <trkpt lat="45.27978" lon="5.89421">
        <ele>230</ele>
        <time>2017-10-21T14:11:53Z</time>
      </trkpt>
      <trkpt lat="45.27974" lon="5.89425">
        <ele>230</ele>
        <time>2017-10-21T14:11:54Z</time>
      </trkpt>
      <trkpt lat="45.27969" lon="5.8943">
        <ele>230</ele>
        <time>2017-10-21T14:11:55Z</time>
      </trkpt>
      <trkpt lat="45.27965" lon="5.89434">
        <ele>230</ele>
        <time>2017-10-21T14:11:56Z</time>
      </trkpt>
      <trkpt lat="45.27959" lon="5.89439">
        <ele>230</ele>
        <time>2017-10-21T14:11:57Z</time>
      </trkpt>
      <trkpt lat="45.27954" lon="5.89443">
        <ele>230</ele>
        <time>2017-10-21T14:11:58Z</time>
      </trkpt>
      <trkpt lat="45.27949" lon="5.89448">
        <ele>230</ele>
        <time>2017-10-21T14:11:59Z</time>
      </trkpt>
      <trkpt lat="45.27944" lon="5.89452">
        <ele>230</ele>
        <time>2017-10-21T14:12:00Z</time>
      </trkpt>
      <trkpt lat="45.27939" lon="5.89456">
        <ele>230</ele>
        <time>2017-10-21T14:12:01Z</time>
      </trkpt>
      <trkpt lat="45.27935" lon="5.89461">
        <ele>230</ele>
        <time>2017-10-21T14:12:02Z</time>
      </trkpt>
      <trkpt lat="45.27927" lon="5.8947">
        <ele>230</ele>
        <time>2017-10-21T14:12:04Z</time>
      </trkpt>
      <trkpt lat="45.27919" lon="5.89475">
        <ele>230</ele>
        <time>2017-10-21T14:12:06Z</time>
      </trkpt>
      <trkpt lat="45.27915" lon="5.89481">
        <ele>230</ele>
        <time>2017-10-21T14:12:07Z</time>
      </trkpt>
      <trkpt lat="45.27905" lon="5.8949">
        <ele>230</ele>
        <time>2017-10-21T14:12:09Z</time>
      </trkpt>
      <trkpt lat="45.27901" lon="5.89496">
        <ele>230</ele>
        <time>2017-10-21T14:12:10Z</time>
      </trkpt>
      <trkpt lat="45.27893" lon="5.89506">
        <ele>230</ele>
        <time>2017-10-21T14:12:12Z</time>
      </trkpt>
      <trkpt lat="45.27887" lon="5.89508">
        <ele>230</ele>
        <time>2017-10-21T14:12:13Z</time>
      </trkpt>
      <trkpt lat="45.27882" lon="5.89508">
        <ele>230</ele>
        <time>2017-10-21T14:12:14Z</time>
      </trkpt>
      <trkpt lat="45.27878" lon="5.89503">
        <ele>230</ele>
        <time>2017-10-21T14:12:15Z</time>
      </trkpt>
      <trkpt lat="45.27872" lon="5.89497">
        <ele>230</ele>
        <time>2017-10-21T14:12:17Z</time>
      </trkpt>
      <trkpt lat="45.27869" lon="5.89491">
        <ele>230</ele>
        <time>2017-10-21T14:12:19Z</time>
      </trkpt>
      <trkpt lat="45.27864" lon="5.89486">
        <ele>230</ele>
        <time>2017-10-21T14:12:21Z</time>
      </trkpt>
      <trkpt lat="45.27858" lon="5.89485">
        <ele>230</ele>
        <time>2017-10-21T14:12:23Z</time>
      </trkpt>
      <trkpt lat="45.27849" lon="5.89494">
        <ele>230</ele>
        <time>2017-10-21T14:12:26Z</time>
      </trkpt>
      <trkpt lat="45.27844" lon="5.89501">
        <ele>230</ele>
        <time>2017-10-21T14:12:28Z</time>
      </trkpt>
      <trkpt lat="45.27837" lon="5.89508">
        <ele>230</ele>
        <time>2017-10-21T14:12:30Z</time>
      </trkpt>
      <trkpt lat="45.27833" lon="5.89512">
        <ele>230</ele>
        <time>2017-10-21T14:12:31Z</time>
      </trkpt>
      <trkpt lat="45.27829" lon="5.89515">
        <ele>230</ele>
        <time>2017-10-21T14:12:32Z</time>
      </trkpt>
      <trkpt lat="45.27824" lon="5.8952">
        <ele>230</ele>
        <time>2017-10-21T14:12:33Z</time>
      </trkpt>
      <trkpt lat="45.27819" lon="5.89524">
        <ele>230</ele>
        <time>2017-10-21T14:12:34Z</time>
      </trkpt>
      <trkpt lat="45.27811" lon="5.89531">
        <ele>230</ele>
        <time>2017-10-21T14:12:36Z</time>
      </trkpt>
      <trkpt lat="45.27806" lon="5.89536">
        <ele>230</ele>
        <time>2017-10-21T14:12:37Z</time>
      </trkpt>
      <trkpt lat="45.27802" lon="5.8954">
        <ele>230</ele>
        <time>2017-10-21T14:12:38Z</time>
      </trkpt>
      <trkpt lat="45.27797" lon="5.89545">
        <ele>230</ele>
        <time>2017-10-21T14:12:39Z</time>
      </trkpt>
      <trkpt lat="45.27793" lon="5.89549">
        <ele>230</ele>
        <time>2017-10-21T14:12:40Z</time>
      </trkpt>
      <trkpt lat="45.27788" lon="5.89553">
        <ele>230</ele>
        <time>2017-10-21T14:12:41Z</time>
      </trkpt>
      <trkpt lat="45.27783" lon="5.89558">
        <ele>230</ele>
        <time>2017-10-21T14:12:42Z</time>
      </trkpt>
      <trkpt lat="45.27779" lon="5.89562">
        <ele>230</ele>
        <time>2017-10-21T14:12:43Z</time>
      </trkpt>
      <trkpt lat="45.27775" lon="5.89567">
        <ele>230</ele>
        <time>2017-10-21T14:12:44Z</time>
      </trkpt>
      <trkpt lat="45.27771" lon="5.89571">
        <ele>230</ele>
        <time>2017-10-21T14:12:45Z</time>
      </trkpt>
      <trkpt lat="45.27766" lon="5.89574">
        <ele>230</ele>
        <time>2017-10-21T14:12:46Z</time>
      </trkpt>
      <trkpt lat="45.27755" lon="5.89585">
        <ele>230</ele>
        <time>2017-10-21T14:12:49Z</time>
      </trkpt>
      <trkpt lat="45.2775" lon="5.89589">
        <ele>230</ele>
        <time>2017-10-21T14:12:50Z</time>
      </trkpt>
      <trkpt lat="45.27744" lon="5.89596">
        <ele>230</ele>
        <time>2017-10-21T14:12:52Z</time>
      </trkpt>
      <trkpt lat="45.27739" lon="5.896">
        <ele>230</ele>
        <time>2017-10-21T14:12:53Z</time>
      </trkpt>
      <trkpt lat="45.27735" lon="5.89604">
        <ele>230</ele>
        <time>2017-10-21T14:12:54Z</time>
      </trkpt>
      <trkpt lat="45.27729" lon="5.8961">
        <ele>230</ele>
        <time>2017-10-21T14:12:56Z</time>
      </trkpt>
      <trkpt lat="45.27723" lon="5.89614">
        <ele>230</ele>
        <time>2017-10-21T14:12:57Z</time>
      </trkpt>
      <trkpt lat="45.27717" lon="5.89622">
        <ele>230</ele>
        <time>2017-10-21T14:12:59Z</time>
      </trkpt>
      <trkpt lat="45.2771" lon="5.89625">
        <ele>230</ele>
        <time>2017-10-21T14:13:01Z</time>
      </trkpt>
      <trkpt lat="45.27704" lon="5.89623">
        <ele>230</ele>
        <time>2017-10-21T14:13:02Z</time>
      </trkpt>
      <trkpt lat="45.27701" lon="5.89618">
        <ele>230</ele>
        <time>2017-10-21T14:13:03Z</time>
      </trkpt>
      <trkpt lat="45.27696" lon="5.89606">
        <ele>230</ele>
        <time>2017-10-21T14:13:05Z</time>
      </trkpt>
      <trkpt lat="45.27693" lon="5.896">
        <ele>230</ele>
        <time>2017-10-21T14:13:06Z</time>
      </trkpt>
      <trkpt lat="45.2769" lon="5.89593">
        <ele>230</ele>
        <time>2017-10-21T14:13:07Z</time>
      </trkpt>
      <trkpt lat="45.27687" lon="5.89588">
        <ele>230</ele>
        <time>2017-10-21T14:13:08Z</time>
      </trkpt>
      <trkpt lat="45.27684" lon="5.89582">
        <ele>230</ele>
        <time>2017-10-21T14:13:09Z</time>
      </trkpt>
      <trkpt lat="45.2768" lon="5.89576">
        <ele>230</ele>
        <time>2017-10-21T14:13:10Z</time>
      </trkpt>
      <trkpt lat="45.27677" lon="5.89563">
        <ele>230</ele>
        <time>2017-10-21T14:13:12Z</time>
      </trkpt>
      <trkpt lat="45.27673" lon="5.89556">
        <ele>230</ele>
        <time>2017-10-21T14:13:13Z</time>
      </trkpt>
      <trkpt lat="45.27668" lon="5.89551">
        <ele>230</ele>
        <time>2017-10-21T14:13:14Z</time>
      </trkpt>
      <trkpt lat="45.27663" lon="5.8954">
        <ele>230</ele>
        <time>2017-10-21T14:13:16Z</time>
      </trkpt>
      <trkpt lat="45.27658" lon="5.89529">
        <ele>230</ele>
        <time>2017-10-21T14:13:18Z</time>
      </trkpt>
      <trkpt lat="45.27655" lon="5.89523">
        <ele>230</ele>
        <time>2017-10-21T14:13:19Z</time>
      </trkpt>
      <trkpt lat="45.27652" lon="5.89517">
        <ele>230</ele>
        <time>2017-10-21T14:13:20Z</time>
      </trkpt>
      <trkpt lat="45.27649" lon="5.89511">
        <ele>230</ele>
        <time>2017-10-21T14:13:21Z</time>
      </trkpt>
      <trkpt lat="45.27646" lon="5.89505">
        <ele>230</ele>
        <time>2017-10-21T14:13:22Z</time>
      </trkpt>
      <trkpt lat="45.27642" lon="5.89499">
        <ele>230</ele>
        <time>2017-10-21T14:13:23Z</time>
      </trkpt>
      <trkpt lat="45.27638" lon="5.89488">
        <ele>230</ele>
        <time>2017-10-21T14:13:25Z</time>
      </trkpt>
      <trkpt lat="45.27636" lon="5.89482">
        <ele>230</ele>
        <time>2017-10-21T14:13:26Z</time>
      </trkpt>
      <trkpt lat="45.27632" lon="5.89477">
        <ele>230</ele>
        <time>2017-10-21T14:13:27Z</time>
      </trkpt>
      <trkpt lat="45.27628" lon="5.89469">
        <ele>230</ele>
        <time>2017-10-21T14:13:29Z</time>
      </trkpt>
      <trkpt lat="45.27625" lon="5.89459">
        <ele>230</ele>
        <time>2017-10-21T14:13:31Z</time>
      </trkpt>
      <trkpt lat="45.27622" lon="5.89449">
        <ele>230</ele>
        <time>2017-10-21T14:13:33Z</time>
      </trkpt>
      <trkpt lat="45.27618" lon="5.8944">
        <ele>230</ele>
        <time>2017-10-21T14:13:35Z</time>
      </trkpt>
      <trkpt lat="45.27613" lon="5.89431">
        <ele>230</ele>
        <time>2017-10-21T14:13:37Z</time>
      </trkpt>
      <trkpt lat="45.27608" lon="5.89422">
        <ele>230</ele>
        <time>2017-10-21T14:13:39Z</time>
      </trkpt>
      <trkpt lat="45.27603" lon="5.89414">
        <ele>230</ele>
        <time>2017-10-21T14:13:41Z</time>
      </trkpt>
      <trkpt lat="45.27599" lon="5.89407">
        <ele>230</ele>
        <time>2017-10-21T14:13:43Z</time>
      </trkpt>
      <trkpt lat="45.27594" lon="5.89402">
        <ele>230</ele>
        <time>2017-10-21T14:13:45Z</time>
      </trkpt>
      <trkpt lat="45.27591" lon="5.89397">
        <ele>230</ele>
        <time>2017-10-21T14:13:47Z</time>
      </trkpt>
      <trkpt lat="45.27586" lon="5.89391">
        <ele>230</ele>
        <time>2017-10-21T14:13:49Z</time>
      </trkpt>
      <trkpt lat="45.27578" lon="5.89383">
        <ele>230</ele>
        <time>2017-10-21T14:13:52Z</time>
      </trkpt>
      <trkpt lat="45.27573" lon="5.89379">
        <ele>230</ele>
        <time>2017-10-21T14:13:54Z</time>
      </trkpt>
      <trkpt lat="45.27566" lon="5.89373">
        <ele>230</ele>
        <time>2017-10-21T14:13:56Z</time>
      </trkpt>
      <trkpt lat="45.27559" lon="5.89365">
        <ele>230</ele>
        <time>2017-10-21T14:13:58Z</time>
      </trkpt>
      <trkpt lat="45.2755" lon="5.89354">
        <ele>230</ele>
        <time>2017-10-21T14:14:01Z</time>
      </trkpt>
      <trkpt lat="45.27546" lon="5.89349">
        <ele>230</ele>
        <time>2017-10-21T14:14:02Z</time>
      </trkpt>
      <trkpt lat="45.27539" lon="5.89341">
        <ele>230</ele>
        <time>2017-10-21T14:14:04Z</time>
      </trkpt>
      <trkpt lat="45.27535" lon="5.89336">
        <ele>230</ele>
        <time>2017-10-21T14:14:05Z</time>
      </trkpt>
      <trkpt lat="45.27527" lon="5.89328">
        <ele>230</ele>
        <time>2017-10-21T14:14:07Z</time>
      </trkpt>
      <trkpt lat="45.27519" lon="5.89319">
        <ele>230</ele>
        <time>2017-10-21T14:14:09Z</time>
      </trkpt>
      <trkpt lat="45.27514" lon="5.89314">
        <ele>230</ele>
        <time>2017-10-21T14:14:10Z</time>
      </trkpt>
      <trkpt lat="45.27505" lon="5.89306">
        <ele>230</ele>
        <time>2017-10-21T14:14:12Z</time>
      </trkpt>
      <trkpt lat="45.27496" lon="5.89303">
        <ele>230</ele>
        <time>2017-10-21T14:14:14Z</time>
      </trkpt>
      <trkpt lat="45.27491" lon="5.89303">
        <ele>230</ele>
        <time>2017-10-21T14:14:15Z</time>
      </trkpt>
      <trkpt lat="45.27487" lon="5.89307">
        <ele>230</ele>
        <time>2017-10-21T14:14:16Z</time>
      </trkpt>
      <trkpt lat="45.27482" lon="5.89317">
        <ele>230</ele>
        <time>2017-10-21T14:14:18Z</time>
      </trkpt>
      <trkpt lat="45.27478" lon="5.89322">
        <ele>230</ele>
        <time>2017-10-21T14:14:19Z</time>
      </trkpt>
      <trkpt lat="45.27475" lon="5.89328">
        <ele>230</ele>
        <time>2017-10-21T14:14:20Z</time>
      </trkpt>
      <trkpt lat="45.2747" lon="5.89339">
        <ele>230</ele>
        <time>2017-10-21T14:14:22Z</time>
      </trkpt>
      <trkpt lat="45.27465" lon="5.89344">
        <ele>230</ele>
        <time>2017-10-21T14:14:23Z</time>
      </trkpt>
      <trkpt lat="45.27462" lon="5.89349">
        <ele>230</ele>
        <time>2017-10-21T14:14:24Z</time>
      </trkpt>
      <trkpt lat="45.27454" lon="5.89358">
        <ele>230</ele>
        <time>2017-10-21T14:14:26Z</time>
      </trkpt>
      <trkpt lat="45.27449" lon="5.89362">
        <ele>230</ele>
        <time>2017-10-21T14:14:27Z</time>
      </trkpt>
      <trkpt lat="45.27444" lon="5.89367">
        <ele>230</ele>
        <time>2017-10-21T14:14:28Z</time>
      </trkpt>
      <trkpt lat="45.27439" lon="5.89371">
        <ele>230</ele>
        <time>2017-10-21T14:14:29Z</time>
      </trkpt>
      <trkpt lat="45.27431" lon="5.89382">
        <ele>230</ele>
        <time>2017-10-21T14:14:31Z</time>
      </trkpt>
      <trkpt lat="45.27423" lon="5.89391">
        <ele>230</ele>
        <time>2017-10-21T14:14:33Z</time>
      </trkpt>
      <trkpt lat="45.27418" lon="5.89396">
        <ele>230</ele>
        <time>2017-10-21T14:14:34Z</time>
      </trkpt>
      <trkpt lat="45.27413" lon="5.89401">
        <ele>230</ele>
        <time>2017-10-21T14:14:35Z</time>
      </trkpt>
      <trkpt lat="45.27406" lon="5.89409">
        <ele>230</ele>
        <time>2017-10-21T14:14:37Z</time>
      </trkpt>
      <trkpt lat="45.27403" lon="5.89412">
        <ele>230</ele>
        <time>2017-10-21T14:14:38Z</time>
      </trkpt>
      <trkpt lat="45.27399" lon="5.89418">
        <ele>230</ele>
        <time>2017-10-21T14:14:39Z</time>
      </trkpt>
      <trkpt lat="45.27396" lon="5.89423">
        <ele>230</ele>
        <time>2017-10-21T14:14:40Z</time>
      </trkpt>
      <trkpt lat="45.27388" lon="5.89433">
        <ele>230</ele>
        <time>2017-10-21T14:14:42Z</time>
      </trkpt>
      <trkpt lat="45.27383" lon="5.89436">
        <ele>230</ele>
        <time>2017-10-21T14:14:43Z</time>
      </trkpt>
      <trkpt lat="45.27379" lon="5.89439">
        <ele>230</ele>
        <time>2017-10-21T14:14:44Z</time>
      </trkpt>
      <trkpt lat="45.27375" lon="5.89445">
        <ele>230</ele>
        <time>2017-10-21T14:14:45Z</time>
      </trkpt>
      <trkpt lat="45.2737" lon="5.89449">
        <ele>230</ele>
        <time>2017-10-21T14:14:46Z</time>
      </trkpt>
      <trkpt lat="45.27365" lon="5.89452">
        <ele>230</ele>
        <time>2017-10-21T14:14:47Z</time>
      </trkpt>
      <trkpt lat="45.27359" lon="5.89458">
        <ele>230</ele>
        <time>2017-10-21T14:14:48Z</time>
      </trkpt>
      <trkpt lat="45.27354" lon="5.89462">
        <ele>230</ele>
        <time>2017-10-21T14:14:49Z</time>
      </trkpt>
      <trkpt lat="45.27345" lon="5.89466">
        <ele>230</ele>
        <time>2017-10-21T14:14:51Z</time>
      </trkpt>
      <trkpt lat="45.2734" lon="5.89468">
        <ele>230</ele>
        <time>2017-10-21T14:14:52Z</time>
      </trkpt>
      <trkpt lat="45.27334" lon="5.89463">
        <ele>230</ele>
        <time>2017-10-21T14:14:54Z</time>
      </trkpt>
      <trkpt lat="45.2733" lon="5.89457">
        <ele>230</ele>
        <time>2017-10-21T14:14:56Z</time>
      </trkpt>
      <trkpt lat="45.27329" lon="5.89445">
        <ele>230</ele>
        <time>2017-10-21T14:14:58Z</time>
      </trkpt>
      <trkpt lat="45.27324" lon="5.89444">
        <ele>230</ele>
        <time>2017-10-21T14:14:59Z</time>
      </trkpt>
      <trkpt lat="45.27322" lon="5.89436">
        <ele>230</ele>
        <time>2017-10-21T14:15:01Z</time>
      </trkpt>
      <trkpt lat="45.27327" lon="5.89429">
        <ele>230</ele>
        <time>2017-10-21T14:15:03Z</time>
      </trkpt>
      <trkpt lat="45.27329" lon="5.89421">
        <ele>230</ele>
        <time>2017-10-21T14:15:05Z</time>
      </trkpt>
      <trkpt lat="45.27327" lon="5.89414">
        <ele>230</ele>
        <time>2017-10-21T14:15:07Z</time>
      </trkpt>
      <trkpt lat="45.27324" lon="5.89406">
        <ele>230</ele>
        <time>2017-10-21T14:15:09Z</time>
      </trkpt>
      <trkpt lat="45.27323" lon="5.89397">
        <ele>230</ele>
        <time>2017-10-21T14:15:11Z</time>
      </trkpt>
      <trkpt lat="45.27325" lon="5.89387">
        <ele>230</ele>
        <time>2017-10-21T14:15:13Z</time>
      </trkpt>
      <trkpt lat="45.27328" lon="5.89378">
        <ele>230</ele>
        <time>2017-10-21T14:15:15Z</time>
      </trkpt>
      <trkpt lat="45.27329" lon="5.89368">
        <ele>230</ele>
        <time>2017-10-21T14:15:17Z</time>
      </trkpt>
      <trkpt lat="45.27325" lon="5.8936">
        <ele>230</ele>
        <time>2017-10-21T14:15:19Z</time>
      </trkpt>
      <trkpt lat="45.27319" lon="5.89354">
        <ele>230</ele>
        <time>2017-10-21T14:15:21Z</time>
      </trkpt>
      <trkpt lat="45.27312" lon="5.89347">
        <ele>230</ele>
        <time>2017-10-21T14:15:23Z</time>
      </trkpt>
      <trkpt lat="45.27309" lon="5.89339">
        <ele>230</ele>
        <time>2017-10-21T14:15:25Z</time>
      </trkpt>
      <trkpt lat="45.27313" lon="5.8933">
        <ele>230</ele>
        <time>2017-10-21T14:15:28Z</time>
      </trkpt>
      <trkpt lat="45.27315" lon="5.89324">
        <ele>230</ele>
        <time>2017-10-21T14:15:30Z</time>
      </trkpt>
      <trkpt lat="45.27311" lon="5.89321">
        <ele>230</ele>
        <time>2017-10-21T14:15:32Z</time>
      </trkpt>
      <trkpt lat="45.27304" lon="5.89324">
        <ele>230</ele>
        <time>2017-10-21T14:15:34Z</time>
      </trkpt>
      <trkpt lat="45.27296" lon="5.89326">
        <ele>230</ele>
        <time>2017-10-21T14:15:36Z</time>
      </trkpt>
      <trkpt lat="45.27285" lon="5.89325">
        <ele>230</ele>
        <time>2017-10-21T14:15:38Z</time>
      </trkpt>
      <trkpt lat="45.27276" lon="5.89324">
        <ele>230</ele>
        <time>2017-10-21T14:15:40Z</time>
      </trkpt>
      <trkpt lat="45.27269" lon="5.89322">
        <ele>230</ele>
        <time>2017-10-21T14:15:42Z</time>
      </trkpt>
      <trkpt lat="45.27264" lon="5.89319">
        <ele>230</ele>
        <time>2017-10-21T14:15:43Z</time>
      </trkpt>
      <trkpt lat="45.27256" lon="5.89315">
        <ele>230</ele>
        <time>2017-10-21T14:15:45Z</time>
      </trkpt>
      <trkpt lat="45.27246" lon="5.89315">
        <ele>230</ele>
        <time>2017-10-21T14:15:47Z</time>
      </trkpt>
      <trkpt lat="45.27237" lon="5.8931">
        <ele>230</ele>
        <time>2017-10-21T14:15:49Z</time>
      </trkpt>
      <trkpt lat="45.27229" lon="5.89306">
        <ele>230</ele>
        <time>2017-10-21T14:15:51Z</time>
      </trkpt>
      <trkpt lat="45.27222" lon="5.893">
        <ele>230</ele>
        <time>2017-10-21T14:15:53Z</time>
      </trkpt>
      <trkpt lat="45.27218" lon="5.89297">
        <ele>230</ele>
        <time>2017-10-21T14:15:54Z</time>
      </trkpt>
      <trkpt lat="45.27211" lon="5.89291">
        <ele>230</ele>
        <time>2017-10-21T14:15:56Z</time>
      </trkpt>
      <trkpt lat="45.27203" lon="5.89277">
        <ele>230</ele>
        <time>2017-10-21T14:15:59Z</time>
      </trkpt>
      <trkpt lat="45.272" lon="5.8927">
        <ele>230</ele>
        <time>2017-10-21T14:16:01Z</time>
      </trkpt>
      <trkpt lat="45.27196" lon="5.89263">
        <ele>230</ele>
        <time>2017-10-21T14:16:05Z</time>
      </trkpt>
      <trkpt lat="45.27192" lon="5.8926">
        <ele>230</ele>
        <time>2017-10-21T14:16:07Z</time>
      </trkpt>
      <trkpt lat="45.27188" lon="5.89255">
        <ele>230</ele>
        <time>2017-10-21T14:16:09Z</time>
      </trkpt>
      <trkpt lat="45.27185" lon="5.89249">
        <ele>230</ele>
        <time>2017-10-21T14:16:11Z</time>
      </trkpt>
      <trkpt lat="45.27181" lon="5.89244">
        <ele>230</ele>
        <time>2017-10-21T14:16:13Z</time>
      </trkpt>
      <trkpt lat="45.27175" lon="5.89242">
        <ele>230</ele>
        <time>2017-10-21T14:16:15Z</time>
      </trkpt>
      <trkpt lat="45.27169" lon="5.89241">
        <ele>230</ele>
        <time>2017-10-21T14:16:17Z</time>
      </trkpt>
      <trkpt lat="45.27162" lon="5.89237">
        <ele>230</ele>
        <time>2017-10-21T14:16:19Z</time>
      </trkpt>
      <trkpt lat="45.27155" lon="5.89232">
        <ele>230</ele>
        <time>2017-10-21T14:16:21Z</time>
      </trkpt>
      <trkpt lat="45.27148" lon="5.89226">
        <ele>230</ele>
        <time>2017-10-21T14:16:23Z</time>
      </trkpt>
      <trkpt lat="45.27141" lon="5.89221">
        <ele>230</ele>
        <time>2017-10-21T14:16:25Z</time>
      </trkpt>
      <trkpt lat="45.27133" lon="5.89217">
        <ele>230</ele>
        <time>2017-10-21T14:16:27Z</time>
      </trkpt>
      <trkpt lat="45.27128" lon="5.89215">
        <ele>230</ele>
        <time>2017-10-21T14:16:28Z</time>
      </trkpt>
      <trkpt lat="45.27124" lon="5.89213">
        <ele>230</ele>
        <time>2017-10-21T14:16:29Z</time>
      </trkpt>
      <trkpt lat="45.27113" lon="5.89207">
        <ele>230</ele>
        <time>2017-10-21T14:16:31Z</time>
      </trkpt>
      <trkpt lat="45.27105" lon="5.89204">
        <ele>230</ele>
        <time>2017-10-21T14:16:33Z</time>
      </trkpt>
      <trkpt lat="45.27097" lon="5.89199">
        <ele>230</ele>
        <time>2017-10-21T14:16:35Z</time>
      </trkpt>
      <trkpt lat="45.27094" lon="5.89196">
        <ele>230</ele>
        <time>2017-10-21T14:16:36Z</time>
      </trkpt>
      <trkpt lat="45.27088" lon="5.89188">
        <ele>230</ele>
        <time>2017-10-21T14:16:38Z</time>
      </trkpt>
      <trkpt lat="45.27084" lon="5.89179">
        <ele>230</ele>
        <time>2017-10-21T14:16:40Z</time>
      </trkpt>
      <trkpt lat="45.27081" lon="5.8917">
        <ele>230</ele>
        <time>2017-10-21T14:16:42Z</time>
      </trkpt>
      <trkpt lat="45.27079" lon="5.89164">
        <ele>230</ele>
        <time>2017-10-21T14:16:44Z</time>
      </trkpt>
      <trkpt lat="45.27076" lon="5.89157">
        <ele>230</ele>
        <time>2017-10-21T14:16:46Z</time>
      </trkpt>
      <trkpt lat="45.2707" lon="5.89153">
        <ele>230</ele>
        <time>2017-10-21T14:16:48Z</time>
      </trkpt>
      <trkpt lat="45.27065" lon="5.89153">
        <ele>230</ele>
        <time>2017-10-21T14:16:50Z</time>
      </trkpt>
      <trkpt lat="45.2706" lon="5.89152">
        <ele>230</ele>
        <time>2017-10-21T14:16:55Z</time>
      </trkpt>
      <trkpt lat="45.27055" lon="5.89147">
        <ele>230</ele>
        <time>2017-10-21T14:16:58Z</time>
      </trkpt>
      <trkpt lat="45.2705" lon="5.89142">
        <ele>229</ele>
        <time>2017-10-21T14:17:01Z</time>
      </trkpt>
      <trkpt lat="45.27046" lon="5.89138">
        <ele>230</ele>
        <time>2017-10-21T14:17:04Z</time>
      </trkpt>
      <trkpt lat="45.2704" lon="5.89134">
        <ele>230</ele>
        <time>2017-10-21T14:17:06Z</time>
      </trkpt>
      <trkpt lat="45.27033" lon="5.89132">
        <ele>230</ele>
        <time>2017-10-21T14:17:08Z</time>
      </trkpt>
      <trkpt lat="45.27026" lon="5.89132">
        <ele>230</ele>
        <time>2017-10-21T14:17:10Z</time>
      </trkpt>
      <trkpt lat="45.27018" lon="5.89134">
        <ele>230</ele>
        <time>2017-10-21T14:17:12Z</time>
      </trkpt>
      <trkpt lat="45.2701" lon="5.89132">
        <ele>230</ele>
        <time>2017-10-21T14:17:14Z</time>
      </trkpt>
      <trkpt lat="45.27005" lon="5.89125">
        <ele>230</ele>
        <time>2017-10-21T14:17:16Z</time>
      </trkpt>
      <trkpt lat="45.27" lon="5.89116">
        <ele>230</ele>
        <time>2017-10-21T14:17:18Z</time>
      </trkpt>
      <trkpt lat="45.26996" lon="5.89108">
        <ele>230</ele>
        <time>2017-10-21T14:17:20Z</time>
      </trkpt>
      <trkpt lat="45.2699" lon="5.89099">
        <ele>230</ele>
        <time>2017-10-21T14:17:22Z</time>
      </trkpt>
      <trkpt lat="45.26985" lon="5.89091">
        <ele>229</ele>
        <time>2017-10-21T14:17:24Z</time>
      </trkpt>
      <trkpt lat="45.26979" lon="5.89084">
        <ele>229</ele>
        <time>2017-10-21T14:17:26Z</time>
      </trkpt>
      <trkpt lat="45.26973" lon="5.89077">
        <ele>229</ele>
        <time>2017-10-21T14:17:28Z</time>
      </trkpt>
      <trkpt lat="45.26968" lon="5.89071">
        <ele>230</ele>
        <time>2017-10-21T14:17:30Z</time>
      </trkpt>
      <trkpt lat="45.26963" lon="5.89066">
        <ele>230</ele>
        <time>2017-10-21T14:17:32Z</time>
      </trkpt>
      <trkpt lat="45.26959" lon="5.8906">
        <ele>230</ele>
        <time>2017-10-21T14:17:34Z</time>
      </trkpt>
      <trkpt lat="45.26955" lon="5.89054">
        <ele>230</ele>
        <time>2017-10-21T14:17:36Z</time>
      </trkpt>
      <trkpt lat="45.2695" lon="5.89049">
        <ele>230</ele>
        <time>2017-10-21T14:17:38Z</time>
      </trkpt>
      <trkpt lat="45.26946" lon="5.89044">
        <ele>230</ele>
        <time>2017-10-21T14:17:40Z</time>
      </trkpt>
      <trkpt lat="45.26941" lon="5.89039">
        <ele>230</ele>
        <time>2017-10-21T14:17:42Z</time>
      </trkpt>
      <trkpt lat="45.26936" lon="5.89035">
        <ele>230</ele>
        <time>2017-10-21T14:17:44Z</time>
      </trkpt>
      <trkpt lat="45.26931" lon="5.8903">
        <ele>230</ele>
        <time>2017-10-21T14:17:46Z</time>
      </trkpt>
      <trkpt lat="45.26925" lon="5.89025">
        <ele>230</ele>
        <time>2017-10-21T14:17:49Z</time>
      </trkpt>
      <trkpt lat="45.26918" lon="5.89017">
        <ele>230</ele>
        <time>2017-10-21T14:17:53Z</time>
      </trkpt>
      <trkpt lat="45.26913" lon="5.89014">
        <ele>229</ele>
        <time>2017-10-21T14:17:55Z</time>
      </trkpt>
      <trkpt lat="45.26907" lon="5.89009">
        <ele>229</ele>
        <time>2017-10-21T14:17:57Z</time>
      </trkpt>
      <trkpt lat="45.269" lon="5.89003">
        <ele>229</ele>
        <time>2017-10-21T14:17:59Z</time>
      </trkpt>
      <trkpt lat="45.26894" lon="5.88998">
        <ele>229</ele>
        <time>2017-10-21T14:18:01Z</time>
      </trkpt>
      <trkpt lat="45.26888" lon="5.88991">
        <ele>229</ele>
        <time>2017-10-21T14:18:03Z</time>
      </trkpt>
      <trkpt lat="45.26881" lon="5.88985">
        <ele>229</ele>
        <time>2017-10-21T14:18:05Z</time>
      </trkpt>
      <trkpt lat="45.26876" lon="5.88978">
        <ele>229</ele>
        <time>2017-10-21T14:18:07Z</time>
      </trkpt>
      <trkpt lat="45.2687" lon="5.88971">
        <ele>229</ele>
        <time>2017-10-21T14:18:09Z</time>
      </trkpt>
      <trkpt lat="45.26861" lon="5.88957">
        <ele>229</ele>
        <time>2017-10-21T14:18:12Z</time>
      </trkpt>
      <trkpt lat="45.26858" lon="5.88952">
        <ele>229</ele>
        <time>2017-10-21T14:18:13Z</time>
      </trkpt>
      <trkpt lat="45.26853" lon="5.88942">
        <ele>229</ele>
        <time>2017-10-21T14:18:15Z</time>
      </trkpt>
      <trkpt lat="45.26848" lon="5.88929">
        <ele>230</ele>
        <time>2017-10-21T14:18:17Z</time>
      </trkpt>
      <trkpt lat="45.26846" lon="5.88922">
        <ele>229</ele>
        <time>2017-10-21T14:18:18Z</time>
      </trkpt>
      <trkpt lat="45.26843" lon="5.88916">
        <ele>229</ele>
        <time>2017-10-21T14:18:19Z</time>
      </trkpt>
      <trkpt lat="45.26838" lon="5.88908">
        <ele>229</ele>
        <time>2017-10-21T14:18:20Z</time>
      </trkpt>
      <trkpt lat="45.26831" lon="5.88898">
        <ele>229</ele>
        <time>2017-10-21T14:18:21Z</time>
      </trkpt>
      <trkpt lat="45.26839" lon="5.88893">
        <ele>229</ele>
        <time>2017-10-21T14:18:23Z</time>
      </trkpt>
      <trkpt lat="45.26839" lon="5.88886">
        <ele>229</ele>
        <time>2017-10-21T14:18:24Z</time>
      </trkpt>
      <trkpt lat="45.26837" lon="5.8888">
        <ele>229</ele>
        <time>2017-10-21T14:18:25Z</time>
      </trkpt>
      <trkpt lat="45.26825" lon="5.88862">
        <ele>229</ele>
        <time>2017-10-21T14:18:28Z</time>
      </trkpt>
      <trkpt lat="45.26822" lon="5.88849">
        <ele>229</ele>
        <time>2017-10-21T14:18:30Z</time>
      </trkpt>
      <trkpt lat="45.26817" lon="5.88841">
        <ele>229</ele>
        <time>2017-10-21T14:18:31Z</time>
      </trkpt>
      <trkpt lat="45.26818" lon="5.88833">
        <ele>229</ele>
        <time>2017-10-21T14:18:33Z</time>
      </trkpt>
      <trkpt lat="45.26819" lon="5.88826">
        <ele>229</ele>
        <time>2017-10-21T14:18:34Z</time>
      </trkpt>
      <trkpt lat="45.26817" lon="5.88816">
        <ele>229</ele>
        <time>2017-10-21T14:18:36Z</time>
      </trkpt>
      <trkpt lat="45.26815" lon="5.88809">
        <ele>229</ele>
        <time>2017-10-21T14:18:37Z</time>
      </trkpt>
      <trkpt lat="45.26813" lon="5.88799">
        <ele>229</ele>
        <time>2017-10-21T14:18:39Z</time>
      </trkpt>
      <trkpt lat="45.26805" lon="5.88787">
        <ele>230</ele>
        <time>2017-10-21T14:18:41Z</time>
      </trkpt>
      <trkpt lat="45.26803" lon="5.88781">
        <ele>230</ele>
        <time>2017-10-21T14:18:42Z</time>
      </trkpt>
      <trkpt lat="45.26801" lon="5.8877">
        <ele>230</ele>
        <time>2017-10-21T14:18:44Z</time>
      </trkpt>
      <trkpt lat="45.26801" lon="5.88761">
        <ele>230</ele>
        <time>2017-10-21T14:18:46Z</time>
      </trkpt>
      <trkpt lat="45.26798" lon="5.88753">
        <ele>230</ele>
        <time>2017-10-21T14:18:48Z</time>
      </trkpt>
      <trkpt lat="45.26793" lon="5.88748">
        <ele>230</ele>
        <time>2017-10-21T14:18:50Z</time>
      </trkpt>
      <trkpt lat="45.26786" lon="5.88743">
        <ele>230</ele>
        <time>2017-10-21T14:18:52Z</time>
      </trkpt>
      <trkpt lat="45.26781" lon="5.8874">
        <ele>230</ele>
        <time>2017-10-21T14:18:53Z</time>
      </trkpt>
      <trkpt lat="45.26774" lon="5.88734">
        <ele>229</ele>
        <time>2017-10-21T14:18:55Z</time>
      </trkpt>
      <trkpt lat="45.26767" lon="5.88727">
        <ele>230</ele>
        <time>2017-10-21T14:18:57Z</time>
      </trkpt>
      <trkpt lat="45.26763" lon="5.88723">
        <ele>230</ele>
        <time>2017-10-21T14:18:58Z</time>
      </trkpt>
      <trkpt lat="45.26758" lon="5.88714">
        <ele>230</ele>
        <time>2017-10-21T14:19:00Z</time>
      </trkpt>
      <trkpt lat="45.26753" lon="5.88705">
        <ele>230</ele>
        <time>2017-10-21T14:19:02Z</time>
      </trkpt>
      <trkpt lat="45.26748" lon="5.88695">
        <ele>230</ele>
        <time>2017-10-21T14:19:04Z</time>
      </trkpt>
      <trkpt lat="45.26743" lon="5.88683">
        <ele>230</ele>
        <time>2017-10-21T14:19:06Z</time>
      </trkpt>
      <trkpt lat="45.26742" lon="5.88674">
        <ele>230</ele>
        <time>2017-10-21T14:19:08Z</time>
      </trkpt>
      <trkpt lat="45.26742" lon="5.88667">
        <ele>230</ele>
        <time>2017-10-21T14:19:09Z</time>
      </trkpt>
      <trkpt lat="45.2674" lon="5.88654">
        <ele>230</ele>
        <time>2017-10-21T14:19:11Z</time>
      </trkpt>
      <trkpt lat="45.26739" lon="5.88643">
        <ele>230</ele>
        <time>2017-10-21T14:19:13Z</time>
      </trkpt>
      <trkpt lat="45.26738" lon="5.88631">
        <ele>230</ele>
        <time>2017-10-21T14:19:15Z</time>
      </trkpt>
      <trkpt lat="45.26738" lon="5.88621">
        <ele>230</ele>
        <time>2017-10-21T14:19:17Z</time>
      </trkpt>
      <trkpt lat="45.26734" lon="5.88611">
        <ele>230</ele>
        <time>2017-10-21T14:19:19Z</time>
      </trkpt>
      <trkpt lat="45.26727" lon="5.88603">
        <ele>230</ele>
        <time>2017-10-21T14:19:21Z</time>
      </trkpt>
      <trkpt lat="45.26723" lon="5.88599">
        <ele>230</ele>
        <time>2017-10-21T14:19:22Z</time>
      </trkpt>
      <trkpt lat="45.26717" lon="5.8859">
        <ele>230</ele>
        <time>2017-10-21T14:19:24Z</time>
      </trkpt>
      <trkpt lat="45.26712" lon="5.88583">
        <ele>230</ele>
        <time>2017-10-21T14:19:26Z</time>
      </trkpt>
      <trkpt lat="45.26708" lon="5.88578">
        <ele>230</ele>
        <time>2017-10-21T14:19:27Z</time>
      </trkpt>
      <trkpt lat="45.26703" lon="5.8857">
        <ele>230</ele>
        <time>2017-10-21T14:19:29Z</time>
      </trkpt>
      <trkpt lat="45.26699" lon="5.88565">
        <ele>230</ele>
        <time>2017-10-21T14:19:30Z</time>
      </trkpt>
      <trkpt lat="45.26696" lon="5.88555">
        <ele>230</ele>
        <time>2017-10-21T14:19:32Z</time>
      </trkpt>
      <trkpt lat="45.26692" lon="5.88545">
        <ele>230</ele>
        <time>2017-10-21T14:19:34Z</time>
      </trkpt>
      <trkpt lat="45.26688" lon="5.88528">
        <ele>230</ele>
        <time>2017-10-21T14:19:37Z</time>
      </trkpt>
      <trkpt lat="45.26687" lon="5.88516">
        <ele>230</ele>
        <time>2017-10-21T14:19:39Z</time>
      </trkpt>
      <trkpt lat="45.26687" lon="5.88503">
        <ele>230</ele>
        <time>2017-10-21T14:19:41Z</time>
      </trkpt>
      <trkpt lat="45.26688" lon="5.8849">
        <ele>230</ele>
        <time>2017-10-21T14:19:43Z</time>
      </trkpt>
      <trkpt lat="45.2669" lon="5.88478">
        <ele>230</ele>
        <time>2017-10-21T14:19:45Z</time>
      </trkpt>
      <trkpt lat="45.2669" lon="5.88471">
        <ele>230</ele>
        <time>2017-10-21T14:19:46Z</time>
      </trkpt>
      <trkpt lat="45.26692" lon="5.88463">
        <ele>230</ele>
        <time>2017-10-21T14:19:47Z</time>
      </trkpt>
      <trkpt lat="45.26691" lon="5.88455">
        <ele>230</ele>
        <time>2017-10-21T14:19:48Z</time>
      </trkpt>
      <trkpt lat="45.26693" lon="5.88446">
        <ele>230</ele>
        <time>2017-10-21T14:19:49Z</time>
      </trkpt>
      <trkpt lat="45.26693" lon="5.8844">
        <ele>230</ele>
        <time>2017-10-21T14:19:50Z</time>
      </trkpt>
      <trkpt lat="45.26691" lon="5.8843">
        <ele>230</ele>
        <time>2017-10-21T14:19:52Z</time>
      </trkpt>
      <trkpt lat="45.26679" lon="5.88428">
        <ele>230</ele>
        <time>2017-10-21T14:19:54Z</time>
      </trkpt>
      <trkpt lat="45.2667" lon="5.8842">
        <ele>230</ele>
        <time>2017-10-21T14:19:55Z</time>
      </trkpt>
      <trkpt lat="45.26665" lon="5.88415">
        <ele>230</ele>
        <time>2017-10-21T14:19:57Z</time>
      </trkpt>
      <trkpt lat="45.26659" lon="5.88407">
        <ele>230</ele>
        <time>2017-10-21T14:19:59Z</time>
      </trkpt>
      <trkpt lat="45.26655" lon="5.88399">
        <ele>230</ele>
        <time>2017-10-21T14:20:01Z</time>
      </trkpt>
      <trkpt lat="45.26651" lon="5.88394">
        <ele>230</ele>
        <time>2017-10-21T14:20:02Z</time>
      </trkpt>
      <trkpt lat="45.26646" lon="5.88386">
        <ele>230</ele>
        <time>2017-10-21T14:20:04Z</time>
      </trkpt>
      <trkpt lat="45.26638" lon="5.88373">
        <ele>230</ele>
        <time>2017-10-21T14:20:07Z</time>
      </trkpt>
      <trkpt lat="45.26634" lon="5.88364">
        <ele>230</ele>
        <time>2017-10-21T14:20:09Z</time>
      </trkpt>
      <trkpt lat="45.26632" lon="5.88354">
        <ele>230</ele>
        <time>2017-10-21T14:20:11Z</time>
      </trkpt>
      <trkpt lat="45.26629" lon="5.88343">
        <ele>230</ele>
        <time>2017-10-21T14:20:13Z</time>
      </trkpt>
      <trkpt lat="45.26625" lon="5.88332">
        <ele>230</ele>
        <time>2017-10-21T14:20:15Z</time>
      </trkpt>
      <trkpt lat="45.26622" lon="5.88321">
        <ele>230</ele>
        <time>2017-10-21T14:20:17Z</time>
      </trkpt>
      <trkpt lat="45.26619" lon="5.88315">
        <ele>230</ele>
        <time>2017-10-21T14:20:18Z</time>
      </trkpt>
      <trkpt lat="45.26615" lon="5.88305">
        <ele>230</ele>
        <time>2017-10-21T14:20:20Z</time>
      </trkpt>
      <trkpt lat="45.26612" lon="5.88299">
        <ele>230</ele>
        <time>2017-10-21T14:20:21Z</time>
      </trkpt>
      <trkpt lat="45.26602" lon="5.88285">
        <ele>230</ele>
        <time>2017-10-21T14:20:23Z</time>
      </trkpt>
      <trkpt lat="45.26602" lon="5.88276">
        <ele>231</ele>
        <time>2017-10-21T14:20:25Z</time>
      </trkpt>
      <trkpt lat="45.26598" lon="5.88271">
        <ele>231</ele>
        <time>2017-10-21T14:20:26Z</time>
      </trkpt>
      <trkpt lat="45.26595" lon="5.88266">
        <ele>231</ele>
        <time>2017-10-21T14:20:27Z</time>
      </trkpt>
      <trkpt lat="45.26591" lon="5.88255">
        <ele>231</ele>
        <time>2017-10-21T14:20:29Z</time>
      </trkpt>
      <trkpt lat="45.26585" lon="5.88247">
        <ele>231</ele>
        <time>2017-10-21T14:20:31Z</time>
      </trkpt>
      <trkpt lat="45.26578" lon="5.88239">
        <ele>231</ele>
        <time>2017-10-21T14:20:33Z</time>
      </trkpt>
      <trkpt lat="45.26574" lon="5.88235">
        <ele>231</ele>
        <time>2017-10-21T14:20:34Z</time>
      </trkpt>
      <trkpt lat="45.26567" lon="5.88227">
        <ele>231</ele>
        <time>2017-10-21T14:20:36Z</time>
      </trkpt>
      <trkpt lat="45.26561" lon="5.88219">
        <ele>231</ele>
        <time>2017-10-21T14:20:38Z</time>
      </trkpt>
      <trkpt lat="45.26557" lon="5.88214">
        <ele>231</ele>
        <time>2017-10-21T14:20:39Z</time>
      </trkpt>
      <trkpt lat="45.26552" lon="5.88205">
        <ele>231</ele>
        <time>2017-10-21T14:20:41Z</time>
      </trkpt>
      <trkpt lat="45.26548" lon="5.882">
        <ele>231</ele>
        <time>2017-10-21T14:20:42Z</time>
      </trkpt>
      <trkpt lat="45.26545" lon="5.88197">
        <ele>231</ele>
        <time>2017-10-21T14:20:43Z</time>
      </trkpt>
      <trkpt lat="45.26537" lon="5.88189">
        <ele>231</ele>
        <time>2017-10-21T14:20:45Z</time>
      </trkpt>
      <trkpt lat="45.26531" lon="5.88182">
        <ele>231</ele>
        <time>2017-10-21T14:20:47Z</time>
      </trkpt>
      <trkpt lat="45.26524" lon="5.88174">
        <ele>231</ele>
        <time>2017-10-21T14:20:49Z</time>
      </trkpt>
      <trkpt lat="45.2652" lon="5.88171">
        <ele>231</ele>
        <time>2017-10-21T14:20:50Z</time>
      </trkpt>
      <trkpt lat="45.26514" lon="5.88162">
        <ele>231</ele>
        <time>2017-10-21T14:20:52Z</time>
      </trkpt>
      <trkpt lat="45.26512" lon="5.88157">
        <ele>231</ele>
        <time>2017-10-21T14:20:53Z</time>
      </trkpt>
      <trkpt lat="45.26506" lon="5.8815">
        <ele>231</ele>
        <time>2017-10-21T14:20:55Z</time>
      </trkpt>
      <trkpt lat="45.26498" lon="5.88143">
        <ele>231</ele>
        <time>2017-10-21T14:20:57Z</time>
      </trkpt>
      <trkpt lat="45.26494" lon="5.88134">
        <ele>231</ele>
        <time>2017-10-21T14:20:59Z</time>
      </trkpt>
      <trkpt lat="45.26489" lon="5.88126">
        <ele>231</ele>
        <time>2017-10-21T14:21:01Z</time>
      </trkpt>
      <trkpt lat="45.26485" lon="5.88118">
        <ele>231</ele>
        <time>2017-10-21T14:21:03Z</time>
      </trkpt>
      <trkpt lat="45.26481" lon="5.88111">
        <ele>231</ele>
        <time>2017-10-21T14:21:05Z</time>
      </trkpt>
      <trkpt lat="45.26478" lon="5.88103">
        <ele>231</ele>
        <time>2017-10-21T14:21:07Z</time>
      </trkpt>
      <trkpt lat="45.26476" lon="5.88095">
        <ele>231</ele>
        <time>2017-10-21T14:21:09Z</time>
      </trkpt>
      <trkpt lat="45.26473" lon="5.88088">
        <ele>231</ele>
        <time>2017-10-21T14:21:11Z</time>
      </trkpt>
      <trkpt lat="45.2647" lon="5.8808">
        <ele>231</ele>
        <time>2017-10-21T14:21:13Z</time>
      </trkpt>
      <trkpt lat="45.26467" lon="5.88073">
        <ele>231</ele>
        <time>2017-10-21T14:21:15Z</time>
      </trkpt>
      <trkpt lat="45.26464" lon="5.88064">
        <ele>231</ele>
        <time>2017-10-21T14:21:17Z</time>
      </trkpt>
      <trkpt lat="45.26462" lon="5.88056">
        <ele>231</ele>
        <time>2017-10-21T14:21:19Z</time>
      </trkpt>
      <trkpt lat="45.26459" lon="5.88048">
        <ele>231</ele>
        <time>2017-10-21T14:21:21Z</time>
      </trkpt>
      <trkpt lat="45.26456" lon="5.88039">
        <ele>231</ele>
        <time>2017-10-21T14:21:23Z</time>
      </trkpt>
      <trkpt lat="45.26453" lon="5.88031">
        <ele>231</ele>
        <time>2017-10-21T14:21:25Z</time>
      </trkpt>
      <trkpt lat="45.2645" lon="5.88025">
        <ele>231</ele>
        <time>2017-10-21T14:21:28Z</time>
      </trkpt>
      <trkpt lat="45.26457" lon="5.88022">
        <ele>231</ele>
        <time>2017-10-21T14:21:31Z</time>
      </trkpt>
      <trkpt lat="45.26464" lon="5.88027">
        <ele>231</ele>
        <time>2017-10-21T14:21:33Z</time>
      </trkpt>
      <trkpt lat="45.26473" lon="5.88029">
        <ele>232</ele>
        <time>2017-10-21T14:21:35Z</time>
      </trkpt>
      <trkpt lat="45.26479" lon="5.88023">
        <ele>232</ele>
        <time>2017-10-21T14:21:37Z</time>
      </trkpt>
      <trkpt lat="45.26484" lon="5.88014">
        <ele>232</ele>
        <time>2017-10-21T14:21:39Z</time>
      </trkpt>
      <trkpt lat="45.26489" lon="5.88005">
        <ele>232</ele>
        <time>2017-10-21T14:21:41Z</time>
      </trkpt>
      <trkpt lat="45.26494" lon="5.87997">
        <ele>232</ele>
        <time>2017-10-21T14:21:43Z</time>
      </trkpt>
      <trkpt lat="45.26498" lon="5.8799">
        <ele>232</ele>
        <time>2017-10-21T14:21:45Z</time>
      </trkpt>
      <trkpt lat="45.26502" lon="5.87984">
        <ele>232</ele>
        <time>2017-10-21T14:21:47Z</time>
      </trkpt>
      <trkpt lat="45.26507" lon="5.87979">
        <ele>233</ele>
        <time>2017-10-21T14:21:49Z</time>
      </trkpt>
      <trkpt lat="45.26512" lon="5.87975">
        <ele>233</ele>
        <time>2017-10-21T14:21:51Z</time>
      </trkpt>
      <trkpt lat="45.26516" lon="5.8797">
        <ele>233</ele>
        <time>2017-10-21T14:21:55Z</time>
      </trkpt>
      <trkpt lat="45.26521" lon="5.87963">
        <ele>233</ele>
        <time>2017-10-21T14:21:58Z</time>
      </trkpt>
      <trkpt lat="45.26526" lon="5.87957">
        <ele>233</ele>
        <time>2017-10-21T14:22:00Z</time>
      </trkpt>
      <trkpt lat="45.26531" lon="5.87951">
        <ele>233</ele>
        <time>2017-10-21T14:22:02Z</time>
      </trkpt>
      <trkpt lat="45.26535" lon="5.87944">
        <ele>233</ele>
        <time>2017-10-21T14:22:04Z</time>
      </trkpt>
      <trkpt lat="45.2654" lon="5.8794">
        <ele>234</ele>
        <time>2017-10-21T14:22:06Z</time>
      </trkpt>
      <trkpt lat="45.26545" lon="5.87933">
        <ele>234</ele>
        <time>2017-10-21T14:22:08Z</time>
      </trkpt>
      <trkpt lat="45.2655" lon="5.87927">
        <ele>234</ele>
        <time>2017-10-21T14:22:10Z</time>
      </trkpt>
      <trkpt lat="45.26555" lon="5.8792">
        <ele>234</ele>
        <time>2017-10-21T14:22:12Z</time>
      </trkpt>
      <trkpt lat="45.2656" lon="5.87913">
        <ele>234</ele>
        <time>2017-10-21T14:22:14Z</time>
      </trkpt>
      <trkpt lat="45.26567" lon="5.87906">
        <ele>234</ele>
        <time>2017-10-21T14:22:16Z</time>
      </trkpt>
      <trkpt lat="45.26572" lon="5.87898">
        <ele>235</ele>
        <time>2017-10-21T14:22:18Z</time>
      </trkpt>
      <trkpt lat="45.26576" lon="5.87891">
        <ele>235</ele>
        <time>2017-10-21T14:22:20Z</time>
      </trkpt>
      <trkpt lat="45.26582" lon="5.87885">
        <ele>235</ele>
        <time>2017-10-21T14:22:22Z</time>
      </trkpt>
      <trkpt lat="45.2659" lon="5.87879">
        <ele>235</ele>
        <time>2017-10-21T14:22:24Z</time>
      </trkpt>
      <trkpt lat="45.26597" lon="5.87872">
        <ele>236</ele>
        <time>2017-10-21T14:22:26Z</time>
      </trkpt>
      <trkpt lat="45.26603" lon="5.87866">
        <ele>236</ele>
        <time>2017-10-21T14:22:28Z</time>
      </trkpt>
      <trkpt lat="45.26608" lon="5.8786">
        <ele>236</ele>
        <time>2017-10-21T14:22:30Z</time>
      </trkpt>
      <trkpt lat="45.26614" lon="5.87856">
        <ele>236</ele>
        <time>2017-10-21T14:22:32Z</time>
      </trkpt>
      <trkpt lat="45.2662" lon="5.87851">
        <ele>236</ele>
        <time>2017-10-21T14:22:34Z</time>
      </trkpt>
      <trkpt lat="45.26625" lon="5.87845">
        <ele>236</ele>
        <time>2017-10-21T14:22:36Z</time>
      </trkpt>
      <trkpt lat="45.26632" lon="5.87839">
        <ele>236</ele>
        <time>2017-10-21T14:22:38Z</time>
      </trkpt>
      <trkpt lat="45.26638" lon="5.87832">
        <ele>237</ele>
        <time>2017-10-21T14:22:40Z</time>
      </trkpt>
      <trkpt lat="45.26645" lon="5.87826">
        <ele>237</ele>
        <time>2017-10-21T14:22:42Z</time>
      </trkpt>
      <trkpt lat="45.26651" lon="5.8782">
        <ele>237</ele>
        <time>2017-10-21T14:22:44Z</time>
      </trkpt>
      <trkpt lat="45.26657" lon="5.87813">
        <ele>238</ele>
        <time>2017-10-21T14:22:46Z</time>
      </trkpt>
      <trkpt lat="45.26663" lon="5.87806">
        <ele>238</ele>
        <time>2017-10-21T14:22:48Z</time>
      </trkpt>
      <trkpt lat="45.26669" lon="5.87799">
        <ele>239</ele>
        <time>2017-10-21T14:22:50Z</time>
      </trkpt>
      <trkpt lat="45.26675" lon="5.87793">
        <ele>239</ele>
        <time>2017-10-21T14:22:52Z</time>
      </trkpt>
      <trkpt lat="45.26682" lon="5.87785">
        <ele>239</ele>
        <time>2017-10-21T14:22:54Z</time>
      </trkpt>
      <trkpt lat="45.26688" lon="5.87778">
        <ele>240</ele>
        <time>2017-10-21T14:22:56Z</time>
      </trkpt>
      <trkpt lat="45.26696" lon="5.87771">
        <ele>240</ele>
        <time>2017-10-21T14:22:58Z</time>
      </trkpt>
      <trkpt lat="45.26703" lon="5.87765">
        <ele>240</ele>
        <time>2017-10-21T14:23:00Z</time>
      </trkpt>
      <trkpt lat="45.26709" lon="5.87758">
        <ele>241</ele>
        <time>2017-10-21T14:23:02Z</time>
      </trkpt>
      <trkpt lat="45.26715" lon="5.87752">
        <ele>241</ele>
        <time>2017-10-21T14:23:04Z</time>
      </trkpt>
      <trkpt lat="45.26721" lon="5.87746">
        <ele>241</ele>
        <time>2017-10-21T14:23:06Z</time>
      </trkpt>
      <trkpt lat="45.26726" lon="5.8774">
        <ele>241</ele>
        <time>2017-10-21T14:23:08Z</time>
      </trkpt>
      <trkpt lat="45.26732" lon="5.87732">
        <ele>242</ele>
        <time>2017-10-21T14:23:10Z</time>
      </trkpt>
      <trkpt lat="45.26739" lon="5.87725">
        <ele>242</ele>
        <time>2017-10-21T14:23:12Z</time>
      </trkpt>
      <trkpt lat="45.26746" lon="5.87719">
        <ele>243</ele>
        <time>2017-10-21T14:23:14Z</time>
      </trkpt>
      <trkpt lat="45.26752" lon="5.87712">
        <ele>243</ele>
        <time>2017-10-21T14:23:16Z</time>
      </trkpt>
      <trkpt lat="45.26759" lon="5.87706">
        <ele>243</ele>
        <time>2017-10-21T14:23:18Z</time>
      </trkpt>
      <trkpt lat="45.26765" lon="5.877">
        <ele>244</ele>
        <time>2017-10-21T14:23:20Z</time>
      </trkpt>
      <trkpt lat="45.26772" lon="5.87694">
        <ele>244</ele>
        <time>2017-10-21T14:23:22Z</time>
      </trkpt>
      <trkpt lat="45.26777" lon="5.87688">
        <ele>245</ele>
        <time>2017-10-21T14:23:24Z</time>
      </trkpt>
      <trkpt lat="45.26784" lon="5.87682">
        <ele>245</ele>
        <time>2017-10-21T14:23:26Z</time>
      </trkpt>
      <trkpt lat="45.26788" lon="5.87678">
        <ele>245</ele>
        <time>2017-10-21T14:23:27Z</time>
      </trkpt>
      <trkpt lat="45.26795" lon="5.87672">
        <ele>245</ele>
        <time>2017-10-21T14:23:29Z</time>
      </trkpt>
      <trkpt lat="45.26804" lon="5.87663">
        <ele>246</ele>
        <time>2017-10-21T14:23:32Z</time>
      </trkpt>
      <trkpt lat="45.26809" lon="5.87658">
        <ele>246</ele>
        <time>2017-10-21T14:23:34Z</time>
      </trkpt>
      <trkpt lat="45.26815" lon="5.87652">
        <ele>246</ele>
        <time>2017-10-21T14:23:36Z</time>
      </trkpt>
      <trkpt lat="45.26821" lon="5.87646">
        <ele>246</ele>
        <time>2017-10-21T14:23:38Z</time>
      </trkpt>
      <trkpt lat="45.26827" lon="5.87641">
        <ele>247</ele>
        <time>2017-10-21T14:23:40Z</time>
      </trkpt>
      <trkpt lat="45.26833" lon="5.87635">
        <ele>247</ele>
        <time>2017-10-21T14:23:42Z</time>
      </trkpt>
      <trkpt lat="45.2684" lon="5.87629">
        <ele>247</ele>
        <time>2017-10-21T14:23:44Z</time>
      </trkpt>
      <trkpt lat="45.26846" lon="5.87622">
        <ele>248</ele>
        <time>2017-10-21T14:23:46Z</time>
      </trkpt>
      <trkpt lat="45.26852" lon="5.87616">
        <ele>248</ele>
        <time>2017-10-21T14:23:48Z</time>
      </trkpt>
      <trkpt lat="45.26859" lon="5.87611">
        <ele>248</ele>
        <time>2017-10-21T14:23:50Z</time>
      </trkpt>
      <trkpt lat="45.26865" lon="5.87605">
        <ele>249</ele>
        <time>2017-10-21T14:23:52Z</time>
      </trkpt>
      <trkpt lat="45.26872" lon="5.87599">
        <ele>249</ele>
        <time>2017-10-21T14:23:54Z</time>
      </trkpt>
      <trkpt lat="45.26879" lon="5.87593">
        <ele>249</ele>
        <time>2017-10-21T14:23:56Z</time>
      </trkpt>
      <trkpt lat="45.26883" lon="5.8759">
        <ele>250</ele>
        <time>2017-10-21T14:23:57Z</time>
      </trkpt>
      <trkpt lat="45.26889" lon="5.87582">
        <ele>250</ele>
        <time>2017-10-21T14:23:59Z</time>
      </trkpt>
      <trkpt lat="45.26893" lon="5.87578">
        <ele>250</ele>
        <time>2017-10-21T14:24:00Z</time>
      </trkpt>
      <trkpt lat="45.26898" lon="5.87575">
        <ele>251</ele>
        <time>2017-10-21T14:24:01Z</time>
      </trkpt>
      <trkpt lat="45.26902" lon="5.8757">
        <ele>251</ele>
        <time>2017-10-21T14:24:02Z</time>
      </trkpt>
      <trkpt lat="45.26908" lon="5.87564">
        <ele>251</ele>
        <time>2017-10-21T14:24:04Z</time>
      </trkpt>
      <trkpt lat="45.26914" lon="5.87558">
        <ele>252</ele>
        <time>2017-10-21T14:24:06Z</time>
      </trkpt>
      <trkpt lat="45.2692" lon="5.87552">
        <ele>252</ele>
        <time>2017-10-21T14:24:08Z</time>
      </trkpt>
      <trkpt lat="45.26926" lon="5.87545">
        <ele>253</ele>
        <time>2017-10-21T14:24:10Z</time>
      </trkpt>
      <trkpt lat="45.26933" lon="5.87538">
        <ele>253</ele>
        <time>2017-10-21T14:24:12Z</time>
      </trkpt>
      <trkpt lat="45.2694" lon="5.87532">
        <ele>254</ele>
        <time>2017-10-21T14:24:14Z</time>
      </trkpt>
      <trkpt lat="45.26947" lon="5.87526">
        <ele>255</ele>
        <time>2017-10-21T14:24:16Z</time>
      </trkpt>
      <trkpt lat="45.26954" lon="5.87521">
        <ele>255</ele>
        <time>2017-10-21T14:24:18Z</time>
      </trkpt>
      <trkpt lat="45.26961" lon="5.87515">
        <ele>256</ele>
        <time>2017-10-21T14:24:20Z</time>
      </trkpt>
      <trkpt lat="45.26967" lon="5.8751">
        <ele>256</ele>
        <time>2017-10-21T14:24:22Z</time>
      </trkpt>
      <trkpt lat="45.26974" lon="5.87504">
        <ele>257</ele>
        <time>2017-10-21T14:24:24Z</time>
      </trkpt>
      <trkpt lat="45.26981" lon="5.87498">
        <ele>257</ele>
        <time>2017-10-21T14:24:26Z</time>
      </trkpt>
      <trkpt lat="45.26988" lon="5.87493">
        <ele>258</ele>
        <time>2017-10-21T14:24:28Z</time>
      </trkpt>
      <trkpt lat="45.26995" lon="5.87487">
        <ele>258</ele>
        <time>2017-10-21T14:24:30Z</time>
      </trkpt>
      <trkpt lat="45.27002" lon="5.87482">
        <ele>258</ele>
        <time>2017-10-21T14:24:32Z</time>
      </trkpt>
      <trkpt lat="45.27008" lon="5.87475">
        <ele>258</ele>
        <time>2017-10-21T14:24:34Z</time>
      </trkpt>
      <trkpt lat="45.27013" lon="5.87469">
        <ele>259</ele>
        <time>2017-10-21T14:24:36Z</time>
      </trkpt>
      <trkpt lat="45.27019" lon="5.87462">
        <ele>259</ele>
        <time>2017-10-21T14:24:38Z</time>
      </trkpt>
      <trkpt lat="45.27025" lon="5.87455">
        <ele>259</ele>
        <time>2017-10-21T14:24:40Z</time>
      </trkpt>
      <trkpt lat="45.2703" lon="5.87448">
        <ele>259</ele>
        <time>2017-10-21T14:24:42Z</time>
      </trkpt>
      <trkpt lat="45.27036" lon="5.87441">
        <ele>259</ele>
        <time>2017-10-21T14:24:44Z</time>
      </trkpt>
      <trkpt lat="45.27042" lon="5.87435">
        <ele>259</ele>
        <time>2017-10-21T14:24:46Z</time>
      </trkpt>
      <trkpt lat="45.27048" lon="5.87429">
        <ele>259</ele>
        <time>2017-10-21T14:24:48Z</time>
      </trkpt>
      <trkpt lat="45.27054" lon="5.87422">
        <ele>260</ele>
        <time>2017-10-21T14:24:50Z</time>
      </trkpt>
      <trkpt lat="45.27063" lon="5.87413">
        <ele>260</ele>
        <time>2017-10-21T14:24:53Z</time>
      </trkpt>
      <trkpt lat="45.27068" lon="5.87407">
        <ele>260</ele>
        <time>2017-10-21T14:24:55Z</time>
      </trkpt>
      <trkpt lat="45.27074" lon="5.874">
        <ele>260</ele>
        <time>2017-10-21T14:24:57Z</time>
      </trkpt>
      <trkpt lat="45.2708" lon="5.87393">
        <ele>260</ele>
        <time>2017-10-21T14:24:59Z</time>
      </trkpt>
      <trkpt lat="45.27087" lon="5.87385">
        <ele>260</ele>
        <time>2017-10-21T14:25:01Z</time>
      </trkpt>
      <trkpt lat="45.27094" lon="5.87377">
        <ele>260</ele>
        <time>2017-10-21T14:25:03Z</time>
      </trkpt>
      <trkpt lat="45.27101" lon="5.87369">
        <ele>260</ele>
        <time>2017-10-21T14:25:05Z</time>
      </trkpt>
      <trkpt lat="45.27107" lon="5.87362">
        <ele>260</ele>
        <time>2017-10-21T14:25:07Z</time>
      </trkpt>
      <trkpt lat="45.27113" lon="5.87355">
        <ele>260</ele>
        <time>2017-10-21T14:25:09Z</time>
      </trkpt>
      <trkpt lat="45.27119" lon="5.87346">
        <ele>261</ele>
        <time>2017-10-21T14:25:11Z</time>
      </trkpt>
      <trkpt lat="45.27125" lon="5.8734">
        <ele>261</ele>
        <time>2017-10-21T14:25:13Z</time>
      </trkpt>
      <trkpt lat="45.27131" lon="5.87333">
        <ele>261</ele>
        <time>2017-10-21T14:25:15Z</time>
      </trkpt>
      <trkpt lat="45.27138" lon="5.87327">
        <ele>261</ele>
        <time>2017-10-21T14:25:17Z</time>
      </trkpt>
      <trkpt lat="45.27142" lon="5.87321">
        <ele>262</ele>
        <time>2017-10-21T14:25:19Z</time>
      </trkpt>
      <trkpt lat="45.27142" lon="5.87313">
        <ele>262</ele>
        <time>2017-10-21T14:25:21Z</time>
      </trkpt>
      <trkpt lat="45.27137" lon="5.87305">
        <ele>262</ele>
        <time>2017-10-21T14:25:23Z</time>
      </trkpt>
      <trkpt lat="45.2713" lon="5.87297">
        <ele>262</ele>
        <time>2017-10-21T14:25:25Z</time>
      </trkpt>
      <trkpt lat="45.27124" lon="5.8729">
        <ele>262</ele>
        <time>2017-10-21T14:25:27Z</time>
      </trkpt>
      <trkpt lat="45.27118" lon="5.87282">
        <ele>263</ele>
        <time>2017-10-21T14:25:29Z</time>
      </trkpt>
      <trkpt lat="45.27114" lon="5.87278">
        <ele>263</ele>
        <time>2017-10-21T14:25:30Z</time>
      </trkpt>
      <trkpt lat="45.2711" lon="5.87271">
        <ele>263</ele>
        <time>2017-10-21T14:25:31Z</time>
      </trkpt>
      <trkpt lat="45.27108" lon="5.87264">
        <ele>263</ele>
        <time>2017-10-21T14:25:32Z</time>
      </trkpt>
      <trkpt lat="45.27105" lon="5.87258">
        <ele>263</ele>
        <time>2017-10-21T14:25:33Z</time>
      </trkpt>
      <trkpt lat="45.27101" lon="5.87255">
        <ele>263</ele>
        <time>2017-10-21T14:25:34Z</time>
      </trkpt>
      <trkpt lat="45.27095" lon="5.87252">
        <ele>263</ele>
        <time>2017-10-21T14:25:35Z</time>
      </trkpt>
      <trkpt lat="45.27091" lon="5.87254">
        <ele>263</ele>
        <time>2017-10-21T14:25:36Z</time>
      </trkpt>
      <trkpt lat="45.27086" lon="5.87253">
        <ele>263</ele>
        <time>2017-10-21T14:25:37Z</time>
      </trkpt>
      <trkpt lat="45.27081" lon="5.8725">
        <ele>263</ele>
        <time>2017-10-21T14:25:38Z</time>
      </trkpt>
      <trkpt lat="45.27077" lon="5.87246">
        <ele>263</ele>
        <time>2017-10-21T14:25:39Z</time>
      </trkpt>
      <trkpt lat="45.27073" lon="5.87242">
        <ele>263</ele>
        <time>2017-10-21T14:25:40Z</time>
      </trkpt>
      <trkpt lat="45.2707" lon="5.87236">
        <ele>263</ele>
        <time>2017-10-21T14:25:41Z</time>
      </trkpt>
      <trkpt lat="45.27066" lon="5.87232">
        <ele>263</ele>
        <time>2017-10-21T14:25:42Z</time>
      </trkpt>
      <trkpt lat="45.27062" lon="5.87228">
        <ele>263</ele>
        <time>2017-10-21T14:25:43Z</time>
      </trkpt>
      <trkpt lat="45.27058" lon="5.87224">
        <ele>263</ele>
        <time>2017-10-21T14:25:44Z</time>
      </trkpt>
      <trkpt lat="45.27054" lon="5.87219">
        <ele>263</ele>
        <time>2017-10-21T14:25:45Z</time>
      </trkpt>
      <trkpt lat="45.2705" lon="5.87215">
        <ele>264</ele>
        <time>2017-10-21T14:25:46Z</time>
      </trkpt>
      <trkpt lat="45.27043" lon="5.8721">
        <ele>264</ele>
        <time>2017-10-21T14:25:48Z</time>
      </trkpt>
      <trkpt lat="45.27037" lon="5.87204">
        <ele>264</ele>
        <time>2017-10-21T14:25:50Z</time>
      </trkpt>
      <trkpt lat="45.27031" lon="5.87196">
        <ele>264</ele>
        <time>2017-10-21T14:25:52Z</time>
      </trkpt>
      <trkpt lat="45.27025" lon="5.87191">
        <ele>264</ele>
        <time>2017-10-21T14:25:54Z</time>
      </trkpt>
      <trkpt lat="45.27019" lon="5.87185">
        <ele>264</ele>
        <time>2017-10-21T14:25:56Z</time>
      </trkpt>
      <trkpt lat="45.27013" lon="5.87179">
        <ele>264</ele>
        <time>2017-10-21T14:25:58Z</time>
      </trkpt>
      <trkpt lat="45.27008" lon="5.87174">
        <ele>264</ele>
        <time>2017-10-21T14:26:00Z</time>
      </trkpt>
      <trkpt lat="45.27003" lon="5.8717">
        <ele>264</ele>
        <time>2017-10-21T14:26:02Z</time>
      </trkpt>
      <trkpt lat="45.26997" lon="5.87166">
        <ele>264</ele>
        <time>2017-10-21T14:26:05Z</time>
      </trkpt>
      <trkpt lat="45.2699" lon="5.87158">
        <ele>264</ele>
        <time>2017-10-21T14:28:25Z</time>
      </trkpt>
      <trkpt lat="45.26986" lon="5.87153">
        <ele>264</ele>
        <time>2017-10-21T14:28:27Z</time>
      </trkpt>
      <trkpt lat="45.2698" lon="5.87148">
        <ele>264</ele>
        <time>2017-10-21T14:28:29Z</time>
      </trkpt>
      <trkpt lat="45.26974" lon="5.87143">
        <ele>264</ele>
        <time>2017-10-21T14:28:31Z</time>
      </trkpt>
      <trkpt lat="45.26968" lon="5.87138">
        <ele>264</ele>
        <time>2017-10-21T14:28:33Z</time>
      </trkpt>
      <trkpt lat="45.26962" lon="5.87133">
        <ele>264</ele>
        <time>2017-10-21T14:28:35Z</time>
      </trkpt>
      <trkpt lat="45.26955" lon="5.87128">
        <ele>263</ele>
        <time>2017-10-21T14:28:37Z</time>
      </trkpt>
      <trkpt lat="45.26949" lon="5.87123">
        <ele>263</ele>
        <time>2017-10-21T14:28:39Z</time>
      </trkpt>
      <trkpt lat="45.26943" lon="5.87119">
        <ele>263</ele>
        <time>2017-10-21T14:28:41Z</time>
      </trkpt>
      <trkpt lat="45.26937" lon="5.87113">
        <ele>263</ele>
        <time>2017-10-21T14:28:43Z</time>
      </trkpt>
      <trkpt lat="45.2693" lon="5.87109">
        <ele>262</ele>
        <time>2017-10-21T14:28:45Z</time>
      </trkpt>
      <trkpt lat="45.26924" lon="5.87105">
        <ele>262</ele>
        <time>2017-10-21T14:28:47Z</time>
      </trkpt>
      <trkpt lat="45.26917" lon="5.87101">
        <ele>262</ele>
        <time>2017-10-21T14:28:49Z</time>
      </trkpt>
      <trkpt lat="45.2691" lon="5.87096">
        <ele>262</ele>
        <time>2017-10-21T14:28:51Z</time>
      </trkpt>
      <trkpt lat="45.26903" lon="5.87092">
        <ele>262</ele>
        <time>2017-10-21T14:28:53Z</time>
      </trkpt>
      <trkpt lat="45.26896" lon="5.87089">
        <ele>262</ele>
        <time>2017-10-21T14:28:55Z</time>
      </trkpt>
      <trkpt lat="45.2689" lon="5.87083">
        <ele>262</ele>
        <time>2017-10-21T14:28:57Z</time>
      </trkpt>
      <trkpt lat="45.26883" lon="5.87076">
        <ele>262</ele>
        <time>2017-10-21T14:28:59Z</time>
      </trkpt>
      <trkpt lat="45.26876" lon="5.8707">
        <ele>262</ele>
        <time>2017-10-21T14:29:01Z</time>
      </trkpt>
      <trkpt lat="45.26869" lon="5.87064">
        <ele>262</ele>
        <time>2017-10-21T14:29:03Z</time>
      </trkpt>
      <trkpt lat="45.26863" lon="5.87058">
        <ele>262</ele>
        <time>2017-10-21T14:29:05Z</time>
      </trkpt>
      <trkpt lat="45.26856" lon="5.87052">
        <ele>262</ele>
        <time>2017-10-21T14:29:07Z</time>
      </trkpt>
      <trkpt lat="45.26849" lon="5.87046">
        <ele>262</ele>
        <time>2017-10-21T14:29:09Z</time>
      </trkpt>
      <trkpt lat="45.26841" lon="5.87039">
        <ele>262</ele>
        <time>2017-10-21T14:29:11Z</time>
      </trkpt>
      <trkpt lat="45.26834" lon="5.87033">
        <ele>262</ele>
        <time>2017-10-21T14:29:13Z</time>
      </trkpt>
      <trkpt lat="45.26823" lon="5.87023">
        <ele>263</ele>
        <time>2017-10-21T14:29:16Z</time>
      </trkpt>
      <trkpt lat="45.26815" lon="5.87017">
        <ele>263</ele>
        <time>2017-10-21T14:29:18Z</time>
      </trkpt>
      <trkpt lat="45.26804" lon="5.87008">
        <ele>263</ele>
        <time>2017-10-21T14:29:21Z</time>
      </trkpt>
      <trkpt lat="45.268" lon="5.87004">
        <ele>263</ele>
        <time>2017-10-21T14:29:22Z</time>
      </trkpt>
      <trkpt lat="45.26794" lon="5.86997">
        <ele>263</ele>
        <time>2017-10-21T14:29:24Z</time>
      </trkpt>
      <trkpt lat="45.26788" lon="5.8699">
        <ele>264</ele>
        <time>2017-10-21T14:29:26Z</time>
      </trkpt>
      <trkpt lat="45.26781" lon="5.86983">
        <ele>264</ele>
        <time>2017-10-21T14:29:28Z</time>
      </trkpt>
      <trkpt lat="45.26774" lon="5.86976">
        <ele>264</ele>
        <time>2017-10-21T14:29:30Z</time>
      </trkpt>
      <trkpt lat="45.26767" lon="5.8697">
        <ele>264</ele>
        <time>2017-10-21T14:29:32Z</time>
      </trkpt>
      <trkpt lat="45.26762" lon="5.86967">
        <ele>264</ele>
        <time>2017-10-21T14:29:33Z</time>
      </trkpt>
      <trkpt lat="45.26755" lon="5.86962">
        <ele>264</ele>
        <time>2017-10-21T14:29:35Z</time>
      </trkpt>
      <trkpt lat="45.26748" lon="5.86955">
        <ele>265</ele>
        <time>2017-10-21T14:29:37Z</time>
      </trkpt>
      <trkpt lat="45.26741" lon="5.86948">
        <ele>265</ele>
        <time>2017-10-21T14:29:39Z</time>
      </trkpt>
      <trkpt lat="45.26735" lon="5.86941">
        <ele>265</ele>
        <time>2017-10-21T14:29:41Z</time>
      </trkpt>
      <trkpt lat="45.26728" lon="5.86934">
        <ele>265</ele>
        <time>2017-10-21T14:29:43Z</time>
      </trkpt>
      <trkpt lat="45.26721" lon="5.86928">
        <ele>265</ele>
        <time>2017-10-21T14:29:45Z</time>
      </trkpt>
      <trkpt lat="45.26714" lon="5.86923">
        <ele>265</ele>
        <time>2017-10-21T14:29:47Z</time>
      </trkpt>
      <trkpt lat="45.26708" lon="5.86916">
        <ele>266</ele>
        <time>2017-10-21T14:29:49Z</time>
      </trkpt>
      <trkpt lat="45.26701" lon="5.86911">
        <ele>266</ele>
        <time>2017-10-21T14:29:51Z</time>
      </trkpt>
      <trkpt lat="45.26695" lon="5.86906">
        <ele>266</ele>
        <time>2017-10-21T14:29:53Z</time>
      </trkpt>
      <trkpt lat="45.26688" lon="5.86901">
        <ele>266</ele>
        <time>2017-10-21T14:29:55Z</time>
      </trkpt>
      <trkpt lat="45.2668" lon="5.86897">
        <ele>266</ele>
        <time>2017-10-21T14:29:57Z</time>
      </trkpt>
      <trkpt lat="45.26672" lon="5.86894">
        <ele>266</ele>
        <time>2017-10-21T14:29:59Z</time>
      </trkpt>
      <trkpt lat="45.26665" lon="5.86891">
        <ele>266</ele>
        <time>2017-10-21T14:30:01Z</time>
      </trkpt>
      <trkpt lat="45.26657" lon="5.86888">
        <ele>266</ele>
        <time>2017-10-21T14:30:03Z</time>
      </trkpt>
      <trkpt lat="45.26649" lon="5.86884">
        <ele>266</ele>
        <time>2017-10-21T14:30:05Z</time>
      </trkpt>
      <trkpt lat="45.26642" lon="5.8688">
        <ele>266</ele>
        <time>2017-10-21T14:30:07Z</time>
      </trkpt>
      <trkpt lat="45.26634" lon="5.86875">
        <ele>266</ele>
        <time>2017-10-21T14:30:09Z</time>
      </trkpt>
      <trkpt lat="45.26627" lon="5.8687">
        <ele>267</ele>
        <time>2017-10-21T14:30:11Z</time>
      </trkpt>
      <trkpt lat="45.2662" lon="5.86864">
        <ele>267</ele>
        <time>2017-10-21T14:30:13Z</time>
      </trkpt>
      <trkpt lat="45.26614" lon="5.86858">
        <ele>267</ele>
        <time>2017-10-21T14:30:15Z</time>
      </trkpt>
      <trkpt lat="45.26608" lon="5.86852">
        <ele>267</ele>
        <time>2017-10-21T14:30:17Z</time>
      </trkpt>
      <trkpt lat="45.26601" lon="5.86846">
        <ele>267</ele>
        <time>2017-10-21T14:30:19Z</time>
      </trkpt>
      <trkpt lat="45.26594" lon="5.8684">
        <ele>268</ele>
        <time>2017-10-21T14:30:21Z</time>
      </trkpt>
      <trkpt lat="45.26587" lon="5.86834">
        <ele>268</ele>
        <time>2017-10-21T14:30:23Z</time>
      </trkpt>
      <trkpt lat="45.2658" lon="5.8683">
        <ele>268</ele>
        <time>2017-10-21T14:30:25Z</time>
      </trkpt>
      <trkpt lat="45.26575" lon="5.86828">
        <ele>268</ele>
        <time>2017-10-21T14:30:26Z</time>
      </trkpt>
      <trkpt lat="45.26571" lon="5.86827">
        <ele>268</ele>
        <time>2017-10-21T14:30:27Z</time>
      </trkpt>
      <trkpt lat="45.26566" lon="5.86825">
        <ele>268</ele>
        <time>2017-10-21T14:30:28Z</time>
      </trkpt>
      <trkpt lat="45.26561" lon="5.86823">
        <ele>268</ele>
        <time>2017-10-21T14:30:29Z</time>
      </trkpt>
      <trkpt lat="45.26552" lon="5.86819">
        <ele>268</ele>
        <time>2017-10-21T14:30:31Z</time>
      </trkpt>
      <trkpt lat="45.26544" lon="5.86815">
        <ele>268</ele>
        <time>2017-10-21T14:30:33Z</time>
      </trkpt>
      <trkpt lat="45.26537" lon="5.86811">
        <ele>268</ele>
        <time>2017-10-21T14:30:35Z</time>
      </trkpt>
      <trkpt lat="45.26529" lon="5.86806">
        <ele>268</ele>
        <time>2017-10-21T14:30:37Z</time>
      </trkpt>
      <trkpt lat="45.26522" lon="5.86802">
        <ele>268</ele>
        <time>2017-10-21T14:30:39Z</time>
      </trkpt>
      <trkpt lat="45.26514" lon="5.86798">
        <ele>268</ele>
        <time>2017-10-21T14:30:41Z</time>
      </trkpt>
      <trkpt lat="45.26507" lon="5.86792">
        <ele>268</ele>
        <time>2017-10-21T14:30:43Z</time>
      </trkpt>
      <trkpt lat="45.26499" lon="5.86787">
        <ele>269</ele>
        <time>2017-10-21T14:30:45Z</time>
      </trkpt>
      <trkpt lat="45.26492" lon="5.86781">
        <ele>269</ele>
        <time>2017-10-21T14:30:47Z</time>
      </trkpt>
      <trkpt lat="45.26485" lon="5.86776">
        <ele>269</ele>
        <time>2017-10-21T14:30:49Z</time>
      </trkpt>
      <trkpt lat="45.26479" lon="5.86769">
        <ele>269</ele>
        <time>2017-10-21T14:30:51Z</time>
      </trkpt>
      <trkpt lat="45.26471" lon="5.86763">
        <ele>269</ele>
        <time>2017-10-21T14:30:53Z</time>
      </trkpt>
      <trkpt lat="45.26465" lon="5.86756">
        <ele>269</ele>
        <time>2017-10-21T14:30:55Z</time>
      </trkpt>
      <trkpt lat="45.26458" lon="5.8675">
        <ele>269</ele>
        <time>2017-10-21T14:30:57Z</time>
      </trkpt>
      <trkpt lat="45.26451" lon="5.86745">
        <ele>270</ele>
        <time>2017-10-21T14:30:59Z</time>
      </trkpt>
      <trkpt lat="45.26444" lon="5.86739">
        <ele>270</ele>
        <time>2017-10-21T14:31:01Z</time>
      </trkpt>
      <trkpt lat="45.26437" lon="5.86733">
        <ele>270</ele>
        <time>2017-10-21T14:31:03Z</time>
      </trkpt>
      <trkpt lat="45.26431" lon="5.86728">
        <ele>270</ele>
        <time>2017-10-21T14:31:05Z</time>
      </trkpt>
      <trkpt lat="45.26424" lon="5.86722">
        <ele>270</ele>
        <time>2017-10-21T14:31:07Z</time>
      </trkpt>
      <trkpt lat="45.26417" lon="5.86716">
        <ele>270</ele>
        <time>2017-10-21T14:31:09Z</time>
      </trkpt>
      <trkpt lat="45.26411" lon="5.8671">
        <ele>270</ele>
        <time>2017-10-21T14:31:11Z</time>
      </trkpt>
      <trkpt lat="45.26403" lon="5.86704">
        <ele>270</ele>
        <time>2017-10-21T14:31:13Z</time>
      </trkpt>
      <trkpt lat="45.26392" lon="5.86695">
        <ele>270</ele>
        <time>2017-10-21T14:31:16Z</time>
      </trkpt>
      <trkpt lat="45.26389" lon="5.86692">
        <ele>270</ele>
        <time>2017-10-21T14:31:17Z</time>
      </trkpt>
      <trkpt lat="45.26381" lon="5.86686">
        <ele>270</ele>
        <time>2017-10-21T14:31:19Z</time>
      </trkpt>
      <trkpt lat="45.26374" lon="5.8668">
        <ele>270</ele>
        <time>2017-10-21T14:31:21Z</time>
      </trkpt>
      <trkpt lat="45.2637" lon="5.86677">
        <ele>270</ele>
        <time>2017-10-21T14:31:22Z</time>
      </trkpt>
      <trkpt lat="45.26363" lon="5.86671">
        <ele>270</ele>
        <time>2017-10-21T14:31:24Z</time>
      </trkpt>
      <trkpt lat="45.26357" lon="5.86665">
        <ele>270</ele>
        <time>2017-10-21T14:31:26Z</time>
      </trkpt>
      <trkpt lat="45.2635" lon="5.86659">
        <ele>271</ele>
        <time>2017-10-21T14:31:28Z</time>
      </trkpt>
      <trkpt lat="45.26343" lon="5.86654">
        <ele>271</ele>
        <time>2017-10-21T14:31:30Z</time>
      </trkpt>
      <trkpt lat="45.26337" lon="5.86648">
        <ele>271</ele>
        <time>2017-10-21T14:31:32Z</time>
      </trkpt>
      <trkpt lat="45.26331" lon="5.86641">
        <ele>271</ele>
        <time>2017-10-21T14:31:34Z</time>
      </trkpt>
      <trkpt lat="45.26323" lon="5.86636">
        <ele>271</ele>
        <time>2017-10-21T14:31:36Z</time>
      </trkpt>
      <trkpt lat="45.26316" lon="5.8663">
        <ele>271</ele>
        <time>2017-10-21T14:31:38Z</time>
      </trkpt>
      <trkpt lat="45.26309" lon="5.86625">
        <ele>271</ele>
        <time>2017-10-21T14:31:40Z</time>
      </trkpt>
      <trkpt lat="45.26301" lon="5.86622">
        <ele>271</ele>
        <time>2017-10-21T14:31:42Z</time>
      </trkpt>
      <trkpt lat="45.26294" lon="5.8662">
        <ele>271</ele>
        <time>2017-10-21T14:31:44Z</time>
      </trkpt>
      <trkpt lat="45.26286" lon="5.8662">
        <ele>270</ele>
        <time>2017-10-21T14:31:46Z</time>
      </trkpt>
      <trkpt lat="45.26278" lon="5.86621">
        <ele>270</ele>
        <time>2017-10-21T14:31:48Z</time>
      </trkpt>
      <trkpt lat="45.2627" lon="5.86621">
        <ele>270</ele>
        <time>2017-10-21T14:31:50Z</time>
      </trkpt>
      <trkpt lat="45.26263" lon="5.86617">
        <ele>270</ele>
        <time>2017-10-21T14:31:52Z</time>
      </trkpt>
      <trkpt lat="45.26257" lon="5.86609">
        <ele>270</ele>
        <time>2017-10-21T14:31:54Z</time>
      </trkpt>
      <trkpt lat="45.2626" lon="5.86594">
        <ele>271</ele>
        <time>2017-10-21T14:31:56Z</time>
      </trkpt>
      <trkpt lat="45.26267" lon="5.86586">
        <ele>271</ele>
        <time>2017-10-21T14:31:58Z</time>
      </trkpt>
      <trkpt lat="45.26271" lon="5.8658">
        <ele>272</ele>
        <time>2017-10-21T14:31:59Z</time>
      </trkpt>
      <trkpt lat="45.26276" lon="5.86572">
        <ele>273</ele>
        <time>2017-10-21T14:32:01Z</time>
      </trkpt>
      <trkpt lat="45.2628" lon="5.86565">
        <ele>273</ele>
        <time>2017-10-21T14:32:03Z</time>
      </trkpt>
      <trkpt lat="45.2628" lon="5.86556">
        <ele>274</ele>
        <time>2017-10-21T14:32:05Z</time>
      </trkpt>
      <trkpt lat="45.26273" lon="5.86552">
        <ele>274</ele>
        <time>2017-10-21T14:32:07Z</time>
      </trkpt>
      <trkpt lat="45.26265" lon="5.86549">
        <ele>274</ele>
        <time>2017-10-21T14:32:09Z</time>
      </trkpt>
      <trkpt lat="45.2626" lon="5.86547">
        <ele>274</ele>
        <time>2017-10-21T14:32:10Z</time>
      </trkpt>
      <trkpt lat="45.26255" lon="5.86545">
        <ele>274</ele>
        <time>2017-10-21T14:32:11Z</time>
      </trkpt>
      <trkpt lat="45.26245" lon="5.8654">
        <ele>274</ele>
        <time>2017-10-21T14:32:13Z</time>
      </trkpt>
      <trkpt lat="45.2624" lon="5.86538">
        <ele>273</ele>
        <time>2017-10-21T14:32:14Z</time>
      </trkpt>
      <trkpt lat="45.26236" lon="5.86535">
        <ele>274</ele>
        <time>2017-10-21T14:32:15Z</time>
      </trkpt>
      <trkpt lat="45.26227" lon="5.8653">
        <ele>274</ele>
        <time>2017-10-21T14:32:17Z</time>
      </trkpt>
      <trkpt lat="45.26221" lon="5.86527">
        <ele>274</ele>
        <time>2017-10-21T14:32:18Z</time>
      </trkpt>
      <trkpt lat="45.26216" lon="5.86526">
        <ele>274</ele>
        <time>2017-10-21T14:32:19Z</time>
      </trkpt>
      <trkpt lat="45.2621" lon="5.86524">
        <ele>274</ele>
        <time>2017-10-21T14:32:20Z</time>
      </trkpt>
      <trkpt lat="45.26206" lon="5.86521">
        <ele>274</ele>
        <time>2017-10-21T14:32:21Z</time>
      </trkpt>
      <trkpt lat="45.26201" lon="5.86519">
        <ele>275</ele>
        <time>2017-10-21T14:32:22Z</time>
      </trkpt>
      <trkpt lat="45.26196" lon="5.86517">
        <ele>275</ele>
        <time>2017-10-21T14:32:23Z</time>
      </trkpt>
      <trkpt lat="45.26191" lon="5.86515">
        <ele>275</ele>
        <time>2017-10-21T14:32:24Z</time>
      </trkpt>
      <trkpt lat="45.26186" lon="5.86512">
        <ele>275</ele>
        <time>2017-10-21T14:32:25Z</time>
      </trkpt>
      <trkpt lat="45.26179" lon="5.86509">
        <ele>276</ele>
        <time>2017-10-21T14:32:26Z</time>
      </trkpt>
      <trkpt lat="45.26174" lon="5.86508">
        <ele>276</ele>
        <time>2017-10-21T14:32:27Z</time>
      </trkpt>
      <trkpt lat="45.26163" lon="5.86504">
        <ele>277</ele>
        <time>2017-10-21T14:32:29Z</time>
      </trkpt>
      <trkpt lat="45.26158" lon="5.86503">
        <ele>277</ele>
        <time>2017-10-21T14:32:30Z</time>
      </trkpt>
      <trkpt lat="45.26152" lon="5.86501">
        <ele>278</ele>
        <time>2017-10-21T14:32:31Z</time>
      </trkpt>
      <trkpt lat="45.26143" lon="5.86499">
        <ele>279</ele>
        <time>2017-10-21T14:32:33Z</time>
      </trkpt>
      <trkpt lat="45.26137" lon="5.86497">
        <ele>280</ele>
        <time>2017-10-21T14:32:34Z</time>
      </trkpt>
      <trkpt lat="45.26131" lon="5.86497">
        <ele>281</ele>
        <time>2017-10-21T14:32:35Z</time>
      </trkpt>
      <trkpt lat="45.26126" lon="5.86498">
        <ele>281</ele>
        <time>2017-10-21T14:32:36Z</time>
      </trkpt>
      <trkpt lat="45.26119" lon="5.86497">
        <ele>282</ele>
        <time>2017-10-21T14:32:37Z</time>
      </trkpt>
      <trkpt lat="45.26114" lon="5.865">
        <ele>283</ele>
        <time>2017-10-21T14:32:38Z</time>
      </trkpt>
      <trkpt lat="45.26109" lon="5.86502">
        <ele>283</ele>
        <time>2017-10-21T14:32:39Z</time>
      </trkpt>
      <trkpt lat="45.26099" lon="5.86504">
        <ele>284</ele>
        <time>2017-10-21T14:32:41Z</time>
      </trkpt>
      <trkpt lat="45.26093" lon="5.86506">
        <ele>284</ele>
        <time>2017-10-21T14:32:42Z</time>
      </trkpt>
      <trkpt lat="45.26085" lon="5.86512">
        <ele>284</ele>
        <time>2017-10-21T14:32:44Z</time>
      </trkpt>
      <trkpt lat="45.2608" lon="5.86514">
        <ele>284</ele>
        <time>2017-10-21T14:32:45Z</time>
      </trkpt>
      <trkpt lat="45.2607" lon="5.86515">
        <ele>285</ele>
        <time>2017-10-21T14:32:47Z</time>
      </trkpt>
      <trkpt lat="45.26065" lon="5.86517">
        <ele>285</ele>
        <time>2017-10-21T14:32:48Z</time>
      </trkpt>
      <trkpt lat="45.2606" lon="5.86517">
        <ele>285</ele>
        <time>2017-10-21T14:32:49Z</time>
      </trkpt>
      <trkpt lat="45.26054" lon="5.86517">
        <ele>286</ele>
        <time>2017-10-21T14:32:50Z</time>
      </trkpt>
      <trkpt lat="45.26049" lon="5.8652">
        <ele>285</ele>
        <time>2017-10-21T14:32:51Z</time>
      </trkpt>
      <trkpt lat="45.26044" lon="5.86521">
        <ele>286</ele>
        <time>2017-10-21T14:32:52Z</time>
      </trkpt>
      <trkpt lat="45.26039" lon="5.86523">
        <ele>286</ele>
        <time>2017-10-21T14:32:53Z</time>
      </trkpt>
      <trkpt lat="45.26031" lon="5.86526">
        <ele>285</ele>
        <time>2017-10-21T14:32:55Z</time>
      </trkpt>
      <trkpt lat="45.26024" lon="5.86528">
        <ele>286</ele>
        <time>2017-10-21T14:32:57Z</time>
      </trkpt>
      <trkpt lat="45.26017" lon="5.86528">
        <ele>286</ele>
        <time>2017-10-21T14:32:58Z</time>
      </trkpt>
      <trkpt lat="45.26013" lon="5.8653">
        <ele>285</ele>
        <time>2017-10-21T14:32:59Z</time>
      </trkpt>
      <trkpt lat="45.26009" lon="5.86532">
        <ele>285</ele>
        <time>2017-10-21T14:33:00Z</time>
      </trkpt>
      <trkpt lat="45.26004" lon="5.86533">
        <ele>285</ele>
        <time>2017-10-21T14:33:01Z</time>
      </trkpt>
      <trkpt lat="45.25999" lon="5.86531">
        <ele>286</ele>
        <time>2017-10-21T14:33:02Z</time>
      </trkpt>
      <trkpt lat="45.25989" lon="5.86534">
        <ele>285</ele>
        <time>2017-10-21T14:33:04Z</time>
      </trkpt>
      <trkpt lat="45.25982" lon="5.86536">
        <ele>285</ele>
        <time>2017-10-21T14:33:06Z</time>
      </trkpt>
      <trkpt lat="45.25975" lon="5.86536">
        <ele>285</ele>
        <time>2017-10-21T14:33:08Z</time>
      </trkpt>
      <trkpt lat="45.25971" lon="5.86537">
        <ele>285</ele>
        <time>2017-10-21T14:33:09Z</time>
      </trkpt>
      <trkpt lat="45.25962" lon="5.86538">
        <ele>285</ele>
        <time>2017-10-21T14:33:11Z</time>
      </trkpt>
      <trkpt lat="45.25958" lon="5.86539">
        <ele>285</ele>
        <time>2017-10-21T14:33:12Z</time>
      </trkpt>
      <trkpt lat="45.25951" lon="5.86541">
        <ele>285</ele>
        <time>2017-10-21T14:33:13Z</time>
      </trkpt>
      <trkpt lat="45.25946" lon="5.86541">
        <ele>285</ele>
        <time>2017-10-21T14:33:14Z</time>
      </trkpt>
      <trkpt lat="45.2594" lon="5.86542">
        <ele>284</ele>
        <time>2017-10-21T14:33:15Z</time>
      </trkpt>
      <trkpt lat="45.25935" lon="5.86542">
        <ele>284</ele>
        <time>2017-10-21T14:33:16Z</time>
      </trkpt>
      <trkpt lat="45.25924" lon="5.86541">
        <ele>285</ele>
        <time>2017-10-21T14:33:19Z</time>
      </trkpt>
      <trkpt lat="45.25915" lon="5.86538">
        <ele>285</ele>
        <time>2017-10-21T14:33:21Z</time>
      </trkpt>
      <trkpt lat="45.25909" lon="5.86538">
        <ele>285</ele>
        <time>2017-10-21T14:33:23Z</time>
      </trkpt>
      <trkpt lat="45.25904" lon="5.86538">
        <ele>285</ele>
        <time>2017-10-21T14:33:24Z</time>
      </trkpt>
      <trkpt lat="45.25898" lon="5.86537">
        <ele>285</ele>
        <time>2017-10-21T14:33:25Z</time>
      </trkpt>
      <trkpt lat="45.25886" lon="5.86541">
        <ele>285</ele>
        <time>2017-10-21T14:33:27Z</time>
      </trkpt>
      <trkpt lat="45.2588" lon="5.86534">
        <ele>286</ele>
        <time>2017-10-21T14:33:29Z</time>
      </trkpt>
      <trkpt lat="45.25874" lon="5.86532">
        <ele>286</ele>
        <time>2017-10-21T14:33:30Z</time>
      </trkpt>
      <trkpt lat="45.25867" lon="5.8653">
        <ele>286</ele>
        <time>2017-10-21T14:33:32Z</time>
      </trkpt>
      <trkpt lat="45.25861" lon="5.86529">
        <ele>286</ele>
        <time>2017-10-21T14:33:33Z</time>
      </trkpt>
      <trkpt lat="45.25855" lon="5.86527">
        <ele>286</ele>
        <time>2017-10-21T14:33:34Z</time>
      </trkpt>
      <trkpt lat="45.25845" lon="5.86526">
        <ele>286</ele>
        <time>2017-10-21T14:33:36Z</time>
      </trkpt>
      <trkpt lat="45.25837" lon="5.86522">
        <ele>287</ele>
        <time>2017-10-21T14:33:38Z</time>
      </trkpt>
      <trkpt lat="45.25829" lon="5.86518">
        <ele>288</ele>
        <time>2017-10-21T14:33:40Z</time>
      </trkpt>
      <trkpt lat="45.25822" lon="5.86518">
        <ele>287</ele>
        <time>2017-10-21T14:33:41Z</time>
      </trkpt>
      <trkpt lat="45.25817" lon="5.86518">
        <ele>287</ele>
        <time>2017-10-21T14:33:42Z</time>
      </trkpt>
      <trkpt lat="45.25811" lon="5.86517">
        <ele>286</ele>
        <time>2017-10-21T14:33:43Z</time>
      </trkpt>
      <trkpt lat="45.25802" lon="5.86514">
        <ele>285</ele>
        <time>2017-10-21T14:33:45Z</time>
      </trkpt>
      <trkpt lat="45.25798" lon="5.86511">
        <ele>285</ele>
        <time>2017-10-21T14:33:46Z</time>
      </trkpt>
      <trkpt lat="45.25793" lon="5.86508">
        <ele>285</ele>
        <time>2017-10-21T14:33:47Z</time>
      </trkpt>
      <trkpt lat="45.25784" lon="5.86504">
        <ele>285</ele>
        <time>2017-10-21T14:33:49Z</time>
      </trkpt>
      <trkpt lat="45.25779" lon="5.86501">
        <ele>285</ele>
        <time>2017-10-21T14:33:50Z</time>
      </trkpt>
      <trkpt lat="45.25774" lon="5.86499">
        <ele>284</ele>
        <time>2017-10-21T14:33:51Z</time>
      </trkpt>
      <trkpt lat="45.25767" lon="5.86494">
        <ele>285</ele>
        <time>2017-10-21T14:33:53Z</time>
      </trkpt>
      <trkpt lat="45.25763" lon="5.86492">
        <ele>284</ele>
        <time>2017-10-21T14:33:54Z</time>
      </trkpt>
      <trkpt lat="45.25755" lon="5.86484">
        <ele>285</ele>
        <time>2017-10-21T14:33:56Z</time>
      </trkpt>
      <trkpt lat="45.25747" lon="5.86479">
        <ele>285</ele>
        <time>2017-10-21T14:33:58Z</time>
      </trkpt>
      <trkpt lat="45.25744" lon="5.86469">
        <ele>287</ele>
        <time>2017-10-21T14:34:00Z</time>
      </trkpt>
      <trkpt lat="45.25734" lon="5.86463">
        <ele>287</ele>
        <time>2017-10-21T14:34:02Z</time>
      </trkpt>
      <trkpt lat="45.25727" lon="5.86456">
        <ele>288</ele>
        <time>2017-10-21T14:34:04Z</time>
      </trkpt>
      <trkpt lat="45.25722" lon="5.86451">
        <ele>288</ele>
        <time>2017-10-21T14:34:05Z</time>
      </trkpt>
      <trkpt lat="45.25715" lon="5.86443">
        <ele>289</ele>
        <time>2017-10-21T14:34:07Z</time>
      </trkpt>
      <trkpt lat="45.25709" lon="5.86438">
        <ele>289</ele>
        <time>2017-10-21T14:34:09Z</time>
      </trkpt>
      <trkpt lat="45.25703" lon="5.86434">
        <ele>289</ele>
        <time>2017-10-21T14:34:10Z</time>
      </trkpt>
      <trkpt lat="45.25697" lon="5.86428">
        <ele>290</ele>
        <time>2017-10-21T14:34:12Z</time>
      </trkpt>
      <trkpt lat="45.25692" lon="5.86424">
        <ele>290</ele>
        <time>2017-10-21T14:34:13Z</time>
      </trkpt>
      <trkpt lat="45.25682" lon="5.8642">
        <ele>290</ele>
        <time>2017-10-21T14:34:15Z</time>
      </trkpt>
      <trkpt lat="45.25677" lon="5.86418">
        <ele>290</ele>
        <time>2017-10-21T14:34:16Z</time>
      </trkpt>
      <trkpt lat="45.25668" lon="5.86414">
        <ele>290</ele>
        <time>2017-10-21T14:34:18Z</time>
      </trkpt>
      <trkpt lat="45.2566" lon="5.86411">
        <ele>290</ele>
        <time>2017-10-21T14:34:20Z</time>
      </trkpt>
      <trkpt lat="45.25649" lon="5.86406">
        <ele>290</ele>
        <time>2017-10-21T14:34:22Z</time>
      </trkpt>
      <trkpt lat="45.25642" lon="5.864">
        <ele>292</ele>
        <time>2017-10-21T14:34:24Z</time>
      </trkpt>
      <trkpt lat="45.25635" lon="5.86398">
        <ele>292</ele>
        <time>2017-10-21T14:34:25Z</time>
      </trkpt>
      <trkpt lat="45.25629" lon="5.86395">
        <ele>292</ele>
        <time>2017-10-21T14:34:27Z</time>
      </trkpt>
      <trkpt lat="45.25623" lon="5.86394">
        <ele>292</ele>
        <time>2017-10-21T14:34:28Z</time>
      </trkpt>
      <trkpt lat="45.25618" lon="5.86392">
        <ele>292</ele>
        <time>2017-10-21T14:34:29Z</time>
      </trkpt>
      <trkpt lat="45.2561" lon="5.86391">
        <ele>292</ele>
        <time>2017-10-21T14:34:31Z</time>
      </trkpt>
      <trkpt lat="45.25599" lon="5.86391">
        <ele>291</ele>
        <time>2017-10-21T14:34:33Z</time>
      </trkpt>
      <trkpt lat="45.25594" lon="5.86392">
        <ele>290</ele>
        <time>2017-10-21T14:34:34Z</time>
      </trkpt>
      <trkpt lat="45.25587" lon="5.86393">
        <ele>289</ele>
        <time>2017-10-21T14:34:36Z</time>
      </trkpt>
      <trkpt lat="45.2558" lon="5.86393">
        <ele>289</ele>
        <time>2017-10-21T14:34:37Z</time>
      </trkpt>
      <trkpt lat="45.25571" lon="5.86397">
        <ele>287</ele>
        <time>2017-10-21T14:34:39Z</time>
      </trkpt>
      <trkpt lat="45.25566" lon="5.86397">
        <ele>286</ele>
        <time>2017-10-21T14:34:40Z</time>
      </trkpt>
      <trkpt lat="45.25561" lon="5.86397">
        <ele>286</ele>
        <time>2017-10-21T14:34:41Z</time>
      </trkpt>
      <trkpt lat="45.25554" lon="5.86399">
        <ele>285</ele>
        <time>2017-10-21T14:34:42Z</time>
      </trkpt>
      <trkpt lat="45.25541" lon="5.86401">
        <ele>283</ele>
        <time>2017-10-21T14:34:44Z</time>
      </trkpt>
      <trkpt lat="45.25533" lon="5.86402">
        <ele>281</ele>
        <time>2017-10-21T14:34:46Z</time>
      </trkpt>
      <trkpt lat="45.25526" lon="5.86399">
        <ele>281</ele>
        <time>2017-10-21T14:34:48Z</time>
      </trkpt>
      <trkpt lat="45.25517" lon="5.86396">
        <ele>281</ele>
        <time>2017-10-21T14:34:50Z</time>
      </trkpt>
      <trkpt lat="45.25511" lon="5.86394">
        <ele>281</ele>
        <time>2017-10-21T14:34:52Z</time>
      </trkpt>
      <trkpt lat="45.25504" lon="5.86389">
        <ele>282</ele>
        <time>2017-10-21T14:34:54Z</time>
      </trkpt>
      <trkpt lat="45.25499" lon="5.86389">
        <ele>281</ele>
        <time>2017-10-21T14:34:55Z</time>
      </trkpt>
      <trkpt lat="45.25493" lon="5.86388">
        <ele>280</ele>
        <time>2017-10-21T14:34:56Z</time>
      </trkpt>
      <trkpt lat="45.25483" lon="5.86382">
        <ele>281</ele>
        <time>2017-10-21T14:34:58Z</time>
      </trkpt>
      <trkpt lat="45.25479" lon="5.86381">
        <ele>281</ele>
        <time>2017-10-21T14:34:59Z</time>
      </trkpt>
      <trkpt lat="45.25474" lon="5.8638">
        <ele>280</ele>
        <time>2017-10-21T14:35:00Z</time>
      </trkpt>
      <trkpt lat="45.25467" lon="5.86378">
        <ele>279</ele>
        <time>2017-10-21T14:35:01Z</time>
      </trkpt>
      <trkpt lat="45.25457" lon="5.86375">
        <ele>278</ele>
        <time>2017-10-21T14:35:03Z</time>
      </trkpt>
      <trkpt lat="45.25452" lon="5.86373">
        <ele>278</ele>
        <time>2017-10-21T14:35:04Z</time>
      </trkpt>
      <trkpt lat="45.25446" lon="5.86371">
        <ele>277</ele>
        <time>2017-10-21T14:35:05Z</time>
      </trkpt>
      <trkpt lat="45.25437" lon="5.86363">
        <ele>278</ele>
        <time>2017-10-21T14:35:07Z</time>
      </trkpt>
      <trkpt lat="45.2543" lon="5.86359">
        <ele>278</ele>
        <time>2017-10-21T14:35:08Z</time>
      </trkpt>
      <trkpt lat="45.25426" lon="5.86354">
        <ele>279</ele>
        <time>2017-10-21T14:35:09Z</time>
      </trkpt>
      <trkpt lat="45.25419" lon="5.86349">
        <ele>279</ele>
        <time>2017-10-21T14:35:10Z</time>
      </trkpt>
      <trkpt lat="45.25411" lon="5.86343">
        <ele>280</ele>
        <time>2017-10-21T14:35:11Z</time>
      </trkpt>
      <trkpt lat="45.25405" lon="5.86338">
        <ele>280</ele>
        <time>2017-10-21T14:35:12Z</time>
      </trkpt>
      <trkpt lat="45.25398" lon="5.86333">
        <ele>280</ele>
        <time>2017-10-21T14:35:13Z</time>
      </trkpt>
      <trkpt lat="45.25391" lon="5.86325">
        <ele>282</ele>
        <time>2017-10-21T14:35:14Z</time>
      </trkpt>
      <trkpt lat="45.25385" lon="5.8632">
        <ele>281</ele>
        <time>2017-10-21T14:35:15Z</time>
      </trkpt>
      <trkpt lat="45.25379" lon="5.86314">
        <ele>281</ele>
        <time>2017-10-21T14:35:16Z</time>
      </trkpt>
      <trkpt lat="45.2537" lon="5.8631">
        <ele>280</ele>
        <time>2017-10-21T14:35:17Z</time>
      </trkpt>
      <trkpt lat="45.25366" lon="5.86304">
        <ele>280</ele>
        <time>2017-10-21T14:35:18Z</time>
      </trkpt>
      <trkpt lat="45.25361" lon="5.86295">
        <ele>280</ele>
        <time>2017-10-21T14:35:19Z</time>
      </trkpt>
      <trkpt lat="45.25347" lon="5.8627">
        <ele>282</ele>
        <time>2017-10-21T14:35:22Z</time>
      </trkpt>
      <trkpt lat="45.25343" lon="5.86261">
        <ele>282</ele>
        <time>2017-10-21T14:35:23Z</time>
      </trkpt>
      <trkpt lat="45.2534" lon="5.86252">
        <ele>283</ele>
        <time>2017-10-21T14:35:24Z</time>
      </trkpt>
      <trkpt lat="45.25339" lon="5.86242">
        <ele>284</ele>
        <time>2017-10-21T14:35:25Z</time>
      </trkpt>
      <trkpt lat="45.25338" lon="5.86234">
        <ele>285</ele>
        <time>2017-10-21T14:35:26Z</time>
      </trkpt>
      <trkpt lat="45.25336" lon="5.86224">
        <ele>286</ele>
        <time>2017-10-21T14:35:27Z</time>
      </trkpt>
      <trkpt lat="45.25335" lon="5.86215">
        <ele>287</ele>
        <time>2017-10-21T14:35:28Z</time>
      </trkpt>
      <trkpt lat="45.25332" lon="5.86206">
        <ele>287</ele>
        <time>2017-10-21T14:35:29Z</time>
      </trkpt>
      <trkpt lat="45.25331" lon="5.86196">
        <ele>289</ele>
        <time>2017-10-21T14:35:30Z</time>
      </trkpt>
      <trkpt lat="45.2533" lon="5.86187">
        <ele>290</ele>
        <time>2017-10-21T14:35:31Z</time>
      </trkpt>
      <trkpt lat="45.25329" lon="5.86177">
        <ele>291</ele>
        <time>2017-10-21T14:35:32Z</time>
      </trkpt>
      <trkpt lat="45.25326" lon="5.86168">
        <ele>291</ele>
        <time>2017-10-21T14:35:33Z</time>
      </trkpt>
      <trkpt lat="45.25323" lon="5.8616">
        <ele>292</ele>
        <time>2017-10-21T14:35:34Z</time>
      </trkpt>
      <trkpt lat="45.25319" lon="5.86152">
        <ele>292</ele>
        <time>2017-10-21T14:35:35Z</time>
      </trkpt>
      <trkpt lat="45.25317" lon="5.86143">
        <ele>292</ele>
        <time>2017-10-21T14:35:36Z</time>
      </trkpt>
      <trkpt lat="45.25314" lon="5.86135">
        <ele>293</ele>
        <time>2017-10-21T14:35:37Z</time>
      </trkpt>
      <trkpt lat="45.25312" lon="5.86126">
        <ele>293</ele>
        <time>2017-10-21T14:35:38Z</time>
      </trkpt>
      <trkpt lat="45.25306" lon="5.8612">
        <ele>293</ele>
        <time>2017-10-21T14:35:39Z</time>
      </trkpt>
      <trkpt lat="45.25304" lon="5.86112">
        <ele>294</ele>
        <time>2017-10-21T14:35:40Z</time>
      </trkpt>
      <trkpt lat="45.25301" lon="5.86105">
        <ele>294</ele>
        <time>2017-10-21T14:35:41Z</time>
      </trkpt>
      <trkpt lat="45.25298" lon="5.86098">
        <ele>294</ele>
        <time>2017-10-21T14:35:42Z</time>
      </trkpt>
      <trkpt lat="45.25295" lon="5.86089">
        <ele>294</ele>
        <time>2017-10-21T14:35:43Z</time>
      </trkpt>
      <trkpt lat="45.25292" lon="5.86083">
        <ele>294</ele>
        <time>2017-10-21T14:35:44Z</time>
      </trkpt>
      <trkpt lat="45.25289" lon="5.86076">
        <ele>294</ele>
        <time>2017-10-21T14:35:45Z</time>
      </trkpt>
      <trkpt lat="45.25287" lon="5.86068">
        <ele>294</ele>
        <time>2017-10-21T14:35:46Z</time>
      </trkpt>
      <trkpt lat="45.2528" lon="5.86055">
        <ele>294</ele>
        <time>2017-10-21T14:35:48Z</time>
      </trkpt>
      <trkpt lat="45.25273" lon="5.86043">
        <ele>294</ele>
        <time>2017-10-21T14:35:50Z</time>
      </trkpt>
      <trkpt lat="45.25266" lon="5.8603">
        <ele>294</ele>
        <time>2017-10-21T14:35:52Z</time>
      </trkpt>
      <trkpt lat="45.25263" lon="5.86022">
        <ele>294</ele>
        <time>2017-10-21T14:35:53Z</time>
      </trkpt>
      <trkpt lat="45.25258" lon="5.86015">
        <ele>294</ele>
        <time>2017-10-21T14:35:54Z</time>
      </trkpt>
      <trkpt lat="45.25253" lon="5.86009">
        <ele>294</ele>
        <time>2017-10-21T14:35:55Z</time>
      </trkpt>
      <trkpt lat="45.2525" lon="5.86003">
        <ele>294</ele>
        <time>2017-10-21T14:35:56Z</time>
      </trkpt>
      <trkpt lat="45.25245" lon="5.85995">
        <ele>294</ele>
        <time>2017-10-21T14:35:57Z</time>
      </trkpt>
      <trkpt lat="45.25243" lon="5.85988">
        <ele>294</ele>
        <time>2017-10-21T14:35:58Z</time>
      </trkpt>
      <trkpt lat="45.25238" lon="5.85981">
        <ele>294</ele>
        <time>2017-10-21T14:35:59Z</time>
      </trkpt>
      <trkpt lat="45.25234" lon="5.85974">
        <ele>294</ele>
        <time>2017-10-21T14:36:00Z</time>
      </trkpt>
      <trkpt lat="45.2523" lon="5.85968">
        <ele>294</ele>
        <time>2017-10-21T14:36:01Z</time>
      </trkpt>
      <trkpt lat="45.25227" lon="5.8596">
        <ele>294</ele>
        <time>2017-10-21T14:36:02Z</time>
      </trkpt>
      <trkpt lat="45.25224" lon="5.85953">
        <ele>294</ele>
        <time>2017-10-21T14:36:03Z</time>
      </trkpt>
      <trkpt lat="45.25219" lon="5.85945">
        <ele>293</ele>
        <time>2017-10-21T14:36:04Z</time>
      </trkpt>
      <trkpt lat="45.25214" lon="5.85937">
        <ele>293</ele>
        <time>2017-10-21T14:36:05Z</time>
      </trkpt>
      <trkpt lat="45.2521" lon="5.85933">
        <ele>292</ele>
        <time>2017-10-21T14:36:06Z</time>
      </trkpt>
      <trkpt lat="45.25203" lon="5.85917">
        <ele>292</ele>
        <time>2017-10-21T14:36:08Z</time>
      </trkpt>
      <trkpt lat="45.25196" lon="5.85903">
        <ele>292</ele>
        <time>2017-10-21T14:36:10Z</time>
      </trkpt>
      <trkpt lat="45.25194" lon="5.85896">
        <ele>292</ele>
        <time>2017-10-21T14:36:11Z</time>
      </trkpt>
      <trkpt lat="45.2519" lon="5.85889">
        <ele>292</ele>
        <time>2017-10-21T14:36:12Z</time>
      </trkpt>
      <trkpt lat="45.25187" lon="5.8588">
        <ele>292</ele>
        <time>2017-10-21T14:36:13Z</time>
      </trkpt>
      <trkpt lat="45.25184" lon="5.85873">
        <ele>292</ele>
        <time>2017-10-21T14:36:14Z</time>
      </trkpt>
      <trkpt lat="45.25182" lon="5.85867">
        <ele>291</ele>
        <time>2017-10-21T14:36:15Z</time>
      </trkpt>
      <trkpt lat="45.25178" lon="5.85852">
        <ele>291</ele>
        <time>2017-10-21T14:36:17Z</time>
      </trkpt>
      <trkpt lat="45.25174" lon="5.85845">
        <ele>291</ele>
        <time>2017-10-21T14:36:18Z</time>
      </trkpt>
      <trkpt lat="45.25171" lon="5.85838">
        <ele>291</ele>
        <time>2017-10-21T14:36:19Z</time>
      </trkpt>
      <trkpt lat="45.25169" lon="5.8583">
        <ele>292</ele>
        <time>2017-10-21T14:36:20Z</time>
      </trkpt>
      <trkpt lat="45.25167" lon="5.8582">
        <ele>292</ele>
        <time>2017-10-21T14:36:21Z</time>
      </trkpt>
      <trkpt lat="45.25164" lon="5.85813">
        <ele>292</ele>
        <time>2017-10-21T14:36:22Z</time>
      </trkpt>
      <trkpt lat="45.25161" lon="5.85804">
        <ele>292</ele>
        <time>2017-10-21T14:36:23Z</time>
      </trkpt>
      <trkpt lat="45.25154" lon="5.85791">
        <ele>292</ele>
        <time>2017-10-21T14:36:25Z</time>
      </trkpt>
      <trkpt lat="45.2515" lon="5.85784">
        <ele>292</ele>
        <time>2017-10-21T14:36:26Z</time>
      </trkpt>
      <trkpt lat="45.25148" lon="5.85777">
        <ele>292</ele>
        <time>2017-10-21T14:36:27Z</time>
      </trkpt>
      <trkpt lat="45.25139" lon="5.85763">
        <ele>292</ele>
        <time>2017-10-21T14:36:29Z</time>
      </trkpt>
      <trkpt lat="45.25134" lon="5.85752">
        <ele>292</ele>
        <time>2017-10-21T14:36:31Z</time>
      </trkpt>
      <trkpt lat="45.25129" lon="5.85748">
        <ele>291</ele>
        <time>2017-10-21T14:36:32Z</time>
      </trkpt>
      <trkpt lat="45.25125" lon="5.85743">
        <ele>291</ele>
        <time>2017-10-21T14:36:33Z</time>
      </trkpt>
      <trkpt lat="45.25123" lon="5.85737">
        <ele>291</ele>
        <time>2017-10-21T14:36:34Z</time>
      </trkpt>
      <trkpt lat="45.25118" lon="5.85733">
        <ele>291</ele>
        <time>2017-10-21T14:36:35Z</time>
      </trkpt>
      <trkpt lat="45.25115" lon="5.85727">
        <ele>291</ele>
        <time>2017-10-21T14:36:36Z</time>
      </trkpt>
      <trkpt lat="45.25112" lon="5.85721">
        <ele>291</ele>
        <time>2017-10-21T14:36:37Z</time>
      </trkpt>
      <trkpt lat="45.25104" lon="5.85711">
        <ele>290</ele>
        <time>2017-10-21T14:36:39Z</time>
      </trkpt>
      <trkpt lat="45.25097" lon="5.85703">
        <ele>290</ele>
        <time>2017-10-21T14:36:41Z</time>
      </trkpt>
      <trkpt lat="45.25091" lon="5.85698">
        <ele>290</ele>
        <time>2017-10-21T14:36:42Z</time>
      </trkpt>
      <trkpt lat="45.25087" lon="5.85693">
        <ele>290</ele>
        <time>2017-10-21T14:36:43Z</time>
      </trkpt>
      <trkpt lat="45.25083" lon="5.8569">
        <ele>289</ele>
        <time>2017-10-21T14:36:44Z</time>
      </trkpt>
      <trkpt lat="45.25079" lon="5.85686">
        <ele>289</ele>
        <time>2017-10-21T14:36:45Z</time>
      </trkpt>
      <trkpt lat="45.25074" lon="5.85681">
        <ele>289</ele>
        <time>2017-10-21T14:36:46Z</time>
      </trkpt>
      <trkpt lat="45.2507" lon="5.85676">
        <ele>289</ele>
        <time>2017-10-21T14:36:47Z</time>
      </trkpt>
      <trkpt lat="45.25066" lon="5.85671">
        <ele>288</ele>
        <time>2017-10-21T14:36:48Z</time>
      </trkpt>
      <trkpt lat="45.2506" lon="5.85661">
        <ele>289</ele>
        <time>2017-10-21T14:36:50Z</time>
      </trkpt>
      <trkpt lat="45.25052" lon="5.85654">
        <ele>289</ele>
        <time>2017-10-21T14:36:52Z</time>
      </trkpt>
      <trkpt lat="45.25047" lon="5.85649">
        <ele>289</ele>
        <time>2017-10-21T14:36:53Z</time>
      </trkpt>
      <trkpt lat="45.2504" lon="5.85639">
        <ele>289</ele>
        <time>2017-10-21T14:36:55Z</time>
      </trkpt>
      <trkpt lat="45.25034" lon="5.85629">
        <ele>290</ele>
        <time>2017-10-21T14:36:57Z</time>
      </trkpt>
      <trkpt lat="45.25031" lon="5.85624">
        <ele>290</ele>
        <time>2017-10-21T14:36:58Z</time>
      </trkpt>
      <trkpt lat="45.25028" lon="5.85617">
        <ele>290</ele>
        <time>2017-10-21T14:36:59Z</time>
      </trkpt>
      <trkpt lat="45.25026" lon="5.85611">
        <ele>290</ele>
        <time>2017-10-21T14:37:00Z</time>
      </trkpt>
      <trkpt lat="45.25025" lon="5.85604">
        <ele>291</ele>
        <time>2017-10-21T14:37:01Z</time>
      </trkpt>
      <trkpt lat="45.25022" lon="5.85598">
        <ele>291</ele>
        <time>2017-10-21T14:37:02Z</time>
      </trkpt>
      <trkpt lat="45.2502" lon="5.8559">
        <ele>292</ele>
        <time>2017-10-21T14:37:03Z</time>
      </trkpt>
      <trkpt lat="45.25019" lon="5.85584">
        <ele>292</ele>
        <time>2017-10-21T14:37:04Z</time>
      </trkpt>
      <trkpt lat="45.25017" lon="5.85576">
        <ele>292</ele>
        <time>2017-10-21T14:37:05Z</time>
      </trkpt>
      <trkpt lat="45.25015" lon="5.85567">
        <ele>293</ele>
        <time>2017-10-21T14:37:06Z</time>
      </trkpt>
      <trkpt lat="45.25014" lon="5.8556">
        <ele>293</ele>
        <time>2017-10-21T14:37:07Z</time>
      </trkpt>
      <trkpt lat="45.25014" lon="5.85553">
        <ele>293</ele>
        <time>2017-10-21T14:37:08Z</time>
      </trkpt>
      <trkpt lat="45.25013" lon="5.85544">
        <ele>292</ele>
        <time>2017-10-21T14:37:09Z</time>
      </trkpt>
      <trkpt lat="45.25013" lon="5.85536">
        <ele>292</ele>
        <time>2017-10-21T14:37:10Z</time>
      </trkpt>
      <trkpt lat="45.25016" lon="5.85527">
        <ele>293</ele>
        <time>2017-10-21T14:37:11Z</time>
      </trkpt>
      <trkpt lat="45.25016" lon="5.8552">
        <ele>293</ele>
        <time>2017-10-21T14:37:12Z</time>
      </trkpt>
      <trkpt lat="45.25017" lon="5.85511">
        <ele>293</ele>
        <time>2017-10-21T14:37:13Z</time>
      </trkpt>
      <trkpt lat="45.25019" lon="5.85503">
        <ele>293</ele>
        <time>2017-10-21T14:37:14Z</time>
      </trkpt>
      <trkpt lat="45.25021" lon="5.85496">
        <ele>293</ele>
        <time>2017-10-21T14:37:15Z</time>
      </trkpt>
      <trkpt lat="45.25031" lon="5.85486">
        <ele>294</ele>
        <time>2017-10-21T14:37:17Z</time>
      </trkpt>
      <trkpt lat="45.25036" lon="5.8548">
        <ele>295</ele>
        <time>2017-10-21T14:37:18Z</time>
      </trkpt>
      <trkpt lat="45.25039" lon="5.85473">
        <ele>295</ele>
        <time>2017-10-21T14:37:19Z</time>
      </trkpt>
      <trkpt lat="45.25044" lon="5.85468">
        <ele>295</ele>
        <time>2017-10-21T14:37:20Z</time>
      </trkpt>
      <trkpt lat="45.25047" lon="5.85462">
        <ele>296</ele>
        <time>2017-10-21T14:37:21Z</time>
      </trkpt>
      <trkpt lat="45.2505" lon="5.85455">
        <ele>296</ele>
        <time>2017-10-21T14:37:22Z</time>
      </trkpt>
      <trkpt lat="45.25053" lon="5.8545">
        <ele>296</ele>
        <time>2017-10-21T14:37:23Z</time>
      </trkpt>
      <trkpt lat="45.25057" lon="5.85444">
        <ele>296</ele>
        <time>2017-10-21T14:37:24Z</time>
      </trkpt>
      <trkpt lat="45.25065" lon="5.85432">
        <ele>297</ele>
        <time>2017-10-21T14:37:26Z</time>
      </trkpt>
      <trkpt lat="45.25069" lon="5.85426">
        <ele>298</ele>
        <time>2017-10-21T14:37:27Z</time>
      </trkpt>
      <trkpt lat="45.25073" lon="5.85419">
        <ele>298</ele>
        <time>2017-10-21T14:37:28Z</time>
      </trkpt>
      <trkpt lat="45.25076" lon="5.85413">
        <ele>299</ele>
        <time>2017-10-21T14:37:29Z</time>
      </trkpt>
      <trkpt lat="45.25079" lon="5.85405">
        <ele>299</ele>
        <time>2017-10-21T14:37:30Z</time>
      </trkpt>
      <trkpt lat="45.2508" lon="5.85397">
        <ele>299</ele>
        <time>2017-10-21T14:37:31Z</time>
      </trkpt>
      <trkpt lat="45.25081" lon="5.8539">
        <ele>300</ele>
        <time>2017-10-21T14:37:32Z</time>
      </trkpt>
      <trkpt lat="45.25081" lon="5.85381">
        <ele>300</ele>
        <time>2017-10-21T14:37:33Z</time>
      </trkpt>
      <trkpt lat="45.25081" lon="5.85372">
        <ele>299</ele>
        <time>2017-10-21T14:37:34Z</time>
      </trkpt>
      <trkpt lat="45.25081" lon="5.85364">
        <ele>299</ele>
        <time>2017-10-21T14:37:35Z</time>
      </trkpt>
      <trkpt lat="45.25081" lon="5.85355">
        <ele>299</ele>
        <time>2017-10-21T14:37:36Z</time>
      </trkpt>
      <trkpt lat="45.25082" lon="5.85347">
        <ele>299</ele>
        <time>2017-10-21T14:37:37Z</time>
      </trkpt>
      <trkpt lat="45.2508" lon="5.85337">
        <ele>299</ele>
        <time>2017-10-21T14:37:38Z</time>
      </trkpt>
      <trkpt lat="45.2508" lon="5.85329">
        <ele>299</ele>
        <time>2017-10-21T14:37:39Z</time>
      </trkpt>
      <trkpt lat="45.25081" lon="5.8532">
        <ele>298</ele>
        <time>2017-10-21T14:37:40Z</time>
      </trkpt>
      <trkpt lat="45.2508" lon="5.8531">
        <ele>298</ele>
        <time>2017-10-21T14:37:41Z</time>
      </trkpt>
      <trkpt lat="45.2508" lon="5.85303">
        <ele>298</ele>
        <time>2017-10-21T14:37:42Z</time>
      </trkpt>
      <trkpt lat="45.25079" lon="5.85293">
        <ele>298</ele>
        <time>2017-10-21T14:37:43Z</time>
      </trkpt>
      <trkpt lat="45.25079" lon="5.85285">
        <ele>298</ele>
        <time>2017-10-21T14:37:44Z</time>
      </trkpt>
      <trkpt lat="45.25081" lon="5.85277">
        <ele>298</ele>
        <time>2017-10-21T14:37:45Z</time>
      </trkpt>
      <trkpt lat="45.25081" lon="5.85269">
        <ele>298</ele>
        <time>2017-10-21T14:37:46Z</time>
      </trkpt>
      <trkpt lat="45.25083" lon="5.85262">
        <ele>298</ele>
        <time>2017-10-21T14:37:47Z</time>
      </trkpt>
      <trkpt lat="45.25084" lon="5.85254">
        <ele>298</ele>
        <time>2017-10-21T14:37:48Z</time>
      </trkpt>
      <trkpt lat="45.25086" lon="5.85246">
        <ele>298</ele>
        <time>2017-10-21T14:37:49Z</time>
      </trkpt>
      <trkpt lat="45.25088" lon="5.85238">
        <ele>298</ele>
        <time>2017-10-21T14:37:50Z</time>
      </trkpt>
      <trkpt lat="45.25091" lon="5.8523">
        <ele>298</ele>
        <time>2017-10-21T14:37:51Z</time>
      </trkpt>
      <trkpt lat="45.25094" lon="5.85223">
        <ele>298</ele>
        <time>2017-10-21T14:37:52Z</time>
      </trkpt>
      <trkpt lat="45.25096" lon="5.85215">
        <ele>298</ele>
        <time>2017-10-21T14:37:53Z</time>
      </trkpt>
      <trkpt lat="45.25098" lon="5.85208">
        <ele>298</ele>
        <time>2017-10-21T14:37:54Z</time>
      </trkpt>
      <trkpt lat="45.25103" lon="5.85202">
        <ele>299</ele>
        <time>2017-10-21T14:37:55Z</time>
      </trkpt>
      <trkpt lat="45.25104" lon="5.85194">
        <ele>299</ele>
        <time>2017-10-21T14:37:56Z</time>
      </trkpt>
      <trkpt lat="45.25105" lon="5.85185">
        <ele>298</ele>
        <time>2017-10-21T14:37:57Z</time>
      </trkpt>
      <trkpt lat="45.25107" lon="5.85178">
        <ele>298</ele>
        <time>2017-10-21T14:37:58Z</time>
      </trkpt>
      <trkpt lat="45.25111" lon="5.85171">
        <ele>299</ele>
        <time>2017-10-21T14:37:59Z</time>
      </trkpt>
      <trkpt lat="45.25114" lon="5.85163">
        <ele>299</ele>
        <time>2017-10-21T14:38:00Z</time>
      </trkpt>
      <trkpt lat="45.25115" lon="5.85154">
        <ele>299</ele>
        <time>2017-10-21T14:38:01Z</time>
      </trkpt>
      <trkpt lat="45.25116" lon="5.85144">
        <ele>299</ele>
        <time>2017-10-21T14:38:02Z</time>
      </trkpt>
      <trkpt lat="45.25112" lon="5.85137">
        <ele>299</ele>
        <time>2017-10-21T14:38:03Z</time>
      </trkpt>
      <trkpt lat="45.2511" lon="5.85128">
        <ele>299</ele>
        <time>2017-10-21T14:38:04Z</time>
      </trkpt>
      <trkpt lat="45.25106" lon="5.85117">
        <ele>298</ele>
        <time>2017-10-21T14:38:05Z</time>
      </trkpt>
      <trkpt lat="45.25104" lon="5.85109">
        <ele>298</ele>
        <time>2017-10-21T14:38:06Z</time>
      </trkpt>
      <trkpt lat="45.25101" lon="5.85102">
        <ele>298</ele>
        <time>2017-10-21T14:38:07Z</time>
      </trkpt>
      <trkpt lat="45.25095" lon="5.85091">
        <ele>298</ele>
        <time>2017-10-21T14:38:09Z</time>
      </trkpt>
      <trkpt lat="45.25092" lon="5.85084">
        <ele>298</ele>
        <time>2017-10-21T14:38:10Z</time>
      </trkpt>
      <trkpt lat="45.25087" lon="5.85078">
        <ele>298</ele>
        <time>2017-10-21T14:38:11Z</time>
      </trkpt>
      <trkpt lat="45.25084" lon="5.85072">
        <ele>298</ele>
        <time>2017-10-21T14:38:12Z</time>
      </trkpt>
      <trkpt lat="45.25079" lon="5.85065">
        <ele>297</ele>
        <time>2017-10-21T14:38:13Z</time>
      </trkpt>
      <trkpt lat="45.25076" lon="5.85059">
        <ele>297</ele>
        <time>2017-10-21T14:38:14Z</time>
      </trkpt>
      <trkpt lat="45.25071" lon="5.85054">
        <ele>297</ele>
        <time>2017-10-21T14:38:15Z</time>
      </trkpt>
      <trkpt lat="45.25068" lon="5.85048">
        <ele>297</ele>
        <time>2017-10-21T14:38:16Z</time>
      </trkpt>
      <trkpt lat="45.25064" lon="5.85041">
        <ele>297</ele>
        <time>2017-10-21T14:38:17Z</time>
      </trkpt>
      <trkpt lat="45.25061" lon="5.85036">
        <ele>297</ele>
        <time>2017-10-21T14:38:18Z</time>
      </trkpt>
      <trkpt lat="45.25057" lon="5.85031">
        <ele>297</ele>
        <time>2017-10-21T14:38:19Z</time>
      </trkpt>
      <trkpt lat="45.25052" lon="5.85025">
        <ele>296</ele>
        <time>2017-10-21T14:38:20Z</time>
      </trkpt>
      <trkpt lat="45.25049" lon="5.85019">
        <ele>296</ele>
        <time>2017-10-21T14:38:21Z</time>
      </trkpt>
      <trkpt lat="45.25041" lon="5.85008">
        <ele>296</ele>
        <time>2017-10-21T14:38:23Z</time>
      </trkpt>
      <trkpt lat="45.25036" lon="5.84997">
        <ele>296</ele>
        <time>2017-10-21T14:38:25Z</time>
      </trkpt>
      <trkpt lat="45.25034" lon="5.84989">
        <ele>296</ele>
        <time>2017-10-21T14:38:26Z</time>
      </trkpt>
      <trkpt lat="45.25031" lon="5.84975">
        <ele>296</ele>
        <time>2017-10-21T14:38:28Z</time>
      </trkpt>
      <trkpt lat="45.25029" lon="5.84965">
        <ele>296</ele>
        <time>2017-10-21T14:38:29Z</time>
      </trkpt>
      <trkpt lat="45.25029" lon="5.84949">
        <ele>296</ele>
        <time>2017-10-21T14:38:31Z</time>
      </trkpt>
      <trkpt lat="45.25029" lon="5.84942">
        <ele>296</ele>
        <time>2017-10-21T14:38:32Z</time>
      </trkpt>
      <trkpt lat="45.25029" lon="5.84935">
        <ele>296</ele>
        <time>2017-10-21T14:38:33Z</time>
      </trkpt>
      <trkpt lat="45.25031" lon="5.84926">
        <ele>296</ele>
        <time>2017-10-21T14:38:34Z</time>
      </trkpt>
      <trkpt lat="45.25032" lon="5.84919">
        <ele>297</ele>
        <time>2017-10-21T14:38:35Z</time>
      </trkpt>
      <trkpt lat="45.25034" lon="5.8491">
        <ele>297</ele>
        <time>2017-10-21T14:38:36Z</time>
      </trkpt>
      <trkpt lat="45.25036" lon="5.84903">
        <ele>297</ele>
        <time>2017-10-21T14:38:37Z</time>
      </trkpt>
      <trkpt lat="45.25037" lon="5.84896">
        <ele>297</ele>
        <time>2017-10-21T14:38:38Z</time>
      </trkpt>
      <trkpt lat="45.25039" lon="5.84887">
        <ele>297</ele>
        <time>2017-10-21T14:38:39Z</time>
      </trkpt>
      <trkpt lat="45.25042" lon="5.84881">
        <ele>298</ele>
        <time>2017-10-21T14:38:40Z</time>
      </trkpt>
      <trkpt lat="45.25044" lon="5.84873">
        <ele>298</ele>
        <time>2017-10-21T14:38:41Z</time>
      </trkpt>
      <trkpt lat="45.25051" lon="5.8486">
        <ele>298</ele>
        <time>2017-10-21T14:38:43Z</time>
      </trkpt>
      <trkpt lat="45.25053" lon="5.84853">
        <ele>298</ele>
        <time>2017-10-21T14:38:44Z</time>
      </trkpt>
      <trkpt lat="45.25057" lon="5.84845">
        <ele>299</ele>
        <time>2017-10-21T14:38:45Z</time>
      </trkpt>
      <trkpt lat="45.25059" lon="5.84837">
        <ele>299</ele>
        <time>2017-10-21T14:38:46Z</time>
      </trkpt>
      <trkpt lat="45.25061" lon="5.84829">
        <ele>299</ele>
        <time>2017-10-21T14:38:47Z</time>
      </trkpt>
      <trkpt lat="45.25064" lon="5.84822">
        <ele>299</ele>
        <time>2017-10-21T14:38:48Z</time>
      </trkpt>
      <trkpt lat="45.25066" lon="5.84815">
        <ele>299</ele>
        <time>2017-10-21T14:38:49Z</time>
      </trkpt>
      <trkpt lat="45.25071" lon="5.84801">
        <ele>299</ele>
        <time>2017-10-21T14:38:51Z</time>
      </trkpt>
      <trkpt lat="45.25073" lon="5.84793">
        <ele>299</ele>
        <time>2017-10-21T14:38:52Z</time>
      </trkpt>
      <trkpt lat="45.25075" lon="5.84786">
        <ele>299</ele>
        <time>2017-10-21T14:38:53Z</time>
      </trkpt>
      <trkpt lat="45.25079" lon="5.8478">
        <ele>299</ele>
        <time>2017-10-21T14:38:54Z</time>
      </trkpt>
      <trkpt lat="45.25081" lon="5.84773">
        <ele>299</ele>
        <time>2017-10-21T14:38:55Z</time>
      </trkpt>
      <trkpt lat="45.25084" lon="5.84766">
        <ele>300</ele>
        <time>2017-10-21T14:38:56Z</time>
      </trkpt>
      <trkpt lat="45.25087" lon="5.84759">
        <ele>300</ele>
        <time>2017-10-21T14:38:57Z</time>
      </trkpt>
      <trkpt lat="45.2509" lon="5.84751">
        <ele>300</ele>
        <time>2017-10-21T14:38:58Z</time>
      </trkpt>
      <trkpt lat="45.25092" lon="5.84745">
        <ele>300</ele>
        <time>2017-10-21T14:38:59Z</time>
      </trkpt>
      <trkpt lat="45.25095" lon="5.84738">
        <ele>300</ele>
        <time>2017-10-21T14:39:00Z</time>
      </trkpt>
      <trkpt lat="45.25097" lon="5.84731">
        <ele>301</ele>
        <time>2017-10-21T14:39:01Z</time>
      </trkpt>
      <trkpt lat="45.25103" lon="5.84718">
        <ele>301</ele>
        <time>2017-10-21T14:39:03Z</time>
      </trkpt>
      <trkpt lat="45.25106" lon="5.84704">
        <ele>301</ele>
        <time>2017-10-21T14:39:05Z</time>
      </trkpt>
      <trkpt lat="45.25107" lon="5.84697">
        <ele>301</ele>
        <time>2017-10-21T14:39:06Z</time>
      </trkpt>
      <trkpt lat="45.25105" lon="5.8469">
        <ele>301</ele>
        <time>2017-10-21T14:39:07Z</time>
      </trkpt>
      <trkpt lat="45.25104" lon="5.84684">
        <ele>301</ele>
        <time>2017-10-21T14:39:08Z</time>
      </trkpt>
      <trkpt lat="45.25102" lon="5.84668">
        <ele>301</ele>
        <time>2017-10-21T14:39:10Z</time>
      </trkpt>
      <trkpt lat="45.25102" lon="5.8466">
        <ele>301</ele>
        <time>2017-10-21T14:39:11Z</time>
      </trkpt>
      <trkpt lat="45.25101" lon="5.84652">
        <ele>301</ele>
        <time>2017-10-21T14:39:12Z</time>
      </trkpt>
      <trkpt lat="45.251" lon="5.84644">
        <ele>301</ele>
        <time>2017-10-21T14:39:13Z</time>
      </trkpt>
      <trkpt lat="45.251" lon="5.84636">
        <ele>301</ele>
        <time>2017-10-21T14:39:14Z</time>
      </trkpt>
      <trkpt lat="45.25099" lon="5.84628">
        <ele>301</ele>
        <time>2017-10-21T14:39:15Z</time>
      </trkpt>
      <trkpt lat="45.251" lon="5.8462">
        <ele>301</ele>
        <time>2017-10-21T14:39:16Z</time>
      </trkpt>
      <trkpt lat="45.25098" lon="5.84612">
        <ele>301</ele>
        <time>2017-10-21T14:39:17Z</time>
      </trkpt>
      <trkpt lat="45.25096" lon="5.84605">
        <ele>301</ele>
        <time>2017-10-21T14:39:18Z</time>
      </trkpt>
      <trkpt lat="45.25095" lon="5.84598">
        <ele>301</ele>
        <time>2017-10-21T14:39:19Z</time>
      </trkpt>
      <trkpt lat="45.25094" lon="5.84591">
        <ele>301</ele>
        <time>2017-10-21T14:39:20Z</time>
      </trkpt>
      <trkpt lat="45.25094" lon="5.84584">
        <ele>301</ele>
        <time>2017-10-21T14:39:21Z</time>
      </trkpt>
      <trkpt lat="45.25092" lon="5.84576">
        <ele>301</ele>
        <time>2017-10-21T14:39:22Z</time>
      </trkpt>
      <trkpt lat="45.2509" lon="5.84564">
        <ele>301</ele>
        <time>2017-10-21T14:39:24Z</time>
      </trkpt>
      <trkpt lat="45.25089" lon="5.84557">
        <ele>301</ele>
        <time>2017-10-21T14:39:25Z</time>
      </trkpt>
      <trkpt lat="45.25089" lon="5.84543">
        <ele>302</ele>
        <time>2017-10-21T14:39:27Z</time>
      </trkpt>
      <trkpt lat="45.25089" lon="5.84534">
        <ele>302</ele>
        <time>2017-10-21T14:39:28Z</time>
      </trkpt>
      <trkpt lat="45.25085" lon="5.84522">
        <ele>302</ele>
        <time>2017-10-21T14:39:30Z</time>
      </trkpt>
      <trkpt lat="45.25082" lon="5.84511">
        <ele>302</ele>
        <time>2017-10-21T14:39:32Z</time>
      </trkpt>
      <trkpt lat="45.2508" lon="5.84504">
        <ele>302</ele>
        <time>2017-10-21T14:39:33Z</time>
      </trkpt>
      <trkpt lat="45.25077" lon="5.84498">
        <ele>301</ele>
        <time>2017-10-21T14:39:34Z</time>
      </trkpt>
      <trkpt lat="45.25076" lon="5.84492">
        <ele>301</ele>
        <time>2017-10-21T14:39:35Z</time>
      </trkpt>
      <trkpt lat="45.25074" lon="5.84486">
        <ele>301</ele>
        <time>2017-10-21T14:39:36Z</time>
      </trkpt>
      <trkpt lat="45.25068" lon="5.84476">
        <ele>301</ele>
        <time>2017-10-21T14:39:38Z</time>
      </trkpt>
      <trkpt lat="45.25063" lon="5.84466">
        <ele>301</ele>
        <time>2017-10-21T14:39:40Z</time>
      </trkpt>
      <trkpt lat="45.2506" lon="5.84461">
        <ele>301</ele>
        <time>2017-10-21T14:39:41Z</time>
      </trkpt>
      <trkpt lat="45.25057" lon="5.84449">
        <ele>301</ele>
        <time>2017-10-21T14:39:43Z</time>
      </trkpt>
      <trkpt lat="45.25053" lon="5.84437">
        <ele>301</ele>
        <time>2017-10-21T14:39:45Z</time>
      </trkpt>
      <trkpt lat="45.25051" lon="5.8443">
        <ele>301</ele>
        <time>2017-10-21T14:39:46Z</time>
      </trkpt>
      <trkpt lat="45.2505" lon="5.84422">
        <ele>301</ele>
        <time>2017-10-21T14:39:47Z</time>
      </trkpt>
      <trkpt lat="45.25049" lon="5.84415">
        <ele>301</ele>
        <time>2017-10-21T14:39:48Z</time>
      </trkpt>
      <trkpt lat="45.25048" lon="5.84408">
        <ele>301</ele>
        <time>2017-10-21T14:39:49Z</time>
      </trkpt>
      <trkpt lat="45.25048" lon="5.84393">
        <ele>302</ele>
        <time>2017-10-21T14:39:51Z</time>
      </trkpt>
      <trkpt lat="45.25048" lon="5.84386">
        <ele>302</ele>
        <time>2017-10-21T14:39:52Z</time>
      </trkpt>
      <trkpt lat="45.25052" lon="5.84372">
        <ele>302</ele>
        <time>2017-10-21T14:39:54Z</time>
      </trkpt>
      <trkpt lat="45.25054" lon="5.84359">
        <ele>303</ele>
        <time>2017-10-21T14:39:56Z</time>
      </trkpt>
      <trkpt lat="45.25052" lon="5.8435">
        <ele>302</ele>
        <time>2017-10-21T14:39:57Z</time>
      </trkpt>
      <trkpt lat="45.25051" lon="5.84343">
        <ele>303</ele>
        <time>2017-10-21T14:39:58Z</time>
      </trkpt>
      <trkpt lat="45.25048" lon="5.84335">
        <ele>302</ele>
        <time>2017-10-21T14:39:59Z</time>
      </trkpt>
      <trkpt lat="45.25046" lon="5.84328">
        <ele>302</ele>
        <time>2017-10-21T14:40:00Z</time>
      </trkpt>
      <trkpt lat="45.25045" lon="5.84321">
        <ele>303</ele>
        <time>2017-10-21T14:40:01Z</time>
      </trkpt>
      <trkpt lat="45.25046" lon="5.84312">
        <ele>303</ele>
        <time>2017-10-21T14:40:02Z</time>
      </trkpt>
      <trkpt lat="45.25048" lon="5.84304">
        <ele>303</ele>
        <time>2017-10-21T14:40:03Z</time>
      </trkpt>
      <trkpt lat="45.25055" lon="5.84289">
        <ele>304</ele>
        <time>2017-10-21T14:40:05Z</time>
      </trkpt>
      <trkpt lat="45.25058" lon="5.84283">
        <ele>305</ele>
        <time>2017-10-21T14:40:06Z</time>
      </trkpt>
      <trkpt lat="45.2506" lon="5.84277">
        <ele>305</ele>
        <time>2017-10-21T14:40:07Z</time>
      </trkpt>
      <trkpt lat="45.25062" lon="5.84267">
        <ele>305</ele>
        <time>2017-10-21T14:40:09Z</time>
      </trkpt>
      <trkpt lat="45.25066" lon="5.84256">
        <ele>306</ele>
        <time>2017-10-21T14:40:11Z</time>
      </trkpt>
      <trkpt lat="45.25067" lon="5.8425">
        <ele>307</ele>
        <time>2017-10-21T14:40:12Z</time>
      </trkpt>
      <trkpt lat="45.25069" lon="5.84243">
        <ele>307</ele>
        <time>2017-10-21T14:40:13Z</time>
      </trkpt>
      <trkpt lat="45.25069" lon="5.8423">
        <ele>308</ele>
        <time>2017-10-21T14:40:15Z</time>
      </trkpt>
      <trkpt lat="45.25073" lon="5.84223">
        <ele>308</ele>
        <time>2017-10-21T14:40:16Z</time>
      </trkpt>
      <trkpt lat="45.25073" lon="5.84216">
        <ele>309</ele>
        <time>2017-10-21T14:40:17Z</time>
      </trkpt>
      <trkpt lat="45.25074" lon="5.84209">
        <ele>309</ele>
        <time>2017-10-21T14:40:18Z</time>
      </trkpt>
      <trkpt lat="45.25074" lon="5.84197">
        <ele>310</ele>
        <time>2017-10-21T14:40:20Z</time>
      </trkpt>
      <trkpt lat="45.25077" lon="5.84183">
        <ele>310</ele>
        <time>2017-10-21T14:40:22Z</time>
      </trkpt>
      <trkpt lat="45.25078" lon="5.84173">
        <ele>311</ele>
        <time>2017-10-21T14:40:24Z</time>
      </trkpt>
      <trkpt lat="45.25079" lon="5.84166">
        <ele>311</ele>
        <time>2017-10-21T14:40:25Z</time>
      </trkpt>
      <trkpt lat="45.25079" lon="5.84159">
        <ele>311</ele>
        <time>2017-10-21T14:40:26Z</time>
      </trkpt>
      <trkpt lat="45.25077" lon="5.84147">
        <ele>311</ele>
        <time>2017-10-21T14:40:28Z</time>
      </trkpt>
      <trkpt lat="45.25077" lon="5.84135">
        <ele>312</ele>
        <time>2017-10-21T14:40:30Z</time>
      </trkpt>
      <trkpt lat="45.25077" lon="5.84122">
        <ele>312</ele>
        <time>2017-10-21T14:40:32Z</time>
      </trkpt>
      <trkpt lat="45.25076" lon="5.84116">
        <ele>312</ele>
        <time>2017-10-21T14:40:33Z</time>
      </trkpt>
      <trkpt lat="45.25076" lon="5.84109">
        <ele>312</ele>
        <time>2017-10-21T14:40:34Z</time>
      </trkpt>
      <trkpt lat="45.25076" lon="5.84101">
        <ele>312</ele>
        <time>2017-10-21T14:40:35Z</time>
      </trkpt>
      <trkpt lat="45.25076" lon="5.84088">
        <ele>313</ele>
        <time>2017-10-21T14:40:37Z</time>
      </trkpt>
      <trkpt lat="45.25076" lon="5.84081">
        <ele>313</ele>
        <time>2017-10-21T14:40:38Z</time>
      </trkpt>
      <trkpt lat="45.25076" lon="5.84073">
        <ele>313</ele>
        <time>2017-10-21T14:40:39Z</time>
      </trkpt>
      <trkpt lat="45.25076" lon="5.84061">
        <ele>314</ele>
        <time>2017-10-21T14:40:41Z</time>
      </trkpt>
      <trkpt lat="45.25075" lon="5.8405">
        <ele>314</ele>
        <time>2017-10-21T14:40:43Z</time>
      </trkpt>
      <trkpt lat="45.25075" lon="5.84043">
        <ele>314</ele>
        <time>2017-10-21T14:40:44Z</time>
      </trkpt>
      <trkpt lat="45.25074" lon="5.84036">
        <ele>314</ele>
        <time>2017-10-21T14:40:45Z</time>
      </trkpt>
      <trkpt lat="45.25074" lon="5.84029">
        <ele>314</ele>
        <time>2017-10-21T14:40:46Z</time>
      </trkpt>
      <trkpt lat="45.25074" lon="5.84017">
        <ele>315</ele>
        <time>2017-10-21T14:40:48Z</time>
      </trkpt>
      <trkpt lat="45.25073" lon="5.84011">
        <ele>315</ele>
        <time>2017-10-21T14:40:49Z</time>
      </trkpt>
      <trkpt lat="45.25072" lon="5.84005">
        <ele>315</ele>
        <time>2017-10-21T14:40:50Z</time>
      </trkpt>
      <trkpt lat="45.25073" lon="5.83993">
        <ele>315</ele>
        <time>2017-10-21T14:40:52Z</time>
      </trkpt>
      <trkpt lat="45.25073" lon="5.83986">
        <ele>315</ele>
        <time>2017-10-21T14:40:53Z</time>
      </trkpt>
      <trkpt lat="45.25072" lon="5.8398">
        <ele>316</ele>
        <time>2017-10-21T14:40:54Z</time>
      </trkpt>
      <trkpt lat="45.25071" lon="5.83973">
        <ele>316</ele>
        <time>2017-10-21T14:40:55Z</time>
      </trkpt>
      <trkpt lat="45.25072" lon="5.83967">
        <ele>316</ele>
        <time>2017-10-21T14:40:56Z</time>
      </trkpt>
      <trkpt lat="45.25071" lon="5.83955">
        <ele>316</ele>
        <time>2017-10-21T14:40:58Z</time>
      </trkpt>
      <trkpt lat="45.25071" lon="5.83943">
        <ele>317</ele>
        <time>2017-10-21T14:41:00Z</time>
      </trkpt>
      <trkpt lat="45.25069" lon="5.8393">
        <ele>317</ele>
        <time>2017-10-21T14:41:02Z</time>
      </trkpt>
      <trkpt lat="45.25069" lon="5.83913">
        <ele>317</ele>
        <time>2017-10-21T14:41:05Z</time>
      </trkpt>
      <trkpt lat="45.25068" lon="5.83906">
        <ele>317</ele>
        <time>2017-10-21T14:41:06Z</time>
      </trkpt>
      <trkpt lat="45.25067" lon="5.83893">
        <ele>317</ele>
        <time>2017-10-21T14:41:08Z</time>
      </trkpt>
      <trkpt lat="45.25066" lon="5.83886">
        <ele>317</ele>
        <time>2017-10-21T14:41:09Z</time>
      </trkpt>
      <trkpt lat="45.25065" lon="5.83873">
        <ele>317</ele>
        <time>2017-10-21T14:41:11Z</time>
      </trkpt>
      <trkpt lat="45.25064" lon="5.83861">
        <ele>318</ele>
        <time>2017-10-21T14:41:13Z</time>
      </trkpt>
      <trkpt lat="45.25063" lon="5.83855">
        <ele>318</ele>
        <time>2017-10-21T14:41:14Z</time>
      </trkpt>
      <trkpt lat="45.25063" lon="5.83847">
        <ele>318</ele>
        <time>2017-10-21T14:41:15Z</time>
      </trkpt>
      <trkpt lat="45.25062" lon="5.83834">
        <ele>318</ele>
        <time>2017-10-21T14:41:17Z</time>
      </trkpt>
      <trkpt lat="45.25061" lon="5.83826">
        <ele>318</ele>
        <time>2017-10-21T14:41:18Z</time>
      </trkpt>
      <trkpt lat="45.25061" lon="5.83818">
        <ele>318</ele>
        <time>2017-10-21T14:41:19Z</time>
      </trkpt>
      <trkpt lat="45.25061" lon="5.83811">
        <ele>318</ele>
        <time>2017-10-21T14:41:20Z</time>
      </trkpt>
      <trkpt lat="45.25061" lon="5.83804">
        <ele>318</ele>
        <time>2017-10-21T14:41:21Z</time>
      </trkpt>
      <trkpt lat="45.25061" lon="5.83797">
        <ele>318</ele>
        <time>2017-10-21T14:41:22Z</time>
      </trkpt>
      <trkpt lat="45.25061" lon="5.8379">
        <ele>318</ele>
        <time>2017-10-21T14:41:23Z</time>
      </trkpt>
      <trkpt lat="45.25059" lon="5.83777">
        <ele>318</ele>
        <time>2017-10-21T14:41:25Z</time>
      </trkpt>
      <trkpt lat="45.25057" lon="5.83771">
        <ele>318</ele>
        <time>2017-10-21T14:41:26Z</time>
      </trkpt>
      <trkpt lat="45.25055" lon="5.83765">
        <ele>318</ele>
        <time>2017-10-21T14:41:27Z</time>
      </trkpt>
      <trkpt lat="45.25053" lon="5.83752">
        <ele>318</ele>
        <time>2017-10-21T14:41:29Z</time>
      </trkpt>
      <trkpt lat="45.2505" lon="5.83745">
        <ele>318</ele>
        <time>2017-10-21T14:41:30Z</time>
      </trkpt>
      <trkpt lat="45.25048" lon="5.83738">
        <ele>318</ele>
        <time>2017-10-21T14:41:31Z</time>
      </trkpt>
      <trkpt lat="45.25045" lon="5.8373">
        <ele>318</ele>
        <time>2017-10-21T14:41:32Z</time>
      </trkpt>
      <trkpt lat="45.25043" lon="5.83721">
        <ele>318</ele>
        <time>2017-10-21T14:41:33Z</time>
      </trkpt>
      <trkpt lat="45.25041" lon="5.83714">
        <ele>318</ele>
        <time>2017-10-21T14:41:34Z</time>
      </trkpt>
      <trkpt lat="45.25039" lon="5.83706">
        <ele>318</ele>
        <time>2017-10-21T14:41:35Z</time>
      </trkpt>
      <trkpt lat="45.25036" lon="5.83699">
        <ele>318</ele>
        <time>2017-10-21T14:41:36Z</time>
      </trkpt>
      <trkpt lat="45.25034" lon="5.83693">
        <ele>318</ele>
        <time>2017-10-21T14:41:37Z</time>
      </trkpt>
      <trkpt lat="45.25031" lon="5.83687">
        <ele>318</ele>
        <time>2017-10-21T14:41:38Z</time>
      </trkpt>
      <trkpt lat="45.25028" lon="5.83677">
        <ele>318</ele>
        <time>2017-10-21T14:41:40Z</time>
      </trkpt>
      <trkpt lat="45.25026" lon="5.83671">
        <ele>318</ele>
        <time>2017-10-21T14:41:41Z</time>
      </trkpt>
      <trkpt lat="45.25024" lon="5.83665">
        <ele>318</ele>
        <time>2017-10-21T14:41:43Z</time>
      </trkpt>
      <trkpt lat="45.2502" lon="5.83659">
        <ele>318</ele>
        <time>2017-10-21T14:41:45Z</time>
      </trkpt>
      <trkpt lat="45.25015" lon="5.83652">
        <ele>318</ele>
        <time>2017-10-21T14:41:47Z</time>
      </trkpt>
      <trkpt lat="45.25009" lon="5.83644">
        <ele>318</ele>
        <time>2017-10-21T14:41:49Z</time>
      </trkpt>
      <trkpt lat="45.25005" lon="5.83635">
        <ele>318</ele>
        <time>2017-10-21T14:41:51Z</time>
      </trkpt>
      <trkpt lat="45.25" lon="5.83628">
        <ele>318</ele>
        <time>2017-10-21T14:41:53Z</time>
      </trkpt>
      <trkpt lat="45.24994" lon="5.83623">
        <ele>318</ele>
        <time>2017-10-21T14:41:55Z</time>
      </trkpt>
      <trkpt lat="45.24987" lon="5.83617">
        <ele>318</ele>
        <time>2017-10-21T14:41:57Z</time>
      </trkpt>
      <trkpt lat="45.24984" lon="5.83609">
        <ele>318</ele>
        <time>2017-10-21T14:42:00Z</time>
      </trkpt>
      <trkpt lat="45.24981" lon="5.83601">
        <ele>318</ele>
        <time>2017-10-21T14:42:02Z</time>
      </trkpt>
      <trkpt lat="45.24974" lon="5.83594">
        <ele>317</ele>
        <time>2017-10-21T14:42:04Z</time>
      </trkpt>
      <trkpt lat="45.2497" lon="5.83591">
        <ele>317</ele>
        <time>2017-10-21T14:42:05Z</time>
      </trkpt>
      <trkpt lat="45.24963" lon="5.83585">
        <ele>317</ele>
        <time>2017-10-21T14:42:07Z</time>
      </trkpt>
      <trkpt lat="45.24955" lon="5.8358">
        <ele>317</ele>
        <time>2017-10-21T14:42:09Z</time>
      </trkpt>
      <trkpt lat="45.24951" lon="5.83577">
        <ele>317</ele>
        <time>2017-10-21T14:42:10Z</time>
      </trkpt>
      <trkpt lat="45.24939" lon="5.83572">
        <ele>316</ele>
        <time>2017-10-21T14:42:12Z</time>
      </trkpt>
      <trkpt lat="45.24935" lon="5.83569">
        <ele>316</ele>
        <time>2017-10-21T14:42:13Z</time>
      </trkpt>
      <trkpt lat="45.24929" lon="5.83567">
        <ele>316</ele>
        <time>2017-10-21T14:42:14Z</time>
      </trkpt>
      <trkpt lat="45.24924" lon="5.83563">
        <ele>316</ele>
        <time>2017-10-21T14:42:15Z</time>
      </trkpt>
      <trkpt lat="45.2492" lon="5.83559">
        <ele>316</ele>
        <time>2017-10-21T14:42:16Z</time>
      </trkpt>
      <trkpt lat="45.24912" lon="5.83552">
        <ele>316</ele>
        <time>2017-10-21T14:42:18Z</time>
      </trkpt>
      <trkpt lat="45.24905" lon="5.83545">
        <ele>316</ele>
        <time>2017-10-21T14:42:20Z</time>
      </trkpt>
      <trkpt lat="45.24899" lon="5.83542">
        <ele>316</ele>
        <time>2017-10-21T14:42:21Z</time>
      </trkpt>
      <trkpt lat="45.24895" lon="5.83538">
        <ele>316</ele>
        <time>2017-10-21T14:42:22Z</time>
      </trkpt>
      <trkpt lat="45.24891" lon="5.83534">
        <ele>316</ele>
        <time>2017-10-21T14:42:23Z</time>
      </trkpt>
      <trkpt lat="45.24886" lon="5.83531">
        <ele>316</ele>
        <time>2017-10-21T14:42:24Z</time>
      </trkpt>
      <trkpt lat="45.24881" lon="5.83527">
        <ele>316</ele>
        <time>2017-10-21T14:42:25Z</time>
      </trkpt>
      <trkpt lat="45.24875" lon="5.83524">
        <ele>316</ele>
        <time>2017-10-21T14:42:26Z</time>
      </trkpt>
      <trkpt lat="45.2487" lon="5.83522">
        <ele>316</ele>
        <time>2017-10-21T14:42:27Z</time>
      </trkpt>
      <trkpt lat="45.2486" lon="5.83514">
        <ele>316</ele>
        <time>2017-10-21T14:42:29Z</time>
      </trkpt>
      <trkpt lat="45.24855" lon="5.83506">
        <ele>317</ele>
        <time>2017-10-21T14:42:31Z</time>
      </trkpt>
      <trkpt lat="45.24849" lon="5.83496">
        <ele>317</ele>
        <time>2017-10-21T14:42:33Z</time>
      </trkpt>
      <trkpt lat="45.24845" lon="5.83486">
        <ele>317</ele>
        <time>2017-10-21T14:42:35Z</time>
      </trkpt>
      <trkpt lat="45.24841" lon="5.8348">
        <ele>317</ele>
        <time>2017-10-21T14:42:36Z</time>
      </trkpt>
      <trkpt lat="45.24836" lon="5.83476">
        <ele>317</ele>
        <time>2017-10-21T14:42:37Z</time>
      </trkpt>
      <trkpt lat="45.24832" lon="5.83472">
        <ele>317</ele>
        <time>2017-10-21T14:42:38Z</time>
      </trkpt>
      <trkpt lat="45.24826" lon="5.83467">
        <ele>317</ele>
        <time>2017-10-21T14:42:39Z</time>
      </trkpt>
      <trkpt lat="45.24822" lon="5.83456">
        <ele>317</ele>
        <time>2017-10-21T14:42:41Z</time>
      </trkpt>
      <trkpt lat="45.24818" lon="5.83452">
        <ele>317</ele>
        <time>2017-10-21T14:42:42Z</time>
      </trkpt>
      <trkpt lat="45.24815" lon="5.83447">
        <ele>317</ele>
        <time>2017-10-21T14:42:43Z</time>
      </trkpt>
      <trkpt lat="45.24809" lon="5.83437">
        <ele>317</ele>
        <time>2017-10-21T14:42:45Z</time>
      </trkpt>
      <trkpt lat="45.24801" lon="5.83428">
        <ele>317</ele>
        <time>2017-10-21T14:42:47Z</time>
      </trkpt>
      <trkpt lat="45.24797" lon="5.83416">
        <ele>318</ele>
        <time>2017-10-21T14:42:49Z</time>
      </trkpt>
      <trkpt lat="45.24794" lon="5.83411">
        <ele>318</ele>
        <time>2017-10-21T14:42:50Z</time>
      </trkpt>
      <trkpt lat="45.24789" lon="5.83401">
        <ele>318</ele>
        <time>2017-10-21T14:42:52Z</time>
      </trkpt>
      <trkpt lat="45.24784" lon="5.83391">
        <ele>318</ele>
        <time>2017-10-21T14:42:54Z</time>
      </trkpt>
      <trkpt lat="45.24778" lon="5.83381">
        <ele>318</ele>
        <time>2017-10-21T14:42:56Z</time>
      </trkpt>
      <trkpt lat="45.24774" lon="5.83371">
        <ele>318</ele>
        <time>2017-10-21T14:42:58Z</time>
      </trkpt>
      <trkpt lat="45.24771" lon="5.83366">
        <ele>318</ele>
        <time>2017-10-21T14:42:59Z</time>
      </trkpt>
      <trkpt lat="45.24766" lon="5.83361">
        <ele>318</ele>
        <time>2017-10-21T14:43:00Z</time>
      </trkpt>
      <trkpt lat="45.24761" lon="5.83356">
        <ele>318</ele>
        <time>2017-10-21T14:43:01Z</time>
      </trkpt>
      <trkpt lat="45.24754" lon="5.83346">
        <ele>318</ele>
        <time>2017-10-21T14:43:03Z</time>
      </trkpt>
      <trkpt lat="45.24749" lon="5.83335">
        <ele>318</ele>
        <time>2017-10-21T14:43:05Z</time>
      </trkpt>
      <trkpt lat="45.24746" lon="5.8333">
        <ele>318</ele>
        <time>2017-10-21T14:43:06Z</time>
      </trkpt>
      <trkpt lat="45.24743" lon="5.83324">
        <ele>318</ele>
        <time>2017-10-21T14:43:07Z</time>
      </trkpt>
      <trkpt lat="45.2474" lon="5.83319">
        <ele>318</ele>
        <time>2017-10-21T14:43:08Z</time>
      </trkpt>
      <trkpt lat="45.24736" lon="5.83313">
        <ele>319</ele>
        <time>2017-10-21T14:43:09Z</time>
      </trkpt>
      <trkpt lat="45.24732" lon="5.83308">
        <ele>318</ele>
        <time>2017-10-21T14:43:10Z</time>
      </trkpt>
      <trkpt lat="45.2473" lon="5.83302">
        <ele>319</ele>
        <time>2017-10-21T14:43:11Z</time>
      </trkpt>
      <trkpt lat="45.24722" lon="5.83293">
        <ele>318</ele>
        <time>2017-10-21T14:43:13Z</time>
      </trkpt>
      <trkpt lat="45.2472" lon="5.83286">
        <ele>319</ele>
        <time>2017-10-21T14:43:14Z</time>
      </trkpt>
      <trkpt lat="45.24716" lon="5.83281">
        <ele>319</ele>
        <time>2017-10-21T14:43:15Z</time>
      </trkpt>
      <trkpt lat="45.24708" lon="5.83272">
        <ele>319</ele>
        <time>2017-10-21T14:43:17Z</time>
      </trkpt>
      <trkpt lat="45.24705" lon="5.83267">
        <ele>319</ele>
        <time>2017-10-21T14:43:18Z</time>
      </trkpt>
      <trkpt lat="45.247" lon="5.83262">
        <ele>319</ele>
        <time>2017-10-21T14:43:19Z</time>
      </trkpt>
      <trkpt lat="45.24697" lon="5.83257">
        <ele>319</ele>
        <time>2017-10-21T14:43:20Z</time>
      </trkpt>
      <trkpt lat="45.24693" lon="5.83252">
        <ele>319</ele>
        <time>2017-10-21T14:43:21Z</time>
      </trkpt>
      <trkpt lat="45.2469" lon="5.83246">
        <ele>319</ele>
        <time>2017-10-21T14:43:22Z</time>
      </trkpt>
      <trkpt lat="45.24687" lon="5.83241">
        <ele>319</ele>
        <time>2017-10-21T14:43:23Z</time>
      </trkpt>
      <trkpt lat="45.24684" lon="5.83235">
        <ele>319</ele>
        <time>2017-10-21T14:43:24Z</time>
      </trkpt>
      <trkpt lat="45.2468" lon="5.8323">
        <ele>319</ele>
        <time>2017-10-21T14:43:25Z</time>
      </trkpt>
      <trkpt lat="45.24677" lon="5.83225">
        <ele>319</ele>
        <time>2017-10-21T14:43:26Z</time>
      </trkpt>
      <trkpt lat="45.24674" lon="5.83219">
        <ele>319</ele>
        <time>2017-10-21T14:43:27Z</time>
      </trkpt>
      <trkpt lat="45.24672" lon="5.83213">
        <ele>319</ele>
        <time>2017-10-21T14:43:28Z</time>
      </trkpt>
      <trkpt lat="45.24668" lon="5.83208">
        <ele>319</ele>
        <time>2017-10-21T14:43:29Z</time>
      </trkpt>
      <trkpt lat="45.24661" lon="5.83199">
        <ele>320</ele>
        <time>2017-10-21T14:43:31Z</time>
      </trkpt>
      <trkpt lat="45.24657" lon="5.83193">
        <ele>320</ele>
        <time>2017-10-21T14:43:32Z</time>
      </trkpt>
      <trkpt lat="45.24652" lon="5.83189">
        <ele>319</ele>
        <time>2017-10-21T14:43:33Z</time>
      </trkpt>
      <trkpt lat="45.24647" lon="5.83178">
        <ele>320</ele>
        <time>2017-10-21T14:43:35Z</time>
      </trkpt>
      <trkpt lat="45.24644" lon="5.83172">
        <ele>320</ele>
        <time>2017-10-21T14:43:36Z</time>
      </trkpt>
      <trkpt lat="45.2464" lon="5.83166">
        <ele>320</ele>
        <time>2017-10-21T14:43:37Z</time>
      </trkpt>
      <trkpt lat="45.24637" lon="5.8316">
        <ele>320</ele>
        <time>2017-10-21T14:43:38Z</time>
      </trkpt>
      <trkpt lat="45.24633" lon="5.83155">
        <ele>320</ele>
        <time>2017-10-21T14:43:39Z</time>
      </trkpt>
      <trkpt lat="45.2463" lon="5.83149">
        <ele>320</ele>
        <time>2017-10-21T14:43:40Z</time>
      </trkpt>
      <trkpt lat="45.24626" lon="5.83143">
        <ele>320</ele>
        <time>2017-10-21T14:43:41Z</time>
      </trkpt>
      <trkpt lat="45.24622" lon="5.83138">
        <ele>320</ele>
        <time>2017-10-21T14:43:42Z</time>
      </trkpt>
      <trkpt lat="45.24618" lon="5.83132">
        <ele>320</ele>
        <time>2017-10-21T14:43:43Z</time>
      </trkpt>
      <trkpt lat="45.24615" lon="5.83127">
        <ele>320</ele>
        <time>2017-10-21T14:43:44Z</time>
      </trkpt>
      <trkpt lat="45.24612" lon="5.83121">
        <ele>320</ele>
        <time>2017-10-21T14:43:45Z</time>
      </trkpt>
      <trkpt lat="45.24608" lon="5.83116">
        <ele>320</ele>
        <time>2017-10-21T14:43:46Z</time>
      </trkpt>
      <trkpt lat="45.24604" lon="5.8311">
        <ele>320</ele>
        <time>2017-10-21T14:43:47Z</time>
      </trkpt>
      <trkpt lat="45.24601" lon="5.83105">
        <ele>320</ele>
        <time>2017-10-21T14:43:48Z</time>
      </trkpt>
      <trkpt lat="45.246" lon="5.83099">
        <ele>321</ele>
        <time>2017-10-21T14:43:49Z</time>
      </trkpt>
      <trkpt lat="45.24597" lon="5.83094">
        <ele>321</ele>
        <time>2017-10-21T14:43:50Z</time>
      </trkpt>
      <trkpt lat="45.24594" lon="5.83089">
        <ele>321</ele>
        <time>2017-10-21T14:43:51Z</time>
      </trkpt>
      <trkpt lat="45.24591" lon="5.83082">
        <ele>321</ele>
        <time>2017-10-21T14:43:52Z</time>
      </trkpt>
      <trkpt lat="45.24588" lon="5.83076">
        <ele>321</ele>
        <time>2017-10-21T14:43:53Z</time>
      </trkpt>
      <trkpt lat="45.24585" lon="5.83071">
        <ele>321</ele>
        <time>2017-10-21T14:43:54Z</time>
      </trkpt>
      <trkpt lat="45.24581" lon="5.83061">
        <ele>321</ele>
        <time>2017-10-21T14:43:56Z</time>
      </trkpt>
      <trkpt lat="45.24578" lon="5.83046">
        <ele>322</ele>
        <time>2017-10-21T14:43:58Z</time>
      </trkpt>
      <trkpt lat="45.24572" lon="5.8304">
        <ele>321</ele>
        <time>2017-10-21T14:43:59Z</time>
      </trkpt>
      <trkpt lat="45.24568" lon="5.8303">
        <ele>322</ele>
        <time>2017-10-21T14:44:01Z</time>
      </trkpt>
      <trkpt lat="45.24564" lon="5.83024">
        <ele>322</ele>
        <time>2017-10-21T14:44:02Z</time>
      </trkpt>
      <trkpt lat="45.24562" lon="5.83018">
        <ele>322</ele>
        <time>2017-10-21T14:44:03Z</time>
      </trkpt>
      <trkpt lat="45.24558" lon="5.83012">
        <ele>322</ele>
        <time>2017-10-21T14:44:04Z</time>
      </trkpt>
      <trkpt lat="45.24554" lon="5.83006">
        <ele>322</ele>
        <time>2017-10-21T14:44:05Z</time>
      </trkpt>
      <trkpt lat="45.24546" lon="5.82996">
        <ele>322</ele>
        <time>2017-10-21T14:44:07Z</time>
      </trkpt>
      <trkpt lat="45.24542" lon="5.82991">
        <ele>322</ele>
        <time>2017-10-21T14:44:08Z</time>
      </trkpt>
      <trkpt lat="45.24538" lon="5.82984">
        <ele>322</ele>
        <time>2017-10-21T14:44:09Z</time>
      </trkpt>
      <trkpt lat="45.24535" lon="5.82978">
        <ele>322</ele>
        <time>2017-10-21T14:44:10Z</time>
      </trkpt>
      <trkpt lat="45.24533" lon="5.82972">
        <ele>322</ele>
        <time>2017-10-21T14:44:11Z</time>
      </trkpt>
      <trkpt lat="45.2453" lon="5.82965">
        <ele>322</ele>
        <time>2017-10-21T14:44:12Z</time>
      </trkpt>
      <trkpt lat="45.24528" lon="5.82959">
        <ele>322</ele>
        <time>2017-10-21T14:44:13Z</time>
      </trkpt>
      <trkpt lat="45.24525" lon="5.82954">
        <ele>323</ele>
        <time>2017-10-21T14:44:14Z</time>
      </trkpt>
      <trkpt lat="45.24521" lon="5.82948">
        <ele>323</ele>
        <time>2017-10-21T14:44:15Z</time>
      </trkpt>
      <trkpt lat="45.24519" lon="5.82942">
        <ele>323</ele>
        <time>2017-10-21T14:44:16Z</time>
      </trkpt>
      <trkpt lat="45.24513" lon="5.8293">
        <ele>323</ele>
        <time>2017-10-21T14:44:18Z</time>
      </trkpt>
      <trkpt lat="45.2451" lon="5.82925">
        <ele>323</ele>
        <time>2017-10-21T14:44:19Z</time>
      </trkpt>
      <trkpt lat="45.24505" lon="5.82918">
        <ele>323</ele>
        <time>2017-10-21T14:44:20Z</time>
      </trkpt>
      <trkpt lat="45.24503" lon="5.82912">
        <ele>323</ele>
        <time>2017-10-21T14:44:21Z</time>
      </trkpt>
      <trkpt lat="45.245" lon="5.82906">
        <ele>323</ele>
        <time>2017-10-21T14:44:22Z</time>
      </trkpt>
      <trkpt lat="45.24497" lon="5.82899">
        <ele>323</ele>
        <time>2017-10-21T14:44:23Z</time>
      </trkpt>
      <trkpt lat="45.24493" lon="5.82893">
        <ele>323</ele>
        <time>2017-10-21T14:44:24Z</time>
      </trkpt>
      <trkpt lat="45.24489" lon="5.82886">
        <ele>323</ele>
        <time>2017-10-21T14:44:25Z</time>
      </trkpt>
      <trkpt lat="45.24485" lon="5.8288">
        <ele>323</ele>
        <time>2017-10-21T14:44:26Z</time>
      </trkpt>
      <trkpt lat="45.24482" lon="5.82874">
        <ele>323</ele>
        <time>2017-10-21T14:44:27Z</time>
      </trkpt>
      <trkpt lat="45.24476" lon="5.82861">
        <ele>323</ele>
        <time>2017-10-21T14:44:29Z</time>
      </trkpt>
      <trkpt lat="45.24472" lon="5.82854">
        <ele>323</ele>
        <time>2017-10-21T14:44:30Z</time>
      </trkpt>
      <trkpt lat="45.24469" lon="5.82848">
        <ele>323</ele>
        <time>2017-10-21T14:44:31Z</time>
      </trkpt>
      <trkpt lat="45.24466" lon="5.82842">
        <ele>323</ele>
        <time>2017-10-21T14:44:32Z</time>
      </trkpt>
      <trkpt lat="45.24464" lon="5.82836">
        <ele>323</ele>
        <time>2017-10-21T14:44:33Z</time>
      </trkpt>
      <trkpt lat="45.2446" lon="5.8283">
        <ele>323</ele>
        <time>2017-10-21T14:44:34Z</time>
      </trkpt>
      <trkpt lat="45.24458" lon="5.82824">
        <ele>324</ele>
        <time>2017-10-21T14:44:35Z</time>
      </trkpt>
      <trkpt lat="45.24454" lon="5.82817">
        <ele>324</ele>
        <time>2017-10-21T14:44:36Z</time>
      </trkpt>
      <trkpt lat="45.24451" lon="5.82811">
        <ele>324</ele>
        <time>2017-10-21T14:44:37Z</time>
      </trkpt>
      <trkpt lat="45.24446" lon="5.82799">
        <ele>324</ele>
        <time>2017-10-21T14:44:39Z</time>
      </trkpt>
      <trkpt lat="45.24442" lon="5.82789">
        <ele>324</ele>
        <time>2017-10-21T14:44:41Z</time>
      </trkpt>
      <trkpt lat="45.24437" lon="5.82779">
        <ele>324</ele>
        <time>2017-10-21T14:44:43Z</time>
      </trkpt>
      <trkpt lat="45.24434" lon="5.82774">
        <ele>324</ele>
        <time>2017-10-21T14:44:44Z</time>
      </trkpt>
      <trkpt lat="45.2443" lon="5.82766">
        <ele>324</ele>
        <time>2017-10-21T14:44:46Z</time>
      </trkpt>
      <trkpt lat="45.24428" lon="5.82758">
        <ele>324</ele>
        <time>2017-10-21T14:44:48Z</time>
      </trkpt>
      <trkpt lat="45.24424" lon="5.82749">
        <ele>324</ele>
        <time>2017-10-21T14:44:50Z</time>
      </trkpt>
      <trkpt lat="45.24419" lon="5.82741">
        <ele>324</ele>
        <time>2017-10-21T14:44:52Z</time>
      </trkpt>
      <trkpt lat="45.24416" lon="5.82736">
        <ele>324</ele>
        <time>2017-10-21T14:44:53Z</time>
      </trkpt>
      <trkpt lat="45.24409" lon="5.82727">
        <ele>324</ele>
        <time>2017-10-21T14:44:55Z</time>
      </trkpt>
      <trkpt lat="45.244" lon="5.82712">
        <ele>324</ele>
        <time>2017-10-21T14:44:58Z</time>
      </trkpt>
      <trkpt lat="45.24391" lon="5.82703">
        <ele>324</ele>
        <time>2017-10-21T14:45:00Z</time>
      </trkpt>
      <trkpt lat="45.24388" lon="5.82696">
        <ele>324</ele>
        <time>2017-10-21T14:45:01Z</time>
      </trkpt>
      <trkpt lat="45.24384" lon="5.82691">
        <ele>324</ele>
        <time>2017-10-21T14:45:02Z</time>
      </trkpt>
      <trkpt lat="45.2438" lon="5.82684">
        <ele>324</ele>
        <time>2017-10-21T14:45:03Z</time>
      </trkpt>
      <trkpt lat="45.24376" lon="5.82678">
        <ele>324</ele>
        <time>2017-10-21T14:45:04Z</time>
      </trkpt>
      <trkpt lat="45.24373" lon="5.82672">
        <ele>324</ele>
        <time>2017-10-21T14:45:05Z</time>
      </trkpt>
      <trkpt lat="45.24368" lon="5.82666">
        <ele>324</ele>
        <time>2017-10-21T14:45:06Z</time>
      </trkpt>
      <trkpt lat="45.24365" lon="5.82661">
        <ele>324</ele>
        <time>2017-10-21T14:45:07Z</time>
      </trkpt>
      <trkpt lat="45.24362" lon="5.82653">
        <ele>324</ele>
        <time>2017-10-21T14:45:08Z</time>
      </trkpt>
      <trkpt lat="45.24358" lon="5.82647">
        <ele>324</ele>
        <time>2017-10-21T14:45:09Z</time>
      </trkpt>
      <trkpt lat="45.24355" lon="5.82641">
        <ele>324</ele>
        <time>2017-10-21T14:45:10Z</time>
      </trkpt>
      <trkpt lat="45.24348" lon="5.82636">
        <ele>324</ele>
        <time>2017-10-21T14:45:11Z</time>
      </trkpt>
      <trkpt lat="45.24344" lon="5.8263">
        <ele>324</ele>
        <time>2017-10-21T14:45:12Z</time>
      </trkpt>
      <trkpt lat="45.24341" lon="5.82624">
        <ele>324</ele>
        <time>2017-10-21T14:45:13Z</time>
      </trkpt>
      <trkpt lat="45.24334" lon="5.82618">
        <ele>324</ele>
        <time>2017-10-21T14:45:14Z</time>
      </trkpt>
      <trkpt lat="45.24331" lon="5.82612">
        <ele>324</ele>
        <time>2017-10-21T14:45:15Z</time>
      </trkpt>
      <trkpt lat="45.24323" lon="5.82598">
        <ele>324</ele>
        <time>2017-10-21T14:45:17Z</time>
      </trkpt>
      <trkpt lat="45.24319" lon="5.82592">
        <ele>324</ele>
        <time>2017-10-21T14:45:18Z</time>
      </trkpt>
      <trkpt lat="45.24315" lon="5.82584">
        <ele>325</ele>
        <time>2017-10-21T14:45:19Z</time>
      </trkpt>
      <trkpt lat="45.24311" lon="5.82579">
        <ele>324</ele>
        <time>2017-10-21T14:45:20Z</time>
      </trkpt>
      <trkpt lat="45.24308" lon="5.82572">
        <ele>325</ele>
        <time>2017-10-21T14:45:21Z</time>
      </trkpt>
      <trkpt lat="45.24302" lon="5.82566">
        <ele>324</ele>
        <time>2017-10-21T14:45:22Z</time>
      </trkpt>
      <trkpt lat="45.24299" lon="5.8256">
        <ele>324</ele>
        <time>2017-10-21T14:45:23Z</time>
      </trkpt>
      <trkpt lat="45.24294" lon="5.82553">
        <ele>324</ele>
        <time>2017-10-21T14:45:24Z</time>
      </trkpt>
      <trkpt lat="45.24289" lon="5.82547">
        <ele>324</ele>
        <time>2017-10-21T14:45:25Z</time>
      </trkpt>
      <trkpt lat="45.24284" lon="5.82542">
        <ele>324</ele>
        <time>2017-10-21T14:45:26Z</time>
      </trkpt>
      <trkpt lat="45.24277" lon="5.8253">
        <ele>324</ele>
        <time>2017-10-21T14:45:28Z</time>
      </trkpt>
      <trkpt lat="45.24273" lon="5.82524">
        <ele>324</ele>
        <time>2017-10-21T14:45:29Z</time>
      </trkpt>
      <trkpt lat="45.24269" lon="5.82519">
        <ele>324</ele>
        <time>2017-10-21T14:45:30Z</time>
      </trkpt>
      <trkpt lat="45.24266" lon="5.82512">
        <ele>324</ele>
        <time>2017-10-21T14:45:31Z</time>
      </trkpt>
      <trkpt lat="45.24263" lon="5.82506">
        <ele>324</ele>
        <time>2017-10-21T14:45:32Z</time>
      </trkpt>
      <trkpt lat="45.2426" lon="5.825">
        <ele>324</ele>
        <time>2017-10-21T14:45:33Z</time>
      </trkpt>
      <trkpt lat="45.24257" lon="5.82495">
        <ele>324</ele>
        <time>2017-10-21T14:45:34Z</time>
      </trkpt>
      <trkpt lat="45.24254" lon="5.8249">
        <ele>324</ele>
        <time>2017-10-21T14:45:35Z</time>
      </trkpt>
      <trkpt lat="45.24249" lon="5.82485">
        <ele>324</ele>
        <time>2017-10-21T14:45:36Z</time>
      </trkpt>
      <trkpt lat="45.24246" lon="5.8248">
        <ele>324</ele>
        <time>2017-10-21T14:45:37Z</time>
      </trkpt>
      <trkpt lat="45.24243" lon="5.82473">
        <ele>324</ele>
        <time>2017-10-21T14:45:38Z</time>
      </trkpt>
      <trkpt lat="45.24239" lon="5.82469">
        <ele>324</ele>
        <time>2017-10-21T14:45:39Z</time>
      </trkpt>
      <trkpt lat="45.24236" lon="5.82463">
        <ele>324</ele>
        <time>2017-10-21T14:45:40Z</time>
      </trkpt>
      <trkpt lat="45.24232" lon="5.82457">
        <ele>324</ele>
        <time>2017-10-21T14:45:41Z</time>
      </trkpt>
      <trkpt lat="45.24229" lon="5.82452">
        <ele>324</ele>
        <time>2017-10-21T14:45:42Z</time>
      </trkpt>
      <trkpt lat="45.24225" lon="5.82445">
        <ele>324</ele>
        <time>2017-10-21T14:45:43Z</time>
      </trkpt>
      <trkpt lat="45.24222" lon="5.8244">
        <ele>323</ele>
        <time>2017-10-21T14:45:44Z</time>
      </trkpt>
      <trkpt lat="45.24219" lon="5.82434">
        <ele>323</ele>
        <time>2017-10-21T14:45:45Z</time>
      </trkpt>
      <trkpt lat="45.24215" lon="5.82428">
        <ele>323</ele>
        <time>2017-10-21T14:45:46Z</time>
      </trkpt>
      <trkpt lat="45.2421" lon="5.82422">
        <ele>323</ele>
        <time>2017-10-21T14:45:47Z</time>
      </trkpt>
      <trkpt lat="45.24206" lon="5.82414">
        <ele>323</ele>
        <time>2017-10-21T14:45:48Z</time>
      </trkpt>
      <trkpt lat="45.24204" lon="5.82406">
        <ele>323</ele>
        <time>2017-10-21T14:45:49Z</time>
      </trkpt>
      <trkpt lat="45.242" lon="5.82399">
        <ele>323</ele>
        <time>2017-10-21T14:45:50Z</time>
      </trkpt>
      <trkpt lat="45.24196" lon="5.82392">
        <ele>323</ele>
        <time>2017-10-21T14:45:51Z</time>
      </trkpt>
      <trkpt lat="45.24192" lon="5.82385">
        <ele>323</ele>
        <time>2017-10-21T14:45:52Z</time>
      </trkpt>
      <trkpt lat="45.24189" lon="5.82378">
        <ele>323</ele>
        <time>2017-10-21T14:45:53Z</time>
      </trkpt>
      <trkpt lat="45.24185" lon="5.82371">
        <ele>323</ele>
        <time>2017-10-21T14:45:54Z</time>
      </trkpt>
      <trkpt lat="45.24181" lon="5.82364">
        <ele>323</ele>
        <time>2017-10-21T14:45:55Z</time>
      </trkpt>
      <trkpt lat="45.24178" lon="5.82356">
        <ele>324</ele>
        <time>2017-10-21T14:45:56Z</time>
      </trkpt>
      <trkpt lat="45.24172" lon="5.82348">
        <ele>323</ele>
        <time>2017-10-21T14:45:57Z</time>
      </trkpt>
      <trkpt lat="45.24169" lon="5.82341">
        <ele>323</ele>
        <time>2017-10-21T14:45:58Z</time>
      </trkpt>
      <trkpt lat="45.24165" lon="5.82333">
        <ele>323</ele>
        <time>2017-10-21T14:45:59Z</time>
      </trkpt>
      <trkpt lat="45.24157" lon="5.82318">
        <ele>323</ele>
        <time>2017-10-21T14:46:01Z</time>
      </trkpt>
      <trkpt lat="45.24152" lon="5.8231">
        <ele>323</ele>
        <time>2017-10-21T14:46:02Z</time>
      </trkpt>
      <trkpt lat="45.24144" lon="5.82292">
        <ele>322</ele>
        <time>2017-10-21T14:46:04Z</time>
      </trkpt>
      <trkpt lat="45.24139" lon="5.82284">
        <ele>322</ele>
        <time>2017-10-21T14:46:05Z</time>
      </trkpt>
      <trkpt lat="45.24134" lon="5.82276">
        <ele>322</ele>
        <time>2017-10-21T14:46:06Z</time>
      </trkpt>
      <trkpt lat="45.24128" lon="5.82267">
        <ele>321</ele>
        <time>2017-10-21T14:46:07Z</time>
      </trkpt>
      <trkpt lat="45.24124" lon="5.82258">
        <ele>321</ele>
        <time>2017-10-21T14:46:08Z</time>
      </trkpt>
      <trkpt lat="45.24119" lon="5.82249">
        <ele>321</ele>
        <time>2017-10-21T14:46:09Z</time>
      </trkpt>
      <trkpt lat="45.24113" lon="5.8224">
        <ele>321</ele>
        <time>2017-10-21T14:46:10Z</time>
      </trkpt>
      <trkpt lat="45.24109" lon="5.82231">
        <ele>321</ele>
        <time>2017-10-21T14:46:11Z</time>
      </trkpt>
      <trkpt lat="45.24104" lon="5.82222">
        <ele>320</ele>
        <time>2017-10-21T14:46:12Z</time>
      </trkpt>
      <trkpt lat="45.24099" lon="5.82212">
        <ele>320</ele>
        <time>2017-10-21T14:46:13Z</time>
      </trkpt>
      <trkpt lat="45.24094" lon="5.82203">
        <ele>320</ele>
        <time>2017-10-21T14:46:14Z</time>
      </trkpt>
      <trkpt lat="45.24089" lon="5.82193">
        <ele>320</ele>
        <time>2017-10-21T14:46:15Z</time>
      </trkpt>
      <trkpt lat="45.24083" lon="5.82185">
        <ele>320</ele>
        <time>2017-10-21T14:46:16Z</time>
      </trkpt>
      <trkpt lat="45.2408" lon="5.82175">
        <ele>320</ele>
        <time>2017-10-21T14:46:17Z</time>
      </trkpt>
      <trkpt lat="45.24075" lon="5.82166">
        <ele>320</ele>
        <time>2017-10-21T14:46:18Z</time>
      </trkpt>
      <trkpt lat="45.2407" lon="5.82157">
        <ele>320</ele>
        <time>2017-10-21T14:46:19Z</time>
      </trkpt>
      <trkpt lat="45.24067" lon="5.82148">
        <ele>320</ele>
        <time>2017-10-21T14:46:20Z</time>
      </trkpt>
      <trkpt lat="45.24062" lon="5.8214">
        <ele>319</ele>
        <time>2017-10-21T14:46:21Z</time>
      </trkpt>
      <trkpt lat="45.24057" lon="5.82134">
        <ele>319</ele>
        <time>2017-10-21T14:46:22Z</time>
      </trkpt>
      <trkpt lat="45.24053" lon="5.82125">
        <ele>319</ele>
        <time>2017-10-21T14:46:23Z</time>
      </trkpt>
      <trkpt lat="45.2405" lon="5.82118">
        <ele>319</ele>
        <time>2017-10-21T14:46:24Z</time>
      </trkpt>
      <trkpt lat="45.24047" lon="5.8211">
        <ele>319</ele>
        <time>2017-10-21T14:46:25Z</time>
      </trkpt>
      <trkpt lat="45.24042" lon="5.82101">
        <ele>319</ele>
        <time>2017-10-21T14:46:26Z</time>
      </trkpt>
      <trkpt lat="45.24038" lon="5.82093">
        <ele>318</ele>
        <time>2017-10-21T14:46:27Z</time>
      </trkpt>
      <trkpt lat="45.24034" lon="5.82085">
        <ele>318</ele>
        <time>2017-10-21T14:46:28Z</time>
      </trkpt>
      <trkpt lat="45.24027" lon="5.8207">
        <ele>318</ele>
        <time>2017-10-21T14:46:30Z</time>
      </trkpt>
      <trkpt lat="45.24025" lon="5.82064">
        <ele>318</ele>
        <time>2017-10-21T14:46:31Z</time>
      </trkpt>
      <trkpt lat="45.24023" lon="5.82058">
        <ele>318</ele>
        <time>2017-10-21T14:46:32Z</time>
      </trkpt>
      <trkpt lat="45.24021" lon="5.8205">
        <ele>318</ele>
        <time>2017-10-21T14:46:33Z</time>
      </trkpt>
      <trkpt lat="45.24018" lon="5.82042">
        <ele>318</ele>
        <time>2017-10-21T14:46:34Z</time>
      </trkpt>
      <trkpt lat="45.24015" lon="5.82034">
        <ele>318</ele>
        <time>2017-10-21T14:46:35Z</time>
      </trkpt>
      <trkpt lat="45.24012" lon="5.82025">
        <ele>318</ele>
        <time>2017-10-21T14:46:36Z</time>
      </trkpt>
      <trkpt lat="45.24011" lon="5.82017">
        <ele>318</ele>
        <time>2017-10-21T14:46:37Z</time>
      </trkpt>
      <trkpt lat="45.24006" lon="5.82001">
        <ele>318</ele>
        <time>2017-10-21T14:46:39Z</time>
      </trkpt>
      <trkpt lat="45.24003" lon="5.81994">
        <ele>318</ele>
        <time>2017-10-21T14:46:40Z</time>
      </trkpt>
      <trkpt lat="45.24002" lon="5.81986">
        <ele>318</ele>
        <time>2017-10-21T14:46:41Z</time>
      </trkpt>
      <trkpt lat="45.23998" lon="5.81977">
        <ele>318</ele>
        <time>2017-10-21T14:46:42Z</time>
      </trkpt>
      <trkpt lat="45.23996" lon="5.8197">
        <ele>318</ele>
        <time>2017-10-21T14:46:43Z</time>
      </trkpt>
      <trkpt lat="45.23994" lon="5.81961">
        <ele>319</ele>
        <time>2017-10-21T14:46:44Z</time>
      </trkpt>
      <trkpt lat="45.23991" lon="5.81952">
        <ele>319</ele>
        <time>2017-10-21T14:46:45Z</time>
      </trkpt>
      <trkpt lat="45.23989" lon="5.81944">
        <ele>319</ele>
        <time>2017-10-21T14:46:46Z</time>
      </trkpt>
      <trkpt lat="45.23987" lon="5.81936">
        <ele>319</ele>
        <time>2017-10-21T14:46:47Z</time>
      </trkpt>
      <trkpt lat="45.23983" lon="5.8192">
        <ele>319</ele>
        <time>2017-10-21T14:46:49Z</time>
      </trkpt>
      <trkpt lat="45.23978" lon="5.81905">
        <ele>319</ele>
        <time>2017-10-21T14:46:51Z</time>
      </trkpt>
      <trkpt lat="45.23976" lon="5.81897">
        <ele>320</ele>
        <time>2017-10-21T14:46:52Z</time>
      </trkpt>
      <trkpt lat="45.23972" lon="5.81888">
        <ele>320</ele>
        <time>2017-10-21T14:46:53Z</time>
      </trkpt>
      <trkpt lat="45.23969" lon="5.81881">
        <ele>320</ele>
        <time>2017-10-21T14:46:54Z</time>
      </trkpt>
      <trkpt lat="45.23966" lon="5.81873">
        <ele>320</ele>
        <time>2017-10-21T14:46:55Z</time>
      </trkpt>
      <trkpt lat="45.23962" lon="5.81866">
        <ele>320</ele>
        <time>2017-10-21T14:46:56Z</time>
      </trkpt>
      <trkpt lat="45.23957" lon="5.81859">
        <ele>320</ele>
        <time>2017-10-21T14:46:57Z</time>
      </trkpt>
      <trkpt lat="45.23953" lon="5.81852">
        <ele>320</ele>
        <time>2017-10-21T14:46:58Z</time>
      </trkpt>
      <trkpt lat="45.23951" lon="5.81845">
        <ele>320</ele>
        <time>2017-10-21T14:46:59Z</time>
      </trkpt>
      <trkpt lat="45.23948" lon="5.81838">
        <ele>321</ele>
        <time>2017-10-21T14:47:00Z</time>
      </trkpt>
      <trkpt lat="45.23946" lon="5.8183">
        <ele>321</ele>
        <time>2017-10-21T14:47:01Z</time>
      </trkpt>
      <trkpt lat="45.23944" lon="5.81824">
        <ele>321</ele>
        <time>2017-10-21T14:47:02Z</time>
      </trkpt>
      <trkpt lat="45.23941" lon="5.81819">
        <ele>321</ele>
        <time>2017-10-21T14:47:03Z</time>
      </trkpt>
      <trkpt lat="45.23936" lon="5.81812">
        <ele>321</ele>
        <time>2017-10-21T14:47:04Z</time>
      </trkpt>
      <trkpt lat="45.23931" lon="5.81807">
        <ele>321</ele>
        <time>2017-10-21T14:47:05Z</time>
      </trkpt>
      <trkpt lat="45.23929" lon="5.81799">
        <ele>321</ele>
        <time>2017-10-21T14:47:06Z</time>
      </trkpt>
      <trkpt lat="45.23925" lon="5.81796">
        <ele>321</ele>
        <time>2017-10-21T14:47:07Z</time>
      </trkpt>
      <trkpt lat="45.23919" lon="5.8179">
        <ele>321</ele>
        <time>2017-10-21T14:47:08Z</time>
      </trkpt>
      <trkpt lat="45.23915" lon="5.81784">
        <ele>321</ele>
        <time>2017-10-21T14:47:09Z</time>
      </trkpt>
      <trkpt lat="45.23911" lon="5.8178">
        <ele>321</ele>
        <time>2017-10-21T14:47:10Z</time>
      </trkpt>
      <trkpt lat="45.23907" lon="5.81774">
        <ele>321</ele>
        <time>2017-10-21T14:47:11Z</time>
      </trkpt>
      <trkpt lat="45.23902" lon="5.81769">
        <ele>321</ele>
        <time>2017-10-21T14:47:12Z</time>
      </trkpt>
      <trkpt lat="45.23898" lon="5.81765">
        <ele>321</ele>
        <time>2017-10-21T14:47:13Z</time>
      </trkpt>
      <trkpt lat="45.23895" lon="5.81759">
        <ele>322</ele>
        <time>2017-10-21T14:47:14Z</time>
      </trkpt>
      <trkpt lat="45.2389" lon="5.81748">
        <ele>322</ele>
        <time>2017-10-21T14:47:16Z</time>
      </trkpt>
      <trkpt lat="45.23887" lon="5.81742">
        <ele>322</ele>
        <time>2017-10-21T14:47:17Z</time>
      </trkpt>
      <trkpt lat="45.23882" lon="5.81732">
        <ele>323</ele>
        <time>2017-10-21T14:47:19Z</time>
      </trkpt>
      <trkpt lat="45.23873" lon="5.81719">
        <ele>323</ele>
        <time>2017-10-21T14:47:22Z</time>
      </trkpt>
      <trkpt lat="45.23869" lon="5.81717">
        <ele>323</ele>
        <time>2017-10-21T14:47:38Z</time>
      </trkpt>
      <trkpt lat="45.23865" lon="5.81713">
        <ele>323</ele>
        <time>2017-10-21T14:47:49Z</time>
      </trkpt>
      <trkpt lat="45.23863" lon="5.81707">
        <ele>324</ele>
        <time>2017-10-21T14:47:53Z</time>
      </trkpt>
      <trkpt lat="45.2386" lon="5.81702">
        <ele>324</ele>
        <time>2017-10-21T14:47:59Z</time>
      </trkpt>
      <trkpt lat="45.23856" lon="5.81697">
        <ele>324</ele>
        <time>2017-10-21T14:48:01Z</time>
      </trkpt>
      <trkpt lat="45.23851" lon="5.81688">
        <ele>324</ele>
        <time>2017-10-21T14:48:03Z</time>
      </trkpt>
      <trkpt lat="45.23847" lon="5.81684">
        <ele>324</ele>
        <time>2017-10-21T14:48:04Z</time>
      </trkpt>
      <trkpt lat="45.23843" lon="5.8168">
        <ele>324</ele>
        <time>2017-10-21T14:48:05Z</time>
      </trkpt>
      <trkpt lat="45.23834" lon="5.81675">
        <ele>324</ele>
        <time>2017-10-21T14:48:06Z</time>
      </trkpt>
      <trkpt lat="45.23829" lon="5.81668">
        <ele>324</ele>
        <time>2017-10-21T14:48:07Z</time>
      </trkpt>
      <trkpt lat="45.23827" lon="5.81663">
        <ele>324</ele>
        <time>2017-10-21T14:48:08Z</time>
      </trkpt>
      <trkpt lat="45.2383" lon="5.81653">
        <ele>325</ele>
        <time>2017-10-21T14:48:09Z</time>
      </trkpt>
      <trkpt lat="45.23827" lon="5.81647">
        <ele>325</ele>
        <time>2017-10-21T14:48:10Z</time>
      </trkpt>
      <trkpt lat="45.23824" lon="5.81641">
        <ele>325</ele>
        <time>2017-10-21T14:48:11Z</time>
      </trkpt>
      <trkpt lat="45.2382" lon="5.81634">
        <ele>325</ele>
        <time>2017-10-21T14:48:12Z</time>
      </trkpt>
      <trkpt lat="45.23815" lon="5.81628">
        <ele>325</ele>
        <time>2017-10-21T14:48:13Z</time>
      </trkpt>
      <trkpt lat="45.23811" lon="5.81622">
        <ele>325</ele>
        <time>2017-10-21T14:48:14Z</time>
      </trkpt>
      <trkpt lat="45.23805" lon="5.81616">
        <ele>325</ele>
        <time>2017-10-21T14:48:15Z</time>
      </trkpt>
      <trkpt lat="45.23798" lon="5.81604">
        <ele>326</ele>
        <time>2017-10-21T14:48:17Z</time>
      </trkpt>
      <trkpt lat="45.23791" lon="5.81596">
        <ele>326</ele>
        <time>2017-10-21T14:48:18Z</time>
      </trkpt>
      <trkpt lat="45.23784" lon="5.81591">
        <ele>326</ele>
        <time>2017-10-21T14:48:19Z</time>
      </trkpt>
      <trkpt lat="45.23779" lon="5.81584">
        <ele>326</ele>
        <time>2017-10-21T14:48:20Z</time>
      </trkpt>
      <trkpt lat="45.23774" lon="5.81576">
        <ele>326</ele>
        <time>2017-10-21T14:48:21Z</time>
      </trkpt>
      <trkpt lat="45.23771" lon="5.8157">
        <ele>326</ele>
        <time>2017-10-21T14:48:22Z</time>
      </trkpt>
      <trkpt lat="45.23767" lon="5.81563">
        <ele>326</ele>
        <time>2017-10-21T14:48:23Z</time>
      </trkpt>
      <trkpt lat="45.23764" lon="5.81558">
        <ele>326</ele>
        <time>2017-10-21T14:48:24Z</time>
      </trkpt>
      <trkpt lat="45.23761" lon="5.81551">
        <ele>326</ele>
        <time>2017-10-21T14:48:25Z</time>
      </trkpt>
      <trkpt lat="45.23757" lon="5.81544">
        <ele>326</ele>
        <time>2017-10-21T14:48:26Z</time>
      </trkpt>
      <trkpt lat="45.23754" lon="5.81538">
        <ele>327</ele>
        <time>2017-10-21T14:48:27Z</time>
      </trkpt>
      <trkpt lat="45.2375" lon="5.81531">
        <ele>327</ele>
        <time>2017-10-21T14:48:28Z</time>
      </trkpt>
      <trkpt lat="45.23745" lon="5.81526">
        <ele>326</ele>
        <time>2017-10-21T14:48:29Z</time>
      </trkpt>
      <trkpt lat="45.23738" lon="5.81514">
        <ele>327</ele>
        <time>2017-10-21T14:48:31Z</time>
      </trkpt>
      <trkpt lat="45.23732" lon="5.81508">
        <ele>326</ele>
        <time>2017-10-21T14:48:32Z</time>
      </trkpt>
      <trkpt lat="45.23729" lon="5.81502">
        <ele>326</ele>
        <time>2017-10-21T14:48:33Z</time>
      </trkpt>
      <trkpt lat="45.23726" lon="5.81495">
        <ele>326</ele>
        <time>2017-10-21T14:48:34Z</time>
      </trkpt>
      <trkpt lat="45.23721" lon="5.81489">
        <ele>326</ele>
        <time>2017-10-21T14:48:35Z</time>
      </trkpt>
      <trkpt lat="45.23716" lon="5.81482">
        <ele>326</ele>
        <time>2017-10-21T14:48:36Z</time>
      </trkpt>
      <trkpt lat="45.23712" lon="5.81474">
        <ele>326</ele>
        <time>2017-10-21T14:48:37Z</time>
      </trkpt>
      <trkpt lat="45.23708" lon="5.81467">
        <ele>326</ele>
        <time>2017-10-21T14:48:38Z</time>
      </trkpt>
      <trkpt lat="45.23703" lon="5.81459">
        <ele>326</ele>
        <time>2017-10-21T14:48:39Z</time>
      </trkpt>
      <trkpt lat="45.237" lon="5.81453">
        <ele>326</ele>
        <time>2017-10-21T14:48:40Z</time>
      </trkpt>
      <trkpt lat="45.23695" lon="5.81447">
        <ele>326</ele>
        <time>2017-10-21T14:48:41Z</time>
      </trkpt>
      <trkpt lat="45.23691" lon="5.81439">
        <ele>326</ele>
        <time>2017-10-21T14:48:42Z</time>
      </trkpt>
      <trkpt lat="45.23687" lon="5.81433">
        <ele>326</ele>
        <time>2017-10-21T14:48:43Z</time>
      </trkpt>
      <trkpt lat="45.23683" lon="5.81426">
        <ele>326</ele>
        <time>2017-10-21T14:48:44Z</time>
      </trkpt>
      <trkpt lat="45.23679" lon="5.81418">
        <ele>326</ele>
        <time>2017-10-21T14:48:45Z</time>
      </trkpt>
      <trkpt lat="45.23675" lon="5.81413">
        <ele>326</ele>
        <time>2017-10-21T14:48:46Z</time>
      </trkpt>
      <trkpt lat="45.23671" lon="5.81406">
        <ele>326</ele>
        <time>2017-10-21T14:48:47Z</time>
      </trkpt>
      <trkpt lat="45.23668" lon="5.814">
        <ele>326</ele>
        <time>2017-10-21T14:48:48Z</time>
      </trkpt>
      <trkpt lat="45.23665" lon="5.81394">
        <ele>326</ele>
        <time>2017-10-21T14:48:49Z</time>
      </trkpt>
      <trkpt lat="45.2366" lon="5.81386">
        <ele>326</ele>
        <time>2017-10-21T14:48:50Z</time>
      </trkpt>
      <trkpt lat="45.23656" lon="5.81381">
        <ele>326</ele>
        <time>2017-10-21T14:48:51Z</time>
      </trkpt>
      <trkpt lat="45.23652" lon="5.81375">
        <ele>326</ele>
        <time>2017-10-21T14:48:52Z</time>
      </trkpt>
      <trkpt lat="45.23643" lon="5.81364">
        <ele>326</ele>
        <time>2017-10-21T14:48:54Z</time>
      </trkpt>
      <trkpt lat="45.23637" lon="5.81357">
        <ele>325</ele>
        <time>2017-10-21T14:48:55Z</time>
      </trkpt>
      <trkpt lat="45.23634" lon="5.81351">
        <ele>325</ele>
        <time>2017-10-21T14:48:56Z</time>
      </trkpt>
      <trkpt lat="45.2363" lon="5.81345">
        <ele>325</ele>
        <time>2017-10-21T14:48:57Z</time>
      </trkpt>
      <trkpt lat="45.23625" lon="5.81339">
        <ele>325</ele>
        <time>2017-10-21T14:48:58Z</time>
      </trkpt>
      <trkpt lat="45.2362" lon="5.81333">
        <ele>325</ele>
        <time>2017-10-21T14:48:59Z</time>
      </trkpt>
      <trkpt lat="45.23615" lon="5.81328">
        <ele>325</ele>
        <time>2017-10-21T14:49:00Z</time>
      </trkpt>
      <trkpt lat="45.23611" lon="5.81321">
        <ele>325</ele>
        <time>2017-10-21T14:49:01Z</time>
      </trkpt>
      <trkpt lat="45.23607" lon="5.81316">
        <ele>325</ele>
        <time>2017-10-21T14:49:02Z</time>
      </trkpt>
      <trkpt lat="45.23602" lon="5.81309">
        <ele>325</ele>
        <time>2017-10-21T14:49:03Z</time>
      </trkpt>
      <trkpt lat="45.23598" lon="5.81302">
        <ele>325</ele>
        <time>2017-10-21T14:49:04Z</time>
      </trkpt>
      <trkpt lat="45.23597" lon="5.81295">
        <ele>325</ele>
        <time>2017-10-21T14:49:05Z</time>
      </trkpt>
      <trkpt lat="45.23592" lon="5.81289">
        <ele>325</ele>
        <time>2017-10-21T14:49:06Z</time>
      </trkpt>
      <trkpt lat="45.23587" lon="5.81282">
        <ele>325</ele>
        <time>2017-10-21T14:49:07Z</time>
      </trkpt>
      <trkpt lat="45.23582" lon="5.81274">
        <ele>325</ele>
        <time>2017-10-21T14:49:08Z</time>
      </trkpt>
      <trkpt lat="45.23576" lon="5.81267">
        <ele>325</ele>
        <time>2017-10-21T14:49:09Z</time>
      </trkpt>
      <trkpt lat="45.2357" lon="5.81261">
        <ele>324</ele>
        <time>2017-10-21T14:49:10Z</time>
      </trkpt>
      <trkpt lat="45.23567" lon="5.81254">
        <ele>324</ele>
        <time>2017-10-21T14:49:11Z</time>
      </trkpt>
      <trkpt lat="45.23564" lon="5.81247">
        <ele>324</ele>
        <time>2017-10-21T14:49:12Z</time>
      </trkpt>
      <trkpt lat="45.23557" lon="5.81239">
        <ele>324</ele>
        <time>2017-10-21T14:49:13Z</time>
      </trkpt>
      <trkpt lat="45.23552" lon="5.81232">
        <ele>324</ele>
        <time>2017-10-21T14:49:14Z</time>
      </trkpt>
      <trkpt lat="45.23548" lon="5.81225">
        <ele>324</ele>
        <time>2017-10-21T14:49:15Z</time>
      </trkpt>
      <trkpt lat="45.23542" lon="5.81217">
        <ele>324</ele>
        <time>2017-10-21T14:49:16Z</time>
      </trkpt>
      <trkpt lat="45.23537" lon="5.8121">
        <ele>323</ele>
        <time>2017-10-21T14:49:17Z</time>
      </trkpt>
      <trkpt lat="45.23532" lon="5.81204">
        <ele>323</ele>
        <time>2017-10-21T14:49:18Z</time>
      </trkpt>
      <trkpt lat="45.23527" lon="5.81196">
        <ele>323</ele>
        <time>2017-10-21T14:49:19Z</time>
      </trkpt>
      <trkpt lat="45.23521" lon="5.8119">
        <ele>323</ele>
        <time>2017-10-21T14:49:20Z</time>
      </trkpt>
      <trkpt lat="45.23515" lon="5.81182">
        <ele>323</ele>
        <time>2017-10-21T14:49:21Z</time>
      </trkpt>
      <trkpt lat="45.23513" lon="5.81173">
        <ele>323</ele>
        <time>2017-10-21T14:49:22Z</time>
      </trkpt>
      <trkpt lat="45.23507" lon="5.81166">
        <ele>322</ele>
        <time>2017-10-21T14:49:23Z</time>
      </trkpt>
      <trkpt lat="45.235" lon="5.81158">
        <ele>322</ele>
        <time>2017-10-21T14:49:24Z</time>
      </trkpt>
      <trkpt lat="45.2349" lon="5.81143">
        <ele>322</ele>
        <time>2017-10-21T14:49:26Z</time>
      </trkpt>
      <trkpt lat="45.23485" lon="5.81135">
        <ele>321</ele>
        <time>2017-10-21T14:49:27Z</time>
      </trkpt>
      <trkpt lat="45.23477" lon="5.8112">
        <ele>321</ele>
        <time>2017-10-21T14:49:29Z</time>
      </trkpt>
      <trkpt lat="45.23473" lon="5.81111">
        <ele>320</ele>
        <time>2017-10-21T14:49:30Z</time>
      </trkpt>
      <trkpt lat="45.23463" lon="5.81096">
        <ele>319</ele>
        <time>2017-10-21T14:49:32Z</time>
      </trkpt>
      <trkpt lat="45.23459" lon="5.81089">
        <ele>319</ele>
        <time>2017-10-21T14:49:33Z</time>
      </trkpt>
      <trkpt lat="45.23453" lon="5.81081">
        <ele>318</ele>
        <time>2017-10-21T14:49:34Z</time>
      </trkpt>
      <trkpt lat="45.23447" lon="5.81072">
        <ele>318</ele>
        <time>2017-10-21T14:49:35Z</time>
      </trkpt>
      <trkpt lat="45.23441" lon="5.81065">
        <ele>317</ele>
        <time>2017-10-21T14:49:36Z</time>
      </trkpt>
      <trkpt lat="45.23438" lon="5.81055">
        <ele>317</ele>
        <time>2017-10-21T14:49:37Z</time>
      </trkpt>
      <trkpt lat="45.23434" lon="5.81046">
        <ele>317</ele>
        <time>2017-10-21T14:49:38Z</time>
      </trkpt>
      <trkpt lat="45.23431" lon="5.81037">
        <ele>316</ele>
        <time>2017-10-21T14:49:39Z</time>
      </trkpt>
      <trkpt lat="45.23426" lon="5.81029">
        <ele>316</ele>
        <time>2017-10-21T14:49:40Z</time>
      </trkpt>
      <trkpt lat="45.23422" lon="5.8102">
        <ele>316</ele>
        <time>2017-10-21T14:49:41Z</time>
      </trkpt>
      <trkpt lat="45.23417" lon="5.81013">
        <ele>316</ele>
        <time>2017-10-21T14:49:42Z</time>
      </trkpt>
      <trkpt lat="45.23413" lon="5.81005">
        <ele>315</ele>
        <time>2017-10-21T14:49:43Z</time>
      </trkpt>
      <trkpt lat="45.23409" lon="5.80998">
        <ele>315</ele>
        <time>2017-10-21T14:49:44Z</time>
      </trkpt>
      <trkpt lat="45.23401" lon="5.80981">
        <ele>315</ele>
        <time>2017-10-21T14:49:46Z</time>
      </trkpt>
      <trkpt lat="45.23397" lon="5.80973">
        <ele>315</ele>
        <time>2017-10-21T14:49:47Z</time>
      </trkpt>
      <trkpt lat="45.23395" lon="5.80964">
        <ele>315</ele>
        <time>2017-10-21T14:49:48Z</time>
      </trkpt>
      <trkpt lat="45.23391" lon="5.80956">
        <ele>315</ele>
        <time>2017-10-21T14:49:49Z</time>
      </trkpt>
      <trkpt lat="45.23389" lon="5.80949">
        <ele>315</ele>
        <time>2017-10-21T14:49:50Z</time>
      </trkpt>
      <trkpt lat="45.23385" lon="5.80941">
        <ele>315</ele>
        <time>2017-10-21T14:49:51Z</time>
      </trkpt>
      <trkpt lat="45.23381" lon="5.80932">
        <ele>314</ele>
        <time>2017-10-21T14:49:52Z</time>
      </trkpt>
      <trkpt lat="45.23376" lon="5.80923">
        <ele>314</ele>
        <time>2017-10-21T14:49:53Z</time>
      </trkpt>
      <trkpt lat="45.23372" lon="5.80913">
        <ele>314</ele>
        <time>2017-10-21T14:49:54Z</time>
      </trkpt>
      <trkpt lat="45.23364" lon="5.80895">
        <ele>314</ele>
        <time>2017-10-21T14:49:56Z</time>
      </trkpt>
      <trkpt lat="45.23359" lon="5.80885">
        <ele>314</ele>
        <time>2017-10-21T14:49:57Z</time>
      </trkpt>
      <trkpt lat="45.23354" lon="5.80877">
        <ele>314</ele>
        <time>2017-10-21T14:49:58Z</time>
      </trkpt>
      <trkpt lat="45.23348" lon="5.80867">
        <ele>314</ele>
        <time>2017-10-21T14:49:59Z</time>
      </trkpt>
      <trkpt lat="45.23344" lon="5.80858">
        <ele>314</ele>
        <time>2017-10-21T14:50:00Z</time>
      </trkpt>
      <trkpt lat="45.23339" lon="5.8085">
        <ele>313</ele>
        <time>2017-10-21T14:50:01Z</time>
      </trkpt>
      <trkpt lat="45.23333" lon="5.8084">
        <ele>313</ele>
        <time>2017-10-21T14:50:02Z</time>
      </trkpt>
      <trkpt lat="45.23329" lon="5.80831">
        <ele>313</ele>
        <time>2017-10-21T14:50:03Z</time>
      </trkpt>
      <trkpt lat="45.23325" lon="5.80822">
        <ele>313</ele>
        <time>2017-10-21T14:50:04Z</time>
      </trkpt>
      <trkpt lat="45.23319" lon="5.80813">
        <ele>313</ele>
        <time>2017-10-21T14:50:05Z</time>
      </trkpt>
      <trkpt lat="45.23314" lon="5.80806">
        <ele>313</ele>
        <time>2017-10-21T14:50:06Z</time>
      </trkpt>
      <trkpt lat="45.23307" lon="5.80797">
        <ele>312</ele>
        <time>2017-10-21T14:50:07Z</time>
      </trkpt>
      <trkpt lat="45.23301" lon="5.8079">
        <ele>312</ele>
        <time>2017-10-21T14:50:08Z</time>
      </trkpt>
      <trkpt lat="45.23295" lon="5.80783">
        <ele>312</ele>
        <time>2017-10-21T14:50:09Z</time>
      </trkpt>
      <trkpt lat="45.23288" lon="5.80774">
        <ele>311</ele>
        <time>2017-10-21T14:50:10Z</time>
      </trkpt>
      <trkpt lat="45.23282" lon="5.80767">
        <ele>311</ele>
        <time>2017-10-21T14:50:11Z</time>
      </trkpt>
      <trkpt lat="45.23276" lon="5.8076">
        <ele>311</ele>
        <time>2017-10-21T14:50:12Z</time>
      </trkpt>
      <trkpt lat="45.23269" lon="5.80753">
        <ele>310</ele>
        <time>2017-10-21T14:50:13Z</time>
      </trkpt>
      <trkpt lat="45.23262" lon="5.80747">
        <ele>310</ele>
        <time>2017-10-21T14:50:14Z</time>
      </trkpt>
      <trkpt lat="45.23254" lon="5.80741">
        <ele>310</ele>
        <time>2017-10-21T14:50:15Z</time>
      </trkpt>
      <trkpt lat="45.23247" lon="5.80737">
        <ele>309</ele>
        <time>2017-10-21T14:50:16Z</time>
      </trkpt>
      <trkpt lat="45.23229" lon="5.8073">
        <ele>308</ele>
        <time>2017-10-21T14:50:18Z</time>
      </trkpt>
      <trkpt lat="45.2322" lon="5.80728">
        <ele>307</ele>
        <time>2017-10-21T14:50:19Z</time>
      </trkpt>
      <trkpt lat="45.2321" lon="5.80725">
        <ele>306</ele>
        <time>2017-10-21T14:50:20Z</time>
      </trkpt>
      <trkpt lat="45.232" lon="5.80723">
        <ele>306</ele>
        <time>2017-10-21T14:50:21Z</time>
      </trkpt>
      <trkpt lat="45.23192" lon="5.80721">
        <ele>306</ele>
        <time>2017-10-21T14:50:22Z</time>
      </trkpt>
      <trkpt lat="45.23182" lon="5.80718">
        <ele>305</ele>
        <time>2017-10-21T14:50:23Z</time>
      </trkpt>
      <trkpt lat="45.23172" lon="5.80716">
        <ele>305</ele>
        <time>2017-10-21T14:50:24Z</time>
      </trkpt>
      <trkpt lat="45.23162" lon="5.80713">
        <ele>305</ele>
        <time>2017-10-21T14:50:25Z</time>
      </trkpt>
      <trkpt lat="45.23152" lon="5.80709">
        <ele>304</ele>
        <time>2017-10-21T14:50:26Z</time>
      </trkpt>
      <trkpt lat="45.23143" lon="5.80707">
        <ele>304</ele>
        <time>2017-10-21T14:50:27Z</time>
      </trkpt>
      <trkpt lat="45.23134" lon="5.80704">
        <ele>304</ele>
        <time>2017-10-21T14:50:28Z</time>
      </trkpt>
      <trkpt lat="45.23125" lon="5.80701">
        <ele>304</ele>
        <time>2017-10-21T14:50:29Z</time>
      </trkpt>
      <trkpt lat="45.23118" lon="5.80699">
        <ele>304</ele>
        <time>2017-10-21T14:50:30Z</time>
      </trkpt>
      <trkpt lat="45.23111" lon="5.80696">
        <ele>304</ele>
        <time>2017-10-21T14:50:31Z</time>
      </trkpt>
      <trkpt lat="45.23102" lon="5.80694">
        <ele>304</ele>
        <time>2017-10-21T14:50:32Z</time>
      </trkpt>
      <trkpt lat="45.23095" lon="5.80693">
        <ele>303</ele>
        <time>2017-10-21T14:50:33Z</time>
      </trkpt>
      <trkpt lat="45.23087" lon="5.8069">
        <ele>303</ele>
        <time>2017-10-21T14:50:34Z</time>
      </trkpt>
      <trkpt lat="45.2308" lon="5.80689">
        <ele>303</ele>
        <time>2017-10-21T14:50:35Z</time>
      </trkpt>
      <trkpt lat="45.23073" lon="5.80686">
        <ele>303</ele>
        <time>2017-10-21T14:50:36Z</time>
      </trkpt>
      <trkpt lat="45.23064" lon="5.80683">
        <ele>303</ele>
        <time>2017-10-21T14:50:37Z</time>
      </trkpt>
      <trkpt lat="45.23057" lon="5.80681">
        <ele>303</ele>
        <time>2017-10-21T14:50:38Z</time>
      </trkpt>
      <trkpt lat="45.23048" lon="5.80678">
        <ele>303</ele>
        <time>2017-10-21T14:50:39Z</time>
      </trkpt>
      <trkpt lat="45.23043" lon="5.80673">
        <ele>303</ele>
        <time>2017-10-21T14:50:40Z</time>
      </trkpt>
      <trkpt lat="45.23036" lon="5.80668">
        <ele>303</ele>
        <time>2017-10-21T14:50:41Z</time>
      </trkpt>
      <trkpt lat="45.23028" lon="5.80665">
        <ele>303</ele>
        <time>2017-10-21T14:50:42Z</time>
      </trkpt>
      <trkpt lat="45.23022" lon="5.80661">
        <ele>303</ele>
        <time>2017-10-21T14:50:43Z</time>
      </trkpt>
      <trkpt lat="45.23016" lon="5.80656">
        <ele>303</ele>
        <time>2017-10-21T14:50:44Z</time>
      </trkpt>
      <trkpt lat="45.23009" lon="5.80651">
        <ele>303</ele>
        <time>2017-10-21T14:50:45Z</time>
      </trkpt>
      <trkpt lat="45.23002" lon="5.80646">
        <ele>303</ele>
        <time>2017-10-21T14:50:46Z</time>
      </trkpt>
      <trkpt lat="45.22994" lon="5.8064">
        <ele>303</ele>
        <time>2017-10-21T14:50:47Z</time>
      </trkpt>
      <trkpt lat="45.22989" lon="5.80634">
        <ele>304</ele>
        <time>2017-10-21T14:50:48Z</time>
      </trkpt>
      <trkpt lat="45.22983" lon="5.80628">
        <ele>304</ele>
        <time>2017-10-21T14:50:49Z</time>
      </trkpt>
      <trkpt lat="45.22976" lon="5.80623">
        <ele>304</ele>
        <time>2017-10-21T14:50:50Z</time>
      </trkpt>
      <trkpt lat="45.22969" lon="5.80616">
        <ele>304</ele>
        <time>2017-10-21T14:50:51Z</time>
      </trkpt>
      <trkpt lat="45.22965" lon="5.80609">
        <ele>304</ele>
        <time>2017-10-21T14:50:52Z</time>
      </trkpt>
      <trkpt lat="45.22958" lon="5.80604">
        <ele>305</ele>
        <time>2017-10-21T14:50:53Z</time>
      </trkpt>
      <trkpt lat="45.22955" lon="5.80598">
        <ele>305</ele>
        <time>2017-10-21T14:50:54Z</time>
      </trkpt>
      <trkpt lat="45.22949" lon="5.80589">
        <ele>305</ele>
        <time>2017-10-21T14:50:55Z</time>
      </trkpt>
      <trkpt lat="45.22946" lon="5.80583">
        <ele>305</ele>
        <time>2017-10-21T14:50:56Z</time>
      </trkpt>
      <trkpt lat="45.2294" lon="5.80576">
        <ele>306</ele>
        <time>2017-10-21T14:50:57Z</time>
      </trkpt>
      <trkpt lat="45.22932" lon="5.80567">
        <ele>306</ele>
        <time>2017-10-21T14:50:58Z</time>
      </trkpt>
      <trkpt lat="45.22926" lon="5.80561">
        <ele>306</ele>
        <time>2017-10-21T14:50:59Z</time>
      </trkpt>
      <trkpt lat="45.22919" lon="5.80553">
        <ele>306</ele>
        <time>2017-10-21T14:51:00Z</time>
      </trkpt>
      <trkpt lat="45.22913" lon="5.80546">
        <ele>306</ele>
        <time>2017-10-21T14:51:01Z</time>
      </trkpt>
      <trkpt lat="45.22908" lon="5.80541">
        <ele>306</ele>
        <time>2017-10-21T14:51:02Z</time>
      </trkpt>
      <trkpt lat="45.22903" lon="5.80533">
        <ele>306</ele>
        <time>2017-10-21T14:51:03Z</time>
      </trkpt>
      <trkpt lat="45.22897" lon="5.80527">
        <ele>306</ele>
        <time>2017-10-21T14:51:04Z</time>
      </trkpt>
      <trkpt lat="45.22888" lon="5.80515">
        <ele>306</ele>
        <time>2017-10-21T14:51:06Z</time>
      </trkpt>
      <trkpt lat="45.22884" lon="5.80509">
        <ele>306</ele>
        <time>2017-10-21T14:51:07Z</time>
      </trkpt>
      <trkpt lat="45.2288" lon="5.80504">
        <ele>307</ele>
        <time>2017-10-21T14:51:08Z</time>
      </trkpt>
      <trkpt lat="45.22877" lon="5.80496">
        <ele>307</ele>
        <time>2017-10-21T14:51:09Z</time>
      </trkpt>
      <trkpt lat="45.22871" lon="5.8049">
        <ele>307</ele>
        <time>2017-10-21T14:51:10Z</time>
      </trkpt>
      <trkpt lat="45.22866" lon="5.80483">
        <ele>307</ele>
        <time>2017-10-21T14:51:11Z</time>
      </trkpt>
      <trkpt lat="45.22863" lon="5.80478">
        <ele>307</ele>
        <time>2017-10-21T14:51:12Z</time>
      </trkpt>
      <trkpt lat="45.2286" lon="5.80472">
        <ele>307</ele>
        <time>2017-10-21T14:51:13Z</time>
      </trkpt>
      <trkpt lat="45.22857" lon="5.80465">
        <ele>307</ele>
        <time>2017-10-21T14:51:14Z</time>
      </trkpt>
      <trkpt lat="45.22854" lon="5.80459">
        <ele>307</ele>
        <time>2017-10-21T14:51:15Z</time>
      </trkpt>
      <trkpt lat="45.22852" lon="5.80453">
        <ele>307</ele>
        <time>2017-10-21T14:51:16Z</time>
      </trkpt>
      <trkpt lat="45.22847" lon="5.80447">
        <ele>307</ele>
        <time>2017-10-21T14:51:17Z</time>
      </trkpt>
      <trkpt lat="45.22841" lon="5.80434">
        <ele>308</ele>
        <time>2017-10-21T14:51:19Z</time>
      </trkpt>
      <trkpt lat="45.22837" lon="5.80429">
        <ele>308</ele>
        <time>2017-10-21T14:51:20Z</time>
      </trkpt>
      <trkpt lat="45.22834" lon="5.80423">
        <ele>308</ele>
        <time>2017-10-21T14:51:21Z</time>
      </trkpt>
      <trkpt lat="45.22831" lon="5.80417">
        <ele>308</ele>
        <time>2017-10-21T14:51:22Z</time>
      </trkpt>
      <trkpt lat="45.22828" lon="5.80411">
        <ele>308</ele>
        <time>2017-10-21T14:51:23Z</time>
      </trkpt>
      <trkpt lat="45.22824" lon="5.80405">
        <ele>308</ele>
        <time>2017-10-21T14:51:24Z</time>
      </trkpt>
      <trkpt lat="45.22819" lon="5.80399">
        <ele>308</ele>
        <time>2017-10-21T14:51:25Z</time>
      </trkpt>
      <trkpt lat="45.22815" lon="5.80394">
        <ele>308</ele>
        <time>2017-10-21T14:51:26Z</time>
      </trkpt>
      <trkpt lat="45.2281" lon="5.80389">
        <ele>308</ele>
        <time>2017-10-21T14:51:27Z</time>
      </trkpt>
      <trkpt lat="45.22807" lon="5.80383">
        <ele>308</ele>
        <time>2017-10-21T14:51:28Z</time>
      </trkpt>
      <trkpt lat="45.22804" lon="5.80377">
        <ele>308</ele>
        <time>2017-10-21T14:51:29Z</time>
      </trkpt>
      <trkpt lat="45.22799" lon="5.80371">
        <ele>308</ele>
        <time>2017-10-21T14:51:30Z</time>
      </trkpt>
      <trkpt lat="45.22795" lon="5.80365">
        <ele>308</ele>
        <time>2017-10-21T14:51:31Z</time>
      </trkpt>
      <trkpt lat="45.22791" lon="5.80359">
        <ele>308</ele>
        <time>2017-10-21T14:51:32Z</time>
      </trkpt>
      <trkpt lat="45.22787" lon="5.80354">
        <ele>308</ele>
        <time>2017-10-21T14:51:33Z</time>
      </trkpt>
      <trkpt lat="45.22784" lon="5.80348">
        <ele>308</ele>
        <time>2017-10-21T14:51:34Z</time>
      </trkpt>
      <trkpt lat="45.2278" lon="5.80344">
        <ele>308</ele>
        <time>2017-10-21T14:51:35Z</time>
      </trkpt>
      <trkpt lat="45.22776" lon="5.8034">
        <ele>308</ele>
        <time>2017-10-21T14:51:36Z</time>
      </trkpt>
      <trkpt lat="45.22771" lon="5.80337">
        <ele>308</ele>
        <time>2017-10-21T14:51:37Z</time>
      </trkpt>
      <trkpt lat="45.22766" lon="5.80334">
        <ele>308</ele>
        <time>2017-10-21T14:51:38Z</time>
      </trkpt>
      <trkpt lat="45.22761" lon="5.80331">
        <ele>308</ele>
        <time>2017-10-21T14:51:39Z</time>
      </trkpt>
      <trkpt lat="45.22755" lon="5.80328">
        <ele>308</ele>
        <time>2017-10-21T14:51:40Z</time>
      </trkpt>
      <trkpt lat="45.22749" lon="5.80324">
        <ele>307</ele>
        <time>2017-10-21T14:51:41Z</time>
      </trkpt>
      <trkpt lat="45.22743" lon="5.80322">
        <ele>307</ele>
        <time>2017-10-21T14:51:42Z</time>
      </trkpt>
      <trkpt lat="45.22738" lon="5.80319">
        <ele>307</ele>
        <time>2017-10-21T14:51:43Z</time>
      </trkpt>
      <trkpt lat="45.22732" lon="5.80316">
        <ele>307</ele>
        <time>2017-10-21T14:51:44Z</time>
      </trkpt>
      <trkpt lat="45.22726" lon="5.80314">
        <ele>307</ele>
        <time>2017-10-21T14:51:45Z</time>
      </trkpt>
      <trkpt lat="45.2272" lon="5.8031">
        <ele>306</ele>
        <time>2017-10-21T14:51:46Z</time>
      </trkpt>
      <trkpt lat="45.22715" lon="5.80308">
        <ele>306</ele>
        <time>2017-10-21T14:51:47Z</time>
      </trkpt>
      <trkpt lat="45.22709" lon="5.80305">
        <ele>306</ele>
        <time>2017-10-21T14:51:48Z</time>
      </trkpt>
      <trkpt lat="45.22703" lon="5.80303">
        <ele>306</ele>
        <time>2017-10-21T14:51:49Z</time>
      </trkpt>
      <trkpt lat="45.22698" lon="5.80302">
        <ele>305</ele>
        <time>2017-10-21T14:51:50Z</time>
      </trkpt>
      <trkpt lat="45.22692" lon="5.803">
        <ele>305</ele>
        <time>2017-10-21T14:51:51Z</time>
      </trkpt>
      <trkpt lat="45.22681" lon="5.80295">
        <ele>305</ele>
        <time>2017-10-21T14:51:53Z</time>
      </trkpt>
      <trkpt lat="45.22676" lon="5.80293">
        <ele>305</ele>
        <time>2017-10-21T14:51:54Z</time>
      </trkpt>
      <trkpt lat="45.22671" lon="5.80291">
        <ele>305</ele>
        <time>2017-10-21T14:51:55Z</time>
      </trkpt>
      <trkpt lat="45.22666" lon="5.80287">
        <ele>305</ele>
        <time>2017-10-21T14:51:56Z</time>
      </trkpt>
      <trkpt lat="45.22661" lon="5.80284">
        <ele>305</ele>
        <time>2017-10-21T14:51:57Z</time>
      </trkpt>
      <trkpt lat="45.22657" lon="5.80271">
        <ele>305</ele>
        <time>2017-10-21T14:51:59Z</time>
      </trkpt>
      <trkpt lat="45.22651" lon="5.80261">
        <ele>305</ele>
        <time>2017-10-21T14:52:01Z</time>
      </trkpt>
      <trkpt lat="45.2265" lon="5.80254">
        <ele>305</ele>
        <time>2017-10-21T14:52:02Z</time>
      </trkpt>
      <trkpt lat="45.22643" lon="5.80252">
        <ele>305</ele>
        <time>2017-10-21T14:52:04Z</time>
      </trkpt>
      <trkpt lat="45.22633" lon="5.80255">
        <ele>304</ele>
        <time>2017-10-21T14:52:06Z</time>
      </trkpt>
      <trkpt lat="45.22628" lon="5.80256">
        <ele>304</ele>
        <time>2017-10-21T14:52:07Z</time>
      </trkpt>
      <trkpt lat="45.22622" lon="5.80256">
        <ele>304</ele>
        <time>2017-10-21T14:52:09Z</time>
      </trkpt>
      <trkpt lat="45.22616" lon="5.80259">
        <ele>304</ele>
        <time>2017-10-21T14:52:12Z</time>
      </trkpt>
    </trkseg>
  </trk>
</gpx>